<?xml version="1.0" encoding="UTF-8" standalone="no" ?>
<gpx xmlns="http://www.topografix.com/GPX/1/1" xmlns:xsi="http://www.w3.org/2001/XMLSchema-instance" xsi:schemaLocation="http://www.topografix.com/GPX/1/1 http://www.topografix.com/GPX/1/1/gpx.xsd" version="1.1" creator="VisuGPX - https://www.visugpx.com">
  <metadata>
    <name>VILLEREAL-14juillet</name>
  </metadata>
  <trk>
    <name><![CDATA[P1 - Targon - Miramont]]></name>
    <extensions>
      <line xmlns="http://www.topografix.com/GPX/gpx_style/0/2">
        <color>0000FF</color>
        <width>4</width>
      </line>
    </extensions>
    <trkseg>
      <trkpt lat="44.73055" lon="-0.25057">
        <ele>69.418159</ele>
        <time>2022-07-11T12:55:22.257Z</time>
      </trkpt>
      <trkpt lat="44.72948" lon="-0.24767">
        <ele>70.155224</ele>
        <time>2022-07-11T12:56:09.834Z</time>
      </trkpt>
      <trkpt lat="44.72891" lon="-0.24616">
        <ele>70.276634</ele>
        <time>2022-07-11T12:56:31.354Z</time>
      </trkpt>
      <trkpt lat="44.7288" lon="-0.24565">
        <ele>70.245267</ele>
        <time>2022-07-11T12:56:37.868Z</time>
      </trkpt>
      <trkpt lat="44.72861" lon="-0.24334">
        <ele>70.810693</ele>
        <time>2022-07-11T12:57:06.760Z</time>
      </trkpt>
      <trkpt lat="44.72842" lon="-0.24162">
        <ele>73.057742</ele>
        <time>2022-07-11T12:57:36.125Z</time>
      </trkpt>
      <trkpt lat="44.72728" lon="-0.2337">
        <ele>92.358843</ele>
        <time>2022-07-11T13:00:48.628Z</time>
      </trkpt>
      <trkpt lat="44.72703" lon="-0.23033">
        <ele>92.498607</ele>
        <time>2022-07-11T13:01:27.637Z</time>
      </trkpt>
      <trkpt lat="44.72703" lon="-0.23025">
        <ele>92.452305</ele>
        <time>2022-07-11T13:01:28.457Z</time>
      </trkpt>
      <trkpt lat="44.72678" lon="-0.22629">
        <ele>91.485176</ele>
        <time>2022-07-11T13:02:14.633Z</time>
      </trkpt>
      <trkpt lat="44.72661" lon="-0.22398">
        <ele>93.051661</ele>
        <time>2022-07-11T13:02:56.526Z</time>
      </trkpt>
      <trkpt lat="44.72652" lon="-0.22349">
        <ele>93.48375</ele>
        <time>2022-07-11T13:03:05.596Z</time>
      </trkpt>
      <trkpt lat="44.7263" lon="-0.22288">
        <ele>94.066992</ele>
        <time>2022-07-11T13:03:16.391Z</time>
      </trkpt>
      <trkpt lat="44.72596" lon="-0.22235">
        <ele>94.365414</ele>
        <time>2022-07-11T13:03:25.654Z</time>
      </trkpt>
      <trkpt lat="44.72541" lon="-0.22169">
        <ele>93.802925</ele>
        <time>2022-07-11T13:03:37.329Z</time>
      </trkpt>
      <trkpt lat="44.72415" lon="-0.22021">
        <ele>92.809363</ele>
        <time>2022-07-11T13:04:03.065Z</time>
      </trkpt>
      <trkpt lat="44.7241" lon="-0.22014">
        <ele>92.778768</ele>
        <time>2022-07-11T13:04:04.366Z</time>
      </trkpt>
      <trkpt lat="44.72405" lon="-0.22008">
        <ele>92.754807</ele>
        <time>2022-07-11T13:04:05.404Z</time>
      </trkpt>
      <trkpt lat="44.72309" lon="-0.21892">
        <ele>92.291999</ele>
        <time>2022-07-11T13:04:28.720Z</time>
      </trkpt>
      <trkpt lat="44.72271" lon="-0.21831">
        <ele>92.133013</ele>
        <time>2022-07-11T13:04:40.225Z</time>
      </trkpt>
      <trkpt lat="44.72243" lon="-0.21766">
        <ele>91.983039</ele>
        <time>2022-07-11T13:04:49.418Z</time>
      </trkpt>
      <trkpt lat="44.72214" lon="-0.21658">
        <ele>90.870132</ele>
        <time>2022-07-11T13:05:01.991Z</time>
      </trkpt>
      <trkpt lat="44.72193" lon="-0.21553">
        <ele>89.173761</ele>
        <time>2022-07-11T13:05:13.103Z</time>
      </trkpt>
      <trkpt lat="44.72134" lon="-0.20971">
        <ele>77.884699</ele>
        <time>2022-07-11T13:06:11.531Z</time>
      </trkpt>
      <trkpt lat="44.72061" lon="-0.20555">
        <ele>67.715619</ele>
        <time>2022-07-11T13:06:53.130Z</time>
      </trkpt>
      <trkpt lat="44.72061" lon="-0.20479">
        <ele>65.786239</ele>
        <time>2022-07-11T13:07:00.213Z</time>
      </trkpt>
      <trkpt lat="44.72071" lon="-0.2041">
        <ele>63.883089</ele>
        <time>2022-07-11T13:07:06.665Z</time>
      </trkpt>
      <trkpt lat="44.72118" lon="-0.20207">
        <ele>58.535504</ele>
        <time>2022-07-11T13:07:26.800Z</time>
      </trkpt>
      <trkpt lat="44.72122" lon="-0.20151">
        <ele>57.825771</ele>
        <time>2022-07-11T13:07:32.504Z</time>
      </trkpt>
      <trkpt lat="44.72116" lon="-0.19976">
        <ele>55.874948</ele>
        <time>2022-07-11T13:07:51.931Z</time>
      </trkpt>
      <trkpt lat="44.72114" lon="-0.19922">
        <ele>56.408892</ele>
        <time>2022-07-11T13:07:59.581Z</time>
      </trkpt>
      <trkpt lat="44.72092" lon="-0.19874">
        <ele>56.973208</ele>
        <time>2022-07-11T13:08:09.185Z</time>
      </trkpt>
      <trkpt lat="44.7204" lon="-0.19691">
        <ele>59.603838</ele>
        <time>2022-07-11T13:08:48.247Z</time>
      </trkpt>
      <trkpt lat="44.71964" lon="-0.19702">
        <ele>61.77211</ele>
        <time>2022-07-11T13:09:11.971Z</time>
      </trkpt>
      <trkpt lat="44.71807" lon="-0.19729">
        <ele>66.44854</ele>
        <time>2022-07-11T13:10:17.809Z</time>
      </trkpt>
      <trkpt lat="44.71564" lon="-0.19592">
        <ele>74.261829</ele>
        <time>2022-07-11T13:12:08.058Z</time>
      </trkpt>
      <trkpt lat="44.71484" lon="-0.19546">
        <ele>75.689964</ele>
        <time>2022-07-11T13:12:40.810Z</time>
      </trkpt>
      <trkpt lat="44.71276" lon="-0.19458">
        <ele>77.958161</ele>
        <time>2022-07-11T13:13:53.108Z</time>
      </trkpt>
      <trkpt lat="44.71187" lon="-0.19396">
        <ele>78.374209</ele>
        <time>2022-07-11T13:14:22.593Z</time>
      </trkpt>
      <trkpt lat="44.71087" lon="-0.19306">
        <ele>78.624114</ele>
        <time>2022-07-11T13:14:58.217Z</time>
      </trkpt>
      <trkpt lat="44.71084" lon="-0.19322">
        <ele>78.648171</ele>
        <time>2022-07-11T13:15:00.009Z</time>
      </trkpt>
      <trkpt lat="44.71087" lon="-0.19306">
        <ele>78.681751</ele>
        <time>2022-07-11T13:15:02.940Z</time>
      </trkpt>
      <trkpt lat="44.71087" lon="-0.19263">
        <ele>78.783835</ele>
        <time>2022-07-11T13:15:09.131Z</time>
      </trkpt>
      <trkpt lat="44.71079" lon="-0.19203">
        <ele>78.92562</ele>
        <time>2022-07-11T13:15:18.453Z</time>
      </trkpt>
      <trkpt lat="44.71036" lon="-0.18967">
        <ele>78.545233</ele>
        <time>2022-07-11T13:15:49.659Z</time>
      </trkpt>
      <trkpt lat="44.71038" lon="-0.18898">
        <ele>78.088502</ele>
        <time>2022-07-11T13:15:57.333Z</time>
      </trkpt>
      <trkpt lat="44.71063" lon="-0.18725">
        <ele>76.172391</ele>
        <time>2022-07-11T13:16:15.847Z</time>
      </trkpt>
      <trkpt lat="44.71099" lon="-0.18451">
        <ele>72.300727</ele>
        <time>2022-07-11T13:16:46.242Z</time>
      </trkpt>
      <trkpt lat="44.71081" lon="-0.18332">
        <ele>70.658758</ele>
        <time>2022-07-11T13:16:59.711Z</time>
      </trkpt>
      <trkpt lat="44.71059" lon="-0.18036">
        <ele>66.207496</ele>
        <time>2022-07-11T13:17:32.471Z</time>
      </trkpt>
      <trkpt lat="44.71081" lon="-0.17858">
        <ele>62.386138</ele>
        <time>2022-07-11T13:17:51.065Z</time>
      </trkpt>
      <trkpt lat="44.71094" lon="-0.17667">
        <ele>56.888415</ele>
        <time>2022-07-11T13:18:09.876Z</time>
      </trkpt>
      <trkpt lat="44.71094" lon="-0.17612">
        <ele>55.23737</ele>
        <time>2022-07-11T13:18:15.055Z</time>
      </trkpt>
      <trkpt lat="44.71089" lon="-0.17569">
        <ele>53.928541</ele>
        <time>2022-07-11T13:18:19.162Z</time>
      </trkpt>
      <trkpt lat="44.71067" lon="-0.17436">
        <ele>50.455114</ele>
        <time>2022-07-11T13:18:32.448Z</time>
      </trkpt>
      <trkpt lat="44.71053" lon="-0.17345">
        <ele>48.094672</ele>
        <time>2022-07-11T13:18:42.019Z</time>
      </trkpt>
      <trkpt lat="44.71043" lon="-0.173">
        <ele>47.604107</ele>
        <time>2022-07-11T13:18:47.229Z</time>
      </trkpt>
      <trkpt lat="44.71035" lon="-0.17294">
        <ele>47.619408</ele>
        <time>2022-07-11T13:18:48.671Z</time>
      </trkpt>
      <trkpt lat="44.71023" lon="-0.173">
        <ele>47.641511</ele>
        <time>2022-07-11T13:18:50.774Z</time>
      </trkpt>
      <trkpt lat="44.70995" lon="-0.17336">
        <ele>47.708597</ele>
        <time>2022-07-11T13:18:57.702Z</time>
      </trkpt>
      <trkpt lat="44.70984" lon="-0.17337">
        <ele>47.72634</ele>
        <time>2022-07-11T13:18:59.602Z</time>
      </trkpt>
      <trkpt lat="44.70976" lon="-0.17328">
        <ele>47.74461</ele>
        <time>2022-07-11T13:19:01.825Z</time>
      </trkpt>
      <trkpt lat="44.70972" lon="-0.17312">
        <ele>47.765451</ele>
        <time>2022-07-11T13:19:04.426Z</time>
      </trkpt>
      <trkpt lat="44.70976" lon="-0.17265">
        <ele>47.824424</ele>
        <time>2022-07-11T13:19:12.452Z</time>
      </trkpt>
      <trkpt lat="44.70968" lon="-0.1721">
        <ele>48.015394</ele>
        <time>2022-07-11T13:19:22.574Z</time>
      </trkpt>
      <trkpt lat="44.70986" lon="-0.17179">
        <ele>48.696406</ele>
        <time>2022-07-11T13:19:30.406Z</time>
      </trkpt>
      <trkpt lat="44.71001" lon="-0.17128">
        <ele>49.627722</ele>
        <time>2022-07-11T13:19:41.695Z</time>
      </trkpt>
      <trkpt lat="44.71024" lon="-0.17102">
        <ele>50.323967</ele>
        <time>2022-07-11T13:19:50.403Z</time>
      </trkpt>
      <trkpt lat="44.71029" lon="-0.17088">
        <ele>50.592326</ele>
        <time>2022-07-11T13:19:53.734Z</time>
      </trkpt>
      <trkpt lat="44.71031" lon="-0.17072">
        <ele>50.878493</ele>
        <time>2022-07-11T13:19:57.306Z</time>
      </trkpt>
      <trkpt lat="44.71021" lon="-0.17031">
        <ele>51.611912</ele>
        <time>2022-07-11T13:20:06.326Z</time>
      </trkpt>
      <trkpt lat="44.7101" lon="-0.16943">
        <ele>53.065089</ele>
        <time>2022-07-11T13:20:23.655Z</time>
      </trkpt>
      <trkpt lat="44.71009" lon="-0.16927">
        <ele>53.318023</ele>
        <time>2022-07-11T13:20:26.528Z</time>
      </trkpt>
      <trkpt lat="44.71006" lon="-0.16882">
        <ele>54.04495</ele>
        <time>2022-07-11T13:20:35.410Z</time>
      </trkpt>
      <trkpt lat="44.71013" lon="-0.16825">
        <ele>54.959563</ele>
        <time>2022-07-11T13:20:46.957Z</time>
      </trkpt>
      <trkpt lat="44.71014" lon="-0.16814">
        <ele>55.133936</ele>
        <time>2022-07-11T13:20:49.165Z</time>
      </trkpt>
      <trkpt lat="44.71077" lon="-0.16825">
        <ele>56.472855</ele>
        <time>2022-07-11T13:21:05.802Z</time>
      </trkpt>
      <trkpt lat="44.71142" lon="-0.16818">
        <ele>57.650573</ele>
        <time>2022-07-11T13:21:21.996Z</time>
      </trkpt>
      <trkpt lat="44.71135" lon="-0.16656">
        <ele>59.563231</ele>
        <time>2022-07-11T13:21:51.622Z</time>
      </trkpt>
      <trkpt lat="44.71148" lon="-0.16557">
        <ele>60.21397</ele>
        <time>2022-07-11T13:22:08.512Z</time>
      </trkpt>
      <trkpt lat="44.70779" lon="-0.16302">
        <ele>63.541797</ele>
        <time>2022-07-11T13:23:33.892Z</time>
      </trkpt>
      <trkpt lat="44.70567" lon="-0.16155">
        <ele>64.307736</ele>
        <time>2022-07-11T13:24:18.729Z</time>
      </trkpt>
      <trkpt lat="44.70532" lon="-0.16126">
        <ele>64.310719</ele>
        <time>2022-07-11T13:24:25.949Z</time>
      </trkpt>
      <trkpt lat="44.70472" lon="-0.16068">
        <ele>64.31611</ele>
        <time>2022-07-11T13:24:38.770Z</time>
      </trkpt>
      <trkpt lat="44.70368" lon="-0.15946">
        <ele>64.247272</ele>
        <time>2022-07-11T13:25:02.424Z</time>
      </trkpt>
      <trkpt lat="44.70145" lon="-0.1569">
        <ele>64.137265</ele>
        <time>2022-07-11T13:25:53.420Z</time>
      </trkpt>
      <trkpt lat="44.70068" lon="-0.15583">
        <ele>64.350645</ele>
        <time>2022-07-11T13:26:12.625Z</time>
      </trkpt>
      <trkpt lat="44.70025" lon="-0.15533">
        <ele>64.460579</ele>
        <time>2022-07-11T13:26:23.393Z</time>
      </trkpt>
      <trkpt lat="44.69997" lon="-0.1551">
        <ele>64.858029</ele>
        <time>2022-07-11T13:26:30.144Z</time>
      </trkpt>
      <trkpt lat="44.69785" lon="-0.15259">
        <ele>68.597893</ele>
        <time>2022-07-11T13:27:36.317Z</time>
      </trkpt>
      <trkpt lat="44.69766" lon="-0.15236">
        <ele>68.946835</ele>
        <time>2022-07-11T13:27:41.971Z</time>
      </trkpt>
      <trkpt lat="44.69761" lon="-0.15224">
        <ele>69.101864</ele>
        <time>2022-07-11T13:27:44.551Z</time>
      </trkpt>
      <trkpt lat="44.69754" lon="-0.15223">
        <ele>69.201192</ele>
        <time>2022-07-11T13:27:46.107Z</time>
      </trkpt>
      <trkpt lat="44.69747" lon="-0.15222">
        <ele>69.297591</ele>
        <time>2022-07-11T13:27:47.569Z</time>
      </trkpt>
      <trkpt lat="44.6974" lon="-0.15221">
        <ele>69.377447</ele>
        <time>2022-07-11T13:27:49.228Z</time>
      </trkpt>
      <trkpt lat="44.69736" lon="-0.15199">
        <ele>69.520837</ele>
        <time>2022-07-11T13:27:52.982Z</time>
      </trkpt>
      <trkpt lat="44.69538" lon="-0.14968">
        <ele>71.258319</ele>
        <time>2022-07-11T13:28:46.663Z</time>
      </trkpt>
      <trkpt lat="44.69317" lon="-0.14709">
        <ele>71.055287</ele>
        <time>2022-07-11T13:29:36.624Z</time>
      </trkpt>
      <trkpt lat="44.69287" lon="-0.14666">
        <ele>70.942012</ele>
        <time>2022-07-11T13:29:43.702Z</time>
      </trkpt>
      <trkpt lat="44.69247" lon="-0.14591">
        <ele>70.764236</ele>
        <time>2022-07-11T13:29:54.929Z</time>
      </trkpt>
      <trkpt lat="44.69221" lon="-0.14514">
        <ele>70.770452</ele>
        <time>2022-07-11T13:30:05.516Z</time>
      </trkpt>
      <trkpt lat="44.69204" lon="-0.14428">
        <ele>71.314408</ele>
        <time>2022-07-11T13:30:17.797Z</time>
      </trkpt>
      <trkpt lat="44.69165" lon="-0.13988">
        <ele>74.991099</ele>
        <time>2022-07-11T13:31:31.368Z</time>
      </trkpt>
      <trkpt lat="44.69144" lon="-0.13735">
        <ele>77.014777</ele>
        <time>2022-07-11T13:32:10.886Z</time>
      </trkpt>
      <trkpt lat="44.69129" lon="-0.13644">
        <ele>77.734611</ele>
        <time>2022-07-11T13:32:25.668Z</time>
      </trkpt>
      <trkpt lat="44.69106" lon="-0.13564">
        <ele>78.39805</ele>
        <time>2022-07-11T13:32:39.381Z</time>
      </trkpt>
      <trkpt lat="44.69049" lon="-0.13435">
        <ele>79.380295</ele>
        <time>2022-07-11T13:33:03.174Z</time>
      </trkpt>
      <trkpt lat="44.69027" lon="-0.134">
        <ele>79.673252</ele>
        <time>2022-07-11T13:33:10.137Z</time>
      </trkpt>
      <trkpt lat="44.68835" lon="-0.13174">
        <ele>81.45764</ele>
        <time>2022-07-11T13:34:00.764Z</time>
      </trkpt>
      <trkpt lat="44.68738" lon="-0.13018">
        <ele>82.603495</ele>
        <time>2022-07-11T13:34:32.571Z</time>
      </trkpt>
      <trkpt lat="44.68668" lon="-0.12858">
        <ele>82.923077</ele>
        <time>2022-07-11T13:34:59.067Z</time>
      </trkpt>
      <trkpt lat="44.6854" lon="-0.12444">
        <ele>81.66396</ele>
        <time>2022-07-11T13:35:52.417Z</time>
      </trkpt>
      <trkpt lat="44.68497" lon="-0.12285">
        <ele>81.181355</ele>
        <time>2022-07-11T13:36:12.601Z</time>
      </trkpt>
      <trkpt lat="44.68474" lon="-0.12119">
        <ele>81.225709</ele>
        <time>2022-07-11T13:36:34.307Z</time>
      </trkpt>
      <trkpt lat="44.6847" lon="-0.11996">
        <ele>81.270096</ele>
        <time>2022-07-11T13:36:51.144Z</time>
      </trkpt>
      <trkpt lat="44.68477" lon="-0.11336">
        <ele>81.774352</ele>
        <time>2022-07-11T13:38:15.265Z</time>
      </trkpt>
      <trkpt lat="44.68472" lon="-0.11323">
        <ele>81.795526</ele>
        <time>2022-07-11T13:38:17.353Z</time>
      </trkpt>
      <trkpt lat="44.68467" lon="-0.11314">
        <ele>81.811624</ele>
        <time>2022-07-11T13:38:18.971Z</time>
      </trkpt>
      <trkpt lat="44.68474" lon="-0.11284">
        <ele>81.990984</ele>
        <time>2022-07-11T13:38:23.869Z</time>
      </trkpt>
      <trkpt lat="44.68478" lon="-0.11265">
        <ele>82.123964</ele>
        <time>2022-07-11T13:38:26.789Z</time>
      </trkpt>
      <trkpt lat="44.68483" lon="-0.10765">
        <ele>84.382478</ele>
        <time>2022-07-11T13:39:45.064Z</time>
      </trkpt>
      <trkpt lat="44.68482" lon="-0.10742">
        <ele>84.010791</ele>
        <time>2022-07-11T13:39:47.459Z</time>
      </trkpt>
      <trkpt lat="44.68485" lon="-0.10601">
        <ele>81.749884</ele>
        <time>2022-07-11T13:40:01.344Z</time>
      </trkpt>
      <trkpt lat="44.68493" lon="-0.10527">
        <ele>80.616375</ele>
        <time>2022-07-11T13:40:08.296Z</time>
      </trkpt>
      <trkpt lat="44.68515" lon="-0.10445">
        <ele>79.404982</ele>
        <time>2022-07-11T13:40:16.920Z</time>
      </trkpt>
      <trkpt lat="44.68542" lon="-0.10387">
        <ele>78.454922</ele>
        <time>2022-07-11T13:40:24.264Z</time>
      </trkpt>
      <trkpt lat="44.68582" lon="-0.10326">
        <ele>77.496185</ele>
        <time>2022-07-11T13:40:34.437Z</time>
      </trkpt>
      <trkpt lat="44.68619" lon="-0.10291">
        <ele>77.598881</ele>
        <time>2022-07-11T13:40:42.628Z</time>
      </trkpt>
      <trkpt lat="44.68644" lon="-0.10272">
        <ele>77.666412</ele>
        <time>2022-07-11T13:40:48.623Z</time>
      </trkpt>
      <trkpt lat="44.68786" lon="-0.10192">
        <ele>77.642847</ele>
        <time>2022-07-11T13:41:17.884Z</time>
      </trkpt>
      <trkpt lat="44.6883" lon="-0.10157">
        <ele>77.409858</ele>
        <time>2022-07-11T13:41:26.475Z</time>
      </trkpt>
      <trkpt lat="44.68874" lon="-0.10094">
        <ele>77.122409</ele>
        <time>2022-07-11T13:41:36.638Z</time>
      </trkpt>
      <trkpt lat="44.68906" lon="-0.10027">
        <ele>76.119621</ele>
        <time>2022-07-11T13:41:45.289Z</time>
      </trkpt>
      <trkpt lat="44.68923" lon="-0.0997">
        <ele>75.196911</ele>
        <time>2022-07-11T13:41:51.926Z</time>
      </trkpt>
      <trkpt lat="44.69045" lon="-0.09374">
        <ele>65.666224</ele>
        <time>2022-07-11T13:42:55.378Z</time>
      </trkpt>
      <trkpt lat="44.69051" lon="-0.09303">
        <ele>64.39499</ele>
        <time>2022-07-11T13:43:02.756Z</time>
      </trkpt>
      <trkpt lat="44.69047" lon="-0.08945">
        <ele>58.152201</ele>
        <time>2022-07-11T13:43:38.623Z</time>
      </trkpt>
      <trkpt lat="44.69047" lon="-0.08911">
        <ele>57.569951</ele>
        <time>2022-07-11T13:43:42.114Z</time>
      </trkpt>
      <trkpt lat="44.69047" lon="-0.08883">
        <ele>57.099475</ele>
        <time>2022-07-11T13:43:44.983Z</time>
      </trkpt>
      <trkpt lat="44.69042" lon="-0.08856">
        <ele>56.62156</ele>
        <time>2022-07-11T13:43:47.950Z</time>
      </trkpt>
      <trkpt lat="44.69026" lon="-0.08774">
        <ele>55.79617</ele>
        <time>2022-07-11T13:43:57.490Z</time>
      </trkpt>
      <trkpt lat="44.69005" lon="-0.08729">
        <ele>55.279536</ele>
        <time>2022-07-11T13:44:03.619Z</time>
      </trkpt>
      <trkpt lat="44.68942" lon="-0.0859">
        <ele>53.802122</ele>
        <time>2022-07-11T13:44:23.176Z</time>
      </trkpt>
      <trkpt lat="44.68819" lon="-0.08428">
        <ele>52.148531</ele>
        <time>2022-07-11T13:44:51.161Z</time>
      </trkpt>
      <trkpt lat="44.68744" lon="-0.08341">
        <ele>51.413125</ele>
        <time>2022-07-11T13:45:07.041Z</time>
      </trkpt>
      <trkpt lat="44.68676" lon="-0.08284">
        <ele>50.938162</ele>
        <time>2022-07-11T13:45:21.649Z</time>
      </trkpt>
      <trkpt lat="44.68638" lon="-0.08235">
        <ele>50.851752</ele>
        <time>2022-07-11T13:45:31.019Z</time>
      </trkpt>
      <trkpt lat="44.68672" lon="-0.08177">
        <ele>50.760208</ele>
        <time>2022-07-11T13:45:44.323Z</time>
      </trkpt>
      <trkpt lat="44.68674" lon="-0.08161">
        <ele>50.740967</ele>
        <time>2022-07-11T13:45:46.803Z</time>
      </trkpt>
      <trkpt lat="44.68595" lon="-0.08043">
        <ele>50.222866</ele>
        <time>2022-07-11T13:46:12.236Z</time>
      </trkpt>
      <trkpt lat="44.68597" lon="-0.08035">
        <ele>50.189067</ele>
        <time>2022-07-11T13:46:13.388Z</time>
      </trkpt>
      <trkpt lat="44.68537" lon="-0.07987">
        <ele>49.769695</ele>
        <time>2022-07-11T13:46:24.275Z</time>
      </trkpt>
      <trkpt lat="44.68501" lon="-0.07945">
        <ele>49.968757</ele>
        <time>2022-07-11T13:46:32.366Z</time>
      </trkpt>
      <trkpt lat="44.68468" lon="-0.07895">
        <ele>51.170253</ele>
        <time>2022-07-11T13:46:42.786Z</time>
      </trkpt>
      <trkpt lat="44.68428" lon="-0.0781">
        <ele>52.961174</ele>
        <time>2022-07-11T13:47:04.364Z</time>
      </trkpt>
      <trkpt lat="44.68418" lon="-0.07783">
        <ele>53.489884</ele>
        <time>2022-07-11T13:47:11.949Z</time>
      </trkpt>
      <trkpt lat="44.68393" lon="-0.07689">
        <ele>56.023228</ele>
        <time>2022-07-11T13:47:39.043Z</time>
      </trkpt>
      <trkpt lat="44.68388" lon="-0.07668">
        <ele>56.645374</ele>
        <time>2022-07-11T13:47:44.876Z</time>
      </trkpt>
      <trkpt lat="44.68377" lon="-0.07625">
        <ele>57.943199</ele>
        <time>2022-07-11T13:47:56.788Z</time>
      </trkpt>
      <trkpt lat="44.6835" lon="-0.07534">
        <ele>60.739214</ele>
        <time>2022-07-11T13:48:19.483Z</time>
      </trkpt>
      <trkpt lat="44.68323" lon="-0.07488">
        <ele>61.732768</ele>
        <time>2022-07-11T13:48:30.907Z</time>
      </trkpt>
      <trkpt lat="44.6831" lon="-0.07479">
        <ele>61.974984</ele>
        <time>2022-07-11T13:48:34.802Z</time>
      </trkpt>
      <trkpt lat="44.68321" lon="-0.0745">
        <ele>62.366645</ele>
        <time>2022-07-11T13:48:40.159Z</time>
      </trkpt>
      <trkpt lat="44.6832" lon="-0.07441">
        <ele>62.479552</ele>
        <time>2022-07-11T13:48:41.820Z</time>
      </trkpt>
      <trkpt lat="44.68303" lon="-0.07375">
        <ele>63.328611</ele>
        <time>2022-07-11T13:48:53.349Z</time>
      </trkpt>
      <trkpt lat="44.68292" lon="-0.07306">
        <ele>64.191518</ele>
        <time>2022-07-11T13:49:04.766Z</time>
      </trkpt>
      <trkpt lat="44.68277" lon="-0.07138">
        <ele>65.557839</ele>
        <time>2022-07-11T13:49:32.169Z</time>
      </trkpt>
      <trkpt lat="44.68274" lon="-0.07081">
        <ele>66.019012</ele>
        <time>2022-07-11T13:49:41.205Z</time>
      </trkpt>
      <trkpt lat="44.68271" lon="-0.07043">
        <ele>66.305847</ele>
        <time>2022-07-11T13:49:46.891Z</time>
      </trkpt>
      <trkpt lat="44.6825" lon="-0.06775">
        <ele>67.653259</ele>
        <time>2022-07-11T13:50:25.580Z</time>
      </trkpt>
      <trkpt lat="44.68253" lon="-0.06706">
        <ele>68.131928</ele>
        <time>2022-07-11T13:50:36.529Z</time>
      </trkpt>
      <trkpt lat="44.68257" lon="-0.06585">
        <ele>68.957164</ele>
        <time>2022-07-11T13:50:55.394Z</time>
      </trkpt>
      <trkpt lat="44.6824" lon="-0.06394">
        <ele>70.52171</ele>
        <time>2022-07-11T13:51:24.843Z</time>
      </trkpt>
      <trkpt lat="44.6827" lon="-0.06051">
        <ele>74.852719</ele>
        <time>2022-07-11T13:52:24.459Z</time>
      </trkpt>
      <trkpt lat="44.68281" lon="-0.06008">
        <ele>76.058664</ele>
        <time>2022-07-11T13:52:35.325Z</time>
      </trkpt>
      <trkpt lat="44.68369" lon="-0.05776">
        <ele>83.617939</ele>
        <time>2022-07-11T13:53:42.499Z</time>
      </trkpt>
      <trkpt lat="44.68387" lon="-0.05706">
        <ele>85.477255</ele>
        <time>2022-07-11T13:54:00.280Z</time>
      </trkpt>
      <trkpt lat="44.684" lon="-0.05576">
        <ele>88.791925</ele>
        <time>2022-07-11T13:54:29.479Z</time>
      </trkpt>
      <trkpt lat="44.68403" lon="-0.05438">
        <ele>89.926114</ele>
        <time>2022-07-11T13:54:52.855Z</time>
      </trkpt>
      <trkpt lat="44.68403" lon="-0.05391">
        <ele>90.307666</ele>
        <time>2022-07-11T13:55:00.102Z</time>
      </trkpt>
      <trkpt lat="44.68413" lon="-0.05328">
        <ele>90.837481</ele>
        <time>2022-07-11T13:55:09.334Z</time>
      </trkpt>
      <trkpt lat="44.68537" lon="-0.04846">
        <ele>87.29039</ele>
        <time>2022-07-11T13:56:06.374Z</time>
      </trkpt>
      <trkpt lat="44.68554" lon="-0.04747">
        <ele>87.533551</ele>
        <time>2022-07-11T13:56:19.277Z</time>
      </trkpt>
      <trkpt lat="44.68567" lon="-0.04499">
        <ele>88.183281</ele>
        <time>2022-07-11T13:56:56.832Z</time>
      </trkpt>
      <trkpt lat="44.6857" lon="-0.04402">
        <ele>88.462481</ele>
        <time>2022-07-11T13:57:10.228Z</time>
      </trkpt>
      <trkpt lat="44.6858" lon="-0.0422">
        <ele>88.121147</ele>
        <time>2022-07-11T13:57:32.536Z</time>
      </trkpt>
      <trkpt lat="44.68584" lon="-0.04188">
        <ele>87.988412</ele>
        <time>2022-07-11T13:57:36.309Z</time>
      </trkpt>
      <trkpt lat="44.68607" lon="-0.04104">
        <ele>87.632414</ele>
        <time>2022-07-11T13:57:46.436Z</time>
      </trkpt>
      <trkpt lat="44.68661" lon="-0.03977">
        <ele>87.366543</ele>
        <time>2022-07-11T13:58:03.708Z</time>
      </trkpt>
      <trkpt lat="44.68685" lon="-0.03893">
        <ele>87.210267</ele>
        <time>2022-07-11T13:58:15.238Z</time>
      </trkpt>
      <trkpt lat="44.68761" lon="-0.03285">
        <ele>91.092544</ele>
        <time>2022-07-11T13:59:51.349Z</time>
      </trkpt>
      <trkpt lat="44.68777" lon="-0.03199">
        <ele>91.454505</ele>
        <time>2022-07-11T14:00:03.914Z</time>
      </trkpt>
      <trkpt lat="44.68788" lon="-0.03153">
        <ele>91.652645</ele>
        <time>2022-07-11T14:00:10.521Z</time>
      </trkpt>
      <trkpt lat="44.68813" lon="-0.03034">
        <ele>91.594907</ele>
        <time>2022-07-11T14:00:26.154Z</time>
      </trkpt>
      <trkpt lat="44.68814" lon="-0.02986">
        <ele>91.5242</ele>
        <time>2022-07-11T14:00:31.977Z</time>
      </trkpt>
      <trkpt lat="44.68805" lon="-0.02903">
        <ele>91.399169</ele>
        <time>2022-07-11T14:00:42.070Z</time>
      </trkpt>
      <trkpt lat="44.68782" lon="-0.02712">
        <ele>90.929564</ele>
        <time>2022-07-11T14:01:05.359Z</time>
      </trkpt>
      <trkpt lat="44.6877" lon="-0.02653">
        <ele>90.774901</ele>
        <time>2022-07-11T14:01:12.790Z</time>
      </trkpt>
      <trkpt lat="44.68753" lon="-0.02617">
        <ele>90.583876</ele>
        <time>2022-07-11T14:01:18.172Z</time>
      </trkpt>
      <trkpt lat="44.6873" lon="-0.02585">
        <ele>90.332082</ele>
        <time>2022-07-11T14:01:23.676Z</time>
      </trkpt>
      <trkpt lat="44.68658" lon="-0.02451">
        <ele>89.381238</ele>
        <time>2022-07-11T14:01:43.093Z</time>
      </trkpt>
      <trkpt lat="44.68637" lon="-0.02387">
        <ele>88.275652</ele>
        <time>2022-07-11T14:01:50.648Z</time>
      </trkpt>
      <trkpt lat="44.68599" lon="-0.02263">
        <ele>85.828808</ele>
        <time>2022-07-11T14:02:04.427Z</time>
      </trkpt>
      <trkpt lat="44.68515" lon="-0.02123">
        <ele>80.742343</ele>
        <time>2022-07-11T14:02:21.524Z</time>
      </trkpt>
      <trkpt lat="44.6849" lon="-0.02085">
        <ele>79.041288</ele>
        <time>2022-07-11T14:02:26.221Z</time>
      </trkpt>
      <trkpt lat="44.68418" lon="-0.01965">
        <ele>73.841304</ele>
        <time>2022-07-11T14:02:40.278Z</time>
      </trkpt>
      <trkpt lat="44.68396" lon="-0.01921">
        <ele>72.028715</ele>
        <time>2022-07-11T14:02:45.029Z</time>
      </trkpt>
      <trkpt lat="44.68371" lon="-0.01846">
        <ele>69.236662</ele>
        <time>2022-07-11T14:02:52.547Z</time>
      </trkpt>
      <trkpt lat="44.68343" lon="-0.01741">
        <ele>66.660797</ele>
        <time>2022-07-11T14:03:03.297Z</time>
      </trkpt>
      <trkpt lat="44.68304" lon="-0.01596">
        <ele>63.98037</ele>
        <time>2022-07-11T14:03:19.456Z</time>
      </trkpt>
      <trkpt lat="44.6827" lon="-0.01525">
        <ele>62.597568</ele>
        <time>2022-07-11T14:03:29.097Z</time>
      </trkpt>
      <trkpt lat="44.68178" lon="-0.014">
        <ele>59.774756</ele>
        <time>2022-07-11T14:03:47.498Z</time>
      </trkpt>
      <trkpt lat="44.6816" lon="-0.01374">
        <ele>58.884144</ele>
        <time>2022-07-11T14:03:51.031Z</time>
      </trkpt>
      <trkpt lat="44.68126" lon="-0.01293">
        <ele>56.12277</ele>
        <time>2022-07-11T14:04:00.020Z</time>
      </trkpt>
      <trkpt lat="44.6811" lon="-0.01265">
        <ele>55.085134</ele>
        <time>2022-07-11T14:04:03.281Z</time>
      </trkpt>
      <trkpt lat="44.68096" lon="-0.01244">
        <ele>54.232903</ele>
        <time>2022-07-11T14:04:05.928Z</time>
      </trkpt>
      <trkpt lat="44.6803" lon="-0.01169">
        <ele>51.566826</ele>
        <time>2022-07-11T14:04:16.518Z</time>
      </trkpt>
      <trkpt lat="44.68014" lon="-0.01149">
        <ele>51.182883</ele>
        <time>2022-07-11T14:04:19.337Z</time>
      </trkpt>
      <trkpt lat="44.68009" lon="-0.01144">
        <ele>51.071621</ele>
        <time>2022-07-11T14:04:20.170Z</time>
      </trkpt>
      <trkpt lat="44.67925" lon="-0.01043">
        <ele>49.092846</ele>
        <time>2022-07-11T14:04:37.306Z</time>
      </trkpt>
      <trkpt lat="44.6776" lon="-0.00853">
        <ele>56.235986</ele>
        <time>2022-07-11T14:05:48.477Z</time>
      </trkpt>
      <trkpt lat="44.67754" lon="-0.00849">
        <ele>56.515282</ele>
        <time>2022-07-11T14:05:50.860Z</time>
      </trkpt>
      <trkpt lat="44.67729" lon="-0.00844">
        <ele>57.575843</ele>
        <time>2022-07-11T14:06:00.962Z</time>
      </trkpt>
      <trkpt lat="44.67682" lon="-0.00862">
        <ele>59.663303</ele>
        <time>2022-07-11T14:06:18.859Z</time>
      </trkpt>
      <trkpt lat="44.67672" lon="-0.00859">
        <ele>60.058809</ele>
        <time>2022-07-11T14:06:22.583Z</time>
      </trkpt>
      <trkpt lat="44.67668" lon="-0.00854">
        <ele>60.325817</ele>
        <time>2022-07-11T14:06:24.797Z</time>
      </trkpt>
      <trkpt lat="44.67661" lon="-0.0078">
        <ele>62.557668</ele>
        <time>2022-07-11T14:06:42.104Z</time>
      </trkpt>
      <trkpt lat="44.67647" lon="-0.00712">
        <ele>64.195571</ele>
        <time>2022-07-11T14:06:58.100Z</time>
      </trkpt>
      <trkpt lat="44.67639" lon="-0.00687">
        <ele>64.799119</ele>
        <time>2022-07-11T14:07:03.623Z</time>
      </trkpt>
      <trkpt lat="44.67564" lon="-0.00448">
        <ele>70.750736</ele>
        <time>2022-07-11T14:07:58.672Z</time>
      </trkpt>
      <trkpt lat="44.67552" lon="-0.00419">
        <ele>71.543907</ele>
        <time>2022-07-11T14:08:06.288Z</time>
      </trkpt>
      <trkpt lat="44.67501" lon="-0.00337">
        <ele>74.109596</ele>
        <time>2022-07-11T14:08:31.631Z</time>
      </trkpt>
      <trkpt lat="44.67458" lon="-0.00213">
        <ele>76.283068</ele>
        <time>2022-07-11T14:09:01.787Z</time>
      </trkpt>
      <trkpt lat="44.67439" lon="-0.0016">
        <ele>77.179742</ele>
        <time>2022-07-11T14:09:13.503Z</time>
      </trkpt>
      <trkpt lat="44.67349" lon="3.0E-5">
        <ele>76.166173</ele>
        <time>2022-07-11T14:09:38.619Z</time>
      </trkpt>
      <trkpt lat="44.67313" lon="0.00051">
        <ele>75.166757</ele>
        <time>2022-07-11T14:09:45.348Z</time>
      </trkpt>
      <trkpt lat="44.67288" lon="0.00138">
        <ele>72.875821</ele>
        <time>2022-07-11T14:09:53.788Z</time>
      </trkpt>
      <trkpt lat="44.67251" lon="0.00194">
        <ele>70.34932</ele>
        <time>2022-07-11T14:10:00.505Z</time>
      </trkpt>
      <trkpt lat="44.6723" lon="0.00241">
        <ele>68.538833</ele>
        <time>2022-07-11T14:10:05.441Z</time>
      </trkpt>
      <trkpt lat="44.67199" lon="0.00399">
        <ele>65.67994</ele>
        <time>2022-07-11T14:10:21.403Z</time>
      </trkpt>
      <trkpt lat="44.67192" lon="0.00448">
        <ele>65.37928</ele>
        <time>2022-07-11T14:10:27.012Z</time>
      </trkpt>
      <trkpt lat="44.6719" lon="0.00596">
        <ele>64.721397</ele>
        <time>2022-07-11T14:10:51.186Z</time>
      </trkpt>
      <trkpt lat="44.67212" lon="0.00665">
        <ele>64.701219</ele>
        <time>2022-07-11T14:11:05.530Z</time>
      </trkpt>
      <trkpt lat="44.67231" lon="0.0077">
        <ele>64.672075</ele>
        <time>2022-07-11T14:11:18.446Z</time>
      </trkpt>
      <trkpt lat="44.67233" lon="0.00854">
        <ele>63.020601</ele>
        <time>2022-07-11T14:11:26.780Z</time>
      </trkpt>
      <trkpt lat="44.67231" lon="0.01055">
        <ele>57.08651</ele>
        <time>2022-07-11T14:11:44.897Z</time>
      </trkpt>
      <trkpt lat="44.67237" lon="0.01129">
        <ele>56.05763</ele>
        <time>2022-07-11T14:11:51.572Z</time>
      </trkpt>
      <trkpt lat="44.67331" lon="0.0153">
        <ele>54.20613</ele>
        <time>2022-07-11T14:12:41.937Z</time>
      </trkpt>
      <trkpt lat="44.67354" lon="0.0165">
        <ele>58.553917</ele>
        <time>2022-07-11T14:13:16.756Z</time>
      </trkpt>
      <trkpt lat="44.67352" lon="0.01753">
        <ele>62.385541</ele>
        <time>2022-07-11T14:13:50.536Z</time>
      </trkpt>
      <trkpt lat="44.67362" lon="0.01832">
        <ele>64.408244</ele>
        <time>2022-07-11T14:14:13.025Z</time>
      </trkpt>
      <trkpt lat="44.67362" lon="0.01873">
        <ele>65.131261</ele>
        <time>2022-07-11T14:14:22.665Z</time>
      </trkpt>
      <trkpt lat="44.67343" lon="0.01923">
        <ele>66.148358</ele>
        <time>2022-07-11T14:14:32.867Z</time>
      </trkpt>
      <trkpt lat="44.67288" lon="0.02023">
        <ele>68.188298</ele>
        <time>2022-07-11T14:14:51.289Z</time>
      </trkpt>
      <trkpt lat="44.67228" lon="0.02136">
        <ele>69.111147</ele>
        <time>2022-07-11T14:15:08.873Z</time>
      </trkpt>
      <trkpt lat="44.671" lon="0.02376">
        <ele>73.492445</ele>
        <time>2022-07-11T14:16:07.113Z</time>
      </trkpt>
      <trkpt lat="44.6688" lon="0.02786">
        <ele>84.443204</ele>
        <time>2022-07-11T14:17:59.434Z</time>
      </trkpt>
      <trkpt lat="44.66637" lon="0.03243">
        <ele>89.920786</ele>
        <time>2022-07-11T14:19:35.996Z</time>
      </trkpt>
      <trkpt lat="44.66616" lon="0.03273">
        <ele>89.271771</ele>
        <time>2022-07-11T14:19:40.498Z</time>
      </trkpt>
      <trkpt lat="44.66559" lon="0.03325">
        <ele>87.751443</ele>
        <time>2022-07-11T14:19:50.274Z</time>
      </trkpt>
      <trkpt lat="44.66237" lon="0.03581">
        <ele>75.448151</ele>
        <time>2022-07-11T14:20:38.672Z</time>
      </trkpt>
      <trkpt lat="44.66222" lon="0.036">
        <ele>74.899438</ele>
        <time>2022-07-11T14:20:41.927Z</time>
      </trkpt>
      <trkpt lat="44.66199" lon="0.03646">
        <ele>74.171754</ele>
        <time>2022-07-11T14:20:48.900Z</time>
      </trkpt>
      <trkpt lat="44.66113" lon="0.03869">
        <ele>77.475181</ele>
        <time>2022-07-11T14:21:38.690Z</time>
      </trkpt>
      <trkpt lat="44.65994" lon="0.04169">
        <ele>77.838238</ele>
        <time>2022-07-11T14:22:34.227Z</time>
      </trkpt>
      <trkpt lat="44.65977" lon="0.04197">
        <ele>77.087497</ele>
        <time>2022-07-11T14:22:37.951Z</time>
      </trkpt>
      <trkpt lat="44.65853" lon="0.04348">
        <ele>69.178292</ele>
        <time>2022-07-11T14:22:57.869Z</time>
      </trkpt>
      <trkpt lat="44.65814" lon="0.04405">
        <ele>65.348213</ele>
        <time>2022-07-11T14:23:04.578Z</time>
      </trkpt>
      <trkpt lat="44.658" lon="0.0445">
        <ele>62.979736</ele>
        <time>2022-07-11T14:23:08.792Z</time>
      </trkpt>
      <trkpt lat="44.65796" lon="0.04518">
        <ele>59.519184</ele>
        <time>2022-07-11T14:23:14.717Z</time>
      </trkpt>
      <trkpt lat="44.6581" lon="0.04647">
        <ele>52.77923</ele>
        <time>2022-07-11T14:23:25.749Z</time>
      </trkpt>
      <trkpt lat="44.65808" lon="0.04679">
        <ele>51.11167</ele>
        <time>2022-07-11T14:23:28.473Z</time>
      </trkpt>
      <trkpt lat="44.65796" lon="0.04705">
        <ele>49.50856</ele>
        <time>2022-07-11T14:23:31.133Z</time>
      </trkpt>
      <trkpt lat="44.65756" lon="0.04741">
        <ele>46.159299</ele>
        <time>2022-07-11T14:23:36.683Z</time>
      </trkpt>
      <trkpt lat="44.65751" lon="0.04748">
        <ele>45.609419</ele>
        <time>2022-07-11T14:23:37.572Z</time>
      </trkpt>
      <trkpt lat="44.65729" lon="0.04786">
        <ele>43.104946</ele>
        <time>2022-07-11T14:23:41.709Z</time>
      </trkpt>
      <trkpt lat="44.65698" lon="0.04876">
        <ele>38.037717</ele>
        <time>2022-07-11T14:23:50.131Z</time>
      </trkpt>
      <trkpt lat="44.65692" lon="0.04913">
        <ele>36.408842</ele>
        <time>2022-07-11T14:23:53.468Z</time>
      </trkpt>
      <trkpt lat="44.65693" lon="0.04934">
        <ele>35.937239</ele>
        <time>2022-07-11T14:23:55.210Z</time>
      </trkpt>
      <trkpt lat="44.65704" lon="0.04976">
        <ele>34.873742</ele>
        <time>2022-07-11T14:23:59.291Z</time>
      </trkpt>
      <trkpt lat="44.65766" lon="0.05072">
        <ele>31.842163</ele>
        <time>2022-07-11T14:24:12.808Z</time>
      </trkpt>
      <trkpt lat="44.65776" lon="0.05106">
        <ele>30.976309</ele>
        <time>2022-07-11T14:24:16.633Z</time>
      </trkpt>
      <trkpt lat="44.65775" lon="0.05152">
        <ele>30.426435</ele>
        <time>2022-07-11T14:24:21.549Z</time>
      </trkpt>
      <trkpt lat="44.65654" lon="0.0558">
        <ele>26.588889</ele>
        <time>2022-07-11T14:25:13.002Z</time>
      </trkpt>
      <trkpt lat="44.6564" lon="0.05611">
        <ele>26.555958</ele>
        <time>2022-07-11T14:25:17.255Z</time>
      </trkpt>
      <trkpt lat="44.65616" lon="0.05626">
        <ele>26.583628</ele>
        <time>2022-07-11T14:25:21.658Z</time>
      </trkpt>
      <trkpt lat="44.65603" lon="0.05631">
        <ele>26.598222</ele>
        <time>2022-07-11T14:25:24.001Z</time>
      </trkpt>
      <trkpt lat="44.65614" lon="0.05662">
        <ele>26.624382</ele>
        <time>2022-07-11T14:25:28.282Z</time>
      </trkpt>
      <trkpt lat="44.65641" lon="0.05863">
        <ele>27.323868</ele>
        <time>2022-07-11T14:25:58.002Z</time>
      </trkpt>
      <trkpt lat="44.65686" lon="0.06029">
        <ele>28.822145</ele>
        <time>2022-07-11T14:26:27.979Z</time>
      </trkpt>
      <trkpt lat="44.65692" lon="0.06052">
        <ele>28.992044</ele>
        <time>2022-07-11T14:26:32.152Z</time>
      </trkpt>
      <trkpt lat="44.65786" lon="0.06418">
        <ele>30.782172</ele>
        <time>2022-07-11T14:27:30.663Z</time>
      </trkpt>
      <trkpt lat="44.65841" lon="0.06589">
        <ele>30.229656</ele>
        <time>2022-07-11T14:27:52.264Z</time>
      </trkpt>
      <trkpt lat="44.65853" lon="0.06622">
        <ele>29.955324</ele>
        <time>2022-07-11T14:27:56.294Z</time>
      </trkpt>
      <trkpt lat="44.65865" lon="0.06665">
        <ele>29.609314</ele>
        <time>2022-07-11T14:28:01.331Z</time>
      </trkpt>
      <trkpt lat="44.65902" lon="0.06857">
        <ele>28.585161</ele>
        <time>2022-07-11T14:28:23.793Z</time>
      </trkpt>
      <trkpt lat="44.65929" lon="0.06943">
        <ele>28.242903</ele>
        <time>2022-07-11T14:28:35.208Z</time>
      </trkpt>
      <trkpt lat="44.65961" lon="0.07015">
        <ele>28.368506</ele>
        <time>2022-07-11T14:28:46.939Z</time>
      </trkpt>
      <trkpt lat="44.66029" lon="0.07102">
        <ele>29.081864</ele>
        <time>2022-07-11T14:29:06.563Z</time>
      </trkpt>
      <trkpt lat="44.66053" lon="0.07147">
        <ele>29.395058</ele>
        <time>2022-07-11T14:29:15.484Z</time>
      </trkpt>
      <trkpt lat="44.66121" lon="0.07294">
        <ele>30.383823</ele>
        <time>2022-07-11T14:29:42.602Z</time>
      </trkpt>
      <trkpt lat="44.66273" lon="0.07596">
        <ele>31.7648</ele>
        <time>2022-07-11T14:30:34.420Z</time>
      </trkpt>
      <trkpt lat="44.66302" lon="0.07786">
        <ele>31.772619</ele>
        <time>2022-07-11T14:30:59.378Z</time>
      </trkpt>
      <trkpt lat="44.6639" lon="0.08372">
        <ele>29.507344</ele>
        <time>2022-07-11T14:32:10.336Z</time>
      </trkpt>
      <trkpt lat="44.66435" lon="0.08566">
        <ele>28.414891</ele>
        <time>2022-07-11T14:32:33.728Z</time>
      </trkpt>
      <trkpt lat="44.66486" lon="0.08729">
        <ele>27.632217</ele>
        <time>2022-07-11T14:32:54.231Z</time>
      </trkpt>
      <trkpt lat="44.66583" lon="0.09044">
        <ele>27.067219</ele>
        <time>2022-07-11T14:33:36.581Z</time>
      </trkpt>
      <trkpt lat="44.666" lon="0.09081">
        <ele>27.163278</ele>
        <time>2022-07-11T14:33:42.812Z</time>
      </trkpt>
      <trkpt lat="44.6666" lon="0.09162">
        <ele>27.421392</ele>
        <time>2022-07-11T14:33:59.249Z</time>
      </trkpt>
      <trkpt lat="44.66705" lon="0.09234">
        <ele>27.574536</ele>
        <time>2022-07-11T14:34:12.466Z</time>
      </trkpt>
      <trkpt lat="44.66751" lon="0.09308">
        <ele>27.559142</ele>
        <time>2022-07-11T14:34:25.342Z</time>
      </trkpt>
      <trkpt lat="44.66845" lon="0.09435">
        <ele>27.557974</ele>
        <time>2022-07-11T14:34:47.537Z</time>
      </trkpt>
      <trkpt lat="44.66885" lon="0.09539">
        <ele>27.601318</ele>
        <time>2022-07-11T14:35:02.785Z</time>
      </trkpt>
      <trkpt lat="44.67005" lon="0.09781">
        <ele>28.148485</ele>
        <time>2022-07-11T14:35:43.100Z</time>
      </trkpt>
      <trkpt lat="44.67034" lon="0.09971">
        <ele>28.599991</ele>
        <time>2022-07-11T14:36:08.725Z</time>
      </trkpt>
      <trkpt lat="44.67109" lon="0.10319">
        <ele>29.885021</ele>
        <time>2022-07-11T14:36:59.550Z</time>
      </trkpt>
      <trkpt lat="44.67145" lon="0.10426">
        <ele>30.77102</ele>
        <time>2022-07-11T14:37:18.805Z</time>
      </trkpt>
      <trkpt lat="44.67154" lon="0.10443">
        <ele>30.931576</ele>
        <time>2022-07-11T14:37:22.468Z</time>
      </trkpt>
      <trkpt lat="44.67179" lon="0.10508">
        <ele>31.483317</ele>
        <time>2022-07-11T14:37:34.222Z</time>
      </trkpt>
      <trkpt lat="44.67183" lon="0.1055">
        <ele>31.712434</ele>
        <time>2022-07-11T14:37:40.829Z</time>
      </trkpt>
      <trkpt lat="44.6718" lon="0.10706">
        <ele>32.014006</ele>
        <time>2022-07-11T14:38:02.813Z</time>
      </trkpt>
      <trkpt lat="44.67205" lon="0.11032">
        <ele>31.802763</ele>
        <time>2022-07-11T14:38:41.919Z</time>
      </trkpt>
      <trkpt lat="44.67256" lon="0.11216">
        <ele>33.911914</ele>
        <time>2022-07-11T14:39:15.510Z</time>
      </trkpt>
      <trkpt lat="44.67269" lon="0.11243">
        <ele>34.273486</ele>
        <time>2022-07-11T14:39:22.065Z</time>
      </trkpt>
      <trkpt lat="44.67283" lon="0.11259">
        <ele>34.561373</ele>
        <time>2022-07-11T14:39:27.350Z</time>
      </trkpt>
      <trkpt lat="44.67292" lon="0.11262">
        <ele>34.678407</ele>
        <time>2022-07-11T14:39:29.879Z</time>
      </trkpt>
      <trkpt lat="44.67321" lon="0.11274">
        <ele>35.033849</ele>
        <time>2022-07-11T14:39:37.897Z</time>
      </trkpt>
      <trkpt lat="44.67338" lon="0.11291">
        <ele>35.286844</ele>
        <time>2022-07-11T14:39:43.205Z</time>
      </trkpt>
      <trkpt lat="44.67358" lon="0.1136">
        <ele>35.934591</ele>
        <time>2022-07-11T14:39:55.686Z</time>
      </trkpt>
      <trkpt lat="44.67361" lon="0.11399">
        <ele>36.272296</ele>
        <time>2022-07-11T14:40:01.713Z</time>
      </trkpt>
      <trkpt lat="44.67359" lon="0.11439">
        <ele>36.614129</ele>
        <time>2022-07-11T14:40:07.643Z</time>
      </trkpt>
      <trkpt lat="44.67345" lon="0.11528">
        <ele>36.057104</ele>
        <time>2022-07-11T14:40:18.510Z</time>
      </trkpt>
      <trkpt lat="44.67339" lon="0.11599">
        <ele>35.366079</ele>
        <time>2022-07-11T14:40:26.077Z</time>
      </trkpt>
      <trkpt lat="44.67341" lon="0.11701">
        <ele>34.373504</ele>
        <time>2022-07-11T14:40:36.661Z</time>
      </trkpt>
      <trkpt lat="44.67346" lon="0.1175">
        <ele>33.946217</ele>
        <time>2022-07-11T14:40:41.816Z</time>
      </trkpt>
      <trkpt lat="44.67353" lon="0.11798">
        <ele>33.535223</ele>
        <time>2022-07-11T14:40:46.988Z</time>
      </trkpt>
      <trkpt lat="44.67368" lon="0.11953">
        <ele>32.199046</ele>
        <time>2022-07-11T14:41:04.737Z</time>
      </trkpt>
      <trkpt lat="44.67374" lon="0.11994">
        <ele>32.12947</ele>
        <time>2022-07-11T14:41:09.789Z</time>
      </trkpt>
      <trkpt lat="44.6739" lon="0.12061">
        <ele>32.064085</ele>
        <time>2022-07-11T14:41:18.783Z</time>
      </trkpt>
      <trkpt lat="44.67405" lon="0.12109">
        <ele>32.015776</ele>
        <time>2022-07-11T14:41:25.654Z</time>
      </trkpt>
      <trkpt lat="44.6741" lon="0.12125">
        <ele>32.000324</ele>
        <time>2022-07-11T14:41:27.873Z</time>
      </trkpt>
      <trkpt lat="44.67412" lon="0.12133">
        <ele>31.991996</ele>
        <time>2022-07-11T14:41:29.083Z</time>
      </trkpt>
      <trkpt lat="44.67415" lon="0.12147">
        <ele>31.978904</ele>
        <time>2022-07-11T14:41:30.914Z</time>
      </trkpt>
      <trkpt lat="44.67421" lon="0.12187">
        <ele>31.940814</ele>
        <time>2022-07-11T14:41:36.380Z</time>
      </trkpt>
      <trkpt lat="44.67423" lon="0.12243">
        <ele>31.70729</ele>
        <time>2022-07-11T14:41:43.351Z</time>
      </trkpt>
      <trkpt lat="44.67423" lon="0.12251">
        <ele>31.665629</ele>
        <time>2022-07-11T14:41:44.378Z</time>
      </trkpt>
      <trkpt lat="44.67422" lon="0.12283">
        <ele>31.506347</ele>
        <time>2022-07-11T14:41:48.287Z</time>
      </trkpt>
      <trkpt lat="44.67397" lon="0.12651">
        <ele>29.406372</ele>
        <time>2022-07-11T14:42:29.838Z</time>
      </trkpt>
      <trkpt lat="44.67399" lon="0.12715">
        <ele>29.119446</ele>
        <time>2022-07-11T14:42:37.318Z</time>
      </trkpt>
      <trkpt lat="44.6742" lon="0.12809">
        <ele>29.375577</ele>
        <time>2022-07-11T14:42:49.506Z</time>
      </trkpt>
      <trkpt lat="44.67445" lon="0.1288">
        <ele>29.58313</ele>
        <time>2022-07-11T14:43:00.594Z</time>
      </trkpt>
      <trkpt lat="44.67511" lon="0.1306">
        <ele>31.733342</ele>
        <time>2022-07-11T14:43:34.926Z</time>
      </trkpt>
      <trkpt lat="44.67513" lon="0.13065">
        <ele>31.823291</ele>
        <time>2022-07-11T14:43:36.140Z</time>
      </trkpt>
      <trkpt lat="44.67676" lon="0.13514">
        <ele>40.122967</ele>
        <time>2022-07-11T14:45:18.413Z</time>
      </trkpt>
      <trkpt lat="44.67698" lon="0.13599">
        <ele>41.373927</ele>
        <time>2022-07-11T14:45:32.791Z</time>
      </trkpt>
      <trkpt lat="44.67702" lon="0.13626">
        <ele>41.660874</ele>
        <time>2022-07-11T14:45:36.745Z</time>
      </trkpt>
      <trkpt lat="44.67703" lon="0.13637">
        <ele>41.715602</ele>
        <time>2022-07-11T14:45:38.444Z</time>
      </trkpt>
      <trkpt lat="44.67706" lon="0.137">
        <ele>42.019664</ele>
        <time>2022-07-11T14:45:47.474Z</time>
      </trkpt>
      <trkpt lat="44.67707" lon="0.1371">
        <ele>42.065975</ele>
        <time>2022-07-11T14:45:48.805Z</time>
      </trkpt>
      <trkpt lat="44.67723" lon="0.14013">
        <ele>43.318186</ele>
        <time>2022-07-11T14:46:32.552Z</time>
      </trkpt>
      <trkpt lat="44.67792" lon="0.14717">
        <ele>45.438281</ele>
        <time>2022-07-11T14:48:07.400Z</time>
      </trkpt>
      <trkpt lat="44.67815" lon="0.14945">
        <ele>47.509882</ele>
        <time>2022-07-11T14:48:49.425Z</time>
      </trkpt>
      <trkpt lat="44.67824" lon="0.14992">
        <ele>47.9361</ele>
        <time>2022-07-11T14:48:57.975Z</time>
      </trkpt>
      <trkpt lat="44.67833" lon="0.15017">
        <ele>48.179916</ele>
        <time>2022-07-11T14:49:02.548Z</time>
      </trkpt>
      <trkpt lat="44.67854" lon="0.15047">
        <ele>48.54681</ele>
        <time>2022-07-11T14:49:09.133Z</time>
      </trkpt>
      <trkpt lat="44.67879" lon="0.15064">
        <ele>48.883787</ele>
        <time>2022-07-11T14:49:14.638Z</time>
      </trkpt>
      <trkpt lat="44.6799" lon="0.15098">
        <ele>48.850063</ele>
        <time>2022-07-11T14:49:34.552Z</time>
      </trkpt>
      <trkpt lat="44.68022" lon="0.15127">
        <ele>48.764661</ele>
        <time>2022-07-11T14:49:41.051Z</time>
      </trkpt>
      <trkpt lat="44.68033" lon="0.15148">
        <ele>48.721362</ele>
        <time>2022-07-11T14:49:44.291Z</time>
      </trkpt>
      <trkpt lat="44.68042" lon="0.15174">
        <ele>48.675776</ele>
        <time>2022-07-11T14:49:47.663Z</time>
      </trkpt>
      <trkpt lat="44.68051" lon="0.15226">
        <ele>48.157897</ele>
        <time>2022-07-11T14:49:53.851Z</time>
      </trkpt>
      <trkpt lat="44.68052" lon="0.15327">
        <ele>47.075969</ele>
        <time>2022-07-11T14:50:05.188Z</time>
      </trkpt>
      <trkpt lat="44.67989" lon="0.15953">
        <ele>37.186908</ele>
        <time>2022-07-11T14:51:09.729Z</time>
      </trkpt>
      <trkpt lat="44.67956" lon="0.16286">
        <ele>32.487312</ele>
        <time>2022-07-11T14:51:43.930Z</time>
      </trkpt>
      <trkpt lat="44.67942" lon="0.16423">
        <ele>31.417203</ele>
        <time>2022-07-11T14:52:00.482Z</time>
      </trkpt>
      <trkpt lat="44.67938" lon="0.1647">
        <ele>31.753259</ele>
        <time>2022-07-11T14:52:07.170Z</time>
      </trkpt>
      <trkpt lat="44.67936" lon="0.16488">
        <ele>31.949279</ele>
        <time>2022-07-11T14:52:09.923Z</time>
      </trkpt>
      <trkpt lat="44.67918" lon="0.1667">
        <ele>33.904011</ele>
        <time>2022-07-11T14:52:43.033Z</time>
      </trkpt>
      <trkpt lat="44.67902" lon="0.16805">
        <ele>35.501765</ele>
        <time>2022-07-11T14:53:08.822Z</time>
      </trkpt>
      <trkpt lat="44.67877" lon="0.16894">
        <ele>36.630447</ele>
        <time>2022-07-11T14:53:25.480Z</time>
      </trkpt>
      <trkpt lat="44.6774" lon="0.17186">
        <ele>39.503739</ele>
        <time>2022-07-11T14:54:15.757Z</time>
      </trkpt>
      <trkpt lat="44.67724" lon="0.17218">
        <ele>40.245444</ele>
        <time>2022-07-11T14:54:22.256Z</time>
      </trkpt>
      <trkpt lat="44.67693" lon="0.17285">
        <ele>41.780784</ele>
        <time>2022-07-11T14:54:38.196Z</time>
      </trkpt>
      <trkpt lat="44.67673" lon="0.17316">
        <ele>42.583492</ele>
        <time>2022-07-11T14:54:48.426Z</time>
      </trkpt>
      <trkpt lat="44.67689" lon="0.17322">
        <ele>43.013388</ele>
        <time>2022-07-11T14:54:54.406Z</time>
      </trkpt>
      <trkpt lat="44.67709" lon="0.17339">
        <ele>44.572231</ele>
        <time>2022-07-11T14:55:04.372Z</time>
      </trkpt>
      <trkpt lat="44.6774" lon="0.1739">
        <ele>48.095164</ele>
        <time>2022-07-11T14:55:25.096Z</time>
      </trkpt>
      <trkpt lat="44.67747" lon="0.17406">
        <ele>49.102268</ele>
        <time>2022-07-11T14:55:31.670Z</time>
      </trkpt>
      <trkpt lat="44.67757" lon="0.17427">
        <ele>50.444119</ele>
        <time>2022-07-11T14:55:40.197Z</time>
      </trkpt>
      <trkpt lat="44.67766" lon="0.17448">
        <ele>51.722146</ele>
        <time>2022-07-11T14:55:48.842Z</time>
      </trkpt>
      <trkpt lat="44.67789" lon="0.17491">
        <ele>54.553122</ele>
        <time>2022-07-11T14:56:08.460Z</time>
      </trkpt>
      <trkpt lat="44.67901" lon="0.17684">
        <ele>70.812862</ele>
        <time>2022-07-11T14:57:47.384Z</time>
      </trkpt>
      <trkpt lat="44.67893" lon="0.17702">
        <ele>72.248397</ele>
        <time>2022-07-11T14:57:56.416Z</time>
      </trkpt>
      <trkpt lat="44.67874" lon="0.17719">
        <ele>74.391955</ele>
        <time>2022-07-11T14:58:08.673Z</time>
      </trkpt>
      <trkpt lat="44.67854" lon="0.17729">
        <ele>76.505694</ele>
        <time>2022-07-11T14:58:21.590Z</time>
      </trkpt>
      <trkpt lat="44.67824" lon="0.17758">
        <ele>80.026948</ele>
        <time>2022-07-11T14:58:42.573Z</time>
      </trkpt>
      <trkpt lat="44.67788" lon="0.17829">
        <ele>86.078902</ele>
        <time>2022-07-11T14:59:19.944Z</time>
      </trkpt>
      <trkpt lat="44.67732" lon="0.17902">
        <ele>92.707262</ele>
        <time>2022-07-11T15:00:03.217Z</time>
      </trkpt>
      <trkpt lat="44.67714" lon="0.1793">
        <ele>94.466844</ele>
        <time>2022-07-11T15:00:16.801Z</time>
      </trkpt>
      <trkpt lat="44.67697" lon="0.17975">
        <ele>96.815426</ele>
        <time>2022-07-11T15:00:33.360Z</time>
      </trkpt>
      <trkpt lat="44.67699" lon="0.18002">
        <ele>98.058941</ele>
        <time>2022-07-11T15:00:41.457Z</time>
      </trkpt>
      <trkpt lat="44.67709" lon="0.1802">
        <ele>99.146139</ele>
        <time>2022-07-11T15:00:48.607Z</time>
      </trkpt>
      <trkpt lat="44.6771" lon="0.18032">
        <ele>99.683034</ele>
        <time>2022-07-11T15:00:51.613Z</time>
      </trkpt>
      <trkpt lat="44.67705" lon="0.18044">
        <ele>100.358446</ele>
        <time>2022-07-11T15:00:55.735Z</time>
      </trkpt>
      <trkpt lat="44.67698" lon="0.18049">
        <ele>100.892464</ele>
        <time>2022-07-11T15:00:59.364Z</time>
      </trkpt>
      <trkpt lat="44.67706" lon="0.18093">
        <ele>102.794373</ele>
        <time>2022-07-11T15:01:10.798Z</time>
      </trkpt>
      <trkpt lat="44.67705" lon="0.18149">
        <ele>103.293331</ele>
        <time>2022-07-11T15:01:23.313Z</time>
      </trkpt>
      <trkpt lat="44.6771" lon="0.18188">
        <ele>103.643611</ele>
        <time>2022-07-11T15:01:30.544Z</time>
      </trkpt>
      <trkpt lat="44.67695" lon="0.18195">
        <ele>103.839638</ele>
        <time>2022-07-11T15:01:34.620Z</time>
      </trkpt>
      <trkpt lat="44.67673" lon="0.18318">
        <ele>104.963489</ele>
        <time>2022-07-11T15:01:52.003Z</time>
      </trkpt>
      <trkpt lat="44.67664" lon="0.18367">
        <ele>103.390454</ele>
        <time>2022-07-11T15:01:57.652Z</time>
      </trkpt>
      <trkpt lat="44.67654" lon="0.18364">
        <ele>102.937866</ele>
        <time>2022-07-11T15:01:58.886Z</time>
      </trkpt>
      <trkpt lat="44.67606" lon="0.18351">
        <ele>100.662084</ele>
        <time>2022-07-11T15:02:05.174Z</time>
      </trkpt>
      <trkpt lat="44.67604" lon="0.1834">
        <ele>100.30628</ele>
        <time>2022-07-11T15:02:06.215Z</time>
      </trkpt>
      <trkpt lat="44.67577" lon="0.18323">
        <ele>98.967416</ele>
        <time>2022-07-11T15:02:09.882Z</time>
      </trkpt>
      <trkpt lat="44.67577" lon="0.18322">
        <ele>98.947942</ele>
        <time>2022-07-11T15:02:09.927Z</time>
      </trkpt>
      <trkpt lat="44.67551" lon="0.18304">
        <ele>97.615845</ele>
        <time>2022-07-11T15:02:13.419Z</time>
      </trkpt>
      <trkpt lat="44.67543" lon="0.18323">
        <ele>96.92282</ele>
        <time>2022-07-11T15:02:15.269Z</time>
      </trkpt>
      <trkpt lat="44.67538" lon="0.18318">
        <ele>96.574791</ele>
        <time>2022-07-11T15:02:16.159Z</time>
      </trkpt>
      <trkpt lat="44.67541" lon="0.18298">
        <ele>95.590424</ele>
        <time>2022-07-11T15:02:17.855Z</time>
      </trkpt>
      <trkpt lat="44.67522" lon="0.18273">
        <ele>93.923479</ele>
        <time>2022-07-11T15:02:21.077Z</time>
      </trkpt>
      <trkpt lat="44.67518" lon="0.18255">
        <ele>93.048051</ele>
        <time>2022-07-11T15:02:22.594Z</time>
      </trkpt>
      <trkpt lat="44.67514" lon="0.18225">
        <ele>91.630296</ele>
        <time>2022-07-11T15:02:25.400Z</time>
      </trkpt>
      <trkpt lat="44.67519" lon="0.1817">
        <ele>89.044227</ele>
        <time>2022-07-11T15:02:30.121Z</time>
      </trkpt>
      <trkpt lat="44.67511" lon="0.18151">
        <ele>88.071123</ele>
        <time>2022-07-11T15:02:31.800Z</time>
      </trkpt>
      <trkpt lat="44.67497" lon="0.18264">
        <ele>83.560948</ele>
        <time>2022-07-11T15:02:42.127Z</time>
      </trkpt>
      <trkpt lat="44.6749" lon="0.18283">
        <ele>82.926119</ele>
        <time>2022-07-11T15:02:44.232Z</time>
      </trkpt>
      <trkpt lat="44.67476" lon="0.18298">
        <ele>82.18696</ele>
        <time>2022-07-11T15:02:46.420Z</time>
      </trkpt>
      <trkpt lat="44.67453" lon="0.18309">
        <ele>81.120098</ele>
        <time>2022-07-11T15:02:49.741Z</time>
      </trkpt>
      <trkpt lat="44.67398" lon="0.183">
        <ele>78.805625</ele>
        <time>2022-07-11T15:02:57.433Z</time>
      </trkpt>
      <trkpt lat="44.6737" lon="0.18303">
        <ele>77.628404</ele>
        <time>2022-07-11T15:03:01.145Z</time>
      </trkpt>
      <trkpt lat="44.67347" lon="0.18322">
        <ele>76.001188</ele>
        <time>2022-07-11T15:03:04.546Z</time>
      </trkpt>
      <trkpt lat="44.67306" lon="0.18382">
        <ele>72.117752</ele>
        <time>2022-07-11T15:03:11.915Z</time>
      </trkpt>
      <trkpt lat="44.67268" lon="0.18406">
        <ele>69.388238</ele>
        <time>2022-07-11T15:03:16.938Z</time>
      </trkpt>
      <trkpt lat="44.67239" lon="0.18418">
        <ele>67.481644</ele>
        <time>2022-07-11T15:03:20.392Z</time>
      </trkpt>
      <trkpt lat="44.671" lon="0.18473">
        <ele>56.727778</ele>
        <time>2022-07-11T15:03:37.389Z</time>
      </trkpt>
      <trkpt lat="44.67079" lon="0.18501">
        <ele>54.546655</ele>
        <time>2022-07-11T15:03:40.819Z</time>
      </trkpt>
      <trkpt lat="44.67059" lon="0.18562">
        <ele>51.243877</ele>
        <time>2022-07-11T15:03:46.542Z</time>
      </trkpt>
      <trkpt lat="44.67033" lon="0.18629">
        <ele>48.301574</ele>
        <time>2022-07-11T15:03:53.366Z</time>
      </trkpt>
      <trkpt lat="44.67009" lon="0.18662">
        <ele>46.535496</ele>
        <time>2022-07-11T15:03:57.575Z</time>
      </trkpt>
      <trkpt lat="44.66992" lon="0.18676">
        <ele>45.479552</ele>
        <time>2022-07-11T15:04:00.060Z</time>
      </trkpt>
      <trkpt lat="44.66988" lon="0.18678">
        <ele>45.241083</ele>
        <time>2022-07-11T15:04:00.629Z</time>
      </trkpt>
      <trkpt lat="44.66983" lon="0.18681">
        <ele>44.915596</ele>
        <time>2022-07-11T15:04:01.400Z</time>
      </trkpt>
      <trkpt lat="44.669" lon="0.18708">
        <ele>40.866239</ele>
        <time>2022-07-11T15:04:12.171Z</time>
      </trkpt>
      <trkpt lat="44.66889" lon="0.18696">
        <ele>40.298335</ele>
        <time>2022-07-11T15:04:13.948Z</time>
      </trkpt>
      <trkpt lat="44.66881" lon="0.18699">
        <ele>39.931567</ele>
        <time>2022-07-11T15:04:15.106Z</time>
      </trkpt>
      <trkpt lat="44.66877" lon="0.18716">
        <ele>39.432643</ele>
        <time>2022-07-11T15:04:16.725Z</time>
      </trkpt>
      <trkpt lat="44.66815" lon="0.18732">
        <ele>36.88368</ele>
        <time>2022-07-11T15:04:24.824Z</time>
      </trkpt>
      <trkpt lat="44.66663" lon="0.18776">
        <ele>32.746678</ele>
        <time>2022-07-11T15:04:46.558Z</time>
      </trkpt>
      <trkpt lat="44.6664" lon="0.18783">
        <ele>32.24342</ele>
        <time>2022-07-11T15:04:50.310Z</time>
      </trkpt>
      <trkpt lat="44.66571" lon="0.18803">
        <ele>31.236048</ele>
        <time>2022-07-11T15:05:01.400Z</time>
      </trkpt>
      <trkpt lat="44.66437" lon="0.18843">
        <ele>30.986767</ele>
        <time>2022-07-11T15:05:25.526Z</time>
      </trkpt>
      <trkpt lat="44.663" lon="0.18882">
        <ele>31.55881</ele>
        <time>2022-07-11T15:05:53.018Z</time>
      </trkpt>
      <trkpt lat="44.66294" lon="0.18884">
        <ele>31.59225</ele>
        <time>2022-07-11T15:05:54.443Z</time>
      </trkpt>
      <trkpt lat="44.66267" lon="0.18892">
        <ele>31.730029</ele>
        <time>2022-07-11T15:06:00.234Z</time>
      </trkpt>
      <trkpt lat="44.66216" lon="0.18906">
        <ele>31.954776</ele>
        <time>2022-07-11T15:06:10.992Z</time>
      </trkpt>
      <trkpt lat="44.66144" lon="0.18927">
        <ele>32.2218</ele>
        <time>2022-07-11T15:06:25.297Z</time>
      </trkpt>
      <trkpt lat="44.66085" lon="0.18944">
        <ele>32.44212</ele>
        <time>2022-07-11T15:06:36.519Z</time>
      </trkpt>
      <trkpt lat="44.6608" lon="0.18946">
        <ele>32.460753</ele>
        <time>2022-07-11T15:06:37.463Z</time>
      </trkpt>
      <trkpt lat="44.66013" lon="0.18966">
        <ele>32.518786</ele>
        <time>2022-07-11T15:06:49.782Z</time>
      </trkpt>
      <trkpt lat="44.65841" lon="0.19015">
        <ele>32.566623</ele>
        <time>2022-07-11T15:07:20.811Z</time>
      </trkpt>
      <trkpt lat="44.65839" lon="0.19044">
        <ele>32.581419</ele>
        <time>2022-07-11T15:07:24.542Z</time>
      </trkpt>
      <trkpt lat="44.65832" lon="0.19103">
        <ele>32.611717</ele>
        <time>2022-07-11T15:07:32.098Z</time>
      </trkpt>
      <trkpt lat="44.65779" lon="0.1958">
        <ele>33.368624</ele>
        <time>2022-07-11T15:08:36.524Z</time>
      </trkpt>
      <trkpt lat="44.65777" lon="0.19601">
        <ele>33.41489</ele>
        <time>2022-07-11T15:08:39.585Z</time>
      </trkpt>
      <trkpt lat="44.65774" lon="0.19653">
        <ele>33.528253</ele>
        <time>2022-07-11T15:08:46.762Z</time>
      </trkpt>
      <trkpt lat="44.65777" lon="0.1988">
        <ele>33.780815</ele>
        <time>2022-07-11T15:09:16.793Z</time>
      </trkpt>
      <trkpt lat="44.65768" lon="0.20013">
        <ele>33.8302</ele>
        <time>2022-07-11T15:09:33.484Z</time>
      </trkpt>
      <trkpt lat="44.6575" lon="0.20229">
        <ele>33.783268</ele>
        <time>2022-07-11T15:10:01.139Z</time>
      </trkpt>
      <trkpt lat="44.65726" lon="0.20353">
        <ele>33.709339</ele>
        <time>2022-07-11T15:10:17.255Z</time>
      </trkpt>
      <trkpt lat="44.65677" lon="0.2068">
        <ele>33.416732</ele>
        <time>2022-07-11T15:10:58.407Z</time>
      </trkpt>
      <trkpt lat="44.65576" lon="0.20943">
        <ele>34.166997</ele>
        <time>2022-07-11T15:11:38.474Z</time>
      </trkpt>
      <trkpt lat="44.65351" lon="0.21418">
        <ele>39.153164</ele>
        <time>2022-07-11T15:13:13.880Z</time>
      </trkpt>
      <trkpt lat="44.65306" lon="0.21502">
        <ele>39.741818</ele>
        <time>2022-07-11T15:13:29.026Z</time>
      </trkpt>
      <trkpt lat="44.65282" lon="0.21536">
        <ele>40.012052</ele>
        <time>2022-07-11T15:13:35.457Z</time>
      </trkpt>
      <trkpt lat="44.65139" lon="0.21776">
        <ele>39.697932</ele>
        <time>2022-07-11T15:14:13.661Z</time>
      </trkpt>
      <trkpt lat="44.65082" lon="0.21835">
        <ele>39.783675</ele>
        <time>2022-07-11T15:14:26.256Z</time>
      </trkpt>
      <trkpt lat="44.65013" lon="0.21881">
        <ele>39.930359</ele>
        <time>2022-07-11T15:14:41.198Z</time>
      </trkpt>
      <trkpt lat="44.64726" lon="0.22066">
        <ele>42.227237</ele>
        <time>2022-07-11T15:15:48.512Z</time>
      </trkpt>
      <trkpt lat="44.64654" lon="0.22119">
        <ele>42.328737</ele>
        <time>2022-07-11T15:16:02.659Z</time>
      </trkpt>
      <trkpt lat="44.6457" lon="0.22201">
        <ele>42.043427</ele>
        <time>2022-07-11T15:16:19.869Z</time>
      </trkpt>
      <trkpt lat="44.64533" lon="0.22213">
        <ele>41.960806</ele>
        <time>2022-07-11T15:16:26.268Z</time>
      </trkpt>
      <trkpt lat="44.64498" lon="0.22211">
        <ele>42.000207</ele>
        <time>2022-07-11T15:16:32.256Z</time>
      </trkpt>
      <trkpt lat="44.6448" lon="0.22203">
        <ele>42.022615</ele>
        <time>2022-07-11T15:16:35.716Z</time>
      </trkpt>
      <trkpt lat="44.6443" lon="0.22273">
        <ele>42.103553</ele>
        <time>2022-07-11T15:16:48.635Z</time>
      </trkpt>
      <trkpt lat="44.6433" lon="0.22416">
        <ele>42.621455</ele>
        <time>2022-07-11T15:17:16.639Z</time>
      </trkpt>
      <trkpt lat="44.64222" lon="0.22533">
        <ele>43.322658</ele>
        <time>2022-07-11T15:17:43.799Z</time>
      </trkpt>
      <trkpt lat="44.64206" lon="0.22568">
        <ele>43.487454</ele>
        <time>2022-07-11T15:17:49.778Z</time>
      </trkpt>
      <trkpt lat="44.64186" lon="0.22656">
        <ele>43.846393</ele>
        <time>2022-07-11T15:18:02.844Z</time>
      </trkpt>
      <trkpt lat="44.64174" lon="0.22692">
        <ele>44.002744</ele>
        <time>2022-07-11T15:18:08.530Z</time>
      </trkpt>
      <trkpt lat="44.6408" lon="0.22889">
        <ele>44.916935</ele>
        <time>2022-07-11T15:18:42.471Z</time>
      </trkpt>
      <trkpt lat="44.64066" lon="0.22928">
        <ele>45.057816</ele>
        <time>2022-07-11T15:18:48.524Z</time>
      </trkpt>
      <trkpt lat="44.64053" lon="0.2302">
        <ele>45.266495</ele>
        <time>2022-07-11T15:19:01.388Z</time>
      </trkpt>
      <trkpt lat="44.64042" lon="0.23087">
        <ele>45.420277</ele>
        <time>2022-07-11T15:19:10.762Z</time>
      </trkpt>
      <trkpt lat="44.64031" lon="0.23118">
        <ele>45.497879</ele>
        <time>2022-07-11T15:19:15.388Z</time>
      </trkpt>
      <trkpt lat="44.64004" lon="0.23171">
        <ele>45.541147</ele>
        <time>2022-07-11T15:19:24.173Z</time>
      </trkpt>
      <trkpt lat="44.63905" lon="0.23352">
        <ele>45.187142</ele>
        <time>2022-07-11T15:19:52.506Z</time>
      </trkpt>
      <trkpt lat="44.63893" lon="0.23401">
        <ele>44.725329</ele>
        <time>2022-07-11T15:19:58.364Z</time>
      </trkpt>
      <trkpt lat="44.63862" lon="0.23625">
        <ele>42.664018</ele>
        <time>2022-07-11T15:20:23.055Z</time>
      </trkpt>
      <trkpt lat="44.63857" lon="0.23652">
        <ele>42.408215</ele>
        <time>2022-07-11T15:20:25.973Z</time>
      </trkpt>
      <trkpt lat="44.63817" lon="0.23863">
        <ele>40.588686</ele>
        <time>2022-07-11T15:20:50.025Z</time>
      </trkpt>
      <trkpt lat="44.63798" lon="0.23929">
        <ele>40.550232</ele>
        <time>2022-07-11T15:20:58.707Z</time>
      </trkpt>
      <trkpt lat="44.63776" lon="0.23975">
        <ele>40.519684</ele>
        <time>2022-07-11T15:21:05.844Z</time>
      </trkpt>
      <trkpt lat="44.63711" lon="0.24053">
        <ele>40.571795</ele>
        <time>2022-07-11T15:21:22.364Z</time>
      </trkpt>
      <trkpt lat="44.63678" lon="0.24085">
        <ele>40.886234</ele>
        <time>2022-07-11T15:21:30.796Z</time>
      </trkpt>
      <trkpt lat="44.63637" lon="0.24124">
        <ele>41.280768</ele>
        <time>2022-07-11T15:21:41.950Z</time>
      </trkpt>
      <trkpt lat="44.63606" lon="0.24169">
        <ele>41.635498</ele>
        <time>2022-07-11T15:21:51.435Z</time>
      </trkpt>
      <trkpt lat="44.63588" lon="0.24242">
        <ele>42.055819</ele>
        <time>2022-07-11T15:22:02.585Z</time>
      </trkpt>
      <trkpt lat="44.63581" lon="0.24276">
        <ele>42.232581</ele>
        <time>2022-07-11T15:22:07.688Z</time>
      </trkpt>
      <trkpt lat="44.63566" lon="0.24349">
        <ele>42.618838</ele>
        <time>2022-07-11T15:22:18.888Z</time>
      </trkpt>
      <trkpt lat="44.63544" lon="0.24445">
        <ele>43.128544</ele>
        <time>2022-07-11T15:22:33.890Z</time>
      </trkpt>
      <trkpt lat="44.6353" lon="0.24529">
        <ele>43.571786</ele>
        <time>2022-07-11T15:22:46.034Z</time>
      </trkpt>
      <trkpt lat="44.63522" lon="0.24836">
        <ele>45.204995</ele>
        <time>2022-07-11T15:23:31.749Z</time>
      </trkpt>
      <trkpt lat="44.63496" lon="0.2501">
        <ele>46.093111</ele>
        <time>2022-07-11T15:23:58.407Z</time>
      </trkpt>
      <trkpt lat="44.63486" lon="0.25079">
        <ele>46.356671</ele>
        <time>2022-07-11T15:24:08.743Z</time>
      </trkpt>
      <trkpt lat="44.63485" lon="0.25086">
        <ele>46.38163</ele>
        <time>2022-07-11T15:24:09.681Z</time>
      </trkpt>
      <trkpt lat="44.63476" lon="0.25145">
        <ele>46.606143</ele>
        <time>2022-07-11T15:24:18.095Z</time>
      </trkpt>
      <trkpt lat="44.63461" lon="0.2525">
        <ele>46.894688</ele>
        <time>2022-07-11T15:24:32.154Z</time>
      </trkpt>
      <trkpt lat="44.63449" lon="0.25313">
        <ele>46.989275</ele>
        <time>2022-07-11T15:24:40.506Z</time>
      </trkpt>
      <trkpt lat="44.63445" lon="0.25336">
        <ele>47.023533</ele>
        <time>2022-07-11T15:24:43.553Z</time>
      </trkpt>
      <trkpt lat="44.63433" lon="0.2539">
        <ele>47.105961</ele>
        <time>2022-07-11T15:24:51.302Z</time>
      </trkpt>
      <trkpt lat="44.63426" lon="0.25416">
        <ele>47.146026</ele>
        <time>2022-07-11T15:24:55.256Z</time>
      </trkpt>
      <trkpt lat="44.63411" lon="0.25482">
        <ele>47.139434</ele>
        <time>2022-07-11T15:25:04.589Z</time>
      </trkpt>
      <trkpt lat="44.634" lon="0.25531">
        <ele>47.06828</ele>
        <time>2022-07-11T15:25:10.973Z</time>
      </trkpt>
      <trkpt lat="44.63393" lon="0.25562">
        <ele>47.024019</ele>
        <time>2022-07-11T15:25:14.897Z</time>
      </trkpt>
      <trkpt lat="44.63381" lon="0.25612">
        <ele>46.95183</ele>
        <time>2022-07-11T15:25:21.323Z</time>
      </trkpt>
      <trkpt lat="44.63378" lon="0.25622">
        <ele>46.936667</ele>
        <time>2022-07-11T15:25:22.725Z</time>
      </trkpt>
      <trkpt lat="44.6337" lon="0.25651">
        <ele>46.893776</ele>
        <time>2022-07-11T15:25:26.430Z</time>
      </trkpt>
      <trkpt lat="44.6335" lon="0.25706">
        <ele>46.762428</ele>
        <time>2022-07-11T15:25:33.760Z</time>
      </trkpt>
      <trkpt lat="44.63325" lon="0.25766">
        <ele>46.537641</ele>
        <time>2022-07-11T15:25:41.992Z</time>
      </trkpt>
      <trkpt lat="44.63301" lon="0.25824">
        <ele>46.31956</ele>
        <time>2022-07-11T15:25:49.702Z</time>
      </trkpt>
      <trkpt lat="44.63249" lon="0.25951">
        <ele>46.260443</ele>
        <time>2022-07-11T15:26:07.660Z</time>
      </trkpt>
      <trkpt lat="44.63229" lon="0.26017">
        <ele>46.561934</ele>
        <time>2022-07-11T15:26:17.953Z</time>
      </trkpt>
      <trkpt lat="44.63197" lon="0.26149">
        <ele>47.177861</ele>
        <time>2022-07-11T15:26:39.998Z</time>
      </trkpt>
      <trkpt lat="44.63143" lon="0.26371">
        <ele>48.762105</ele>
        <time>2022-07-11T15:27:16.897Z</time>
      </trkpt>
      <trkpt lat="44.63126" lon="0.26441">
        <ele>48.661256</ele>
        <time>2022-07-11T15:27:26.539Z</time>
      </trkpt>
      <trkpt lat="44.63093" lon="0.26556">
        <ele>48.434972</ele>
        <time>2022-07-11T15:27:41.303Z</time>
      </trkpt>
      <trkpt lat="44.63036" lon="0.26702">
        <ele>48.006028</ele>
        <time>2022-07-11T15:28:00.549Z</time>
      </trkpt>
      <trkpt lat="44.63006" lon="0.2691">
        <ele>47.616625</ele>
        <time>2022-07-11T15:28:26.807Z</time>
      </trkpt>
      <trkpt lat="44.6299" lon="0.2699">
        <ele>47.664159</ele>
        <time>2022-07-11T15:28:38.139Z</time>
      </trkpt>
      <trkpt lat="44.62864" lon="0.27273">
        <ele>47.746941</ele>
        <time>2022-07-11T15:29:21.877Z</time>
      </trkpt>
      <trkpt lat="44.62855" lon="0.27315">
        <ele>47.589509</ele>
        <time>2022-07-11T15:29:27.106Z</time>
      </trkpt>
      <trkpt lat="44.62796" lon="0.27816">
        <ele>43.750864</ele>
        <time>2022-07-11T15:30:23.775Z</time>
      </trkpt>
      <trkpt lat="44.62799" lon="0.27928">
        <ele>43.023085</ele>
        <time>2022-07-11T15:30:36.301Z</time>
      </trkpt>
      <trkpt lat="44.62811" lon="0.28019">
        <ele>42.427553</ele>
        <time>2022-07-11T15:30:46.776Z</time>
      </trkpt>
      <trkpt lat="44.62878" lon="0.28526">
        <ele>41.795153</ele>
        <time>2022-07-11T15:31:50.682Z</time>
      </trkpt>
      <trkpt lat="44.62878" lon="0.28576">
        <ele>42.021201</ele>
        <time>2022-07-11T15:31:58.146Z</time>
      </trkpt>
      <trkpt lat="44.62875" lon="0.28591">
        <ele>42.110574</ele>
        <time>2022-07-11T15:32:00.447Z</time>
      </trkpt>
      <trkpt lat="44.62869" lon="0.28607">
        <ele>42.223202</ele>
        <time>2022-07-11T15:32:03.392Z</time>
      </trkpt>
      <trkpt lat="44.62801" lon="0.28774">
        <ele>43.353632</ele>
        <time>2022-07-11T15:32:33.148Z</time>
      </trkpt>
      <trkpt lat="44.62792" lon="0.28796">
        <ele>43.431523</ele>
        <time>2022-07-11T15:32:37.030Z</time>
      </trkpt>
      <trkpt lat="44.62774" lon="0.28837">
        <ele>43.582113</ele>
        <time>2022-07-11T15:32:44.230Z</time>
      </trkpt>
      <trkpt lat="44.62743" lon="0.28917">
        <ele>43.865192</ele>
        <time>2022-07-11T15:32:57.012Z</time>
      </trkpt>
      <trkpt lat="44.62762" lon="0.28931">
        <ele>43.957303</ele>
        <time>2022-07-11T15:33:01.052Z</time>
      </trkpt>
      <trkpt lat="44.62766" lon="0.28988">
        <ele>44.090629</ele>
        <time>2022-07-11T15:33:08.425Z</time>
      </trkpt>
      <trkpt lat="44.62766" lon="0.28998">
        <ele>44.069658</ele>
        <time>2022-07-11T15:33:09.814Z</time>
      </trkpt>
      <trkpt lat="44.62731" lon="0.29106">
        <ele>43.841567</ele>
        <time>2022-07-11T15:33:24.608Z</time>
      </trkpt>
      <trkpt lat="44.62782" lon="0.29137">
        <ele>43.689552</ele>
        <time>2022-07-11T15:33:34.548Z</time>
      </trkpt>
      <trkpt lat="44.62753" lon="0.29285">
        <ele>43.568048</ele>
        <time>2022-07-11T15:33:54.200Z</time>
      </trkpt>
      <trkpt lat="44.62733" lon="0.29434">
        <ele>43.567316</ele>
        <time>2022-07-11T15:34:13.284Z</time>
      </trkpt>
      <trkpt lat="44.62715" lon="0.29725">
        <ele>45.003866</ele>
        <time>2022-07-11T15:34:55.418Z</time>
      </trkpt>
      <trkpt lat="44.62707" lon="0.29861">
        <ele>46.23676</ele>
        <time>2022-07-11T15:35:18.597Z</time>
      </trkpt>
      <trkpt lat="44.62695" lon="0.301">
        <ele>48.688717</ele>
        <time>2022-07-11T15:36:02.246Z</time>
      </trkpt>
      <trkpt lat="44.62688" lon="0.30147">
        <ele>49.196102</ele>
        <time>2022-07-11T15:36:10.362Z</time>
      </trkpt>
      <trkpt lat="44.62664" lon="0.30239">
        <ele>49.603541</ele>
        <time>2022-07-11T15:36:25.663Z</time>
      </trkpt>
      <trkpt lat="44.62647" lon="0.30301">
        <ele>49.718946</ele>
        <time>2022-07-11T15:36:34.783Z</time>
      </trkpt>
      <trkpt lat="44.62584" lon="0.30532">
        <ele>49.540539</ele>
        <time>2022-07-11T15:37:04.784Z</time>
      </trkpt>
      <trkpt lat="44.62509" lon="0.30811">
        <ele>48.698735</ele>
        <time>2022-07-11T15:37:40.497Z</time>
      </trkpt>
      <trkpt lat="44.62494" lon="0.30886">
        <ele>48.484946</ele>
        <time>2022-07-11T15:37:50.008Z</time>
      </trkpt>
      <trkpt lat="44.62492" lon="0.30921">
        <ele>48.428816</ele>
        <time>2022-07-11T15:37:54.383Z</time>
      </trkpt>
      <trkpt lat="44.62504" lon="0.31267">
        <ele>47.826847</ele>
        <time>2022-07-11T15:38:36.899Z</time>
      </trkpt>
      <trkpt lat="44.62506" lon="0.31314">
        <ele>47.731578</ele>
        <time>2022-07-11T15:38:42.667Z</time>
      </trkpt>
      <trkpt lat="44.6252" lon="0.31713">
        <ele>47.115057</ele>
        <time>2022-07-11T15:39:31.541Z</time>
      </trkpt>
      <trkpt lat="44.62511" lon="0.31842">
        <ele>47.075635</ele>
        <time>2022-07-11T15:39:47.932Z</time>
      </trkpt>
      <trkpt lat="44.62488" lon="0.31954">
        <ele>47.163891</ele>
        <time>2022-07-11T15:40:03.090Z</time>
      </trkpt>
      <trkpt lat="44.62349" lon="0.32386">
        <ele>48.147935</ele>
        <time>2022-07-11T15:41:06.630Z</time>
      </trkpt>
      <trkpt lat="44.62015" lon="0.3308">
        <ele>52.090092</ele>
        <time>2022-07-11T15:43:09.898Z</time>
      </trkpt>
      <trkpt lat="44.61891" lon="0.33333">
        <ele>52.701123</ele>
        <time>2022-07-11T15:43:52.599Z</time>
      </trkpt>
      <trkpt lat="44.61731" lon="0.33563">
        <ele>51.82406</ele>
        <time>2022-07-11T15:44:29.903Z</time>
      </trkpt>
      <trkpt lat="44.61558" lon="0.33803">
        <ele>52.186978</ele>
        <time>2022-07-11T15:45:18.188Z</time>
      </trkpt>
      <trkpt lat="44.61543" lon="0.33838">
        <ele>52.065239</ele>
        <time>2022-07-11T15:45:23.130Z</time>
      </trkpt>
      <trkpt lat="44.61536" lon="0.33878">
        <ele>51.942385</ele>
        <time>2022-07-11T15:45:27.892Z</time>
      </trkpt>
      <trkpt lat="44.61523" lon="0.34138">
        <ele>50.813431</ele>
        <time>2022-07-11T15:45:57.188Z</time>
      </trkpt>
      <trkpt lat="44.6153" lon="0.34205">
        <ele>50.46848</ele>
        <time>2022-07-11T15:46:05.699Z</time>
      </trkpt>
      <trkpt lat="44.61544" lon="0.3428">
        <ele>50.465626</ele>
        <time>2022-07-11T15:46:15.443Z</time>
      </trkpt>
      <trkpt lat="44.61544" lon="0.34362">
        <ele>50.616616</ele>
        <time>2022-07-11T15:46:26.034Z</time>
      </trkpt>
      <trkpt lat="44.61543" lon="0.34376">
        <ele>50.642798</ele>
        <time>2022-07-11T15:46:28.139Z</time>
      </trkpt>
      <trkpt lat="44.61531" lon="0.34462">
        <ele>50.804356</ele>
        <time>2022-07-11T15:46:40.372Z</time>
      </trkpt>
      <trkpt lat="44.61512" lon="0.34493">
        <ele>50.952087</ele>
        <time>2022-07-11T15:46:46.289Z</time>
      </trkpt>
      <trkpt lat="44.61468" lon="0.34545">
        <ele>51.309907</ele>
        <time>2022-07-11T15:46:57.617Z</time>
      </trkpt>
      <trkpt lat="44.61253" lon="0.34815">
        <ele>53.337534</ele>
        <time>2022-07-11T15:47:57.472Z</time>
      </trkpt>
      <trkpt lat="44.61206" lon="0.3487">
        <ele>53.726751</ele>
        <time>2022-07-11T15:48:10.730Z</time>
      </trkpt>
      <trkpt lat="44.61193" lon="0.34883">
        <ele>53.823423</ele>
        <time>2022-07-11T15:48:13.716Z</time>
      </trkpt>
      <trkpt lat="44.61165" lon="0.34909">
        <ele>54.035964</ele>
        <time>2022-07-11T15:48:20.504Z</time>
      </trkpt>
      <trkpt lat="44.61157" lon="0.34916">
        <ele>54.096827</ele>
        <time>2022-07-11T15:48:22.462Z</time>
      </trkpt>
      <trkpt lat="44.61114" lon="0.34952">
        <ele>54.416633</ele>
        <time>2022-07-11T15:48:32.516Z</time>
      </trkpt>
      <trkpt lat="44.61099" lon="0.34964">
        <ele>54.453904</ele>
        <time>2022-07-11T15:48:35.654Z</time>
      </trkpt>
      <trkpt lat="44.6108" lon="0.34977">
        <ele>54.481509</ele>
        <time>2022-07-11T15:48:39.694Z</time>
      </trkpt>
      <trkpt lat="44.61071" lon="0.34985">
        <ele>54.495553</ele>
        <time>2022-07-11T15:48:41.570Z</time>
      </trkpt>
      <trkpt lat="44.61001" lon="0.35038">
        <ele>54.600923</ele>
        <time>2022-07-11T15:48:56.453Z</time>
      </trkpt>
      <trkpt lat="44.60984" lon="0.35051">
        <ele>54.627162</ele>
        <time>2022-07-11T15:48:59.950Z</time>
      </trkpt>
      <trkpt lat="44.6096" lon="0.35068">
        <ele>54.662484</ele>
        <time>2022-07-11T15:49:04.505Z</time>
      </trkpt>
      <trkpt lat="44.60952" lon="0.35074">
        <ele>54.673011</ele>
        <time>2022-07-11T15:49:06.035Z</time>
      </trkpt>
      <trkpt lat="44.60845" lon="0.35153">
        <ele>54.339006</ele>
        <time>2022-07-11T15:49:26.931Z</time>
      </trkpt>
      <trkpt lat="44.60806" lon="0.35182">
        <ele>54.216733</ele>
        <time>2022-07-11T15:49:34.501Z</time>
      </trkpt>
      <trkpt lat="44.60769" lon="0.35211">
        <ele>54.009995</ele>
        <time>2022-07-11T15:49:41.776Z</time>
      </trkpt>
      <trkpt lat="44.60659" lon="0.35294">
        <ele>53.279574</ele>
        <time>2022-07-11T15:50:02.341Z</time>
      </trkpt>
      <trkpt lat="44.60632" lon="0.35324">
        <ele>53.074693</ele>
        <time>2022-07-11T15:50:08.007Z</time>
      </trkpt>
      <trkpt lat="44.60602" lon="0.3536">
        <ele>52.844921</ele>
        <time>2022-07-11T15:50:14.267Z</time>
      </trkpt>
      <trkpt lat="44.60498" lon="0.35521">
        <ele>52.090867</ele>
        <time>2022-07-11T15:50:40.003Z</time>
      </trkpt>
      <trkpt lat="44.604" lon="0.35685">
        <ele>52.372769</ele>
        <time>2022-07-11T15:51:07.999Z</time>
      </trkpt>
      <trkpt lat="44.604" lon="0.35704">
        <ele>52.525485</ele>
        <time>2022-07-11T15:51:10.899Z</time>
      </trkpt>
      <trkpt lat="44.60373" lon="0.35726">
        <ele>53.061915</ele>
        <time>2022-07-11T15:51:17.856Z</time>
      </trkpt>
      <trkpt lat="44.60372" lon="0.35738">
        <ele>53.214182</ele>
        <time>2022-07-11T15:51:19.834Z</time>
      </trkpt>
      <trkpt lat="44.60323" lon="0.35812">
        <ele>54.496475</ele>
        <time>2022-07-11T15:51:38.311Z</time>
      </trkpt>
      <trkpt lat="44.60274" lon="0.35895">
        <ele>55.856279</ele>
        <time>2022-07-11T15:51:59.069Z</time>
      </trkpt>
      <trkpt lat="44.60249" lon="0.35937">
        <ele>56.596353</ele>
        <time>2022-07-11T15:52:09.874Z</time>
      </trkpt>
      <trkpt lat="44.60242" lon="0.3595">
        <ele>56.830126</ele>
        <time>2022-07-11T15:52:13.326Z</time>
      </trkpt>
      <trkpt lat="44.60192" lon="0.36039">
        <ele>58.369077</ele>
        <time>2022-07-11T15:52:34.916Z</time>
      </trkpt>
      <trkpt lat="44.60177" lon="0.36067">
        <ele>58.839797</ele>
        <time>2022-07-11T15:52:40.975Z</time>
      </trkpt>
      <trkpt lat="44.60182" lon="0.36072">
        <ele>58.963059</ele>
        <time>2022-07-11T15:52:42.583Z</time>
      </trkpt>
      <trkpt lat="44.6016" lon="0.36117">
        <ele>58.625744</ele>
        <time>2022-07-11T15:52:50.780Z</time>
      </trkpt>
      <trkpt lat="44.6015" lon="0.36121">
        <ele>58.532041</ele>
        <time>2022-07-11T15:52:52.519Z</time>
      </trkpt>
      <trkpt lat="44.60147" lon="0.36127">
        <ele>58.47812</ele>
        <time>2022-07-11T15:52:53.542Z</time>
      </trkpt>
      <trkpt lat="44.60137" lon="0.36147">
        <ele>58.311406</ele>
        <time>2022-07-11T15:52:56.661Z</time>
      </trkpt>
      <trkpt lat="44.60156" lon="0.36168">
        <ele>58.080969</ele>
        <time>2022-07-11T15:53:01.797Z</time>
      </trkpt>
      <trkpt lat="44.60177" lon="0.36187">
        <ele>57.849382</ele>
        <time>2022-07-11T15:53:06.759Z</time>
      </trkpt>
      <trkpt lat="44.60189" lon="0.36158">
        <ele>57.621389</ele>
        <time>2022-07-11T15:53:10.470Z</time>
      </trkpt>
      <trkpt lat="44.60211" lon="0.36177">
        <ele>57.373154</ele>
        <time>2022-07-11T15:53:14.369Z</time>
      </trkpt>
    </trkseg>
  </trk>
  <trk>
    <name><![CDATA[P2 - Miramont Villereal-Monbazillac]]></name>
    <extensions>
      <line xmlns="http://www.topografix.com/GPX/gpx_style/0/2">
        <color>0bd018</color>
        <width>4</width>
      </line>
    </extensions>
    <trkseg>
      <trkpt lat="44.60211" lon="0.36177">
        <ele>57.373154</ele>
        <time>2022-07-11T15:53:14.369Z</time>
      </trkpt>
      <trkpt lat="44.60229" lon="0.36194">
        <ele>57.285854</ele>
        <time>2022-07-11T15:53:17.490Z</time>
      </trkpt>
      <trkpt lat="44.60276" lon="0.36238">
        <ele>57.335631</ele>
        <time>2022-07-11T15:53:25.872Z</time>
      </trkpt>
      <trkpt lat="44.60284" lon="0.36246">
        <ele>57.344236</ele>
        <time>2022-07-11T15:53:27.484Z</time>
      </trkpt>
      <trkpt lat="44.60347" lon="0.36318">
        <ele>57.415918</ele>
        <time>2022-07-11T15:53:44.821Z</time>
      </trkpt>
      <trkpt lat="44.60358" lon="0.36331">
        <ele>57.428581</ele>
        <time>2022-07-11T15:53:49.352Z</time>
      </trkpt>
      <trkpt lat="44.60377" lon="0.36355">
        <ele>58.414471</ele>
        <time>2022-07-11T15:53:57.187Z</time>
      </trkpt>
      <trkpt lat="44.60413" lon="0.36401">
        <ele>60.878174</ele>
        <time>2022-07-11T15:54:16.592Z</time>
      </trkpt>
      <trkpt lat="44.60528" lon="0.36479">
        <ele>66.981956</ele>
        <time>2022-07-11T15:55:10.445Z</time>
      </trkpt>
      <trkpt lat="44.60547" lon="0.36493">
        <ele>67.446632</ele>
        <time>2022-07-11T15:55:18.562Z</time>
      </trkpt>
      <trkpt lat="44.60579" lon="0.36518">
        <ele>68.249146</ele>
        <time>2022-07-11T15:55:29.877Z</time>
      </trkpt>
      <trkpt lat="44.60701" lon="0.36893">
        <ele>71.33658</ele>
        <time>2022-07-11T15:56:28.355Z</time>
      </trkpt>
      <trkpt lat="44.6071" lon="0.36919">
        <ele>71.470276</ele>
        <time>2022-07-11T15:56:33.120Z</time>
      </trkpt>
      <trkpt lat="44.60716" lon="0.36937">
        <ele>71.563956</ele>
        <time>2022-07-11T15:56:36.418Z</time>
      </trkpt>
      <trkpt lat="44.60737" lon="0.37003">
        <ele>71.896586</ele>
        <time>2022-07-11T15:56:47.211Z</time>
      </trkpt>
      <trkpt lat="44.60739" lon="0.37009">
        <ele>71.927673</ele>
        <time>2022-07-11T15:56:48.124Z</time>
      </trkpt>
      <trkpt lat="44.60774" lon="0.37121">
        <ele>72.494725</ele>
        <time>2022-07-11T15:57:06.898Z</time>
      </trkpt>
      <trkpt lat="44.60776" lon="0.37133">
        <ele>72.554122</ele>
        <time>2022-07-11T15:57:08.793Z</time>
      </trkpt>
      <trkpt lat="44.60778" lon="0.37139">
        <ele>72.582821</ele>
        <time>2022-07-11T15:57:09.653Z</time>
      </trkpt>
      <trkpt lat="44.60785" lon="0.37209">
        <ele>72.918123</ele>
        <time>2022-07-11T15:57:19.709Z</time>
      </trkpt>
      <trkpt lat="44.6081" lon="0.37211">
        <ele>73.085375</ele>
        <time>2022-07-11T15:57:24.803Z</time>
      </trkpt>
      <trkpt lat="44.6081" lon="0.37272">
        <ele>73.372807</ele>
        <time>2022-07-11T15:57:33.958Z</time>
      </trkpt>
      <trkpt lat="44.60817" lon="0.37284">
        <ele>73.446154</ele>
        <time>2022-07-11T15:57:36.803Z</time>
      </trkpt>
      <trkpt lat="44.60863" lon="0.37312">
        <ele>73.753081</ele>
        <time>2022-07-11T15:57:46.459Z</time>
      </trkpt>
      <trkpt lat="44.60888" lon="0.37352">
        <ele>73.953402</ele>
        <time>2022-07-11T15:57:54.641Z</time>
      </trkpt>
      <trkpt lat="44.60938" lon="0.37384">
        <ele>74.245211</ele>
        <time>2022-07-11T15:58:06.747Z</time>
      </trkpt>
      <trkpt lat="44.60911" lon="0.37439">
        <ele>74.495452</ele>
        <time>2022-07-11T15:58:15.701Z</time>
      </trkpt>
      <trkpt lat="44.60878" lon="0.37528">
        <ele>74.602586</ele>
        <time>2022-07-11T15:58:27.841Z</time>
      </trkpt>
      <trkpt lat="44.60859" lon="0.37608">
        <ele>74.597635</ele>
        <time>2022-07-11T15:58:37.600Z</time>
      </trkpt>
      <trkpt lat="44.60838" lon="0.3766">
        <ele>74.594098</ele>
        <time>2022-07-11T15:58:45.556Z</time>
      </trkpt>
      <trkpt lat="44.60818" lon="0.37694">
        <ele>74.722373</ele>
        <time>2022-07-11T15:58:51.866Z</time>
      </trkpt>
      <trkpt lat="44.60816" lon="0.37736">
        <ele>75.474344</ele>
        <time>2022-07-11T15:58:58.647Z</time>
      </trkpt>
      <trkpt lat="44.60814" lon="0.37765">
        <ele>76.015461</ele>
        <time>2022-07-11T15:59:03.999Z</time>
      </trkpt>
      <trkpt lat="44.60805" lon="0.37832">
        <ele>77.243152</ele>
        <time>2022-07-11T15:59:17.266Z</time>
      </trkpt>
      <trkpt lat="44.60802" lon="0.37841">
        <ele>77.422247</ele>
        <time>2022-07-11T15:59:19.230Z</time>
      </trkpt>
      <trkpt lat="44.608" lon="0.37848">
        <ele>77.55802</ele>
        <time>2022-07-11T15:59:20.956Z</time>
      </trkpt>
      <trkpt lat="44.60784" lon="0.37888">
        <ele>78.38727</ele>
        <time>2022-07-11T15:59:31.318Z</time>
      </trkpt>
      <trkpt lat="44.60766" lon="0.37933">
        <ele>79.315386</ele>
        <time>2022-07-11T15:59:44.423Z</time>
      </trkpt>
      <trkpt lat="44.60738" lon="0.37994">
        <ele>80.638086</ele>
        <time>2022-07-11T16:00:01.903Z</time>
      </trkpt>
      <trkpt lat="44.60689" lon="0.38077">
        <ele>82.579417</ele>
        <time>2022-07-11T16:00:24.508Z</time>
      </trkpt>
      <trkpt lat="44.60686" lon="0.38081">
        <ele>82.674985</ele>
        <time>2022-07-11T16:00:25.493Z</time>
      </trkpt>
      <trkpt lat="44.60655" lon="0.38135">
        <ele>83.640976</ele>
        <time>2022-07-11T16:00:35.508Z</time>
      </trkpt>
      <trkpt lat="44.60616" lon="0.382">
        <ele>83.119185</ele>
        <time>2022-07-11T16:00:45.735Z</time>
      </trkpt>
      <trkpt lat="44.6058" lon="0.38262">
        <ele>82.62532</ele>
        <time>2022-07-11T16:00:54.463Z</time>
      </trkpt>
      <trkpt lat="44.6057" lon="0.38306">
        <ele>82.340553</ele>
        <time>2022-07-11T16:00:59.386Z</time>
      </trkpt>
      <trkpt lat="44.6057" lon="0.3835">
        <ele>82.195082</ele>
        <time>2022-07-11T16:01:04.010Z</time>
      </trkpt>
      <trkpt lat="44.60574" lon="0.38378">
        <ele>82.267345</ele>
        <time>2022-07-11T16:01:07.095Z</time>
      </trkpt>
      <trkpt lat="44.60603" lon="0.3844">
        <ele>82.454508</ele>
        <time>2022-07-11T16:01:15.465Z</time>
      </trkpt>
      <trkpt lat="44.60637" lon="0.38505">
        <ele>82.655211</ele>
        <time>2022-07-11T16:01:28.904Z</time>
      </trkpt>
      <trkpt lat="44.60653" lon="0.38561">
        <ele>82.866462</ele>
        <time>2022-07-11T16:01:40.927Z</time>
      </trkpt>
      <trkpt lat="44.60673" lon="0.38643">
        <ele>84.107667</ele>
        <time>2022-07-11T16:01:57.144Z</time>
      </trkpt>
      <trkpt lat="44.60684" lon="0.3871">
        <ele>85.1007</ele>
        <time>2022-07-11T16:02:09.708Z</time>
      </trkpt>
      <trkpt lat="44.60687" lon="0.38728">
        <ele>85.355854</ele>
        <time>2022-07-11T16:02:12.859Z</time>
      </trkpt>
      <trkpt lat="44.60693" lon="0.38766">
        <ele>85.917868</ele>
        <time>2022-07-11T16:02:20.169Z</time>
      </trkpt>
      <trkpt lat="44.60697" lon="0.38793">
        <ele>86.316641</ele>
        <time>2022-07-11T16:02:25.246Z</time>
      </trkpt>
      <trkpt lat="44.60706" lon="0.3886">
        <ele>86.963154</ele>
        <time>2022-07-11T16:02:37.511Z</time>
      </trkpt>
      <trkpt lat="44.60711" lon="0.38895">
        <ele>87.285282</ele>
        <time>2022-07-11T16:02:43.270Z</time>
      </trkpt>
      <trkpt lat="44.60712" lon="0.38906">
        <ele>87.381561</ele>
        <time>2022-07-11T16:02:45.098Z</time>
      </trkpt>
      <trkpt lat="44.60715" lon="0.38937">
        <ele>87.661692</ele>
        <time>2022-07-11T16:02:49.445Z</time>
      </trkpt>
      <trkpt lat="44.60722" lon="0.3902">
        <ele>88.414547</ele>
        <time>2022-07-11T16:03:01.730Z</time>
      </trkpt>
      <trkpt lat="44.60725" lon="0.39062">
        <ele>88.844487</ele>
        <time>2022-07-11T16:03:08.656Z</time>
      </trkpt>
      <trkpt lat="44.60728" lon="0.39107">
        <ele>89.421659</ele>
        <time>2022-07-11T16:03:16.601Z</time>
      </trkpt>
      <trkpt lat="44.6073" lon="0.39133">
        <ele>89.767371</ele>
        <time>2022-07-11T16:03:21.521Z</time>
      </trkpt>
      <trkpt lat="44.60731" lon="0.39142">
        <ele>89.880344</ele>
        <time>2022-07-11T16:03:23.171Z</time>
      </trkpt>
      <trkpt lat="44.60736" lon="0.39229">
        <ele>91.007027</ele>
        <time>2022-07-11T16:03:39.799Z</time>
      </trkpt>
      <trkpt lat="44.60746" lon="0.39446">
        <ele>93.611978</ele>
        <time>2022-07-11T16:04:17.692Z</time>
      </trkpt>
      <trkpt lat="44.60752" lon="0.39561">
        <ele>94.91412</ele>
        <time>2022-07-11T16:04:37.471Z</time>
      </trkpt>
      <trkpt lat="44.60752" lon="0.39569">
        <ele>94.977787</ele>
        <time>2022-07-11T16:04:38.840Z</time>
      </trkpt>
      <trkpt lat="44.60753" lon="0.3959">
        <ele>95.144983</ele>
        <time>2022-07-11T16:04:42.466Z</time>
      </trkpt>
      <trkpt lat="44.60754" lon="0.3965">
        <ele>95.616323</ele>
        <time>2022-07-11T16:04:52.007Z</time>
      </trkpt>
      <trkpt lat="44.60749" lon="0.39691">
        <ele>95.93912</ele>
        <time>2022-07-11T16:04:58.444Z</time>
      </trkpt>
      <trkpt lat="44.60721" lon="0.39887">
        <ele>97.73667</ele>
        <time>2022-07-11T16:05:28.961Z</time>
      </trkpt>
      <trkpt lat="44.60724" lon="0.39953">
        <ele>98.430384</ele>
        <time>2022-07-11T16:05:38.588Z</time>
      </trkpt>
      <trkpt lat="44.60772" lon="0.40079">
        <ele>100.642135</ele>
        <time>2022-07-11T16:06:06.041Z</time>
      </trkpt>
      <trkpt lat="44.6079" lon="0.40112">
        <ele>101.75031</ele>
        <time>2022-07-11T16:06:15.622Z</time>
      </trkpt>
      <trkpt lat="44.60842" lon="0.40182">
        <ele>104.476141</ele>
        <time>2022-07-11T16:06:40.437Z</time>
      </trkpt>
      <trkpt lat="44.6087" lon="0.40214">
        <ele>105.87603</ele>
        <time>2022-07-11T16:06:53.464Z</time>
      </trkpt>
      <trkpt lat="44.60912" lon="0.40246">
        <ele>107.774553</ele>
        <time>2022-07-11T16:07:10.524Z</time>
      </trkpt>
      <trkpt lat="44.60933" lon="0.40272">
        <ele>108.91525</ele>
        <time>2022-07-11T16:07:20.997Z</time>
      </trkpt>
      <trkpt lat="44.60987" lon="0.40391">
        <ele>113.030573</ele>
        <time>2022-07-11T16:07:55.612Z</time>
      </trkpt>
      <trkpt lat="44.61033" lon="0.40454">
        <ele>114.907597</ele>
        <time>2022-07-11T16:08:14.519Z</time>
      </trkpt>
      <trkpt lat="44.61099" lon="0.40512">
        <ele>116.870648</ele>
        <time>2022-07-11T16:08:36.652Z</time>
      </trkpt>
      <trkpt lat="44.61189" lon="0.40583">
        <ele>118.804392</ele>
        <time>2022-07-11T16:09:01.895Z</time>
      </trkpt>
      <trkpt lat="44.61298" lon="0.40666">
        <ele>120.297537</ele>
        <time>2022-07-11T16:09:28.819Z</time>
      </trkpt>
      <trkpt lat="44.6134" lon="0.40704">
        <ele>120.755908</ele>
        <time>2022-07-11T16:09:39.591Z</time>
      </trkpt>
      <trkpt lat="44.6137" lon="0.4074">
        <ele>121.102808</ele>
        <time>2022-07-11T16:09:48.110Z</time>
      </trkpt>
      <trkpt lat="44.614" lon="0.40798">
        <ele>121.554048</ele>
        <time>2022-07-11T16:09:59.328Z</time>
      </trkpt>
      <trkpt lat="44.61418" lon="0.40853">
        <ele>121.93275</ele>
        <time>2022-07-11T16:10:08.828Z</time>
      </trkpt>
      <trkpt lat="44.61422" lon="0.40867">
        <ele>121.865482</ele>
        <time>2022-07-11T16:10:11.186Z</time>
      </trkpt>
      <trkpt lat="44.61444" lon="0.40966">
        <ele>120.982139</ele>
        <time>2022-07-11T16:10:23.865Z</time>
      </trkpt>
      <trkpt lat="44.61454" lon="0.41069">
        <ele>120.088796</ele>
        <time>2022-07-11T16:10:35.131Z</time>
      </trkpt>
      <trkpt lat="44.61445" lon="0.41288">
        <ele>114.918783</ele>
        <time>2022-07-11T16:10:56.113Z</time>
      </trkpt>
      <trkpt lat="44.61446" lon="0.41328">
        <ele>113.888312</ele>
        <time>2022-07-11T16:10:59.732Z</time>
      </trkpt>
      <trkpt lat="44.61456" lon="0.41362">
        <ele>112.880537</ele>
        <time>2022-07-11T16:11:03.165Z</time>
      </trkpt>
      <trkpt lat="44.61471" lon="0.41393">
        <ele>111.737635</ele>
        <time>2022-07-11T16:11:06.594Z</time>
      </trkpt>
      <trkpt lat="44.61503" lon="0.41434">
        <ele>109.863942</ele>
        <time>2022-07-11T16:11:12.160Z</time>
      </trkpt>
      <trkpt lat="44.61509" lon="0.41441">
        <ele>109.529708</ele>
        <time>2022-07-11T16:11:13.142Z</time>
      </trkpt>
      <trkpt lat="44.61555" lon="0.41502">
        <ele>106.783072</ele>
        <time>2022-07-11T16:11:21.443Z</time>
      </trkpt>
      <trkpt lat="44.6158" lon="0.41553">
        <ele>104.975107</ele>
        <time>2022-07-11T16:11:27.340Z</time>
      </trkpt>
      <trkpt lat="44.61596" lon="0.41618">
        <ele>103.246867</ele>
        <time>2022-07-11T16:11:33.864Z</time>
      </trkpt>
      <trkpt lat="44.61615" lon="0.41695">
        <ele>101.193723</ele>
        <time>2022-07-11T16:11:41.670Z</time>
      </trkpt>
      <trkpt lat="44.61628" lon="0.41725">
        <ele>100.293002</ele>
        <time>2022-07-11T16:11:45.030Z</time>
      </trkpt>
      <trkpt lat="44.61631" lon="0.41732">
        <ele>100.074084</ele>
        <time>2022-07-11T16:11:45.863Z</time>
      </trkpt>
      <trkpt lat="44.61681" lon="0.41833">
        <ele>97.322652</ele>
        <time>2022-07-11T16:11:57.681Z</time>
      </trkpt>
      <trkpt lat="44.6173" lon="0.41934">
        <ele>94.75467</ele>
        <time>2022-07-11T16:12:09.795Z</time>
      </trkpt>
      <trkpt lat="44.61757" lon="0.41988">
        <ele>93.479995</ele>
        <time>2022-07-11T16:12:16.505Z</time>
      </trkpt>
      <trkpt lat="44.61766" lon="0.42007">
        <ele>93.153099</ele>
        <time>2022-07-11T16:12:18.799Z</time>
      </trkpt>
      <trkpt lat="44.61799" lon="0.42073">
        <ele>91.988445</ele>
        <time>2022-07-11T16:12:26.981Z</time>
      </trkpt>
      <trkpt lat="44.61842" lon="0.42162">
        <ele>90.430505</ele>
        <time>2022-07-11T16:12:38.529Z</time>
      </trkpt>
      <trkpt lat="44.61918" lon="0.42316">
        <ele>88.707039</ele>
        <time>2022-07-11T16:12:58.454Z</time>
      </trkpt>
      <trkpt lat="44.62011" lon="0.42508">
        <ele>89.603094</ele>
        <time>2022-07-11T16:13:27.498Z</time>
      </trkpt>
      <trkpt lat="44.6211" lon="0.42709">
        <ele>93.808567</ele>
        <time>2022-07-11T16:14:25.570Z</time>
      </trkpt>
      <trkpt lat="44.62112" lon="0.42712">
        <ele>93.876003</ele>
        <time>2022-07-11T16:14:26.319Z</time>
      </trkpt>
      <trkpt lat="44.62135" lon="0.42759">
        <ele>95.136016</ele>
        <time>2022-07-11T16:14:38.790Z</time>
      </trkpt>
      <trkpt lat="44.62154" lon="0.42798">
        <ele>96.144035</ele>
        <time>2022-07-11T16:14:47.446Z</time>
      </trkpt>
      <trkpt lat="44.62178" lon="0.42863">
        <ele>96.113044</ele>
        <time>2022-07-11T16:14:58.763Z</time>
      </trkpt>
      <trkpt lat="44.62189" lon="0.42961">
        <ele>95.661837</ele>
        <time>2022-07-11T16:15:10.404Z</time>
      </trkpt>
      <trkpt lat="44.62199" lon="0.43046">
        <ele>95.274705</ele>
        <time>2022-07-11T16:15:19.279Z</time>
      </trkpt>
      <trkpt lat="44.62205" lon="0.43101">
        <ele>94.599812</ele>
        <time>2022-07-11T16:15:24.946Z</time>
      </trkpt>
      <trkpt lat="44.62227" lon="0.43296">
        <ele>92.071775</ele>
        <time>2022-07-11T16:15:45.621Z</time>
      </trkpt>
      <trkpt lat="44.6225" lon="0.43522">
        <ele>91.488422</ele>
        <time>2022-07-11T16:16:13.360Z</time>
      </trkpt>
      <trkpt lat="44.6225" lon="0.43533">
        <ele>91.462725</ele>
        <time>2022-07-11T16:16:15.006Z</time>
      </trkpt>
      <trkpt lat="44.6225" lon="0.4354">
        <ele>91.446343</ele>
        <time>2022-07-11T16:16:16.033Z</time>
      </trkpt>
      <trkpt lat="44.62248" lon="0.43559">
        <ele>91.485024</ele>
        <time>2022-07-11T16:16:18.685Z</time>
      </trkpt>
      <trkpt lat="44.62224" lon="0.43708">
        <ele>92.649776</ele>
        <time>2022-07-11T16:16:41.558Z</time>
      </trkpt>
      <trkpt lat="44.62227" lon="0.43733">
        <ele>92.846922</ele>
        <time>2022-07-11T16:16:45.772Z</time>
      </trkpt>
      <trkpt lat="44.62245" lon="0.43781">
        <ele>93.262954</ele>
        <time>2022-07-11T16:16:55.102Z</time>
      </trkpt>
      <trkpt lat="44.62377" lon="0.44108">
        <ele>98.395026</ele>
        <time>2022-07-11T16:18:07.002Z</time>
      </trkpt>
      <trkpt lat="44.6239" lon="0.44139">
        <ele>98.745694</ele>
        <time>2022-07-11T16:18:13.293Z</time>
      </trkpt>
      <trkpt lat="44.62547" lon="0.44531">
        <ele>99.34815</ele>
        <time>2022-07-11T16:19:15.269Z</time>
      </trkpt>
      <trkpt lat="44.62563" lon="0.44582">
        <ele>98.649984</ele>
        <time>2022-07-11T16:19:21.086Z</time>
      </trkpt>
      <trkpt lat="44.6258" lon="0.44651">
        <ele>97.732067</ele>
        <time>2022-07-11T16:19:28.313Z</time>
      </trkpt>
      <trkpt lat="44.6259" lon="0.44695">
        <ele>96.839501</ele>
        <time>2022-07-11T16:19:32.739Z</time>
      </trkpt>
      <trkpt lat="44.62605" lon="0.44763">
        <ele>94.382843</ele>
        <time>2022-07-11T16:19:39.227Z</time>
      </trkpt>
      <trkpt lat="44.62634" lon="0.44893">
        <ele>89.673272</ele>
        <time>2022-07-11T16:19:51.382Z</time>
      </trkpt>
      <trkpt lat="44.62641" lon="0.4492">
        <ele>88.675003</ele>
        <time>2022-07-11T16:19:53.930Z</time>
      </trkpt>
      <trkpt lat="44.62644" lon="0.44931">
        <ele>88.360869</ele>
        <time>2022-07-11T16:19:54.992Z</time>
      </trkpt>
      <trkpt lat="44.62671" lon="0.45052">
        <ele>85.278604</ele>
        <time>2022-07-11T16:20:06.774Z</time>
      </trkpt>
      <trkpt lat="44.62683" lon="0.45104">
        <ele>83.962107</ele>
        <time>2022-07-11T16:20:12.027Z</time>
      </trkpt>
      <trkpt lat="44.62734" lon="0.45328">
        <ele>82.274766</ele>
        <time>2022-07-11T16:20:38.390Z</time>
      </trkpt>
      <trkpt lat="44.62751" lon="0.45402">
        <ele>82.191011</ele>
        <time>2022-07-11T16:20:51.534Z</time>
      </trkpt>
      <trkpt lat="44.62752" lon="0.45405">
        <ele>82.214559</ele>
        <time>2022-07-11T16:20:52.139Z</time>
      </trkpt>
      <trkpt lat="44.6279" lon="0.45573">
        <ele>85.059705</ele>
        <time>2022-07-11T16:21:27.612Z</time>
      </trkpt>
      <trkpt lat="44.62809" lon="0.45659">
        <ele>86.596782</ele>
        <time>2022-07-11T16:21:43.877Z</time>
      </trkpt>
      <trkpt lat="44.62829" lon="0.45709">
        <ele>87.849227</ele>
        <time>2022-07-11T16:21:54.868Z</time>
      </trkpt>
      <trkpt lat="44.62827" lon="0.45727">
        <ele>88.237231</ele>
        <time>2022-07-11T16:21:58.601Z</time>
      </trkpt>
      <trkpt lat="44.6283" lon="0.45748">
        <ele>88.710383</ele>
        <time>2022-07-11T16:22:03.299Z</time>
      </trkpt>
      <trkpt lat="44.62844" lon="0.45793">
        <ele>89.7824</ele>
        <time>2022-07-11T16:22:14.537Z</time>
      </trkpt>
      <trkpt lat="44.6285" lon="0.45803">
        <ele>90.050763</ele>
        <time>2022-07-11T16:22:17.508Z</time>
      </trkpt>
      <trkpt lat="44.62858" lon="0.45812">
        <ele>90.380556</ele>
        <time>2022-07-11T16:22:21.158Z</time>
      </trkpt>
      <trkpt lat="44.62877" lon="0.45835">
        <ele>91.142798</ele>
        <time>2022-07-11T16:22:29.189Z</time>
      </trkpt>
      <trkpt lat="44.62906" lon="0.45871">
        <ele>92.271931</ele>
        <time>2022-07-11T16:22:41.741Z</time>
      </trkpt>
      <trkpt lat="44.62921" lon="0.45889">
        <ele>92.778261</ele>
        <time>2022-07-11T16:22:48.148Z</time>
      </trkpt>
      <trkpt lat="44.62945" lon="0.45917">
        <ele>93.618479</ele>
        <time>2022-07-11T16:22:58.940Z</time>
      </trkpt>
      <trkpt lat="44.62962" lon="0.45946">
        <ele>94.335368</ele>
        <time>2022-07-11T16:23:07.818Z</time>
      </trkpt>
      <trkpt lat="44.62966" lon="0.45957">
        <ele>94.569863</ele>
        <time>2022-07-11T16:23:10.739Z</time>
      </trkpt>
      <trkpt lat="44.62969" lon="0.45973">
        <ele>94.88633</ele>
        <time>2022-07-11T16:23:14.210Z</time>
      </trkpt>
      <trkpt lat="44.62962" lon="0.46083">
        <ele>96.402567</ele>
        <time>2022-07-11T16:23:34.264Z</time>
      </trkpt>
      <trkpt lat="44.62961" lon="0.46099">
        <ele>96.264062</ele>
        <time>2022-07-11T16:23:36.570Z</time>
      </trkpt>
      <trkpt lat="44.63014" lon="0.4613">
        <ele>95.569671</ele>
        <time>2022-07-11T16:23:45.625Z</time>
      </trkpt>
      <trkpt lat="44.63015" lon="0.46147">
        <ele>95.419261</ele>
        <time>2022-07-11T16:23:47.525Z</time>
      </trkpt>
      <trkpt lat="44.63047" lon="0.46249">
        <ele>94.465142</ele>
        <time>2022-07-11T16:23:58.795Z</time>
      </trkpt>
      <trkpt lat="44.63056" lon="0.46275">
        <ele>94.39025</ele>
        <time>2022-07-11T16:24:01.626Z</time>
      </trkpt>
      <trkpt lat="44.63233" lon="0.46796">
        <ele>95.271807</ele>
        <time>2022-07-11T16:25:20.437Z</time>
      </trkpt>
      <trkpt lat="44.63279" lon="0.46927">
        <ele>96.054224</ele>
        <time>2022-07-11T16:25:42.861Z</time>
      </trkpt>
      <trkpt lat="44.63327" lon="0.47064">
        <ele>97.10619</ele>
        <time>2022-07-11T16:26:07.427Z</time>
      </trkpt>
      <trkpt lat="44.6341" lon="0.47297">
        <ele>97.86967</ele>
        <time>2022-07-11T16:26:46.788Z</time>
      </trkpt>
      <trkpt lat="44.63573" lon="0.47759">
        <ele>95.088759</ele>
        <time>2022-07-11T16:27:43.740Z</time>
      </trkpt>
      <trkpt lat="44.63582" lon="0.47784">
        <ele>94.994269</ele>
        <time>2022-07-11T16:27:47.378Z</time>
      </trkpt>
      <trkpt lat="44.63804" lon="0.48399">
        <ele>98.074492</ele>
        <time>2022-07-11T16:29:35.862Z</time>
      </trkpt>
      <trkpt lat="44.63808" lon="0.4841">
        <ele>98.024058</ele>
        <time>2022-07-11T16:29:37.121Z</time>
      </trkpt>
      <trkpt lat="44.63875" lon="0.48612">
        <ele>96.366671</ele>
        <time>2022-07-11T16:30:00.244Z</time>
      </trkpt>
      <trkpt lat="44.63958" lon="0.48844">
        <ele>94.424172</ele>
        <time>2022-07-11T16:30:28.959Z</time>
      </trkpt>
      <trkpt lat="44.64132" lon="0.49325">
        <ele>93.012801</ele>
        <time>2022-07-11T16:31:36.789Z</time>
      </trkpt>
      <trkpt lat="44.64255" lon="0.49677">
        <ele>90.183773</ele>
        <time>2022-07-11T16:32:20.618Z</time>
      </trkpt>
      <trkpt lat="44.64324" lon="0.49876">
        <ele>87.7896</ele>
        <time>2022-07-11T16:32:44.693Z</time>
      </trkpt>
      <trkpt lat="44.64675" lon="0.50883">
        <ele>70.50863</ele>
        <time>2022-07-11T16:34:39.069Z</time>
      </trkpt>
      <trkpt lat="44.64881" lon="0.51476">
        <ele>68.44848</ele>
        <time>2022-07-11T16:36:00.450Z</time>
      </trkpt>
      <trkpt lat="44.64887" lon="0.51495">
        <ele>68.513209</ele>
        <time>2022-07-11T16:36:03.286Z</time>
      </trkpt>
      <trkpt lat="44.65067" lon="0.52009">
        <ele>71.13422</ele>
        <time>2022-07-11T16:37:25.024Z</time>
      </trkpt>
      <trkpt lat="44.65179" lon="0.52332">
        <ele>77.028494</ele>
        <time>2022-07-11T16:38:28.736Z</time>
      </trkpt>
      <trkpt lat="44.65287" lon="0.52642">
        <ele>93.081934</ele>
        <time>2022-07-11T16:40:21.441Z</time>
      </trkpt>
      <trkpt lat="44.65355" lon="0.52836">
        <ele>105.994928</ele>
        <time>2022-07-11T16:41:46.556Z</time>
      </trkpt>
      <trkpt lat="44.65356" lon="0.52862">
        <ele>106.84739</ele>
        <time>2022-07-11T16:41:55.245Z</time>
      </trkpt>
      <trkpt lat="44.65344" lon="0.52887">
        <ele>107.818078</ele>
        <time>2022-07-11T16:42:04.623Z</time>
      </trkpt>
      <trkpt lat="44.65329" lon="0.5289">
        <ele>108.50232</ele>
        <time>2022-07-11T16:42:10.630Z</time>
      </trkpt>
      <trkpt lat="44.65281" lon="0.52882">
        <ele>110.708938</ele>
        <time>2022-07-11T16:42:27.673Z</time>
      </trkpt>
      <trkpt lat="44.65245" lon="0.52889">
        <ele>112.381615</ele>
        <time>2022-07-11T16:42:38.354Z</time>
      </trkpt>
      <trkpt lat="44.65214" lon="0.52916">
        <ele>114.040011</ele>
        <time>2022-07-11T16:42:47.172Z</time>
      </trkpt>
      <trkpt lat="44.65204" lon="0.52937">
        <ele>114.614115</ele>
        <time>2022-07-11T16:42:51.340Z</time>
      </trkpt>
      <trkpt lat="44.65192" lon="0.53017">
        <ele>116.508755</ele>
        <time>2022-07-11T16:43:05.918Z</time>
      </trkpt>
      <trkpt lat="44.65176" lon="0.5318">
        <ele>120.399221</ele>
        <time>2022-07-11T16:43:46.834Z</time>
      </trkpt>
      <trkpt lat="44.65179" lon="0.53203">
        <ele>121.058476</ele>
        <time>2022-07-11T16:43:52.913Z</time>
      </trkpt>
      <trkpt lat="44.65189" lon="0.53222">
        <ele>121.697872</ele>
        <time>2022-07-11T16:43:58.916Z</time>
      </trkpt>
      <trkpt lat="44.65245" lon="0.53263">
        <ele>124.153185</ele>
        <time>2022-07-11T16:44:21.294Z</time>
      </trkpt>
      <trkpt lat="44.65288" lon="0.53311">
        <ele>126.27911</ele>
        <time>2022-07-11T16:44:39.018Z</time>
      </trkpt>
      <trkpt lat="44.65382" lon="0.53453">
        <ele>129.64277</ele>
        <time>2022-07-11T16:45:16.543Z</time>
      </trkpt>
      <trkpt lat="44.6552" lon="0.53697">
        <ele>133.534817</ele>
        <time>2022-07-11T16:46:10.761Z</time>
      </trkpt>
      <trkpt lat="44.65569" lon="0.53823">
        <ele>134.635992</ele>
        <time>2022-07-11T16:46:33.444Z</time>
      </trkpt>
      <trkpt lat="44.65581" lon="0.53876">
        <ele>135.031558</ele>
        <time>2022-07-11T16:46:41.865Z</time>
      </trkpt>
      <trkpt lat="44.65585" lon="0.5392">
        <ele>135.352931</ele>
        <time>2022-07-11T16:46:48.664Z</time>
      </trkpt>
      <trkpt lat="44.65584" lon="0.53995">
        <ele>135.716847</ele>
        <time>2022-07-11T16:47:00.079Z</time>
      </trkpt>
      <trkpt lat="44.65573" lon="0.54208">
        <ele>136.422993</ele>
        <time>2022-07-11T16:47:29.914Z</time>
      </trkpt>
      <trkpt lat="44.65571" lon="0.54227">
        <ele>136.3691</ele>
        <time>2022-07-11T16:47:32.550Z</time>
      </trkpt>
      <trkpt lat="44.65534" lon="0.54738">
        <ele>133.794952</ele>
        <time>2022-07-11T16:48:33.036Z</time>
      </trkpt>
      <trkpt lat="44.65536" lon="0.54797">
        <ele>132.73594</ele>
        <time>2022-07-11T16:48:39.077Z</time>
      </trkpt>
      <trkpt lat="44.65569" lon="0.55041">
        <ele>128.737664</ele>
        <time>2022-07-11T16:49:03.273Z</time>
      </trkpt>
      <trkpt lat="44.65604" lon="0.55305">
        <ele>126.76964</ele>
        <time>2022-07-11T16:49:33.239Z</time>
      </trkpt>
      <trkpt lat="44.65644" lon="0.55585">
        <ele>128.245015</ele>
        <time>2022-07-11T16:50:19.961Z</time>
      </trkpt>
      <trkpt lat="44.65664" lon="0.55754">
        <ele>129.082261</ele>
        <time>2022-07-11T16:50:47.463Z</time>
      </trkpt>
      <trkpt lat="44.65666" lon="0.55773">
        <ele>129.021814</ele>
        <time>2022-07-11T16:50:50.350Z</time>
      </trkpt>
      <trkpt lat="44.65672" lon="0.55821">
        <ele>128.871874</ele>
        <time>2022-07-11T16:50:56.448Z</time>
      </trkpt>
      <trkpt lat="44.65687" lon="0.55926">
        <ele>128.542847</ele>
        <time>2022-07-11T16:51:08.711Z</time>
      </trkpt>
      <trkpt lat="44.65687" lon="0.55967">
        <ele>127.920246</ele>
        <time>2022-07-11T16:51:13.233Z</time>
      </trkpt>
      <trkpt lat="44.65644" lon="0.56173">
        <ele>121.64918</ele>
        <time>2022-07-11T16:51:33.205Z</time>
      </trkpt>
      <trkpt lat="44.6564" lon="0.56226">
        <ele>119.49658</ele>
        <time>2022-07-11T16:51:37.816Z</time>
      </trkpt>
      <trkpt lat="44.65642" lon="0.56275">
        <ele>117.253209</ele>
        <time>2022-07-11T16:51:41.905Z</time>
      </trkpt>
      <trkpt lat="44.65665" lon="0.56473">
        <ele>108.472789</ele>
        <time>2022-07-11T16:51:59.154Z</time>
      </trkpt>
      <trkpt lat="44.65644" lon="0.56653">
        <ele>102.992103</ele>
        <time>2022-07-11T16:52:16.164Z</time>
      </trkpt>
      <trkpt lat="44.65506" lon="0.57547">
        <ele>87.691355</ele>
        <time>2022-07-11T16:53:50.579Z</time>
      </trkpt>
      <trkpt lat="44.65511" lon="0.57651">
        <ele>85.720296</ele>
        <time>2022-07-11T16:54:00.964Z</time>
      </trkpt>
      <trkpt lat="44.65592" lon="0.5811">
        <ele>74.56523</ele>
        <time>2022-07-11T16:54:45.894Z</time>
      </trkpt>
      <trkpt lat="44.65645" lon="0.58395">
        <ele>72.690968</ele>
        <time>2022-07-11T16:55:19.202Z</time>
      </trkpt>
      <trkpt lat="44.65653" lon="0.58441">
        <ele>73.188856</ele>
        <time>2022-07-11T16:55:28.947Z</time>
      </trkpt>
      <trkpt lat="44.65655" lon="0.58453">
        <ele>73.465483</ele>
        <time>2022-07-11T16:55:31.466Z</time>
      </trkpt>
      <trkpt lat="44.65675" lon="0.5857">
        <ele>76.279935</ele>
        <time>2022-07-11T16:55:59.695Z</time>
      </trkpt>
      <trkpt lat="44.65681" lon="0.58607">
        <ele>77.142207</ele>
        <time>2022-07-11T16:56:08.577Z</time>
      </trkpt>
      <trkpt lat="44.65695" lon="0.58688">
        <ele>79.100417</ele>
        <time>2022-07-11T16:56:29.073Z</time>
      </trkpt>
      <trkpt lat="44.65736" lon="0.58914">
        <ele>84.646813</ele>
        <time>2022-07-11T16:57:18.537Z</time>
      </trkpt>
      <trkpt lat="44.65764" lon="0.58972">
        <ele>87.133479</ele>
        <time>2022-07-11T16:57:34.124Z</time>
      </trkpt>
      <trkpt lat="44.65719" lon="0.59012">
        <ele>89.790981</ele>
        <time>2022-07-11T16:57:56.124Z</time>
      </trkpt>
      <trkpt lat="44.6568" lon="0.59029">
        <ele>91.806734</ele>
        <time>2022-07-11T16:58:13.628Z</time>
      </trkpt>
      <trkpt lat="44.65648" lon="0.59032">
        <ele>93.430511</ele>
        <time>2022-07-11T16:58:27.567Z</time>
      </trkpt>
      <trkpt lat="44.65621" lon="0.59027">
        <ele>94.108621</ele>
        <time>2022-07-11T16:58:38.060Z</time>
      </trkpt>
      <trkpt lat="44.65602" lon="0.59018">
        <ele>94.592939</ele>
        <time>2022-07-11T16:58:44.817Z</time>
      </trkpt>
      <trkpt lat="44.6558" lon="0.58997">
        <ele>95.245704</ele>
        <time>2022-07-11T16:58:54.227Z</time>
      </trkpt>
      <trkpt lat="44.65558" lon="0.59106">
        <ele>97.231794</ele>
        <time>2022-07-11T16:59:12.263Z</time>
      </trkpt>
      <trkpt lat="44.65557" lon="0.59113">
        <ele>97.34989</ele>
        <time>2022-07-11T16:59:13.306Z</time>
      </trkpt>
      <trkpt lat="44.65536" lon="0.5922">
        <ele>96.829651</ele>
        <time>2022-07-11T16:59:26.927Z</time>
      </trkpt>
      <trkpt lat="44.65519" lon="0.59318">
        <ele>95.543995</ele>
        <time>2022-07-11T16:59:36.817Z</time>
      </trkpt>
      <trkpt lat="44.65522" lon="0.59359">
        <ele>95.016889</ele>
        <time>2022-07-11T16:59:40.933Z</time>
      </trkpt>
      <trkpt lat="44.65533" lon="0.59409">
        <ele>94.319677</ele>
        <time>2022-07-11T16:59:46.221Z</time>
      </trkpt>
      <trkpt lat="44.65565" lon="0.59464">
        <ele>93.31246</ele>
        <time>2022-07-11T16:59:53.747Z</time>
      </trkpt>
      <trkpt lat="44.65653" lon="0.59569">
        <ele>91.004223</ele>
        <time>2022-07-11T17:00:10.812Z</time>
      </trkpt>
      <trkpt lat="44.65697" lon="0.5961">
        <ele>90.000921</ele>
        <time>2022-07-11T17:00:18.677Z</time>
      </trkpt>
      <trkpt lat="44.65719" lon="0.59629">
        <ele>89.513535</ele>
        <time>2022-07-11T17:00:22.558Z</time>
      </trkpt>
      <trkpt lat="44.65832" lon="0.59725">
        <ele>86.797805</ele>
        <time>2022-07-11T17:00:42.253Z</time>
      </trkpt>
      <trkpt lat="44.65873" lon="0.59774">
        <ele>85.44617</ele>
        <time>2022-07-11T17:00:49.785Z</time>
      </trkpt>
      <trkpt lat="44.65899" lon="0.59816">
        <ele>84.438801</ele>
        <time>2022-07-11T17:00:55.298Z</time>
      </trkpt>
      <trkpt lat="44.6603" lon="0.60047">
        <ele>78.996053</ele>
        <time>2022-07-11T17:01:24.465Z</time>
      </trkpt>
      <trkpt lat="44.66063" lon="0.60087">
        <ele>78.165683</ele>
        <time>2022-07-11T17:01:31.052Z</time>
      </trkpt>
      <trkpt lat="44.6608" lon="0.60203">
        <ele>77.259242</ele>
        <time>2022-07-11T17:01:44.846Z</time>
      </trkpt>
      <trkpt lat="44.66091" lon="0.6056">
        <ele>75.628498</ele>
        <time>2022-07-11T17:02:29.261Z</time>
      </trkpt>
      <trkpt lat="44.66126" lon="0.60838">
        <ele>74.942045</ele>
        <time>2022-07-11T17:03:05.038Z</time>
      </trkpt>
      <trkpt lat="44.66143" lon="0.60968">
        <ele>74.659566</ele>
        <time>2022-07-11T17:03:22.202Z</time>
      </trkpt>
      <trkpt lat="44.66179" lon="0.61103">
        <ele>74.220687</ele>
        <time>2022-07-11T17:03:40.227Z</time>
      </trkpt>
      <trkpt lat="44.66196" lon="0.61166">
        <ele>73.909782</ele>
        <time>2022-07-11T17:03:48.400Z</time>
      </trkpt>
      <trkpt lat="44.6621" lon="0.61219">
        <ele>73.646136</ele>
        <time>2022-07-11T17:03:55.249Z</time>
      </trkpt>
      <trkpt lat="44.66256" lon="0.61472">
        <ele>72.338368</ele>
        <time>2022-07-11T17:04:26.928Z</time>
      </trkpt>
      <trkpt lat="44.66248" lon="0.61583">
        <ele>71.770235</ele>
        <time>2022-07-11T17:04:40.540Z</time>
      </trkpt>
      <trkpt lat="44.66248" lon="0.61657">
        <ele>71.39803</ele>
        <time>2022-07-11T17:04:49.528Z</time>
      </trkpt>
      <trkpt lat="44.6626" lon="0.61746">
        <ele>70.944249</ele>
        <time>2022-07-11T17:05:00.512Z</time>
      </trkpt>
      <trkpt lat="44.66264" lon="0.61808">
        <ele>70.685519</ele>
        <time>2022-07-11T17:05:07.951Z</time>
      </trkpt>
      <trkpt lat="44.66273" lon="0.61853">
        <ele>70.592274</ele>
        <time>2022-07-11T17:05:13.716Z</time>
      </trkpt>
      <trkpt lat="44.66315" lon="0.61962">
        <ele>70.34705</ele>
        <time>2022-07-11T17:05:29.437Z</time>
      </trkpt>
      <trkpt lat="44.6632" lon="0.61975">
        <ele>70.317064</ele>
        <time>2022-07-11T17:05:31.359Z</time>
      </trkpt>
      <trkpt lat="44.66348" lon="0.62068">
        <ele>70.490538</ele>
        <time>2022-07-11T17:05:45.102Z</time>
      </trkpt>
      <trkpt lat="44.66357" lon="0.62182">
        <ele>71.111195</ele>
        <time>2022-07-11T17:06:02.417Z</time>
      </trkpt>
      <trkpt lat="44.66347" lon="0.62383">
        <ele>72.591393</ele>
        <time>2022-07-11T17:06:37.032Z</time>
      </trkpt>
      <trkpt lat="44.66335" lon="0.62444">
        <ele>73.147194</ele>
        <time>2022-07-11T17:06:47.863Z</time>
      </trkpt>
      <trkpt lat="44.66312" lon="0.62514">
        <ele>73.818549</ele>
        <time>2022-07-11T17:07:00.567Z</time>
      </trkpt>
      <trkpt lat="44.66188" lon="0.6276">
        <ele>74.635127</ele>
        <time>2022-07-11T17:07:43.583Z</time>
      </trkpt>
      <trkpt lat="44.66144" lon="0.62938">
        <ele>74.649375</ele>
        <time>2022-07-11T17:08:08.032Z</time>
      </trkpt>
      <trkpt lat="44.66059" lon="0.63229">
        <ele>74.20145</ele>
        <time>2022-07-11T17:08:48.463Z</time>
      </trkpt>
      <trkpt lat="44.66044" lon="0.63294">
        <ele>74.093679</ele>
        <time>2022-07-11T17:08:57.152Z</time>
      </trkpt>
      <trkpt lat="44.66017" lon="0.63376">
        <ele>73.949992</ele>
        <time>2022-07-11T17:09:08.751Z</time>
      </trkpt>
      <trkpt lat="44.65994" lon="0.63454">
        <ele>73.864532</ele>
        <time>2022-07-11T17:09:19.610Z</time>
      </trkpt>
      <trkpt lat="44.65951" lon="0.63642">
        <ele>73.805244</ele>
        <time>2022-07-11T17:09:45.771Z</time>
      </trkpt>
      <trkpt lat="44.65912" lon="0.63748">
        <ele>73.75565</ele>
        <time>2022-07-11T17:10:01.475Z</time>
      </trkpt>
      <trkpt lat="44.65898" lon="0.63811">
        <ele>73.726752</ele>
        <time>2022-07-11T17:10:10.070Z</time>
      </trkpt>
      <trkpt lat="44.65914" lon="0.64131">
        <ele>73.509743</ele>
        <time>2022-07-11T17:10:51.543Z</time>
      </trkpt>
      <trkpt lat="44.65904" lon="0.64192">
        <ele>73.588211</ele>
        <time>2022-07-11T17:11:00.026Z</time>
      </trkpt>
      <trkpt lat="44.65872" lon="0.6423">
        <ele>73.708362</ele>
        <time>2022-07-11T17:11:08.201Z</time>
      </trkpt>
      <trkpt lat="44.6579" lon="0.6429">
        <ele>73.972098</ele>
        <time>2022-07-11T17:11:26.793Z</time>
      </trkpt>
      <trkpt lat="44.65745" lon="0.6433">
        <ele>74.097961</ele>
        <time>2022-07-11T17:11:37.700Z</time>
      </trkpt>
      <trkpt lat="44.65717" lon="0.64366">
        <ele>74.182814</ele>
        <time>2022-07-11T17:11:45.591Z</time>
      </trkpt>
      <trkpt lat="44.65619" lon="0.64521">
        <ele>74.122685</ele>
        <time>2022-07-11T17:12:13.057Z</time>
      </trkpt>
      <trkpt lat="44.65623" lon="0.64546">
        <ele>74.0034</ele>
        <time>2022-07-11T17:12:16.245Z</time>
      </trkpt>
      <trkpt lat="44.65618" lon="0.64715">
        <ele>73.22458</ele>
        <time>2022-07-11T17:12:36.537Z</time>
      </trkpt>
      <trkpt lat="44.65621" lon="0.64774">
        <ele>72.869865</ele>
        <time>2022-07-11T17:12:43.356Z</time>
      </trkpt>
      <trkpt lat="44.65633" lon="0.64801">
        <ele>72.677202</ele>
        <time>2022-07-11T17:12:47.123Z</time>
      </trkpt>
      <trkpt lat="44.65654" lon="0.6482">
        <ele>72.465309</ele>
        <time>2022-07-11T17:12:51.255Z</time>
      </trkpt>
      <trkpt lat="44.65882" lon="0.64946">
        <ele>70.953987</ele>
        <time>2022-07-11T17:13:33.211Z</time>
      </trkpt>
      <trkpt lat="44.65894" lon="0.64953">
        <ele>70.887689</ele>
        <time>2022-07-11T17:13:35.857Z</time>
      </trkpt>
      <trkpt lat="44.66017" lon="0.6502">
        <ele>71.104027</ele>
        <time>2022-07-11T17:14:01.277Z</time>
      </trkpt>
      <trkpt lat="44.66039" lon="0.65023">
        <ele>71.150437</ele>
        <time>2022-07-11T17:14:05.846Z</time>
      </trkpt>
      <trkpt lat="44.65974" lon="0.65196">
        <ele>71.556643</ele>
        <time>2022-07-11T17:14:32.813Z</time>
      </trkpt>
      <trkpt lat="44.65966" lon="0.65217">
        <ele>71.612034</ele>
        <time>2022-07-11T17:14:36.156Z</time>
      </trkpt>
      <trkpt lat="44.65952" lon="0.6536">
        <ele>71.859273</ele>
        <time>2022-07-11T17:14:55.021Z</time>
      </trkpt>
      <trkpt lat="44.65922" lon="0.6557">
        <ele>72.133124</ele>
        <time>2022-07-11T17:15:22.889Z</time>
      </trkpt>
      <trkpt lat="44.65911" lon="0.65653">
        <ele>72.413583</ele>
        <time>2022-07-11T17:15:34.545Z</time>
      </trkpt>
      <trkpt lat="44.65893" lon="0.65793">
        <ele>72.88497</ele>
        <time>2022-07-11T17:15:54.988Z</time>
      </trkpt>
      <trkpt lat="44.65884" lon="0.65832">
        <ele>72.97433</ele>
        <time>2022-07-11T17:16:00.994Z</time>
      </trkpt>
      <trkpt lat="44.65814" lon="0.66025">
        <ele>73.430229</ele>
        <time>2022-07-11T17:16:30.186Z</time>
      </trkpt>
      <trkpt lat="44.65806" lon="0.66057">
        <ele>73.353652</ele>
        <time>2022-07-11T17:16:34.295Z</time>
      </trkpt>
      <trkpt lat="44.65801" lon="0.66093">
        <ele>73.270257</ele>
        <time>2022-07-11T17:16:38.813Z</time>
      </trkpt>
      <trkpt lat="44.65806" lon="0.66307">
        <ele>72.879729</ele>
        <time>2022-07-11T17:17:04.450Z</time>
      </trkpt>
      <trkpt lat="44.65809" lon="0.6634">
        <ele>72.891178</ele>
        <time>2022-07-11T17:17:08.632Z</time>
      </trkpt>
      <trkpt lat="44.65825" lon="0.66383">
        <ele>72.907462</ele>
        <time>2022-07-11T17:17:14.687Z</time>
      </trkpt>
      <trkpt lat="44.65853" lon="0.66442">
        <ele>72.931906</ele>
        <time>2022-07-11T17:17:24.152Z</time>
      </trkpt>
      <trkpt lat="44.65934" lon="0.66577">
        <ele>73.085799</ele>
        <time>2022-07-11T17:17:48.104Z</time>
      </trkpt>
      <trkpt lat="44.65961" lon="0.66634">
        <ele>73.165665</ele>
        <time>2022-07-11T17:17:57.038Z</time>
      </trkpt>
      <trkpt lat="44.65986" lon="0.66745">
        <ele>73.360274</ele>
        <time>2022-07-11T17:18:11.744Z</time>
      </trkpt>
      <trkpt lat="44.66011" lon="0.66899">
        <ele>73.753264</ele>
        <time>2022-07-11T17:18:32.155Z</time>
      </trkpt>
      <trkpt lat="44.6604" lon="0.66982">
        <ele>74.384129</ele>
        <time>2022-07-11T17:18:46.629Z</time>
      </trkpt>
      <trkpt lat="44.6605" lon="0.67024">
        <ele>74.935972</ele>
        <time>2022-07-11T17:18:54.084Z</time>
      </trkpt>
      <trkpt lat="44.66052" lon="0.67052">
        <ele>75.277747</ele>
        <time>2022-07-11T17:18:59.525Z</time>
      </trkpt>
      <trkpt lat="44.66048" lon="0.6708">
        <ele>75.633444</ele>
        <time>2022-07-11T17:19:04.151Z</time>
      </trkpt>
      <trkpt lat="44.66039" lon="0.67115">
        <ele>76.091329</ele>
        <time>2022-07-11T17:19:10.991Z</time>
      </trkpt>
      <trkpt lat="44.66027" lon="0.67141">
        <ele>76.477801</ele>
        <time>2022-07-11T17:19:17.259Z</time>
      </trkpt>
      <trkpt lat="44.65885" lon="0.67317">
        <ele>80.285598</ele>
        <time>2022-07-11T17:20:07.094Z</time>
      </trkpt>
      <trkpt lat="44.65865" lon="0.67369">
        <ele>81.120226</ele>
        <time>2022-07-11T17:20:17.523Z</time>
      </trkpt>
      <trkpt lat="44.6586" lon="0.67413">
        <ele>81.721386</ele>
        <time>2022-07-11T17:20:25.503Z</time>
      </trkpt>
      <trkpt lat="44.65835" lon="0.67676">
        <ele>85.196611</ele>
        <time>2022-07-11T17:21:13.334Z</time>
      </trkpt>
      <trkpt lat="44.65815" lon="0.67889">
        <ele>87.176324</ele>
        <time>2022-07-11T17:21:51.973Z</time>
      </trkpt>
      <trkpt lat="44.65798" lon="0.68047">
        <ele>86.861285</ele>
        <time>2022-07-11T17:22:10.987Z</time>
      </trkpt>
      <trkpt lat="44.65794" lon="0.68074">
        <ele>86.80708</ele>
        <time>2022-07-11T17:22:13.924Z</time>
      </trkpt>
      <trkpt lat="44.65792" lon="0.68105">
        <ele>86.55995</ele>
        <time>2022-07-11T17:22:17.252Z</time>
      </trkpt>
      <trkpt lat="44.65796" lon="0.68128">
        <ele>86.192259</ele>
        <time>2022-07-11T17:22:19.644Z</time>
      </trkpt>
      <trkpt lat="44.6581" lon="0.6816">
        <ele>85.594852</ele>
        <time>2022-07-11T17:22:23.601Z</time>
      </trkpt>
      <trkpt lat="44.65809" lon="0.68177">
        <ele>85.329427</ele>
        <time>2022-07-11T17:22:25.265Z</time>
      </trkpt>
      <trkpt lat="44.65774" lon="0.68286">
        <ele>83.460829</ele>
        <time>2022-07-11T17:22:37.150Z</time>
      </trkpt>
      <trkpt lat="44.65732" lon="0.68362">
        <ele>82.450033</ele>
        <time>2022-07-11T17:22:47.313Z</time>
      </trkpt>
      <trkpt lat="44.65638" lon="0.68549">
        <ele>81.136041</ele>
        <time>2022-07-11T17:23:14.252Z</time>
      </trkpt>
      <trkpt lat="44.65612" lon="0.68585">
        <ele>81.158093</ele>
        <time>2022-07-11T17:23:20.761Z</time>
      </trkpt>
      <trkpt lat="44.65365" lon="0.68805">
        <ele>81.992948</ele>
        <time>2022-07-11T17:24:15.901Z</time>
      </trkpt>
      <trkpt lat="44.65301" lon="0.68885">
        <ele>83.373888</ele>
        <time>2022-07-11T17:24:36.033Z</time>
      </trkpt>
      <trkpt lat="44.65224" lon="0.69015">
        <ele>85.472313</ele>
        <time>2022-07-11T17:25:08.443Z</time>
      </trkpt>
      <trkpt lat="44.65172" lon="0.69133">
        <ele>87.150215</ele>
        <time>2022-07-11T17:25:34.122Z</time>
      </trkpt>
      <trkpt lat="44.65115" lon="0.6927">
        <ele>88.471247</ele>
        <time>2022-07-11T17:25:58.720Z</time>
      </trkpt>
      <trkpt lat="44.65017" lon="0.69555">
        <ele>90.001287</ele>
        <time>2022-07-11T17:26:41.208Z</time>
      </trkpt>
      <trkpt lat="44.65011" lon="0.69576">
        <ele>90.144397</ele>
        <time>2022-07-11T17:26:44.815Z</time>
      </trkpt>
      <trkpt lat="44.64983" lon="0.69692">
        <ele>91.21182</ele>
        <time>2022-07-11T17:27:05.572Z</time>
      </trkpt>
      <trkpt lat="44.64966" lon="0.69781">
        <ele>92.801714</ele>
        <time>2022-07-11T17:27:23.513Z</time>
      </trkpt>
      <trkpt lat="44.64961" lon="0.69835">
        <ele>93.724766</ele>
        <time>2022-07-11T17:27:34.423Z</time>
      </trkpt>
      <trkpt lat="44.64969" lon="0.69968">
        <ele>96.369435</ele>
        <time>2022-07-11T17:28:01.773Z</time>
      </trkpt>
      <trkpt lat="44.64959" lon="0.70115">
        <ele>99.833001</ele>
        <time>2022-07-11T17:28:34.624Z</time>
      </trkpt>
      <trkpt lat="44.64947" lon="0.70172">
        <ele>101.210456</ele>
        <time>2022-07-11T17:28:49.184Z</time>
      </trkpt>
      <trkpt lat="44.64894" lon="0.70361">
        <ele>105.220132</ele>
        <time>2022-07-11T17:29:34.179Z</time>
      </trkpt>
      <trkpt lat="44.64708" lon="0.70651">
        <ele>106.419185</ele>
        <time>2022-07-11T17:30:28.729Z</time>
      </trkpt>
      <trkpt lat="44.64622" lon="0.7086">
        <ele>104.170739</ele>
        <time>2022-07-11T17:30:53.832Z</time>
      </trkpt>
      <trkpt lat="44.64592" lon="0.70967">
        <ele>102.732559</ele>
        <time>2022-07-11T17:31:05.920Z</time>
      </trkpt>
      <trkpt lat="44.64555" lon="0.71053">
        <ele>101.935588</ele>
        <time>2022-07-11T17:31:17.052Z</time>
      </trkpt>
      <trkpt lat="44.64503" lon="0.71202">
        <ele>101.496218</ele>
        <time>2022-07-11T17:31:37.298Z</time>
      </trkpt>
      <trkpt lat="44.64477" lon="0.71299">
        <ele>101.566877</ele>
        <time>2022-07-11T17:31:51.417Z</time>
      </trkpt>
      <trkpt lat="44.64456" lon="0.71355">
        <ele>101.747145</ele>
        <time>2022-07-11T17:32:00.443Z</time>
      </trkpt>
      <trkpt lat="44.6442" lon="0.71422">
        <ele>101.986352</ele>
        <time>2022-07-11T17:32:12.478Z</time>
      </trkpt>
      <trkpt lat="44.64385" lon="0.71522">
        <ele>101.916503</ele>
        <time>2022-07-11T17:32:27.346Z</time>
      </trkpt>
      <trkpt lat="44.64335" lon="0.71615">
        <ele>101.597926</ele>
        <time>2022-07-11T17:32:41.543Z</time>
      </trkpt>
      <trkpt lat="44.64247" lon="0.71813">
        <ele>99.639877</ele>
        <time>2022-07-11T17:33:07.626Z</time>
      </trkpt>
      <trkpt lat="44.64214" lon="0.71905">
        <ele>98.41593</ele>
        <time>2022-07-11T17:33:18.197Z</time>
      </trkpt>
      <trkpt lat="44.64211" lon="0.71927">
        <ele>98.005107</ele>
        <time>2022-07-11T17:33:20.529Z</time>
      </trkpt>
      <trkpt lat="44.64058" lon="0.71746">
        <ele>96.1</ele>
      </trkpt>
      <trkpt lat="44.63628" lon="0.71598">
        <ele>84.6</ele>
      </trkpt>
      <trkpt lat="44.63437" lon="0.71373">
        <ele>83.4</ele>
      </trkpt>
      <trkpt lat="44.63409" lon="0.71364">
        <ele>82.7</ele>
      </trkpt>
      <trkpt lat="44.63359" lon="0.71411">
        <ele>81.9</ele>
      </trkpt>
      <trkpt lat="44.63339" lon="0.71437">
        <ele>81.4</ele>
      </trkpt>
      <trkpt lat="44.63347" lon="0.71476">
        <ele>80.9</ele>
      </trkpt>
      <trkpt lat="44.63208" lon="0.71596">
        <ele>80.2</ele>
      </trkpt>
      <trkpt lat="44.63049" lon="0.71802">
        <ele>84.9</ele>
        <time>2022-07-11T17:34:51.272Z</time>
      </trkpt>
      <trkpt lat="44.63455" lon="0.73317">
        <ele>88</ele>
        <time>2022-07-11T17:36:46.970Z</time>
      </trkpt>
      <trkpt lat="44.63617" lon="0.73982">
        <ele>89.8</ele>
      </trkpt>
      <trkpt lat="44.63759" lon="0.74313">
        <ele>97.257454</ele>
        <time>2022-07-11T17:40:04.913Z</time>
      </trkpt>
      <trkpt lat="44.64209" lon="0.74038">
        <ele>84.5</ele>
      </trkpt>
      <trkpt lat="44.64422" lon="0.74047">
        <ele>91.171262</ele>
        <time>2022-07-11T17:42:20.785Z</time>
      </trkpt>
      <trkpt lat="44.64485" lon="0.74051">
        <ele>92.318376</ele>
        <time>2022-07-11T17:42:36.670Z</time>
      </trkpt>
      <trkpt lat="44.64495" lon="0.74051">
        <ele>92.33835</ele>
        <time>2022-07-11T17:42:38.852Z</time>
      </trkpt>
      <trkpt lat="44.64507" lon="0.74051">
        <ele>92.305462</ele>
        <time>2022-07-11T17:42:41.429Z</time>
      </trkpt>
      <trkpt lat="44.6457" lon="0.74046">
        <ele>92.125742</ele>
        <time>2022-07-11T17:42:53.255Z</time>
      </trkpt>
      <trkpt lat="44.64603" lon="0.74031">
        <ele>92.027401</ele>
        <time>2022-07-11T17:42:58.981Z</time>
      </trkpt>
      <trkpt lat="44.64725" lon="0.73956">
        <ele>91.804131</ele>
        <time>2022-07-11T17:43:19.296Z</time>
      </trkpt>
      <trkpt lat="44.6476" lon="0.73933">
        <ele>91.779339</ele>
        <time>2022-07-11T17:43:25.734Z</time>
      </trkpt>
      <trkpt lat="44.64883" lon="0.7385">
        <ele>93.123724</ele>
        <time>2022-07-11T17:43:58.393Z</time>
      </trkpt>
      <trkpt lat="44.64978" lon="0.73788">
        <ele>95.337986</ele>
        <time>2022-07-11T17:44:28.876Z</time>
      </trkpt>
      <trkpt lat="44.65073" lon="0.73741">
        <ele>96.08159</ele>
        <time>2022-07-11T17:44:52.239Z</time>
      </trkpt>
      <trkpt lat="44.65098" lon="0.7372">
        <ele>96.255709</ele>
        <time>2022-07-11T17:44:57.694Z</time>
      </trkpt>
      <trkpt lat="44.65122" lon="0.73688">
        <ele>96.449909</ele>
        <time>2022-07-11T17:45:03.308Z</time>
      </trkpt>
      <trkpt lat="44.65177" lon="0.73582">
        <ele>95.971344</ele>
        <time>2022-07-11T17:45:17.954Z</time>
      </trkpt>
      <trkpt lat="44.65235" lon="0.73501">
        <ele>95.185161</ele>
        <time>2022-07-11T17:45:30.621Z</time>
      </trkpt>
      <trkpt lat="44.65315" lon="0.73393">
        <ele>95.486673</ele>
        <time>2022-07-11T17:45:49.666Z</time>
      </trkpt>
      <trkpt lat="44.65373" lon="0.73358">
        <ele>95.958096</ele>
        <time>2022-07-11T17:46:04.166Z</time>
      </trkpt>
      <trkpt lat="44.65508" lon="0.73298">
        <ele>98.341532</ele>
        <time>2022-07-11T17:46:41.590Z</time>
      </trkpt>
      <trkpt lat="44.65655" lon="0.73225">
        <ele>100.90908</ele>
        <time>2022-07-11T17:47:21.176Z</time>
      </trkpt>
      <trkpt lat="44.65694" lon="0.732">
        <ele>101.469279</ele>
        <time>2022-07-11T17:47:30.583Z</time>
      </trkpt>
      <trkpt lat="44.6572" lon="0.73184">
        <ele>101.853117</ele>
        <time>2022-07-11T17:47:36.747Z</time>
      </trkpt>
      <trkpt lat="44.65725" lon="0.7318">
        <ele>101.923565</ele>
        <time>2022-07-11T17:47:37.874Z</time>
      </trkpt>
      <trkpt lat="44.65728" lon="0.73178">
        <ele>101.970441</ele>
        <time>2022-07-11T17:47:38.630Z</time>
      </trkpt>
      <trkpt lat="44.65795" lon="0.73126">
        <ele>102.600985</ele>
        <time>2022-07-11T17:47:53.914Z</time>
      </trkpt>
      <trkpt lat="44.65855" lon="0.73081">
        <ele>103.0438</ele>
        <time>2022-07-11T17:48:07.367Z</time>
      </trkpt>
      <trkpt lat="44.6594" lon="0.73019">
        <ele>103.886517</ele>
        <time>2022-07-11T17:48:27.722Z</time>
      </trkpt>
      <trkpt lat="44.66133" lon="0.72845">
        <ele>105.947335</ele>
        <time>2022-07-11T17:49:20.420Z</time>
      </trkpt>
      <trkpt lat="44.66196" lon="0.72777">
        <ele>106.328449</ele>
        <time>2022-07-11T17:49:34.412Z</time>
      </trkpt>
      <trkpt lat="44.66257" lon="0.72692">
        <ele>105.370215</ele>
        <time>2022-07-11T17:49:47.947Z</time>
      </trkpt>
      <trkpt lat="44.66283" lon="0.72639">
        <ele>104.763146</ele>
        <time>2022-07-11T17:49:54.866Z</time>
      </trkpt>
      <trkpt lat="44.66335" lon="0.72527">
        <ele>103.648052</ele>
        <time>2022-07-11T17:50:09.095Z</time>
      </trkpt>
      <trkpt lat="44.66439" lon="0.72184">
        <ele>102.022183</ele>
        <time>2022-07-11T17:50:52.493Z</time>
      </trkpt>
      <trkpt lat="44.6651" lon="0.71903">
        <ele>102.939261</ele>
        <time>2022-07-11T17:51:36.995Z</time>
      </trkpt>
      <trkpt lat="44.6656" lon="0.71791">
        <ele>102.576529</ele>
        <time>2022-07-11T17:51:54.660Z</time>
      </trkpt>
      <trkpt lat="44.66614" lon="0.71719">
        <ele>102.003049</ele>
        <time>2022-07-11T17:52:06.488Z</time>
      </trkpt>
      <trkpt lat="44.66685" lon="0.71624">
        <ele>100.328573</ele>
        <time>2022-07-11T17:52:20.712Z</time>
      </trkpt>
      <trkpt lat="44.66737" lon="0.71562">
        <ele>98.786885</ele>
        <time>2022-07-11T17:52:30.307Z</time>
      </trkpt>
      <trkpt lat="44.66791" lon="0.71477">
        <ele>97.369769</ele>
        <time>2022-07-11T17:52:42.110Z</time>
      </trkpt>
      <trkpt lat="44.66823" lon="0.71415">
        <ele>96.858508</ele>
        <time>2022-07-11T17:52:50.480Z</time>
      </trkpt>
      <trkpt lat="44.66841" lon="0.71381">
        <ele>96.570033</ele>
        <time>2022-07-11T17:52:55.574Z</time>
      </trkpt>
      <trkpt lat="44.66922" lon="0.7121">
        <ele>95.873103</ele>
        <time>2022-07-11T17:53:21.227Z</time>
      </trkpt>
      <trkpt lat="44.67044" lon="0.70968">
        <ele>95.568621</ele>
        <time>2022-07-11T17:53:58.078Z</time>
      </trkpt>
      <trkpt lat="44.67079" lon="0.709">
        <ele>95.467096</ele>
        <time>2022-07-11T17:54:08.479Z</time>
      </trkpt>
      <trkpt lat="44.6712" lon="0.70823">
        <ele>95.281538</ele>
        <time>2022-07-11T17:54:20.224Z</time>
      </trkpt>
      <trkpt lat="44.67223" lon="0.70631">
        <ele>94.723466</ele>
        <time>2022-07-11T17:54:49.545Z</time>
      </trkpt>
      <trkpt lat="44.6735" lon="0.70401">
        <ele>93.11586</ele>
        <time>2022-07-11T17:55:24.365Z</time>
      </trkpt>
      <trkpt lat="44.67386" lon="0.70326">
        <ele>92.265109</ele>
        <time>2022-07-11T17:55:33.900Z</time>
      </trkpt>
      <trkpt lat="44.67452" lon="0.70205">
        <ele>90.270027</ele>
        <time>2022-07-11T17:55:49.447Z</time>
      </trkpt>
      <trkpt lat="44.67483" lon="0.70128">
        <ele>88.947993</ele>
        <time>2022-07-11T17:55:58.603Z</time>
      </trkpt>
      <trkpt lat="44.67521" lon="0.7">
        <ele>87.281575</ele>
        <time>2022-07-11T17:56:13.363Z</time>
      </trkpt>
      <trkpt lat="44.67558" lon="0.69918">
        <ele>86.329068</ele>
        <time>2022-07-11T17:56:24.079Z</time>
      </trkpt>
      <trkpt lat="44.67579" lon="0.69872">
        <ele>85.792002</ele>
        <time>2022-07-11T17:56:30.174Z</time>
      </trkpt>
      <trkpt lat="44.67649" lon="0.69728">
        <ele>85.205575</ele>
        <time>2022-07-11T17:56:49.697Z</time>
      </trkpt>
      <trkpt lat="44.67667" lon="0.69691">
        <ele>85.101275</ele>
        <time>2022-07-11T17:56:55.736Z</time>
      </trkpt>
      <trkpt lat="44.67733" lon="0.69561">
        <ele>86.381557</ele>
        <time>2022-07-11T17:57:20.521Z</time>
      </trkpt>
      <trkpt lat="44.67758" lon="0.69528">
        <ele>87.060227</ele>
        <time>2022-07-11T17:57:29.687Z</time>
      </trkpt>
      <trkpt lat="44.67816" lon="0.69477">
        <ele>88.396854</ele>
        <time>2022-07-11T17:57:49.156Z</time>
      </trkpt>
      <trkpt lat="44.67901" lon="0.6942">
        <ele>90.972539</ele>
        <time>2022-07-11T17:58:18.161Z</time>
      </trkpt>
      <trkpt lat="44.67961" lon="0.69369">
        <ele>92.897241</ele>
        <time>2022-07-11T17:58:37.822Z</time>
      </trkpt>
      <trkpt lat="44.68054" lon="0.69255">
        <ele>95.392519</ele>
        <time>2022-07-11T17:59:10.485Z</time>
      </trkpt>
      <trkpt lat="44.68094" lon="0.69195">
        <ele>96.475963</ele>
        <time>2022-07-11T17:59:24.072Z</time>
      </trkpt>
      <trkpt lat="44.68179" lon="0.69029">
        <ele>98.51812</ele>
        <time>2022-07-11T17:59:58.370Z</time>
      </trkpt>
      <trkpt lat="44.68237" lon="0.68925">
        <ele>99.440015</ele>
        <time>2022-07-11T18:00:19.910Z</time>
      </trkpt>
      <trkpt lat="44.68329" lon="0.688">
        <ele>100.128569</ele>
        <time>2022-07-11T18:00:44.995Z</time>
      </trkpt>
      <trkpt lat="44.68359" lon="0.68757">
        <ele>99.823772</ele>
        <time>2022-07-11T18:00:52.383Z</time>
      </trkpt>
      <trkpt lat="44.68426" lon="0.68655">
        <ele>98.696717</ele>
        <time>2022-07-11T18:01:08.215Z</time>
      </trkpt>
      <trkpt lat="44.68511" lon="0.6852">
        <ele>95.228228</ele>
        <time>2022-07-11T18:01:26.500Z</time>
      </trkpt>
      <trkpt lat="44.68545" lon="0.68475">
        <ele>93.51221</ele>
        <time>2022-07-11T18:01:32.571Z</time>
      </trkpt>
      <trkpt lat="44.68557" lon="0.68461">
        <ele>92.95017</ele>
        <time>2022-07-11T18:01:34.527Z</time>
      </trkpt>
      <trkpt lat="44.68673" lon="0.68314">
        <ele>86.371093</ele>
        <time>2022-07-11T18:01:54.370Z</time>
      </trkpt>
      <trkpt lat="44.68778" lon="0.68168">
        <ele>82.044615</ele>
        <time>2022-07-11T18:02:14.534Z</time>
      </trkpt>
      <trkpt lat="44.68794" lon="0.68146">
        <ele>81.623803</ele>
        <time>2022-07-11T18:02:18.015Z</time>
      </trkpt>
      <trkpt lat="44.68895" lon="0.68009">
        <ele>80.395483</ele>
        <time>2022-07-11T18:02:41.176Z</time>
      </trkpt>
      <trkpt lat="44.68909" lon="0.67978">
        <ele>80.454613</ele>
        <time>2022-07-11T18:02:45.955Z</time>
      </trkpt>
      <trkpt lat="44.68935" lon="0.67894">
        <ele>80.598966</ele>
        <time>2022-07-11T18:02:59.132Z</time>
      </trkpt>
      <trkpt lat="44.68957" lon="0.67837">
        <ele>81.164259</ele>
        <time>2022-07-11T18:03:09.970Z</time>
      </trkpt>
      <trkpt lat="44.68991" lon="0.67786">
        <ele>82.186652</ele>
        <time>2022-07-11T18:03:21.972Z</time>
      </trkpt>
      <trkpt lat="44.69001" lon="0.67773">
        <ele>82.47256</ele>
        <time>2022-07-11T18:03:25.374Z</time>
      </trkpt>
      <trkpt lat="44.69064" lon="0.67704">
        <ele>84.102759</ele>
        <time>2022-07-11T18:03:46.383Z</time>
      </trkpt>
      <trkpt lat="44.69145" lon="0.67631">
        <ele>88.483098</ele>
        <time>2022-07-11T18:04:18.249Z</time>
      </trkpt>
      <trkpt lat="44.69388" lon="0.67473">
        <ele>103.828952</ele>
        <time>2022-07-11T18:06:12.008Z</time>
      </trkpt>
      <trkpt lat="44.69391" lon="0.67471">
        <ele>103.996494</ele>
        <time>2022-07-11T18:06:13.167Z</time>
      </trkpt>
      <trkpt lat="44.69471" lon="0.67422">
        <ele>109.050022</ele>
        <time>2022-07-11T18:06:50.647Z</time>
      </trkpt>
      <trkpt lat="44.69508" lon="0.67375">
        <ele>111.983886</ele>
        <time>2022-07-11T18:07:11.930Z</time>
      </trkpt>
      <trkpt lat="44.69541" lon="0.67306">
        <ele>115.091181</ele>
        <time>2022-07-11T18:07:34.291Z</time>
      </trkpt>
      <trkpt lat="44.69576" lon="0.67215">
        <ele>117.661829</ele>
        <time>2022-07-11T18:07:59.999Z</time>
      </trkpt>
      <trkpt lat="44.69621" lon="0.67139">
        <ele>120.109262</ele>
        <time>2022-07-11T18:08:20.241Z</time>
      </trkpt>
      <trkpt lat="44.69801" lon="0.66874">
        <ele>125.671879</ele>
        <time>2022-07-11T18:09:26.277Z</time>
      </trkpt>
      <trkpt lat="44.69817" lon="0.66836">
        <ele>126.347928</ele>
        <time>2022-07-11T18:09:34.611Z</time>
      </trkpt>
      <trkpt lat="44.69875" lon="0.66683">
        <ele>129.034518</ele>
        <time>2022-07-11T18:10:08.391Z</time>
      </trkpt>
      <trkpt lat="44.69926" lon="0.66532">
        <ele>131.614588</ele>
        <time>2022-07-11T18:10:39.890Z</time>
      </trkpt>
      <trkpt lat="44.69944" lon="0.66476">
        <ele>132.488228</ele>
        <time>2022-07-11T18:10:51.234Z</time>
      </trkpt>
      <trkpt lat="44.69985" lon="0.66395">
        <ele>133.631527</ele>
        <time>2022-07-11T18:11:08.978Z</time>
      </trkpt>
      <trkpt lat="44.70017" lon="0.66355">
        <ele>134.317136</ele>
        <time>2022-07-11T18:11:19.355Z</time>
      </trkpt>
      <trkpt lat="44.70096" lon="0.66262">
        <ele>135.696431</ele>
        <time>2022-07-11T18:11:42.479Z</time>
      </trkpt>
      <trkpt lat="44.70147" lon="0.66179">
        <ele>136.501886</ele>
        <time>2022-07-11T18:11:58.513Z</time>
      </trkpt>
      <trkpt lat="44.70242" lon="0.66064">
        <ele>138.695571</ele>
        <time>2022-07-11T18:12:27.552Z</time>
      </trkpt>
      <trkpt lat="44.70322" lon="0.65969">
        <ele>141.029896</ele>
        <time>2022-07-11T18:12:57.173Z</time>
      </trkpt>
      <trkpt lat="44.7038" lon="0.659">
        <ele>143.777434</ele>
        <time>2022-07-11T18:13:22.134Z</time>
      </trkpt>
      <trkpt lat="44.7049" lon="0.65809">
        <ele>148.254688</ele>
        <time>2022-07-11T18:14:04.365Z</time>
      </trkpt>
      <trkpt lat="44.70559" lon="0.65786">
        <ele>150.450807</ele>
        <time>2022-07-11T18:14:26.205Z</time>
      </trkpt>
      <trkpt lat="44.7069" lon="0.65788">
        <ele>153.638805</ele>
        <time>2022-07-11T18:15:04.348Z</time>
      </trkpt>
      <trkpt lat="44.70755" lon="0.65777">
        <ele>154.371461</ele>
        <time>2022-07-11T18:15:18.420Z</time>
      </trkpt>
      <trkpt lat="44.70764" lon="0.65775">
        <ele>154.482116</ele>
        <time>2022-07-11T18:15:20.456Z</time>
      </trkpt>
      <trkpt lat="44.70841" lon="0.65721">
        <ele>154.759201</ele>
        <time>2022-07-11T18:15:35.771Z</time>
      </trkpt>
      <trkpt lat="44.70883" lon="0.65681">
        <ele>153.964193</ele>
        <time>2022-07-11T18:15:44.155Z</time>
      </trkpt>
      <trkpt lat="44.70922" lon="0.65601">
        <ele>152.912888</ele>
        <time>2022-07-11T18:15:54.187Z</time>
      </trkpt>
      <trkpt lat="44.70935" lon="0.65541">
        <ele>151.955058</ele>
        <time>2022-07-11T18:16:00.641Z</time>
      </trkpt>
      <trkpt lat="44.7096" lon="0.65342">
        <ele>145.970029</ele>
        <time>2022-07-11T18:16:19.457Z</time>
      </trkpt>
      <trkpt lat="44.70985" lon="0.65167">
        <ele>139.746323</ele>
        <time>2022-07-11T18:16:35.157Z</time>
      </trkpt>
      <trkpt lat="44.71008" lon="0.65104">
        <ele>137.167197</ele>
        <time>2022-07-11T18:16:41.466Z</time>
      </trkpt>
      <trkpt lat="44.71145" lon="0.64828">
        <ele>129.616417</ele>
        <time>2022-07-11T18:17:14.176Z</time>
      </trkpt>
      <trkpt lat="44.7118" lon="0.64728">
        <ele>129.016064</ele>
        <time>2022-07-11T18:17:26.970Z</time>
      </trkpt>
      <trkpt lat="44.7122" lon="0.64637">
        <ele>128.548876</ele>
        <time>2022-07-11T18:17:41.711Z</time>
      </trkpt>
      <trkpt lat="44.71274" lon="0.64482">
        <ele>129.85515</ele>
        <time>2022-07-11T18:18:10.271Z</time>
      </trkpt>
      <trkpt lat="44.71385" lon="0.64202">
        <ele>131.538258</ele>
        <time>2022-07-11T18:18:58.697Z</time>
      </trkpt>
      <trkpt lat="44.71435" lon="0.64079">
        <ele>130.66614</ele>
        <time>2022-07-11T18:19:15.088Z</time>
      </trkpt>
      <trkpt lat="44.71476" lon="0.6398">
        <ele>129.918005</ele>
        <time>2022-07-11T18:19:27.576Z</time>
      </trkpt>
      <trkpt lat="44.71506" lon="0.63906">
        <ele>128.988447</ele>
        <time>2022-07-11T18:19:36.554Z</time>
      </trkpt>
      <trkpt lat="44.71521" lon="0.6384">
        <ele>128.217569</ele>
        <time>2022-07-11T18:19:43.954Z</time>
      </trkpt>
      <trkpt lat="44.71531" lon="0.63781">
        <ele>127.554295</ele>
        <time>2022-07-11T18:19:50.215Z</time>
      </trkpt>
      <trkpt lat="44.71551" lon="0.63584">
        <ele>127.01841</ele>
        <time>2022-07-11T18:20:13.290Z</time>
      </trkpt>
      <trkpt lat="44.71563" lon="0.63511">
        <ele>126.971788</ele>
        <time>2022-07-11T18:20:24.081Z</time>
      </trkpt>
      <trkpt lat="44.71577" lon="0.63474">
        <ele>127.355457</ele>
        <time>2022-07-11T18:20:31.045Z</time>
      </trkpt>
      <trkpt lat="44.71667" lon="0.63339">
        <ele>130.474187</ele>
        <time>2022-07-11T18:21:07.449Z</time>
      </trkpt>
      <trkpt lat="44.71733" lon="0.63206">
        <ele>133.879838</ele>
        <time>2022-07-11T18:21:42.930Z</time>
      </trkpt>
      <trkpt lat="44.7176" lon="0.63148">
        <ele>135.45285</ele>
        <time>2022-07-11T18:21:58.989Z</time>
      </trkpt>
      <trkpt lat="44.71854" lon="0.62946">
        <ele>138.952674</ele>
        <time>2022-07-11T18:22:48.277Z</time>
      </trkpt>
      <trkpt lat="44.7202" lon="0.62651">
        <ele>138.366118</ele>
        <time>2022-07-11T18:23:31.602Z</time>
      </trkpt>
      <trkpt lat="44.72252" lon="0.62243">
        <ele>135.571244</ele>
        <time>2022-07-11T18:24:33.247Z</time>
      </trkpt>
      <trkpt lat="44.72391" lon="0.61994">
        <ele>131.525933</ele>
        <time>2022-07-11T18:25:06.298Z</time>
      </trkpt>
      <trkpt lat="44.72454" lon="0.61904">
        <ele>129.653158</ele>
        <time>2022-07-11T18:25:19.369Z</time>
      </trkpt>
      <trkpt lat="44.72521" lon="0.61826">
        <ele>127.356379</ele>
        <time>2022-07-11T18:25:31.811Z</time>
      </trkpt>
      <trkpt lat="44.72552" lon="0.61791">
        <ele>126.286297</ele>
        <time>2022-07-11T18:25:37.547Z</time>
      </trkpt>
      <trkpt lat="44.72585" lon="0.61733">
        <ele>124.88557</ele>
        <time>2022-07-11T18:25:44.608Z</time>
      </trkpt>
      <trkpt lat="44.72625" lon="0.61613">
        <ele>121.918041</ele>
        <time>2022-07-11T18:25:57.338Z</time>
      </trkpt>
      <trkpt lat="44.72639" lon="0.61583">
        <ele>121.100809</ele>
        <time>2022-07-11T18:26:00.834Z</time>
      </trkpt>
      <trkpt lat="44.72756" lon="0.61361">
        <ele>115.941121</ele>
        <time>2022-07-11T18:26:28.440Z</time>
      </trkpt>
      <trkpt lat="44.72814" lon="0.61254">
        <ele>114.202053</ele>
        <time>2022-07-11T18:26:42.880Z</time>
      </trkpt>
      <trkpt lat="44.72878" lon="0.61137">
        <ele>112.826024</ele>
        <time>2022-07-11T18:26:59.097Z</time>
      </trkpt>
      <trkpt lat="44.72995" lon="0.60912">
        <ele>111.584314</ele>
        <time>2022-07-11T18:27:31.489Z</time>
      </trkpt>
      <trkpt lat="44.73001" lon="0.60913">
        <ele>111.551848</ele>
        <time>2022-07-11T18:27:32.762Z</time>
      </trkpt>
      <trkpt lat="44.73004" lon="0.60911">
        <ele>111.570302</ele>
        <time>2022-07-11T18:27:33.623Z</time>
      </trkpt>
      <trkpt lat="44.73008" lon="0.60902">
        <ele>111.613129</ele>
        <time>2022-07-11T18:27:35.176Z</time>
      </trkpt>
      <trkpt lat="44.73007" lon="0.60898">
        <ele>111.627588</ele>
        <time>2022-07-11T18:27:35.676Z</time>
      </trkpt>
      <trkpt lat="44.73002" lon="0.60889">
        <ele>111.679644</ele>
        <time>2022-07-11T18:27:37.406Z</time>
      </trkpt>
      <trkpt lat="44.72996" lon="0.60889">
        <ele>111.71544</ele>
        <time>2022-07-11T18:27:38.581Z</time>
      </trkpt>
      <trkpt lat="44.72992" lon="0.60881">
        <ele>111.756904</ele>
        <time>2022-07-11T18:27:40.069Z</time>
      </trkpt>
      <trkpt lat="44.72989" lon="0.60868">
        <ele>111.815462</ele>
        <time>2022-07-11T18:27:42.397Z</time>
      </trkpt>
      <trkpt lat="44.72988" lon="0.60833">
        <ele>111.962969</ele>
        <time>2022-07-11T18:27:47.592Z</time>
      </trkpt>
      <trkpt lat="44.72985" lon="0.60775">
        <ele>112.209433</ele>
        <time>2022-07-11T18:27:56.701Z</time>
      </trkpt>
      <trkpt lat="44.72989" lon="0.6077">
        <ele>112.239621</ele>
        <time>2022-07-11T18:27:57.845Z</time>
      </trkpt>
      <trkpt lat="44.72995" lon="0.60737">
        <ele>112.385005</ele>
        <time>2022-07-11T18:28:02.918Z</time>
      </trkpt>
      <trkpt lat="44.72996" lon="0.60731">
        <ele>112.410712</ele>
        <time>2022-07-11T18:28:03.793Z</time>
      </trkpt>
      <trkpt lat="44.73003" lon="0.60727">
        <ele>112.454817</ele>
        <time>2022-07-11T18:28:05.373Z</time>
      </trkpt>
      <trkpt lat="44.73005" lon="0.60692">
        <ele>112.603922</ele>
        <time>2022-07-11T18:28:10.295Z</time>
      </trkpt>
      <trkpt lat="44.73011" lon="0.60691">
        <ele>112.587202</ele>
        <time>2022-07-11T18:28:11.570Z</time>
      </trkpt>
      <trkpt lat="44.73033" lon="0.60688">
        <ele>112.354422</ele>
        <time>2022-07-11T18:28:15.998Z</time>
      </trkpt>
      <trkpt lat="44.73039" lon="0.60713">
        <ele>112.157891</ele>
        <time>2022-07-11T18:28:19.487Z</time>
      </trkpt>
      <trkpt lat="44.73033" lon="0.60688">
        <ele>111.961359</ele>
        <time>2022-07-11T18:28:22.750Z</time>
      </trkpt>
      <trkpt lat="44.73059" lon="0.60673">
        <ele>111.667012</ele>
        <time>2022-07-11T18:28:27.413Z</time>
      </trkpt>
      <trkpt lat="44.7306" lon="0.60658">
        <ele>111.559507</ele>
        <time>2022-07-11T18:28:29.006Z</time>
      </trkpt>
      <trkpt lat="44.73079" lon="0.60658">
        <ele>111.368703</ele>
        <time>2022-07-11T18:28:31.740Z</time>
      </trkpt>
      <trkpt lat="44.73094" lon="0.60658">
        <ele>111.209492</ele>
        <time>2022-07-11T18:28:33.937Z</time>
      </trkpt>
      <trkpt lat="44.73097" lon="0.60638">
        <ele>111.061767</ele>
        <time>2022-07-11T18:28:35.958Z</time>
      </trkpt>
      <trkpt lat="44.731" lon="0.60626">
        <ele>110.966853</ele>
        <time>2022-07-11T18:28:37.260Z</time>
      </trkpt>
      <trkpt lat="44.73129" lon="0.60581">
        <ele>110.532984</ele>
        <time>2022-07-11T18:28:43.559Z</time>
      </trkpt>
      <trkpt lat="44.73137" lon="0.60568">
        <ele>110.422155</ele>
        <time>2022-07-11T18:28:45.307Z</time>
      </trkpt>
      <trkpt lat="44.7314" lon="0.60565">
        <ele>110.394655</ele>
        <time>2022-07-11T18:28:45.743Z</time>
      </trkpt>
      <trkpt lat="44.73158" lon="0.60538">
        <ele>110.146885</ele>
        <time>2022-07-11T18:28:49.640Z</time>
      </trkpt>
      <trkpt lat="44.73185" lon="0.60494">
        <ele>109.767893</ele>
        <time>2022-07-11T18:28:55.996Z</time>
      </trkpt>
      <trkpt lat="44.73195" lon="0.60479">
        <ele>109.63691</ele>
        <time>2022-07-11T18:28:58.411Z</time>
      </trkpt>
      <trkpt lat="44.732" lon="0.60471">
        <ele>109.563666</ele>
        <time>2022-07-11T18:28:59.737Z</time>
      </trkpt>
      <trkpt lat="44.73258" lon="0.60377">
        <ele>109.727267</ele>
        <time>2022-07-11T18:29:17.453Z</time>
      </trkpt>
      <trkpt lat="44.73277" lon="0.60358">
        <ele>110.155759</ele>
        <time>2022-07-11T18:29:23.321Z</time>
      </trkpt>
      <trkpt lat="44.7328" lon="0.60368">
        <ele>110.308236</ele>
        <time>2022-07-11T18:29:25.411Z</time>
      </trkpt>
      <trkpt lat="44.7337" lon="0.60318">
        <ele>112.101676</ele>
        <time>2022-07-11T18:29:52.484Z</time>
      </trkpt>
      <trkpt lat="44.73403" lon="0.60298">
        <ele>112.7715</ele>
        <time>2022-07-11T18:30:02.799Z</time>
      </trkpt>
      <trkpt lat="44.73417" lon="0.60283">
        <ele>113.097684</ele>
        <time>2022-07-11T18:30:07.753Z</time>
      </trkpt>
      <trkpt lat="44.73435" lon="0.6025">
        <ele>113.651346</ele>
        <time>2022-07-11T18:30:15.757Z</time>
      </trkpt>
      <trkpt lat="44.73468" lon="0.60192">
        <ele>114.61707</ele>
        <time>2022-07-11T18:30:28.610Z</time>
      </trkpt>
      <trkpt lat="44.73604" lon="0.59946">
        <ele>118.1357</ele>
        <time>2022-07-11T18:31:20.664Z</time>
      </trkpt>
      <trkpt lat="44.73709" lon="0.59754">
        <ele>120.821862</ele>
        <time>2022-07-11T18:32:03.953Z</time>
      </trkpt>
      <trkpt lat="44.73714" lon="0.59745">
        <ele>120.951167</ele>
        <time>2022-07-11T18:32:05.799Z</time>
      </trkpt>
      <trkpt lat="44.73739" lon="0.59699">
        <ele>121.28018</ele>
        <time>2022-07-11T18:32:14.875Z</time>
      </trkpt>
      <trkpt lat="44.73826" lon="0.59522">
        <ele>121.521905</ele>
        <time>2022-07-11T18:32:41.911Z</time>
      </trkpt>
      <trkpt lat="44.73837" lon="0.59458">
        <ele>121.457132</ele>
        <time>2022-07-11T18:32:50.007Z</time>
      </trkpt>
      <trkpt lat="44.73845" lon="0.59429">
        <ele>121.419635</ele>
        <time>2022-07-11T18:32:54.040Z</time>
      </trkpt>
      <trkpt lat="44.73864" lon="0.59394">
        <ele>121.36665</ele>
        <time>2022-07-11T18:32:59.737Z</time>
      </trkpt>
      <trkpt lat="44.7387" lon="0.59384">
        <ele>121.351081</ele>
        <time>2022-07-11T18:33:01.479Z</time>
      </trkpt>
      <trkpt lat="44.73917" lon="0.59337">
        <ele>121.253554</ele>
        <time>2022-07-11T18:33:11.982Z</time>
      </trkpt>
      <trkpt lat="44.73946" lon="0.59274">
        <ele>120.895783</ele>
        <time>2022-07-11T18:33:21.406Z</time>
      </trkpt>
      <trkpt lat="44.74001" lon="0.5911">
        <ele>119.706464</ele>
        <time>2022-07-11T18:33:42.188Z</time>
      </trkpt>
      <trkpt lat="44.74036" lon="0.59047">
        <ele>118.65077</ele>
        <time>2022-07-11T18:33:50.479Z</time>
      </trkpt>
      <trkpt lat="44.74113" lon="0.58947">
        <ele>116.362194</ele>
        <time>2022-07-11T18:34:05.258Z</time>
      </trkpt>
      <trkpt lat="44.74621" lon="0.58284">
        <ele>103.437336</ele>
        <time>2022-07-11T18:35:47.669Z</time>
      </trkpt>
      <trkpt lat="44.74675" lon="0.58211">
        <ele>102.39209</ele>
        <time>2022-07-11T18:35:59.285Z</time>
      </trkpt>
      <trkpt lat="44.74939" lon="0.57865">
        <ele>101.27736</ele>
        <time>2022-07-11T18:37:00.836Z</time>
      </trkpt>
      <trkpt lat="44.75198" lon="0.57529">
        <ele>104.139274</ele>
        <time>2022-07-11T18:38:17.401Z</time>
      </trkpt>
      <trkpt lat="44.75512" lon="0.5712">
        <ele>103.905372</ele>
        <time>2022-07-11T18:39:33.146Z</time>
      </trkpt>
      <trkpt lat="44.75547" lon="0.57076">
        <ele>103.649749</ele>
        <time>2022-07-11T18:39:41.181Z</time>
      </trkpt>
      <trkpt lat="44.75586" lon="0.57022">
        <ele>103.355069</ele>
        <time>2022-07-11T18:39:49.862Z</time>
      </trkpt>
      <trkpt lat="44.75614" lon="0.56971">
        <ele>102.268231</ele>
        <time>2022-07-11T18:39:56.918Z</time>
      </trkpt>
      <trkpt lat="44.75655" lon="0.56844">
        <ele>99.849109</ele>
        <time>2022-07-11T18:40:11.093Z</time>
      </trkpt>
      <trkpt lat="44.7569" lon="0.56774">
        <ele>98.027388</ele>
        <time>2022-07-11T18:40:19.104Z</time>
      </trkpt>
      <trkpt lat="44.75727" lon="0.5672">
        <ele>95.917864</ele>
        <time>2022-07-11T18:40:26.137Z</time>
      </trkpt>
      <trkpt lat="44.75769" lon="0.56676">
        <ele>93.873554</ele>
        <time>2022-07-11T18:40:32.923Z</time>
      </trkpt>
      <trkpt lat="44.75801" lon="0.5665">
        <ele>92.426317</ele>
        <time>2022-07-11T18:40:37.778Z</time>
      </trkpt>
      <trkpt lat="44.75856" lon="0.56617">
        <ele>90.349889</ele>
        <time>2022-07-11T18:40:45.769Z</time>
      </trkpt>
      <trkpt lat="44.75978" lon="0.56577">
        <ele>86.197736</ele>
        <time>2022-07-11T18:41:02.783Z</time>
      </trkpt>
      <trkpt lat="44.76192" lon="0.5641">
        <ele>80.831867</ele>
        <time>2022-07-11T18:41:38.233Z</time>
      </trkpt>
      <trkpt lat="44.76455" lon="0.56281">
        <ele>76.451756</ele>
        <time>2022-07-11T18:42:21.628Z</time>
      </trkpt>
      <trkpt lat="44.76603" lon="0.56165">
        <ele>71.900935</ele>
        <time>2022-07-11T18:42:44.824Z</time>
      </trkpt>
      <trkpt lat="44.76661" lon="0.56113">
        <ele>70.719715</ele>
        <time>2022-07-11T18:42:54.556Z</time>
      </trkpt>
      <trkpt lat="44.767" lon="0.56051">
        <ele>70.41108</ele>
        <time>2022-07-11T18:43:03.709Z</time>
      </trkpt>
      <trkpt lat="44.76715" lon="0.5602">
        <ele>70.271658</ele>
        <time>2022-07-11T18:43:08.084Z</time>
      </trkpt>
      <trkpt lat="44.76727" lon="0.55977">
        <ele>70.101748</ele>
        <time>2022-07-11T18:43:13.949Z</time>
      </trkpt>
      <trkpt lat="44.7674" lon="0.55894">
        <ele>71.173704</ele>
        <time>2022-07-11T18:43:29.909Z</time>
      </trkpt>
      <trkpt lat="44.76737" lon="0.55811">
        <ele>73.372464</ele>
        <time>2022-07-11T18:43:48.614Z</time>
      </trkpt>
      <trkpt lat="44.76717" lon="0.55728">
        <ele>75.692172</ele>
        <time>2022-07-11T18:44:10.559Z</time>
      </trkpt>
      <trkpt lat="44.7662" lon="0.55531">
        <ele>85.527238</ele>
        <time>2022-07-11T18:45:19.914Z</time>
      </trkpt>
      <trkpt lat="44.76605" lon="0.55466">
        <ele>88.572729</ele>
        <time>2022-07-11T18:45:43.104Z</time>
      </trkpt>
      <trkpt lat="44.76605" lon="0.55392">
        <ele>92.101101</ele>
        <time>2022-07-11T18:46:09.788Z</time>
      </trkpt>
      <trkpt lat="44.7661" lon="0.55346">
        <ele>94.32723</ele>
        <time>2022-07-11T18:46:25.660Z</time>
      </trkpt>
      <trkpt lat="44.76646" lon="0.55225">
        <ele>100.082983</ele>
        <time>2022-07-11T18:47:06.039Z</time>
      </trkpt>
      <trkpt lat="44.76648" lon="0.55219">
        <ele>100.216824</ele>
        <time>2022-07-11T18:47:08.017Z</time>
      </trkpt>
      <trkpt lat="44.76773" lon="0.54842">
        <ele>106.488302</ele>
        <time>2022-07-11T18:48:23.330Z</time>
      </trkpt>
      <trkpt lat="44.76973" lon="0.54248">
        <ele>108.044958</ele>
        <time>2022-07-11T18:49:48.292Z</time>
      </trkpt>
      <trkpt lat="44.77019" lon="0.54111">
        <ele>108.759478</ele>
        <time>2022-07-11T18:50:11.082Z</time>
      </trkpt>
      <trkpt lat="44.77066" lon="0.54023">
        <ele>109.777484</ele>
        <time>2022-07-11T18:50:29.060Z</time>
      </trkpt>
      <trkpt lat="44.77189" lon="0.5382">
        <ele>112.480056</ele>
        <time>2022-07-11T18:51:14.644Z</time>
      </trkpt>
      <trkpt lat="44.77352" lon="0.53551">
        <ele>115.790905</ele>
        <time>2022-07-11T18:52:12.747Z</time>
      </trkpt>
      <trkpt lat="44.7745" lon="0.53372">
        <ele>117.463322</ele>
        <time>2022-07-11T18:52:47.462Z</time>
      </trkpt>
      <trkpt lat="44.77457" lon="0.53358">
        <ele>117.583371</ele>
        <time>2022-07-11T18:52:50.070Z</time>
      </trkpt>
      <trkpt lat="44.77481" lon="0.53318">
        <ele>117.958066</ele>
        <time>2022-07-11T18:52:58.353Z</time>
      </trkpt>
      <trkpt lat="44.77515" lon="0.53307">
        <ele>118.245939</ele>
        <time>2022-07-11T18:53:05.862Z</time>
      </trkpt>
      <trkpt lat="44.77547" lon="0.53282">
        <ele>118.546186</ele>
        <time>2022-07-11T18:53:13.688Z</time>
      </trkpt>
      <trkpt lat="44.77604" lon="0.53197">
        <ele>119.221937</ele>
        <time>2022-07-11T18:53:30.769Z</time>
      </trkpt>
      <trkpt lat="44.77739" lon="0.5301">
        <ele>120.990065</ele>
        <time>2022-07-11T18:54:10.903Z</time>
      </trkpt>
      <trkpt lat="44.77791" lon="0.52952">
        <ele>122.053507</ele>
        <time>2022-07-11T18:54:26.295Z</time>
      </trkpt>
      <trkpt lat="44.78004" lon="0.52788">
        <ele>127.903295</ele>
        <time>2022-07-11T18:55:30.035Z</time>
      </trkpt>
      <trkpt lat="44.78013" lon="0.52781">
        <ele>128.205568</ele>
        <time>2022-07-11T18:55:32.933Z</time>
      </trkpt>
      <trkpt lat="44.78016" lon="0.52748">
        <ele>128.9446</ele>
        <time>2022-07-11T18:55:39.935Z</time>
      </trkpt>
      <trkpt lat="44.78017" lon="0.5274">
        <ele>129.105649</ele>
        <time>2022-07-11T18:55:41.618Z</time>
      </trkpt>
      <trkpt lat="44.78037" lon="0.5266">
        <ele>132.319149</ele>
        <time>2022-07-11T18:56:04.849Z</time>
      </trkpt>
      <trkpt lat="44.78047" lon="0.52646">
        <ele>133.353917</ele>
        <time>2022-07-11T18:56:10.748Z</time>
      </trkpt>
      <trkpt lat="44.78091" lon="0.52626">
        <ele>136.939653</ele>
        <time>2022-07-11T18:56:33.851Z</time>
      </trkpt>
      <trkpt lat="44.78097" lon="0.52605">
        <ele>138.164315</ele>
        <time>2022-07-11T18:56:42.164Z</time>
      </trkpt>
      <trkpt lat="44.7812" lon="0.52409">
        <ele>149.095756</ele>
        <time>2022-07-11T18:57:59.223Z</time>
      </trkpt>
      <trkpt lat="44.78116" lon="0.52379">
        <ele>150.784598</ele>
        <time>2022-07-11T18:58:11.274Z</time>
      </trkpt>
      <trkpt lat="44.78086" lon="0.5234">
        <ele>153.931024</ele>
        <time>2022-07-11T18:58:33.462Z</time>
      </trkpt>
      <trkpt lat="44.78038" lon="0.52179">
        <ele>159.873046</ele>
        <time>2022-07-11T18:59:17.920Z</time>
      </trkpt>
      <trkpt lat="44.78025" lon="0.52136">
        <ele>160.760869</ele>
        <time>2022-07-11T18:59:26.809Z</time>
      </trkpt>
      <trkpt lat="44.77983" lon="0.52028">
        <ele>162.737824</ele>
        <time>2022-07-11T18:59:46.182Z</time>
      </trkpt>
      <trkpt lat="44.78006" lon="0.52015">
        <ele>162.680879</ele>
        <time>2022-07-11T18:59:50.934Z</time>
      </trkpt>
      <trkpt lat="44.78063" lon="0.51963">
        <ele>162.522384</ele>
        <time>2022-07-11T19:00:02.035Z</time>
      </trkpt>
      <trkpt lat="44.78199" lon="0.51821">
        <ele>162.033545</ele>
        <time>2022-07-11T19:00:30.453Z</time>
      </trkpt>
      <trkpt lat="44.78218" lon="0.518">
        <ele>161.952179</ele>
        <time>2022-07-11T19:00:34.550Z</time>
      </trkpt>
      <trkpt lat="44.78221" lon="0.51798">
        <ele>161.94184</ele>
        <time>2022-07-11T19:00:35.091Z</time>
      </trkpt>
      <trkpt lat="44.78237" lon="0.51781">
        <ele>161.876525</ele>
        <time>2022-07-11T19:00:38.487Z</time>
      </trkpt>
      <trkpt lat="44.78242" lon="0.51775">
        <ele>161.854214</ele>
        <time>2022-07-11T19:00:39.735Z</time>
      </trkpt>
      <trkpt lat="44.78262" lon="0.51753">
        <ele>161.768238</ele>
        <time>2022-07-11T19:00:44.173Z</time>
      </trkpt>
      <trkpt lat="44.7832" lon="0.51692">
        <ele>161.747801</ele>
        <time>2022-07-11T19:00:56.895Z</time>
      </trkpt>
      <trkpt lat="44.78346" lon="0.51664">
        <ele>161.747117</ele>
        <time>2022-07-11T19:01:02.782Z</time>
      </trkpt>
      <trkpt lat="44.78359" lon="0.51642">
        <ele>161.746692</ele>
        <time>2022-07-11T19:01:06.770Z</time>
      </trkpt>
      <trkpt lat="44.78352" lon="0.51631">
        <ele>161.746471</ele>
        <time>2022-07-11T19:01:08.562Z</time>
      </trkpt>
      <trkpt lat="44.7835" lon="0.51608">
        <ele>161.746134</ele>
        <time>2022-07-11T19:01:11.624Z</time>
      </trkpt>
      <trkpt lat="44.78362" lon="0.51526">
        <ele>161.610036</ele>
        <time>2022-07-11T19:01:22.433Z</time>
      </trkpt>
      <trkpt lat="44.78389" lon="0.51485">
        <ele>161.400697</ele>
        <time>2022-07-11T19:01:29.411Z</time>
      </trkpt>
      <trkpt lat="44.78429" lon="0.51392">
        <ele>160.997391</ele>
        <time>2022-07-11T19:01:41.991Z</time>
      </trkpt>
      <trkpt lat="44.78432" lon="0.51386">
        <ele>160.970926</ele>
        <time>2022-07-11T19:01:42.835Z</time>
      </trkpt>
      <trkpt lat="44.78471" lon="0.51302">
        <ele>160.702354</ele>
        <time>2022-07-11T19:01:54.071Z</time>
      </trkpt>
      <trkpt lat="44.78554" lon="0.51143">
        <ele>160.32504</ele>
        <time>2022-07-11T19:02:18.307Z</time>
      </trkpt>
      <trkpt lat="44.78607" lon="0.50989">
        <ele>161.492242</ele>
        <time>2022-07-11T19:02:45.299Z</time>
      </trkpt>
      <trkpt lat="44.78626" lon="0.50938">
        <ele>161.885851</ele>
        <time>2022-07-11T19:02:54.709Z</time>
      </trkpt>
      <trkpt lat="44.78665" lon="0.50887">
        <ele>162.319058</ele>
        <time>2022-07-11T19:03:06.319Z</time>
      </trkpt>
      <trkpt lat="44.78698" lon="0.50826">
        <ele>162.729125</ele>
        <time>2022-07-11T19:03:17.726Z</time>
      </trkpt>
      <trkpt lat="44.78756" lon="0.50669">
        <ele>163.914424</ele>
        <time>2022-07-11T19:03:42.622Z</time>
      </trkpt>
      <trkpt lat="44.78791" lon="0.50544">
        <ele>165.279812</ele>
        <time>2022-07-11T19:04:04.697Z</time>
      </trkpt>
      <trkpt lat="44.78806" lon="0.50512">
        <ele>165.67293</ele>
        <time>2022-07-11T19:04:11.654Z</time>
      </trkpt>
      <trkpt lat="44.78833" lon="0.50478">
        <ele>166.344585</ele>
        <time>2022-07-11T19:04:21.458Z</time>
      </trkpt>
      <trkpt lat="44.78851" lon="0.50465">
        <ele>166.856932</ele>
        <time>2022-07-11T19:04:27.364Z</time>
      </trkpt>
      <trkpt lat="44.78888" lon="0.50422">
        <ele>168.064896</ele>
        <time>2022-07-11T19:04:40.830Z</time>
      </trkpt>
      <trkpt lat="44.78931" lon="0.50316">
        <ele>170.261944</ele>
        <time>2022-07-11T19:05:05.914Z</time>
      </trkpt>
      <trkpt lat="44.78972" lon="0.50248">
        <ele>171.402544</ele>
        <time>2022-07-11T19:05:23.011Z</time>
      </trkpt>
      <trkpt lat="44.78996" lon="0.50227">
        <ele>171.881211</ele>
        <time>2022-07-11T19:05:30.539Z</time>
      </trkpt>
      <trkpt lat="44.79034" lon="0.50214">
        <ele>172.542448</ele>
        <time>2022-07-11T19:05:40.298Z</time>
      </trkpt>
      <trkpt lat="44.79087" lon="0.5021">
        <ele>173.443296</ele>
        <time>2022-07-11T19:05:52.325Z</time>
      </trkpt>
      <trkpt lat="44.79117" lon="0.50201">
        <ele>173.806478</ele>
        <time>2022-07-11T19:05:58.751Z</time>
      </trkpt>
      <trkpt lat="44.79132" lon="0.50189">
        <ele>173.997876</ele>
        <time>2022-07-11T19:06:03.100Z</time>
      </trkpt>
      <trkpt lat="44.79179" lon="0.50084">
        <ele>174.95198</ele>
        <time>2022-07-11T19:06:23.061Z</time>
      </trkpt>
      <trkpt lat="44.79207" lon="0.50041">
        <ele>175.404958</ele>
        <time>2022-07-11T19:06:32.518Z</time>
      </trkpt>
      <trkpt lat="44.7922" lon="0.50018">
        <ele>175.604007</ele>
        <time>2022-07-11T19:06:37.757Z</time>
      </trkpt>
      <trkpt lat="44.79224" lon="0.49994">
        <ele>175.757952</ele>
        <time>2022-07-11T19:06:41.453Z</time>
      </trkpt>
      <trkpt lat="44.79224" lon="0.49902">
        <ele>176.338965</ele>
        <time>2022-07-11T19:06:56.932Z</time>
      </trkpt>
      <trkpt lat="44.79232" lon="0.4985">
        <ele>176.677676</ele>
        <time>2022-07-11T19:07:05.427Z</time>
      </trkpt>
      <trkpt lat="44.79229" lon="0.49785">
        <ele>177.089754</ele>
        <time>2022-07-11T19:07:15.211Z</time>
      </trkpt>
      <trkpt lat="44.79222" lon="0.49731">
        <ele>176.855129</ele>
        <time>2022-07-11T19:07:22.365Z</time>
      </trkpt>
      <trkpt lat="44.79212" lon="0.4962">
        <ele>176.333566</ele>
        <time>2022-07-11T19:07:36.024Z</time>
      </trkpt>
      <trkpt lat="44.79203" lon="0.4958">
        <ele>176.136696</ele>
        <time>2022-07-11T19:07:40.956Z</time>
      </trkpt>
      <trkpt lat="44.79182" lon="0.49535">
        <ele>175.846507</ele>
        <time>2022-07-11T19:07:47.064Z</time>
      </trkpt>
      <trkpt lat="44.79144" lon="0.49458">
        <ele>174.915878</ele>
        <time>2022-07-11T19:07:57.620Z</time>
      </trkpt>
      <trkpt lat="44.79197" lon="0.49435">
        <ele>174.138874</ele>
        <time>2022-07-11T19:08:06.207Z</time>
      </trkpt>
      <trkpt lat="44.79291" lon="0.49314">
        <ele>171.816717</ele>
        <time>2022-07-11T19:08:25.729Z</time>
      </trkpt>
      <trkpt lat="44.7932" lon="0.49276">
        <ele>170.979946</ele>
        <time>2022-07-11T19:08:31.323Z</time>
      </trkpt>
      <trkpt lat="44.79344" lon="0.49245">
        <ele>170.290592</ele>
        <time>2022-07-11T19:08:35.802Z</time>
      </trkpt>
      <trkpt lat="44.79355" lon="0.49228">
        <ele>169.944747</ele>
        <time>2022-07-11T19:08:38.181Z</time>
      </trkpt>
      <trkpt lat="44.79357" lon="0.49203">
        <ele>169.571654</ele>
        <time>2022-07-11T19:08:40.731Z</time>
      </trkpt>
      <trkpt lat="44.79356" lon="0.49163">
        <ele>169.116754</ele>
        <time>2022-07-11T19:08:44.915Z</time>
      </trkpt>
      <trkpt lat="44.79362" lon="0.49154">
        <ele>167.261329</ele>
        <time>2022-07-11T19:09:41.841Z</time>
      </trkpt>
      <trkpt lat="44.79378" lon="0.49149">
        <ele>167.329132</ele>
        <time>2022-07-11T19:09:44.719Z</time>
      </trkpt>
    </trkseg>
  </trk>
  <trk>
    <name><![CDATA[De Miramont-de-Guyenne à Bergerac]]></name>
    <extensions>
      <line xmlns="http://www.topografix.com/GPX/gpx_style/0/2">
        <color>ff00d0</color>
        <width>4</width>
      </line>
    </extensions>
    <trkseg>
      <trkpt lat="44.60229" lon="0.36194">
        <ele>56.722453</ele>
        <time>2022-07-13T16:36:23.975Z</time>
      </trkpt>
      <trkpt lat="44.60276" lon="0.36238">
        <ele>56.740025</ele>
        <time>2022-07-13T16:36:32.375Z</time>
      </trkpt>
      <trkpt lat="44.60284" lon="0.36246">
        <ele>56.892971</ele>
        <time>2022-07-13T16:36:33.986Z</time>
      </trkpt>
      <trkpt lat="44.60347" lon="0.36318">
        <ele>58.167059</ele>
        <time>2022-07-13T16:36:51.643Z</time>
      </trkpt>
      <trkpt lat="44.60358" lon="0.36331">
        <ele>58.392146</ele>
        <time>2022-07-13T16:36:56.173Z</time>
      </trkpt>
      <trkpt lat="44.60377" lon="0.36355">
        <ele>58.790947</ele>
        <time>2022-07-13T16:37:04.008Z</time>
      </trkpt>
      <trkpt lat="44.60413" lon="0.36401">
        <ele>60.377553</ele>
        <time>2022-07-13T16:37:23.414Z</time>
      </trkpt>
      <trkpt lat="44.60528" lon="0.36479">
        <ele>66.998599</ele>
        <time>2022-07-13T16:38:17.267Z</time>
      </trkpt>
      <trkpt lat="44.60547" lon="0.36493">
        <ele>68.103737</ele>
        <time>2022-07-13T16:38:25.384Z</time>
      </trkpt>
      <trkpt lat="44.60579" lon="0.36518">
        <ele>68.852701</ele>
        <time>2022-07-13T16:38:36.698Z</time>
      </trkpt>
      <trkpt lat="44.60701" lon="0.36893">
        <ele>71.386478</ele>
        <time>2022-07-13T16:39:35.177Z</time>
      </trkpt>
      <trkpt lat="44.6071" lon="0.36919">
        <ele>71.483286</ele>
        <time>2022-07-13T16:39:39.942Z</time>
      </trkpt>
      <trkpt lat="44.60716" lon="0.36937">
        <ele>71.55112</ele>
        <time>2022-07-13T16:39:43.240Z</time>
      </trkpt>
      <trkpt lat="44.60737" lon="0.37003">
        <ele>72.021824</ele>
        <time>2022-07-13T16:39:54.033Z</time>
      </trkpt>
      <trkpt lat="44.60739" lon="0.37009">
        <ele>72.066548</ele>
        <time>2022-07-13T16:39:54.946Z</time>
      </trkpt>
      <trkpt lat="44.60774" lon="0.37121">
        <ele>72.881328</ele>
        <time>2022-07-13T16:40:14.537Z</time>
      </trkpt>
      <trkpt lat="44.60776" lon="0.37133">
        <ele>72.965137</ele>
        <time>2022-07-13T16:40:16.627Z</time>
      </trkpt>
      <trkpt lat="44.60778" lon="0.37139">
        <ele>73.00563</ele>
        <time>2022-07-13T16:40:17.581Z</time>
      </trkpt>
      <trkpt lat="44.60785" lon="0.37209">
        <ele>73.66505</ele>
        <time>2022-07-13T16:40:29.100Z</time>
      </trkpt>
      <trkpt lat="44.6081" lon="0.37211">
        <ele>74.08639</ele>
        <time>2022-07-13T16:40:35.102Z</time>
      </trkpt>
      <trkpt lat="44.60865" lon="0.37217">
        <ele>75.011595</ele>
        <time>2022-07-13T16:40:48.141Z</time>
      </trkpt>
      <trkpt lat="44.609" lon="0.37226">
        <ele>75.595545</ele>
        <time>2022-07-13T16:40:56.521Z</time>
      </trkpt>
      <trkpt lat="44.60943" lon="0.37241">
        <ele>76.358602</ele>
        <time>2022-07-13T16:41:08.713Z</time>
      </trkpt>
      <trkpt lat="44.611" lon="0.37299">
        <ele>79.954295</ele>
        <time>2022-07-13T16:41:54.641Z</time>
      </trkpt>
      <trkpt lat="44.61138" lon="0.37316">
        <ele>79.870711</ele>
        <time>2022-07-13T16:42:02.989Z</time>
      </trkpt>
      <trkpt lat="44.61161" lon="0.3731">
        <ele>79.58116</ele>
        <time>2022-07-13T16:42:07.333Z</time>
      </trkpt>
      <trkpt lat="44.61165" lon="0.37311">
        <ele>79.528312</ele>
        <time>2022-07-13T16:42:08.081Z</time>
      </trkpt>
      <trkpt lat="44.6118" lon="0.37335">
        <ele>79.25339</ele>
        <time>2022-07-13T16:42:11.887Z</time>
      </trkpt>
      <trkpt lat="44.61209" lon="0.37349">
        <ele>78.885193</ele>
        <time>2022-07-13T16:42:16.875Z</time>
      </trkpt>
      <trkpt lat="44.61417" lon="0.37365">
        <ele>73.266745</ele>
        <time>2022-07-13T16:42:46.573Z</time>
      </trkpt>
      <trkpt lat="44.61421" lon="0.37365">
        <ele>73.14943</ele>
        <time>2022-07-13T16:42:47.049Z</time>
      </trkpt>
      <trkpt lat="44.6144" lon="0.37372">
        <ele>72.473053</ele>
        <time>2022-07-13T16:42:49.731Z</time>
      </trkpt>
      <trkpt lat="44.61478" lon="0.3741">
        <ele>71.329454</ele>
        <time>2022-07-13T16:42:56.255Z</time>
      </trkpt>
      <trkpt lat="44.61483" lon="0.37416">
        <ele>71.221896</ele>
        <time>2022-07-13T16:42:57.159Z</time>
      </trkpt>
      <trkpt lat="44.61588" lon="0.37528">
        <ele>68.975371</ele>
        <time>2022-07-13T16:43:18.010Z</time>
      </trkpt>
      <trkpt lat="44.61598" lon="0.37539">
        <ele>68.759515</ele>
        <time>2022-07-13T16:43:20.477Z</time>
      </trkpt>
      <trkpt lat="44.61644" lon="0.37599">
        <ele>69.947215</ele>
        <time>2022-07-13T16:43:34.805Z</time>
      </trkpt>
      <trkpt lat="44.61652" lon="0.37625">
        <ele>70.348482</ele>
        <time>2022-07-13T16:43:40.211Z</time>
      </trkpt>
      <trkpt lat="44.61712" lon="0.37759">
        <ele>72.589827</ele>
        <time>2022-07-13T16:44:15.228Z</time>
      </trkpt>
      <trkpt lat="44.61737" lon="0.37801">
        <ele>73.418613</ele>
        <time>2022-07-13T16:44:26.828Z</time>
      </trkpt>
      <trkpt lat="44.61791" lon="0.37844">
        <ele>74.745072</ele>
        <time>2022-07-13T16:44:43.830Z</time>
      </trkpt>
      <trkpt lat="44.61831" lon="0.37885">
        <ele>75.783601</ele>
        <time>2022-07-13T16:44:56.134Z</time>
      </trkpt>
      <trkpt lat="44.61861" lon="0.37916">
        <ele>76.220906</ele>
        <time>2022-07-13T16:45:04.809Z</time>
      </trkpt>
      <trkpt lat="44.61909" lon="0.37977">
        <ele>76.55921</ele>
        <time>2022-07-13T16:45:18.372Z</time>
      </trkpt>
      <trkpt lat="44.61928" lon="0.38002">
        <ele>76.697864</ele>
        <time>2022-07-13T16:45:23.584Z</time>
      </trkpt>
      <trkpt lat="44.61948" lon="0.38028">
        <ele>76.840342</ele>
        <time>2022-07-13T16:45:28.846Z</time>
      </trkpt>
      <trkpt lat="44.61982" lon="0.3807">
        <ele>77.047097</ele>
        <time>2022-07-13T16:45:37.140Z</time>
      </trkpt>
      <trkpt lat="44.62024" lon="0.38123">
        <ele>77.064264</ele>
        <time>2022-07-13T16:45:47.891Z</time>
      </trkpt>
      <trkpt lat="44.62188" lon="0.38334">
        <ele>77.511298</ele>
        <time>2022-07-13T16:46:27.522Z</time>
      </trkpt>
      <trkpt lat="44.62202" lon="0.38351">
        <ele>77.584719</ele>
        <time>2022-07-13T16:46:31.181Z</time>
      </trkpt>
      <trkpt lat="44.62212" lon="0.38362">
        <ele>77.632285</ele>
        <time>2022-07-13T16:46:33.797Z</time>
      </trkpt>
      <trkpt lat="44.6226" lon="0.38402">
        <ele>78.074843</ele>
        <time>2022-07-13T16:46:45.789Z</time>
      </trkpt>
      <trkpt lat="44.62315" lon="0.38428">
        <ele>79.319099</ele>
        <time>2022-07-13T16:46:59.170Z</time>
      </trkpt>
      <trkpt lat="44.62429" lon="0.38433">
        <ele>81.828386</ele>
        <time>2022-07-13T16:47:32.148Z</time>
      </trkpt>
      <trkpt lat="44.62459" lon="0.38449">
        <ele>82.834818</ele>
        <time>2022-07-13T16:47:41.883Z</time>
      </trkpt>
      <trkpt lat="44.62476" lon="0.3849">
        <ele>83.918452</ele>
        <time>2022-07-13T16:47:52.333Z</time>
      </trkpt>
      <trkpt lat="44.62573" lon="0.38839">
        <ele>92.227676</ele>
        <time>2022-07-13T16:49:14.281Z</time>
      </trkpt>
      <trkpt lat="44.62596" lon="0.38877">
        <ele>93.327995</ele>
        <time>2022-07-13T16:49:23.701Z</time>
      </trkpt>
      <trkpt lat="44.62619" lon="0.38892">
        <ele>94.158961</ele>
        <time>2022-07-13T16:49:30.858Z</time>
      </trkpt>
      <trkpt lat="44.62637" lon="0.38896">
        <ele>94.749969</ele>
        <time>2022-07-13T16:49:36.017Z</time>
      </trkpt>
      <trkpt lat="44.62673" lon="0.38884">
        <ele>95.918587</ele>
        <time>2022-07-13T16:49:46.525Z</time>
      </trkpt>
      <trkpt lat="44.62716" lon="0.38821">
        <ele>97.91413</ele>
        <time>2022-07-13T16:50:05.665Z</time>
      </trkpt>
      <trkpt lat="44.62772" lon="0.38724">
        <ele>101.175931</ele>
        <time>2022-07-13T16:50:37.734Z</time>
      </trkpt>
      <trkpt lat="44.62801" lon="0.38673">
        <ele>102.982905</ele>
        <time>2022-07-13T16:50:54.401Z</time>
      </trkpt>
      <trkpt lat="44.62814" lon="0.38651">
        <ele>103.767666</ele>
        <time>2022-07-13T16:51:01.236Z</time>
      </trkpt>
      <trkpt lat="44.62828" lon="0.38636">
        <ele>104.445273</ele>
        <time>2022-07-13T16:51:07.096Z</time>
      </trkpt>
      <trkpt lat="44.62837" lon="0.38635">
        <ele>104.770869</ele>
        <time>2022-07-13T16:51:09.801Z</time>
      </trkpt>
      <trkpt lat="44.62863" lon="0.38644">
        <ele>105.641067</ele>
        <time>2022-07-13T16:51:17.988Z</time>
      </trkpt>
      <trkpt lat="44.62868" lon="0.38646">
        <ele>105.622046</ele>
        <time>2022-07-13T16:51:19.574Z</time>
      </trkpt>
      <trkpt lat="44.62936" lon="0.38666">
        <ele>105.368984</ele>
        <time>2022-07-13T16:51:36.355Z</time>
      </trkpt>
      <trkpt lat="44.62991" lon="0.38644">
        <ele>105.160462</ele>
        <time>2022-07-13T16:51:45.450Z</time>
      </trkpt>
      <trkpt lat="44.63044" lon="0.38591">
        <ele>103.987177</ele>
        <time>2022-07-13T16:51:54.225Z</time>
      </trkpt>
      <trkpt lat="44.63099" lon="0.3855">
        <ele>101.089268</ele>
        <time>2022-07-13T16:52:02.225Z</time>
      </trkpt>
      <trkpt lat="44.63157" lon="0.38545">
        <ele>98.383003</ele>
        <time>2022-07-13T16:52:09.560Z</time>
      </trkpt>
      <trkpt lat="44.6324" lon="0.38556">
        <ele>94.527099</ele>
        <time>2022-07-13T16:52:20.023Z</time>
      </trkpt>
      <trkpt lat="44.63266" lon="0.38576">
        <ele>93.157112</ele>
        <time>2022-07-13T16:52:23.869Z</time>
      </trkpt>
      <trkpt lat="44.63289" lon="0.38606">
        <ele>91.698456</ele>
        <time>2022-07-13T16:52:28.021Z</time>
      </trkpt>
      <trkpt lat="44.63319" lon="0.38668">
        <ele>89.191301</ele>
        <time>2022-07-13T16:52:35.338Z</time>
      </trkpt>
      <trkpt lat="44.63411" lon="0.3873">
        <ele>86.721112</ele>
        <time>2022-07-13T16:52:49.938Z</time>
      </trkpt>
      <trkpt lat="44.63417" lon="0.38735">
        <ele>86.592542</ele>
        <time>2022-07-13T16:52:51.011Z</time>
      </trkpt>
      <trkpt lat="44.63448" lon="0.38741">
        <ele>86.014466</ele>
        <time>2022-07-13T16:52:55.805Z</time>
      </trkpt>
      <trkpt lat="44.6347" lon="0.38736">
        <ele>85.591804</ele>
        <time>2022-07-13T16:52:59.467Z</time>
      </trkpt>
      <trkpt lat="44.63556" lon="0.38717">
        <ele>86.310104</ele>
        <time>2022-07-13T16:53:16.443Z</time>
      </trkpt>
      <trkpt lat="44.63696" lon="0.38758">
        <ele>90.7778</ele>
        <time>2022-07-13T16:54:05.693Z</time>
      </trkpt>
      <trkpt lat="44.63895" lon="0.38818">
        <ele>101.368423</ele>
        <time>2022-07-13T16:55:29.832Z</time>
      </trkpt>
      <trkpt lat="44.63945" lon="0.38824">
        <ele>103.613187</ele>
        <time>2022-07-13T16:55:48.650Z</time>
      </trkpt>
      <trkpt lat="44.64049" lon="0.38822">
        <ele>107.98894</ele>
        <time>2022-07-13T16:56:23.821Z</time>
      </trkpt>
      <trkpt lat="44.64116" lon="0.38805">
        <ele>109.508766</ele>
        <time>2022-07-13T16:56:44.761Z</time>
      </trkpt>
      <trkpt lat="44.64213" lon="0.38689">
        <ele>111.356444</ele>
        <time>2022-07-13T16:57:16.410Z</time>
      </trkpt>
      <trkpt lat="44.64228" lon="0.38667">
        <ele>111.004268</ele>
        <time>2022-07-13T16:57:20.493Z</time>
      </trkpt>
      <trkpt lat="44.64231" lon="0.38664">
        <ele>110.95031</ele>
        <time>2022-07-13T16:57:21.105Z</time>
      </trkpt>
      <trkpt lat="44.64276" lon="0.38625">
        <ele>110.105075</ele>
        <time>2022-07-13T16:57:29.824Z</time>
      </trkpt>
      <trkpt lat="44.64295" lon="0.38615">
        <ele>109.784986</ele>
        <time>2022-07-13T16:57:32.883Z</time>
      </trkpt>
      <trkpt lat="44.64326" lon="0.38613">
        <ele>109.299873</ele>
        <time>2022-07-13T16:57:37.281Z</time>
      </trkpt>
      <trkpt lat="44.64335" lon="0.38617">
        <ele>109.147854</ele>
        <time>2022-07-13T16:57:38.657Z</time>
      </trkpt>
      <trkpt lat="44.64358" lon="0.38673">
        <ele>107.169885</ele>
        <time>2022-07-13T16:57:44.879Z</time>
      </trkpt>
      <trkpt lat="44.64382" lon="0.38884">
        <ele>98.598689</ele>
        <time>2022-07-13T16:58:04.495Z</time>
      </trkpt>
      <trkpt lat="44.64398" lon="0.38923">
        <ele>96.822119</ele>
        <time>2022-07-13T16:58:08.555Z</time>
      </trkpt>
      <trkpt lat="44.64434" lon="0.38939">
        <ele>94.714581</ele>
        <time>2022-07-13T16:58:13.420Z</time>
      </trkpt>
      <trkpt lat="44.6446" lon="0.38942">
        <ele>93.308586</ele>
        <time>2022-07-13T16:58:16.681Z</time>
      </trkpt>
      <trkpt lat="44.64551" lon="0.38902">
        <ele>88.085808</ele>
        <time>2022-07-13T16:58:29.419Z</time>
      </trkpt>
      <trkpt lat="44.64575" lon="0.38886">
        <ele>86.782077</ele>
        <time>2022-07-13T16:58:32.987Z</time>
      </trkpt>
      <trkpt lat="44.64637" lon="0.38812">
        <ele>82.843231</ele>
        <time>2022-07-13T16:58:44.059Z</time>
      </trkpt>
      <trkpt lat="44.64679" lon="0.38776">
        <ele>80.44031</ele>
        <time>2022-07-13T16:58:50.601Z</time>
      </trkpt>
      <trkpt lat="44.64831" lon="0.38684">
        <ele>72.034835</ele>
        <time>2022-07-13T16:59:12.468Z</time>
      </trkpt>
      <trkpt lat="44.6486" lon="0.38673">
        <ele>70.570471</ele>
        <time>2022-07-13T16:59:16.517Z</time>
      </trkpt>
      <trkpt lat="44.64915" lon="0.38674">
        <ele>68.239608</ele>
        <time>2022-07-13T16:59:24.009Z</time>
      </trkpt>
      <trkpt lat="44.65285" lon="0.38736">
        <ele>53.960036</ele>
        <time>2022-07-13T17:00:15.339Z</time>
      </trkpt>
      <trkpt lat="44.65367" lon="0.38749">
        <ele>51.666496</ele>
        <time>2022-07-13T17:00:27.931Z</time>
      </trkpt>
      <trkpt lat="44.65392" lon="0.38746">
        <ele>51.03778</ele>
        <time>2022-07-13T17:00:31.922Z</time>
      </trkpt>
      <trkpt lat="44.6541" lon="0.38735">
        <ele>50.960423</ele>
        <time>2022-07-13T17:00:35.121Z</time>
      </trkpt>
      <trkpt lat="44.65498" lon="0.38849">
        <ele>50.491253</ele>
        <time>2022-07-13T17:00:55.149Z</time>
      </trkpt>
      <trkpt lat="44.655" lon="0.38852">
        <ele>50.479436</ele>
        <time>2022-07-13T17:00:55.723Z</time>
      </trkpt>
      <trkpt lat="44.65545" lon="0.38908">
        <ele>50.859134</ele>
        <time>2022-07-13T17:01:07.848Z</time>
      </trkpt>
      <trkpt lat="44.65527" lon="0.38946">
        <ele>51.510792</ele>
        <time>2022-07-13T17:01:15.969Z</time>
      </trkpt>
      <trkpt lat="44.65565" lon="0.38985">
        <ele>52.466947</ele>
        <time>2022-07-13T17:01:28.652Z</time>
      </trkpt>
      <trkpt lat="44.65642" lon="0.3908">
        <ele>54.632701</ele>
        <time>2022-07-13T17:02:00.047Z</time>
      </trkpt>
      <trkpt lat="44.65922" lon="0.39431">
        <ele>61.822361</ele>
        <time>2022-07-13T17:03:42.431Z</time>
      </trkpt>
      <trkpt lat="44.6597" lon="0.39479">
        <ele>61.640127</ele>
        <time>2022-07-13T17:03:51.959Z</time>
      </trkpt>
      <trkpt lat="44.65979" lon="0.39481">
        <ele>61.612202</ele>
        <time>2022-07-13T17:03:53.635Z</time>
      </trkpt>
      <trkpt lat="44.66" lon="0.39472">
        <ele>61.546246</ele>
        <time>2022-07-13T17:03:57.004Z</time>
      </trkpt>
      <trkpt lat="44.66009" lon="0.39477">
        <ele>61.515913</ele>
        <time>2022-07-13T17:03:58.845Z</time>
      </trkpt>
      <trkpt lat="44.66064" lon="0.39533">
        <ele>61.412373</ele>
        <time>2022-07-13T17:04:09.746Z</time>
      </trkpt>
      <trkpt lat="44.66114" lon="0.39567">
        <ele>61.433174</ele>
        <time>2022-07-13T17:04:18.988Z</time>
      </trkpt>
      <trkpt lat="44.66326" lon="0.39767">
        <ele>63.352537</ele>
        <time>2022-07-13T17:05:17.788Z</time>
      </trkpt>
      <trkpt lat="44.66372" lon="0.39808">
        <ele>63.88836</ele>
        <time>2022-07-13T17:05:30.745Z</time>
      </trkpt>
      <trkpt lat="44.66411" lon="0.39853">
        <ele>64.332685</ele>
        <time>2022-07-13T17:05:42.699Z</time>
      </trkpt>
      <trkpt lat="44.66455" lon="0.39921">
        <ele>64.922918</ele>
        <time>2022-07-13T17:05:56.541Z</time>
      </trkpt>
      <trkpt lat="44.66462" lon="0.3993">
        <ele>65.005719</ele>
        <time>2022-07-13T17:05:58.786Z</time>
      </trkpt>
      <trkpt lat="44.66482" lon="0.39922">
        <ele>65.152393</ele>
        <time>2022-07-13T17:06:02.459Z</time>
      </trkpt>
      <trkpt lat="44.66511" lon="0.39929">
        <ele>64.920217</ele>
        <time>2022-07-13T17:06:08.992Z</time>
      </trkpt>
      <trkpt lat="44.66579" lon="0.39972">
        <ele>64.330702</ele>
        <time>2022-07-13T17:06:21.322Z</time>
      </trkpt>
      <trkpt lat="44.66641" lon="0.40035">
        <ele>63.702801</ele>
        <time>2022-07-13T17:06:32.771Z</time>
      </trkpt>
      <trkpt lat="44.66667" lon="0.40042">
        <ele>63.316238</ele>
        <time>2022-07-13T17:06:36.648Z</time>
      </trkpt>
      <trkpt lat="44.66667" lon="0.40052">
        <ele>63.205532</ele>
        <time>2022-07-13T17:06:37.832Z</time>
      </trkpt>
      <trkpt lat="44.66838" lon="0.40114">
        <ele>60.866679</ele>
        <time>2022-07-13T17:07:06.293Z</time>
      </trkpt>
      <trkpt lat="44.67003" lon="0.40173">
        <ele>59.270302</ele>
        <time>2022-07-13T17:07:35.863Z</time>
      </trkpt>
      <trkpt lat="44.67028" lon="0.40177">
        <ele>58.798191</ele>
        <time>2022-07-13T17:07:40.038Z</time>
      </trkpt>
      <trkpt lat="44.67088" lon="0.40164">
        <ele>57.656561</ele>
        <time>2022-07-13T17:07:49.591Z</time>
      </trkpt>
      <trkpt lat="44.67135" lon="0.40177">
        <ele>56.774374</ele>
        <time>2022-07-13T17:07:56.552Z</time>
      </trkpt>
      <trkpt lat="44.67163" lon="0.40188">
        <ele>56.162918</ele>
        <time>2022-07-13T17:08:00.879Z</time>
      </trkpt>
      <trkpt lat="44.67186" lon="0.40198">
        <ele>55.558435</ele>
        <time>2022-07-13T17:08:04.348Z</time>
      </trkpt>
      <trkpt lat="44.67232" lon="0.40213">
        <ele>54.367041</ele>
        <time>2022-07-13T17:08:11.264Z</time>
      </trkpt>
      <trkpt lat="44.67276" lon="0.4023">
        <ele>53.237744</ele>
        <time>2022-07-13T17:08:17.830Z</time>
      </trkpt>
      <trkpt lat="44.67305" lon="0.40261">
        <ele>52.302739</ele>
        <time>2022-07-13T17:08:23.387Z</time>
      </trkpt>
      <trkpt lat="44.67346" lon="0.40284">
        <ele>51.718059</ele>
        <time>2022-07-13T17:08:30.211Z</time>
      </trkpt>
      <trkpt lat="44.67371" lon="0.40303">
        <ele>51.591985</ele>
        <time>2022-07-13T17:08:34.849Z</time>
      </trkpt>
      <trkpt lat="44.67402" lon="0.40327">
        <ele>51.434271</ele>
        <time>2022-07-13T17:08:41.026Z</time>
      </trkpt>
      <trkpt lat="44.67502" lon="0.40457">
        <ele>51.327913</ele>
        <time>2022-07-13T17:09:08.609Z</time>
      </trkpt>
      <trkpt lat="44.67526" lon="0.40488">
        <ele>51.541014</ele>
        <time>2022-07-13T17:09:15.807Z</time>
      </trkpt>
      <trkpt lat="44.67529" lon="0.40493">
        <ele>51.576531</ele>
        <time>2022-07-13T17:09:17.021Z</time>
      </trkpt>
      <trkpt lat="44.67532" lon="0.40497">
        <ele>51.605178</ele>
        <time>2022-07-13T17:09:17.979Z</time>
      </trkpt>
      <trkpt lat="44.67622" lon="0.40628">
        <ele>52.354542</ele>
        <time>2022-07-13T17:09:45.251Z</time>
      </trkpt>
      <trkpt lat="44.67637" lon="0.40659">
        <ele>52.454766</ele>
        <time>2022-07-13T17:09:50.605Z</time>
      </trkpt>
      <trkpt lat="44.67672" lon="0.40763">
        <ele>52.761229</ele>
        <time>2022-07-13T17:10:06.680Z</time>
      </trkpt>
      <trkpt lat="44.67682" lon="0.4083">
        <ele>52.958239</ele>
        <time>2022-07-13T17:10:15.992Z</time>
      </trkpt>
      <trkpt lat="44.67811" lon="0.40918">
        <ele>53.67736</ele>
        <time>2022-07-13T17:10:44.658Z</time>
      </trkpt>
      <trkpt lat="44.67831" lon="0.40898">
        <ele>53.82185</ele>
        <time>2022-07-13T17:10:49.843Z</time>
      </trkpt>
      <trkpt lat="44.67853" lon="0.40942">
        <ele>54.519235</ele>
        <time>2022-07-13T17:10:58.656Z</time>
      </trkpt>
      <trkpt lat="44.67911" lon="0.41084">
        <ele>56.618203</ele>
        <time>2022-07-13T17:11:28.239Z</time>
      </trkpt>
      <trkpt lat="44.67919" lon="0.4115">
        <ele>57.739612</ele>
        <time>2022-07-13T17:11:41.772Z</time>
      </trkpt>
      <trkpt lat="44.67923" lon="0.41283">
        <ele>60.441663</ele>
        <time>2022-07-13T17:12:09.130Z</time>
      </trkpt>
      <trkpt lat="44.67932" lon="0.4134">
        <ele>61.64359</ele>
        <time>2022-07-13T17:12:21.720Z</time>
      </trkpt>
      <trkpt lat="44.67952" lon="0.41381">
        <ele>62.892231</ele>
        <time>2022-07-13T17:12:32.442Z</time>
      </trkpt>
      <trkpt lat="44.67968" lon="0.41401">
        <ele>63.810961</ele>
        <time>2022-07-13T17:12:39.135Z</time>
      </trkpt>
      <trkpt lat="44.67989" lon="0.41421">
        <ele>64.950438</ele>
        <time>2022-07-13T17:12:47.733Z</time>
      </trkpt>
      <trkpt lat="44.68016" lon="0.41436">
        <ele>66.195836</ele>
        <time>2022-07-13T17:12:57.573Z</time>
      </trkpt>
      <trkpt lat="44.68074" lon="0.41455">
        <ele>68.802953</ele>
        <time>2022-07-13T17:13:19.554Z</time>
      </trkpt>
      <trkpt lat="44.68184" lon="0.41479">
        <ele>74.780951</ele>
        <time>2022-07-13T17:14:04.381Z</time>
      </trkpt>
      <trkpt lat="44.68319" lon="0.41488">
        <ele>82.44259</ele>
        <time>2022-07-13T17:14:59.811Z</time>
      </trkpt>
      <trkpt lat="44.68464" lon="0.41532">
        <ele>90.863559</ele>
        <time>2022-07-13T17:16:00.137Z</time>
      </trkpt>
      <trkpt lat="44.68536" lon="0.41534">
        <ele>94.030022</ele>
        <time>2022-07-13T17:16:29.309Z</time>
      </trkpt>
      <trkpt lat="44.68627" lon="0.41532">
        <ele>97.961078</ele>
        <time>2022-07-13T17:16:59.847Z</time>
      </trkpt>
      <trkpt lat="44.68675" lon="0.41522">
        <ele>98.407982</ele>
        <time>2022-07-13T17:17:13.147Z</time>
      </trkpt>
      <trkpt lat="44.68756" lon="0.41491">
        <ele>98.379823</ele>
        <time>2022-07-13T17:17:28.712Z</time>
      </trkpt>
      <trkpt lat="44.68825" lon="0.4145">
        <ele>97.938612</ele>
        <time>2022-07-13T17:17:39.426Z</time>
      </trkpt>
      <trkpt lat="44.68978" lon="0.41321">
        <ele>94.107954</ele>
        <time>2022-07-13T17:18:04.229Z</time>
      </trkpt>
      <trkpt lat="44.69052" lon="0.41259">
        <ele>95.287948</ele>
        <time>2022-07-13T17:18:21.466Z</time>
      </trkpt>
      <trkpt lat="44.69099" lon="0.4122">
        <ele>96.037645</ele>
        <time>2022-07-13T17:18:38.092Z</time>
      </trkpt>
      <trkpt lat="44.6916" lon="0.41181">
        <ele>98.109248</ele>
        <time>2022-07-13T17:19:01.786Z</time>
      </trkpt>
      <trkpt lat="44.69183" lon="0.41176">
        <ele>99.075371</ele>
        <time>2022-07-13T17:19:10.447Z</time>
      </trkpt>
      <trkpt lat="44.69221" lon="0.41181">
        <ele>100.629803</ele>
        <time>2022-07-13T17:19:25.608Z</time>
      </trkpt>
      <trkpt lat="44.69558" lon="0.41388">
        <ele>111.45536</ele>
        <time>2022-07-13T17:21:17.655Z</time>
      </trkpt>
      <trkpt lat="44.69984" lon="0.41683">
        <ele>110.765576</ele>
        <time>2022-07-13T17:22:38.237Z</time>
      </trkpt>
      <trkpt lat="44.70041" lon="0.41704">
        <ele>110.13864</ele>
        <time>2022-07-13T17:22:47.944Z</time>
      </trkpt>
      <trkpt lat="44.70078" lon="0.41709">
        <ele>109.744859</ele>
        <time>2022-07-13T17:22:53.525Z</time>
      </trkpt>
      <trkpt lat="44.70094" lon="0.4175">
        <ele>109.390907</ele>
        <time>2022-07-13T17:22:58.573Z</time>
      </trkpt>
      <trkpt lat="44.70092" lon="0.41757">
        <ele>109.317914</ele>
        <time>2022-07-13T17:22:59.343Z</time>
      </trkpt>
      <trkpt lat="44.70104" lon="0.41786">
        <ele>108.907771</ele>
        <time>2022-07-13T17:23:02.991Z</time>
      </trkpt>
      <trkpt lat="44.70155" lon="0.41838">
        <ele>107.826465</ele>
        <time>2022-07-13T17:23:12.778Z</time>
      </trkpt>
      <trkpt lat="44.70151" lon="0.41882">
        <ele>107.279564</ele>
        <time>2022-07-13T17:23:17.585Z</time>
      </trkpt>
      <trkpt lat="44.70169" lon="0.41903">
        <ele>106.883921</ele>
        <time>2022-07-13T17:23:21.085Z</time>
      </trkpt>
      <trkpt lat="44.70191" lon="0.41919">
        <ele>106.448717</ele>
        <time>2022-07-13T17:23:25.114Z</time>
      </trkpt>
      <trkpt lat="44.70207" lon="0.41885">
        <ele>106.485346</ele>
        <time>2022-07-13T17:23:29.915Z</time>
      </trkpt>
      <trkpt lat="44.70227" lon="0.41905">
        <ele>106.789379</ele>
        <time>2022-07-13T17:23:34.184Z</time>
      </trkpt>
      <trkpt lat="44.70277" lon="0.41955">
        <ele>107.532399</ele>
        <time>2022-07-13T17:23:47.600Z</time>
      </trkpt>
      <trkpt lat="44.70309" lon="0.42001">
        <ele>108.087959</ele>
        <time>2022-07-13T17:24:01.034Z</time>
      </trkpt>
      <trkpt lat="44.70322" lon="0.42144">
        <ele>110.734785</ele>
        <time>2022-07-13T17:24:33.656Z</time>
      </trkpt>
      <trkpt lat="44.70342" lon="0.42352">
        <ele>114.775136</ele>
        <time>2022-07-13T17:25:20.388Z</time>
      </trkpt>
      <trkpt lat="44.7039" lon="0.42538">
        <ele>116.906244</ele>
        <time>2022-07-13T17:25:53.513Z</time>
      </trkpt>
      <trkpt lat="44.70429" lon="0.42593">
        <ele>116.639618</ele>
        <time>2022-07-13T17:26:03.201Z</time>
      </trkpt>
      <trkpt lat="44.70579" lon="0.42774">
        <ele>115.283429</ele>
        <time>2022-07-13T17:26:36.493Z</time>
      </trkpt>
      <trkpt lat="44.70613" lon="0.42828">
        <ele>114.76351</ele>
        <time>2022-07-13T17:26:45.020Z</time>
      </trkpt>
      <trkpt lat="44.70635" lon="0.4285">
        <ele>114.488369</ele>
        <time>2022-07-13T17:26:49.465Z</time>
      </trkpt>
      <trkpt lat="44.707" lon="0.42874">
        <ele>113.734798</ele>
        <time>2022-07-13T17:27:00.221Z</time>
      </trkpt>
      <trkpt lat="44.70828" lon="0.42993">
        <ele>111.995975</ele>
        <time>2022-07-13T17:27:25.375Z</time>
      </trkpt>
      <trkpt lat="44.7089" lon="0.43025">
        <ele>111.708572</ele>
        <time>2022-07-13T17:27:36.724Z</time>
      </trkpt>
      <trkpt lat="44.70907" lon="0.43034">
        <ele>111.631024</ele>
        <time>2022-07-13T17:27:39.863Z</time>
      </trkpt>
      <trkpt lat="44.70924" lon="0.43053">
        <ele>111.535957</ele>
        <time>2022-07-13T17:27:43.595Z</time>
      </trkpt>
      <trkpt lat="44.70968" lon="0.43149">
        <ele>111.139871</ele>
        <time>2022-07-13T17:27:58.416Z</time>
      </trkpt>
      <trkpt lat="44.70986" lon="0.43173">
        <ele>110.98032</ele>
        <time>2022-07-13T17:28:02.915Z</time>
      </trkpt>
      <trkpt lat="44.71154" lon="0.43345">
        <ele>109.33394</ele>
        <time>2022-07-13T17:28:36.224Z</time>
      </trkpt>
      <trkpt lat="44.71213" lon="0.43385">
        <ele>108.652304</ele>
        <time>2022-07-13T17:28:46.220Z</time>
      </trkpt>
      <trkpt lat="44.71243" lon="0.43411">
        <ele>108.285632</ele>
        <time>2022-07-13T17:28:51.711Z</time>
      </trkpt>
      <trkpt lat="44.71252" lon="0.4342">
        <ele>108.238173</ele>
        <time>2022-07-13T17:28:53.529Z</time>
      </trkpt>
      <trkpt lat="44.71357" lon="0.43521">
        <ele>108.232535</ele>
        <time>2022-07-13T17:29:15.339Z</time>
      </trkpt>
      <trkpt lat="44.71378" lon="0.43536">
        <ele>108.231467</ele>
        <time>2022-07-13T17:29:20.516Z</time>
      </trkpt>
      <trkpt lat="44.71523" lon="0.43555">
        <ele>109.499536</ele>
        <time>2022-07-13T17:29:53.273Z</time>
      </trkpt>
      <trkpt lat="44.71708" lon="0.4354">
        <ele>111.294235</ele>
        <time>2022-07-13T17:30:32.787Z</time>
      </trkpt>
      <trkpt lat="44.71769" lon="0.4356">
        <ele>111.892523</ele>
        <time>2022-07-13T17:30:46.579Z</time>
      </trkpt>
      <trkpt lat="44.71878" lon="0.43682">
        <ele>113.348942</ele>
        <time>2022-07-13T17:31:17.579Z</time>
      </trkpt>
      <trkpt lat="44.71973" lon="0.4383">
        <ele>114.710609</ele>
        <time>2022-07-13T17:31:47.747Z</time>
      </trkpt>
      <trkpt lat="44.71991" lon="0.43848">
        <ele>114.924392</ele>
        <time>2022-07-13T17:31:52.446Z</time>
      </trkpt>
      <trkpt lat="44.72012" lon="0.43851">
        <ele>115.119575</ele>
        <time>2022-07-13T17:31:56.804Z</time>
      </trkpt>
      <trkpt lat="44.72197" lon="0.4377">
        <ele>117.212585</ele>
        <time>2022-07-13T17:32:40.317Z</time>
      </trkpt>
      <trkpt lat="44.7225" lon="0.43724">
        <ele>117.960936</ele>
        <time>2022-07-13T17:32:53.508Z</time>
      </trkpt>
      <trkpt lat="44.72262" lon="0.43724">
        <ele>118.111617</ele>
        <time>2022-07-13T17:32:56.122Z</time>
      </trkpt>
      <trkpt lat="44.72369" lon="0.43861">
        <ele>120.44104</ele>
        <time>2022-07-13T17:33:29.437Z</time>
      </trkpt>
      <trkpt lat="44.7239" lon="0.43893">
        <ele>121.413274</ele>
        <time>2022-07-13T17:33:37.790Z</time>
      </trkpt>
      <trkpt lat="44.72398" lon="0.43913">
        <ele>121.937433</ele>
        <time>2022-07-13T17:33:42.476Z</time>
      </trkpt>
      <trkpt lat="44.72418" lon="0.44">
        <ele>123.959273</ele>
        <time>2022-07-13T17:34:03.971Z</time>
      </trkpt>
      <trkpt lat="44.72453" lon="0.43984">
        <ele>125.113588</ele>
        <time>2022-07-13T17:34:16.944Z</time>
      </trkpt>
      <trkpt lat="44.72492" lon="0.43977">
        <ele>126.513004</ele>
        <time>2022-07-13T17:34:30.742Z</time>
      </trkpt>
      <trkpt lat="44.72558" lon="0.43973">
        <ele>128.889238</ele>
        <time>2022-07-13T17:34:53.156Z</time>
      </trkpt>
      <trkpt lat="44.72622" lon="0.43958">
        <ele>131.254071</ele>
        <time>2022-07-13T17:35:13.548Z</time>
      </trkpt>
      <trkpt lat="44.72658" lon="0.43957">
        <ele>132.215322</ele>
        <time>2022-07-13T17:35:23.559Z</time>
      </trkpt>
      <trkpt lat="44.72736" lon="0.4399">
        <ele>134.083428</ele>
        <time>2022-07-13T17:35:43.960Z</time>
      </trkpt>
      <trkpt lat="44.72803" lon="0.43968">
        <ele>135.673306</ele>
        <time>2022-07-13T17:36:02.555Z</time>
      </trkpt>
      <trkpt lat="44.72841" lon="0.43964">
        <ele>136.541577</ele>
        <time>2022-07-13T17:36:12.943Z</time>
      </trkpt>
      <trkpt lat="44.72894" lon="0.43943">
        <ele>137.842764</ele>
        <time>2022-07-13T17:36:29.284Z</time>
      </trkpt>
      <trkpt lat="44.72975" lon="0.43935">
        <ele>139.750971</ele>
        <time>2022-07-13T17:36:51.259Z</time>
      </trkpt>
      <trkpt lat="44.73015" lon="0.43916">
        <ele>140.244066</ele>
        <time>2022-07-13T17:37:01.717Z</time>
      </trkpt>
      <trkpt lat="44.73042" lon="0.43887">
        <ele>140.524845</ele>
        <time>2022-07-13T17:37:09.086Z</time>
      </trkpt>
      <trkpt lat="44.73071" lon="0.43876">
        <ele>140.771035</ele>
        <time>2022-07-13T17:37:14.755Z</time>
      </trkpt>
      <trkpt lat="44.73131" lon="0.4388">
        <ele>141.260087</ele>
        <time>2022-07-13T17:37:25.603Z</time>
      </trkpt>
      <trkpt lat="44.73177" lon="0.43893">
        <ele>142.113332</ele>
        <time>2022-07-13T17:37:34.538Z</time>
      </trkpt>
      <trkpt lat="44.73225" lon="0.43897">
        <ele>143.461047</ele>
        <time>2022-07-13T17:37:46.274Z</time>
      </trkpt>
      <trkpt lat="44.73287" lon="0.43902">
        <ele>145.217193</ele>
        <time>2022-07-13T17:38:05.731Z</time>
      </trkpt>
      <trkpt lat="44.73486" lon="0.43849">
        <ele>153.813658</ele>
        <time>2022-07-13T17:39:23.948Z</time>
      </trkpt>
      <trkpt lat="44.73527" lon="0.4382">
        <ele>155.383297</ele>
        <time>2022-07-13T17:39:39.524Z</time>
      </trkpt>
      <trkpt lat="44.73582" lon="0.43758">
        <ele>156.903897</ele>
        <time>2022-07-13T17:40:00.330Z</time>
      </trkpt>
      <trkpt lat="44.7363" lon="0.43718">
        <ele>158.114331</ele>
        <time>2022-07-13T17:40:13.502Z</time>
      </trkpt>
      <trkpt lat="44.73665" lon="0.43705">
        <ele>158.767438</ele>
        <time>2022-07-13T17:40:21.393Z</time>
      </trkpt>
      <trkpt lat="44.73722" lon="0.43701">
        <ele>158.365442</ele>
        <time>2022-07-13T17:40:32.651Z</time>
      </trkpt>
      <trkpt lat="44.7374" lon="0.43707">
        <ele>158.231286</ele>
        <time>2022-07-13T17:40:35.990Z</time>
      </trkpt>
      <trkpt lat="44.73797" lon="0.43766">
        <ele>157.727614</ele>
        <time>2022-07-13T17:40:47.470Z</time>
      </trkpt>
      <trkpt lat="44.73811" lon="0.43769">
        <ele>157.627455</ele>
        <time>2022-07-13T17:40:49.643Z</time>
      </trkpt>
      <trkpt lat="44.73873" lon="0.43744">
        <ele>156.916106</ele>
        <time>2022-07-13T17:40:59.352Z</time>
      </trkpt>
      <trkpt lat="44.73956" lon="0.43763">
        <ele>155.876385</ele>
        <time>2022-07-13T17:41:13.078Z</time>
      </trkpt>
      <trkpt lat="44.74025" lon="0.43743">
        <ele>155.467896</ele>
        <time>2022-07-13T17:41:25.259Z</time>
      </trkpt>
      <trkpt lat="44.7408" lon="0.4375">
        <ele>155.813057</ele>
        <time>2022-07-13T17:41:36.542Z</time>
      </trkpt>
      <trkpt lat="44.74118" lon="0.43758">
        <ele>156.053656</ele>
        <time>2022-07-13T17:41:45.274Z</time>
      </trkpt>
      <trkpt lat="44.74166" lon="0.4378">
        <ele>156.371807</ele>
        <time>2022-07-13T17:41:57.227Z</time>
      </trkpt>
      <trkpt lat="44.74281" lon="0.43851">
        <ele>156.758962</ele>
        <time>2022-07-13T17:42:25.589Z</time>
      </trkpt>
      <trkpt lat="44.74312" lon="0.43877">
        <ele>156.857068</ele>
        <time>2022-07-13T17:42:31.980Z</time>
      </trkpt>
      <trkpt lat="44.74336" lon="0.439">
        <ele>156.936215</ele>
        <time>2022-07-13T17:42:36.792Z</time>
      </trkpt>
      <trkpt lat="44.74368" lon="0.43949">
        <ele>155.694252</ele>
        <time>2022-07-13T17:42:44.357Z</time>
      </trkpt>
      <trkpt lat="44.7438" lon="0.4397">
        <ele>155.190051</ele>
        <time>2022-07-13T17:42:47.206Z</time>
      </trkpt>
      <trkpt lat="44.74398" lon="0.43997">
        <ele>154.489857</ele>
        <time>2022-07-13T17:42:51.128Z</time>
      </trkpt>
      <trkpt lat="44.74454" lon="0.44084">
        <ele>152.249066</ele>
        <time>2022-07-13T17:43:03.109Z</time>
      </trkpt>
      <trkpt lat="44.74477" lon="0.4411">
        <ele>151.02885</ele>
        <time>2022-07-13T17:43:07.002Z</time>
      </trkpt>
      <trkpt lat="44.74538" lon="0.4417">
        <ele>147.654661</ele>
        <time>2022-07-13T17:43:16.962Z</time>
      </trkpt>
      <trkpt lat="44.747" lon="0.44263">
        <ele>140.139936</ele>
        <time>2022-07-13T17:43:40.759Z</time>
      </trkpt>
      <trkpt lat="44.74717" lon="0.44243">
        <ele>139.211086</ele>
        <time>2022-07-13T17:43:43.702Z</time>
      </trkpt>
      <trkpt lat="44.74721" lon="0.44238">
        <ele>138.982924</ele>
        <time>2022-07-13T17:43:44.434Z</time>
      </trkpt>
      <trkpt lat="44.74736" lon="0.44277">
        <ele>137.669323</ele>
        <time>2022-07-13T17:43:48.550Z</time>
      </trkpt>
      <trkpt lat="44.74759" lon="0.44297">
        <ele>136.563863</ele>
        <time>2022-07-13T17:43:52.018Z</time>
      </trkpt>
      <trkpt lat="44.74771" lon="0.44302">
        <ele>136.118004</ele>
        <time>2022-07-13T17:43:53.806Z</time>
      </trkpt>
      <trkpt lat="44.74772" lon="0.44303">
        <ele>136.090113</ele>
        <time>2022-07-13T17:43:53.907Z</time>
      </trkpt>
      <trkpt lat="44.74899" lon="0.44357">
        <ele>131.607817</ele>
        <time>2022-07-13T17:44:11.896Z</time>
      </trkpt>
      <trkpt lat="44.74906" lon="0.4436">
        <ele>131.381362</ele>
        <time>2022-07-13T17:44:12.840Z</time>
      </trkpt>
      <trkpt lat="44.74956" lon="0.44385">
        <ele>129.933514</ele>
        <time>2022-07-13T17:44:20.349Z</time>
      </trkpt>
      <trkpt lat="44.74963" lon="0.44388">
        <ele>129.791519</ele>
        <time>2022-07-13T17:44:21.315Z</time>
      </trkpt>
      <trkpt lat="44.74991" lon="0.44401">
        <ele>129.174945</ele>
        <time>2022-07-13T17:44:25.565Z</time>
      </trkpt>
      <trkpt lat="44.75022" lon="0.44412">
        <ele>128.506071</ele>
        <time>2022-07-13T17:44:30.297Z</time>
      </trkpt>
      <trkpt lat="44.75031" lon="0.44415">
        <ele>128.323582</ele>
        <time>2022-07-13T17:44:31.615Z</time>
      </trkpt>
      <trkpt lat="44.75126" lon="0.4445">
        <ele>126.286291</ele>
        <time>2022-07-13T17:44:46.623Z</time>
      </trkpt>
      <trkpt lat="44.75236" lon="0.44492">
        <ele>123.973923</ele>
        <time>2022-07-13T17:45:03.008Z</time>
      </trkpt>
      <trkpt lat="44.75256" lon="0.44506">
        <ele>123.515546</ele>
        <time>2022-07-13T17:45:06.223Z</time>
      </trkpt>
      <trkpt lat="44.7528" lon="0.4454">
        <ele>122.9204</ele>
        <time>2022-07-13T17:45:11.197Z</time>
      </trkpt>
      <trkpt lat="44.75335" lon="0.44652">
        <ele>121.570298</ele>
        <time>2022-07-13T17:45:25.991Z</time>
      </trkpt>
      <trkpt lat="44.75411" lon="0.44798">
        <ele>119.871639</ele>
        <time>2022-07-13T17:45:46.495Z</time>
      </trkpt>
      <trkpt lat="44.75439" lon="0.44821">
        <ele>119.473447</ele>
        <time>2022-07-13T17:45:51.560Z</time>
      </trkpt>
      <trkpt lat="44.75529" lon="0.44851">
        <ele>118.281196</ele>
        <time>2022-07-13T17:46:05.877Z</time>
      </trkpt>
      <trkpt lat="44.75576" lon="0.44878">
        <ele>117.130297</ele>
        <time>2022-07-13T17:46:13.390Z</time>
      </trkpt>
      <trkpt lat="44.75632" lon="0.4492">
        <ele>115.715283</ele>
        <time>2022-07-13T17:46:22.459Z</time>
      </trkpt>
      <trkpt lat="44.75719" lon="0.44999">
        <ele>112.578107</ele>
        <time>2022-07-13T17:46:37.199Z</time>
      </trkpt>
      <trkpt lat="44.75819" lon="0.45079">
        <ele>107.819606</ele>
        <time>2022-07-13T17:46:52.057Z</time>
      </trkpt>
      <trkpt lat="44.7583" lon="0.45082">
        <ele>107.338413</ele>
        <time>2022-07-13T17:46:53.486Z</time>
      </trkpt>
      <trkpt lat="44.75956" lon="0.45156">
        <ele>101.071912</ele>
        <time>2022-07-13T17:47:10.532Z</time>
      </trkpt>
      <trkpt lat="44.76013" lon="0.45214">
        <ele>98.585446</ele>
        <time>2022-07-13T17:47:19.620Z</time>
      </trkpt>
      <trkpt lat="44.76088" lon="0.4535">
        <ele>99.19618</ele>
        <time>2022-07-13T17:47:42.773Z</time>
      </trkpt>
      <trkpt lat="44.76091" lon="0.45357">
        <ele>99.224839</ele>
        <time>2022-07-13T17:47:44.606Z</time>
      </trkpt>
      <trkpt lat="44.76102" lon="0.45377">
        <ele>99.316038</ele>
        <time>2022-07-13T17:47:50.217Z</time>
      </trkpt>
      <trkpt lat="44.76138" lon="0.45448">
        <ele>101.648911</ele>
        <time>2022-07-13T17:48:13.238Z</time>
      </trkpt>
      <trkpt lat="44.76172" lon="0.45497">
        <ele>104.149212</ele>
        <time>2022-07-13T17:48:33.599Z</time>
      </trkpt>
      <trkpt lat="44.76225" lon="0.4555">
        <ele>107.501214</ele>
        <time>2022-07-13T17:49:03.932Z</time>
      </trkpt>
      <trkpt lat="44.76296" lon="0.45685">
        <ele>109.651312</ele>
        <time>2022-07-13T17:49:41.551Z</time>
      </trkpt>
      <trkpt lat="44.76301" lon="0.4569">
        <ele>109.722586</ele>
        <time>2022-07-13T17:49:42.971Z</time>
      </trkpt>
      <trkpt lat="44.76308" lon="0.45697">
        <ele>109.807684</ele>
        <time>2022-07-13T17:49:44.513Z</time>
      </trkpt>
      <trkpt lat="44.76355" lon="0.4571">
        <ele>110.30113</ele>
        <time>2022-07-13T17:49:52.319Z</time>
      </trkpt>
      <trkpt lat="44.76381" lon="0.45739">
        <ele>109.924368</ele>
        <time>2022-07-13T17:49:57.130Z</time>
      </trkpt>
      <trkpt lat="44.76449" lon="0.45839">
        <ele>105.403377</ele>
        <time>2022-07-13T17:50:10.157Z</time>
      </trkpt>
      <trkpt lat="44.76547" lon="0.45902">
        <ele>101.622891</ele>
        <time>2022-07-13T17:50:24.451Z</time>
      </trkpt>
      <trkpt lat="44.76554" lon="0.45918">
        <ele>101.410616</ele>
        <time>2022-07-13T17:50:26.334Z</time>
      </trkpt>
      <trkpt lat="44.76558" lon="0.45956">
        <ele>100.953868</ele>
        <time>2022-07-13T17:50:30.290Z</time>
      </trkpt>
      <trkpt lat="44.76561" lon="0.4598">
        <ele>100.67682</ele>
        <time>2022-07-13T17:50:32.902Z</time>
      </trkpt>
      <trkpt lat="44.76566" lon="0.46006">
        <ele>100.350905</ele>
        <time>2022-07-13T17:50:35.959Z</time>
      </trkpt>
      <trkpt lat="44.76581" lon="0.46028">
        <ele>100.001467</ele>
        <time>2022-07-13T17:50:39.534Z</time>
      </trkpt>
      <trkpt lat="44.76711" lon="0.46179">
        <ele>103.363898</ele>
        <time>2022-07-13T17:51:27.274Z</time>
      </trkpt>
      <trkpt lat="44.76538" lon="0.4654">
        <ele>117.307921</ele>
        <time>2022-07-13T17:53:29.071Z</time>
      </trkpt>
      <trkpt lat="44.76476" lon="0.4667">
        <ele>121.337526</ele>
        <time>2022-07-13T17:54:05.069Z</time>
      </trkpt>
      <trkpt lat="44.76449" lon="0.46724">
        <ele>120.994142</ele>
        <time>2022-07-13T17:54:16.029Z</time>
      </trkpt>
      <trkpt lat="44.76428" lon="0.46817">
        <ele>120.485193</ele>
        <time>2022-07-13T17:54:27.840Z</time>
      </trkpt>
      <trkpt lat="44.76426" lon="0.46825">
        <ele>120.441629</ele>
        <time>2022-07-13T17:54:28.768Z</time>
      </trkpt>
      <trkpt lat="44.76531" lon="0.46879">
        <ele>117.243087</ele>
        <time>2022-07-13T17:54:44.453Z</time>
      </trkpt>
      <trkpt lat="44.76594" lon="0.46885">
        <ele>114.279181</ele>
        <time>2022-07-13T17:54:52.791Z</time>
      </trkpt>
      <trkpt lat="44.76627" lon="0.46894">
        <ele>112.722917</ele>
        <time>2022-07-13T17:54:57.153Z</time>
      </trkpt>
      <trkpt lat="44.76699" lon="0.46947">
        <ele>109.604318</ele>
        <time>2022-07-13T17:55:07.956Z</time>
      </trkpt>
      <trkpt lat="44.76731" lon="0.46973">
        <ele>108.302228</ele>
        <time>2022-07-13T17:55:13.120Z</time>
      </trkpt>
      <trkpt lat="44.7677" lon="0.47003">
        <ele>106.756145</ele>
        <time>2022-07-13T17:55:19.460Z</time>
      </trkpt>
      <trkpt lat="44.76781" lon="0.47002">
        <ele>106.361517</ele>
        <time>2022-07-13T17:55:21.020Z</time>
      </trkpt>
      <trkpt lat="44.77065" lon="0.47062">
        <ele>102.362142</ele>
        <time>2022-07-13T17:56:05.925Z</time>
      </trkpt>
      <trkpt lat="44.77292" lon="0.47152">
        <ele>102.000597</ele>
        <time>2022-07-13T17:56:45.075Z</time>
      </trkpt>
      <trkpt lat="44.77302" lon="0.47155">
        <ele>102.04001</ele>
        <time>2022-07-13T17:56:47.961Z</time>
      </trkpt>
      <trkpt lat="44.77337" lon="0.47161">
        <ele>102.192738</ele>
        <time>2022-07-13T17:56:57.682Z</time>
      </trkpt>
      <trkpt lat="44.77362" lon="0.47154">
        <ele>103.040492</ele>
        <time>2022-07-13T17:57:04.665Z</time>
      </trkpt>
      <trkpt lat="44.77485" lon="0.47091">
        <ele>107.566285</ele>
        <time>2022-07-13T17:57:48.195Z</time>
      </trkpt>
      <trkpt lat="44.77571" lon="0.47081">
        <ele>110.31061</ele>
        <time>2022-07-13T17:58:16.394Z</time>
      </trkpt>
      <trkpt lat="44.77592" lon="0.47075">
        <ele>110.989826</ele>
        <time>2022-07-13T17:58:22.885Z</time>
      </trkpt>
      <trkpt lat="44.77608" lon="0.47064">
        <ele>111.521426</ele>
        <time>2022-07-13T17:58:28.096Z</time>
      </trkpt>
      <trkpt lat="44.77622" lon="0.47037">
        <ele>112.257582</ele>
        <time>2022-07-13T17:58:34.686Z</time>
      </trkpt>
      <trkpt lat="44.77677" lon="0.4682">
        <ele>117.258802</ele>
        <time>2022-07-13T17:59:21.107Z</time>
      </trkpt>
      <trkpt lat="44.77718" lon="0.46743">
        <ele>119.333231</ele>
        <time>2022-07-13T17:59:41.477Z</time>
      </trkpt>
      <trkpt lat="44.77745" lon="0.46718">
        <ele>121.232288</ele>
        <time>2022-07-13T17:59:52.724Z</time>
      </trkpt>
      <trkpt lat="44.77773" lon="0.46711">
        <ele>122.998767</ele>
        <time>2022-07-13T18:00:03.862Z</time>
      </trkpt>
      <trkpt lat="44.77819" lon="0.46719">
        <ele>125.882047</ele>
        <time>2022-07-13T18:00:24.301Z</time>
      </trkpt>
      <trkpt lat="44.77849" lon="0.46747">
        <ele>128.119941</ele>
        <time>2022-07-13T18:00:42.023Z</time>
      </trkpt>
      <trkpt lat="44.77864" lon="0.46766">
        <ele>129.331116</ele>
        <time>2022-07-13T18:00:51.890Z</time>
      </trkpt>
      <trkpt lat="44.77951" lon="0.46872">
        <ele>136.434128</ele>
        <time>2022-07-13T18:01:45.926Z</time>
      </trkpt>
      <trkpt lat="44.78018" lon="0.46912">
        <ele>140.896228</ele>
        <time>2022-07-13T18:02:15.369Z</time>
      </trkpt>
      <trkpt lat="44.7805" lon="0.46947">
        <ele>142.102923</ele>
        <time>2022-07-13T18:02:28.473Z</time>
      </trkpt>
      <trkpt lat="44.78074" lon="0.47004">
        <ele>142.935017</ele>
        <time>2022-07-13T18:02:40.439Z</time>
      </trkpt>
      <trkpt lat="44.78121" lon="0.47234">
        <ele>145.230281</ele>
        <time>2022-07-13T18:03:15.070Z</time>
      </trkpt>
      <trkpt lat="44.78143" lon="0.47318">
        <ele>145.66702</ele>
        <time>2022-07-13T18:03:28.318Z</time>
      </trkpt>
      <trkpt lat="44.78165" lon="0.47346">
        <ele>145.86857</ele>
        <time>2022-07-13T18:03:34.281Z</time>
      </trkpt>
      <trkpt lat="44.7822" lon="0.47399">
        <ele>146.292451</ele>
        <time>2022-07-13T18:03:48.058Z</time>
      </trkpt>
      <trkpt lat="44.783" lon="0.47498">
        <ele>146.93583</ele>
        <time>2022-07-13T18:04:09.764Z</time>
      </trkpt>
      <trkpt lat="44.78366" lon="0.47621">
        <ele>147.663791</ele>
        <time>2022-07-13T18:04:31.043Z</time>
      </trkpt>
      <trkpt lat="44.7837" lon="0.47627">
        <ele>147.703883</ele>
        <time>2022-07-13T18:04:32.279Z</time>
      </trkpt>
      <trkpt lat="44.78404" lon="0.47656">
        <ele>147.97681</ele>
        <time>2022-07-13T18:04:40.505Z</time>
      </trkpt>
      <trkpt lat="44.78489" lon="0.47709">
        <ele>148.790312</ele>
        <time>2022-07-13T18:05:00.587Z</time>
      </trkpt>
      <trkpt lat="44.78572" lon="0.47736">
        <ele>149.729026</ele>
        <time>2022-07-13T18:05:20.009Z</time>
      </trkpt>
      <trkpt lat="44.78729" lon="0.47827">
        <ele>150.620511</ele>
        <time>2022-07-13T18:05:57.104Z</time>
      </trkpt>
      <trkpt lat="44.7875" lon="0.4784">
        <ele>150.677531</ele>
        <time>2022-07-13T18:06:00.744Z</time>
      </trkpt>
      <trkpt lat="44.78771" lon="0.47857">
        <ele>150.740335</ele>
        <time>2022-07-13T18:06:04.783Z</time>
      </trkpt>
      <trkpt lat="44.78792" lon="0.47882">
        <ele>150.614407</ele>
        <time>2022-07-13T18:06:09.020Z</time>
      </trkpt>
      <trkpt lat="44.78838" lon="0.47914">
        <ele>149.844751</ele>
        <time>2022-07-13T18:06:16.838Z</time>
      </trkpt>
      <trkpt lat="44.78845" lon="0.47917">
        <ele>149.734835</ele>
        <time>2022-07-13T18:06:17.885Z</time>
      </trkpt>
      <trkpt lat="44.78883" lon="0.47923">
        <ele>149.146699</ele>
        <time>2022-07-13T18:06:23.657Z</time>
      </trkpt>
      <trkpt lat="44.79008" lon="0.47896">
        <ele>148.076779</ele>
        <time>2022-07-13T18:06:42.664Z</time>
      </trkpt>
      <trkpt lat="44.79037" lon="0.4788">
        <ele>148.079585</ele>
        <time>2022-07-13T18:06:48.148Z</time>
      </trkpt>
      <trkpt lat="44.7908" lon="0.47829">
        <ele>148.084665</ele>
        <time>2022-07-13T18:06:59.360Z</time>
      </trkpt>
      <trkpt lat="44.79142" lon="0.47723">
        <ele>149.552857</ele>
        <time>2022-07-13T18:07:22.773Z</time>
      </trkpt>
      <trkpt lat="44.79191" lon="0.4766">
        <ele>151.17296</ele>
        <time>2022-07-13T18:07:41.726Z</time>
      </trkpt>
      <trkpt lat="44.79244" lon="0.47624">
        <ele>152.640345</ele>
        <time>2022-07-13T18:08:00.184Z</time>
      </trkpt>
      <trkpt lat="44.79346" lon="0.47569">
        <ele>155.557904</ele>
        <time>2022-07-13T18:08:33.372Z</time>
      </trkpt>
      <trkpt lat="44.7941" lon="0.47562">
        <ele>157.304588</ele>
        <time>2022-07-13T18:08:50.978Z</time>
      </trkpt>
      <trkpt lat="44.79424" lon="0.47559">
        <ele>157.264621</ele>
        <time>2022-07-13T18:08:54.499Z</time>
      </trkpt>
      <trkpt lat="44.79357" lon="0.48125">
        <ele>149.7</ele>
      </trkpt>
      <trkpt lat="44.79336" lon="0.48314">
        <ele>150.2</ele>
      </trkpt>
      <trkpt lat="44.79299" lon="0.48494">
        <ele>152.6</ele>
      </trkpt>
      <trkpt lat="44.79241" lon="0.48649">
        <ele>155.5</ele>
      </trkpt>
      <trkpt lat="44.79205" lon="0.48782">
        <ele>160.1</ele>
      </trkpt>
      <trkpt lat="44.79247" lon="0.48803">
        <ele>160.9</ele>
      </trkpt>
      <trkpt lat="44.7929" lon="0.48906">
        <ele>161.1</ele>
      </trkpt>
      <trkpt lat="44.79366" lon="0.49125">
        <ele>164.4</ele>
      </trkpt>
    </trkseg>
  </trk>
  <trk>
    <name><![CDATA[P3 - Monbazillac - Targon]]></name>
    <extensions>
      <line xmlns="http://www.topografix.com/GPX/gpx_style/0/2">
        <color>ff0000</color>
        <width>4</width>
      </line>
    </extensions>
    <trkseg>
      <trkpt lat="44.79378" lon="0.49149">
        <ele>167.329132</ele>
        <time>2022-07-11T19:09:44.719Z</time>
      </trkpt>
      <trkpt lat="44.79384" lon="0.49149">
        <ele>167.351059</ele>
        <time>2022-07-11T19:09:45.582Z</time>
      </trkpt>
      <trkpt lat="44.794" lon="0.49162">
        <ele>167.409169</ele>
        <time>2022-07-11T19:09:48.652Z</time>
      </trkpt>
      <trkpt lat="44.79438" lon="0.49211">
        <ele>165.343407</ele>
        <time>2022-07-11T19:09:56.110Z</time>
      </trkpt>
      <trkpt lat="44.79482" lon="0.49234">
        <ele>163.424228</ele>
        <time>2022-07-11T19:10:02.372Z</time>
      </trkpt>
      <trkpt lat="44.79524" lon="0.49238">
        <ele>161.730226</ele>
        <time>2022-07-11T19:10:07.596Z</time>
      </trkpt>
      <trkpt lat="44.79588" lon="0.4921">
        <ele>158.161382</ele>
        <time>2022-07-11T19:10:15.834Z</time>
      </trkpt>
      <trkpt lat="44.79664" lon="0.49227">
        <ele>152.782704</ele>
        <time>2022-07-11T19:10:24.872Z</time>
      </trkpt>
      <trkpt lat="44.79698" lon="0.49229">
        <ele>150.383029</ele>
        <time>2022-07-11T19:10:28.990Z</time>
      </trkpt>
      <trkpt lat="44.79746" lon="0.49204">
        <ele>146.488642</ele>
        <time>2022-07-11T19:10:35.407Z</time>
      </trkpt>
      <trkpt lat="44.79781" lon="0.49195">
        <ele>143.155456</ele>
        <time>2022-07-11T19:10:39.497Z</time>
      </trkpt>
      <trkpt lat="44.79812" lon="0.49208">
        <ele>140.142842</ele>
        <time>2022-07-11T19:10:43.160Z</time>
      </trkpt>
      <trkpt lat="44.79866" lon="0.49278">
        <ele>133.210289</ele>
        <time>2022-07-11T19:10:51.449Z</time>
      </trkpt>
      <trkpt lat="44.7989" lon="0.49301">
        <ele>130.43185</ele>
        <time>2022-07-11T19:10:54.727Z</time>
      </trkpt>
      <trkpt lat="44.79909" lon="0.49304">
        <ele>128.461367</ele>
        <time>2022-07-11T19:10:56.826Z</time>
      </trkpt>
      <trkpt lat="44.79927" lon="0.49298">
        <ele>126.524249</ele>
        <time>2022-07-11T19:10:58.948Z</time>
      </trkpt>
      <trkpt lat="44.79978" lon="0.49274">
        <ele>120.928447</ele>
        <time>2022-07-11T19:11:04.920Z</time>
      </trkpt>
      <trkpt lat="44.80109" lon="0.49213">
        <ele>107.6721</ele>
        <time>2022-07-11T19:11:20.737Z</time>
      </trkpt>
      <trkpt lat="44.80226" lon="0.49192">
        <ele>98.022768</ele>
        <time>2022-07-11T19:11:34.626Z</time>
      </trkpt>
      <trkpt lat="44.80256" lon="0.49189">
        <ele>95.492021</ele>
        <time>2022-07-11T19:11:38.235Z</time>
      </trkpt>
      <trkpt lat="44.80487" lon="0.49214">
        <ele>76.965477</ele>
        <time>2022-07-11T19:12:05.177Z</time>
      </trkpt>
      <trkpt lat="44.80489" lon="0.49147">
        <ele>72</ele>
      </trkpt>
      <trkpt lat="44.80517" lon="0.49061">
        <ele>70.6</ele>
      </trkpt>
      <trkpt lat="44.80625" lon="0.48919">
        <ele>69.4</ele>
      </trkpt>
      <trkpt lat="44.80646" lon="0.4887">
        <ele>68.2</ele>
      </trkpt>
      <trkpt lat="44.80617" lon="0.48653">
        <ele>67.6</ele>
      </trkpt>
      <trkpt lat="44.80599" lon="0.48419">
        <ele>66.5</ele>
      </trkpt>
      <trkpt lat="44.80588" lon="0.48353">
        <ele>64.6</ele>
      </trkpt>
      <trkpt lat="44.80703" lon="0.4831">
        <ele>60.9</ele>
      </trkpt>
      <trkpt lat="44.80735" lon="0.48282">
        <ele>60</ele>
      </trkpt>
      <trkpt lat="44.80725" lon="0.48061">
        <ele>57</ele>
      </trkpt>
      <trkpt lat="44.80704" lon="0.47911">
        <ele>56.7</ele>
      </trkpt>
      <trkpt lat="44.80735" lon="0.47741">
        <ele>55.6</ele>
      </trkpt>
      <trkpt lat="44.80741" lon="0.47404">
        <ele>55.6</ele>
      </trkpt>
      <trkpt lat="44.80792" lon="0.46945">
        <ele>56</ele>
      </trkpt>
      <trkpt lat="44.809" lon="0.46441">
        <ele>56.6</ele>
      </trkpt>
      <trkpt lat="44.80969" lon="0.4602">
        <ele>56.4</ele>
      </trkpt>
      <trkpt lat="44.81009" lon="0.45735">
        <ele>56.2</ele>
      </trkpt>
      <trkpt lat="44.81138" lon="0.45458">
        <ele>56.5</ele>
      </trkpt>
      <trkpt lat="44.81152" lon="0.45383">
        <ele>57.5</ele>
      </trkpt>
      <trkpt lat="44.81146" lon="0.45132">
        <ele>57.8</ele>
      </trkpt>
      <trkpt lat="44.81147" lon="0.44898">
        <ele>57.7</ele>
      </trkpt>
      <trkpt lat="44.81179" lon="0.44806">
        <ele>56.6</ele>
      </trkpt>
      <trkpt lat="44.81283" lon="0.44508">
        <ele>52.8</ele>
      </trkpt>
      <trkpt lat="44.81368" lon="0.44353">
        <ele>52.8</ele>
      </trkpt>
      <trkpt lat="44.81467" lon="0.4416">
        <ele>51.2</ele>
      </trkpt>
      <trkpt lat="44.81493" lon="0.43928">
        <ele>50.7</ele>
      </trkpt>
      <trkpt lat="44.81532" lon="0.43613">
        <ele>50.8</ele>
      </trkpt>
      <trkpt lat="44.81552" lon="0.43411">
        <ele>51.1</ele>
      </trkpt>
      <trkpt lat="44.81517" lon="0.43248">
        <ele>51.4</ele>
      </trkpt>
      <trkpt lat="44.81488" lon="0.43134">
        <ele>53.5</ele>
      </trkpt>
      <trkpt lat="44.81478" lon="0.43031">
        <ele>53.751437</ele>
        <time>2022-07-11T19:45:01.301Z</time>
      </trkpt>
      <trkpt lat="44.81479" lon="0.43015">
        <ele>53.982795</ele>
        <time>2022-07-11T19:45:03.952Z</time>
      </trkpt>
      <trkpt lat="44.81489" lon="0.42856">
        <ele>55.07736</ele>
        <time>2022-07-11T19:45:27.655Z</time>
      </trkpt>
      <trkpt lat="44.8149" lon="0.42709">
        <ele>55.417405</ele>
        <time>2022-07-11T19:45:46.020Z</time>
      </trkpt>
      <trkpt lat="44.81482" lon="0.42611">
        <ele>55.520627</ele>
        <time>2022-07-11T19:45:58.678Z</time>
      </trkpt>
      <trkpt lat="44.81482" lon="0.4261">
        <ele>55.521779</ele>
        <time>2022-07-11T19:45:58.844Z</time>
      </trkpt>
      <trkpt lat="44.81481" lon="0.42604">
        <ele>55.52735</ele>
        <time>2022-07-11T19:45:59.632Z</time>
      </trkpt>
      <trkpt lat="44.81477" lon="0.42533">
        <ele>55.595396</ele>
        <time>2022-07-11T19:46:09.288Z</time>
      </trkpt>
      <trkpt lat="44.81477" lon="0.42511">
        <ele>55.616565</ele>
        <time>2022-07-11T19:46:12.244Z</time>
      </trkpt>
      <trkpt lat="44.81477" lon="0.42497">
        <ele>55.630202</ele>
        <time>2022-07-11T19:46:14.182Z</time>
      </trkpt>
      <trkpt lat="44.81477" lon="0.42455">
        <ele>55.670062</ele>
        <time>2022-07-11T19:46:19.589Z</time>
      </trkpt>
      <trkpt lat="44.81477" lon="0.42441">
        <ele>55.687809</ele>
        <time>2022-07-11T19:46:21.285Z</time>
      </trkpt>
      <trkpt lat="44.81472" lon="0.4235">
        <ele>55.837186</ele>
        <time>2022-07-11T19:46:32.924Z</time>
      </trkpt>
      <trkpt lat="44.81467" lon="0.42271">
        <ele>55.965181</ele>
        <time>2022-07-11T19:46:43.282Z</time>
      </trkpt>
      <trkpt lat="44.81462" lon="0.4221">
        <ele>56.065234</ele>
        <time>2022-07-11T19:46:51.537Z</time>
      </trkpt>
      <trkpt lat="44.81437" lon="0.41868">
        <ele>56.902151</ele>
        <time>2022-07-11T19:47:40.460Z</time>
      </trkpt>
      <trkpt lat="44.8143" lon="0.41777">
        <ele>56.7204</ele>
        <time>2022-07-11T19:47:51.476Z</time>
      </trkpt>
      <trkpt lat="44.81426" lon="0.41697">
        <ele>56.562055</ele>
        <time>2022-07-11T19:48:00.666Z</time>
      </trkpt>
      <trkpt lat="44.81428" lon="0.41572">
        <ele>56.092505</ele>
        <time>2022-07-11T19:48:14.946Z</time>
      </trkpt>
      <trkpt lat="44.81416" lon="0.41472">
        <ele>55.703915</ele>
        <time>2022-07-11T19:48:26.725Z</time>
      </trkpt>
      <trkpt lat="44.8135" lon="0.41153">
        <ele>56.306408</ele>
        <time>2022-07-11T19:49:13.846Z</time>
      </trkpt>
      <trkpt lat="44.81255" lon="0.40609">
        <ele>55.000903</ele>
        <time>2022-07-11T19:50:21.816Z</time>
      </trkpt>
      <trkpt lat="44.8125" lon="0.4055">
        <ele>54.645419</ele>
        <time>2022-07-11T19:50:28.526Z</time>
      </trkpt>
      <trkpt lat="44.8125" lon="0.40484">
        <ele>54.244975</ele>
        <time>2022-07-11T19:50:35.878Z</time>
      </trkpt>
      <trkpt lat="44.81252" lon="0.40425">
        <ele>53.69263</ele>
        <time>2022-07-11T19:50:42.278Z</time>
      </trkpt>
      <trkpt lat="44.81254" lon="0.40359">
        <ele>52.864282</ele>
        <time>2022-07-11T19:50:49.320Z</time>
      </trkpt>
      <trkpt lat="44.81257" lon="0.40196">
        <ele>50.844811</ele>
        <time>2022-07-11T19:51:06.441Z</time>
      </trkpt>
      <trkpt lat="44.81258" lon="0.4016">
        <ele>50.484966</ele>
        <time>2022-07-11T19:51:10.235Z</time>
      </trkpt>
      <trkpt lat="44.8126" lon="0.40099">
        <ele>49.88586</ele>
        <time>2022-07-11T19:51:16.591Z</time>
      </trkpt>
      <trkpt lat="44.81262" lon="0.40008">
        <ele>48.977427</ele>
        <time>2022-07-11T19:51:26.574Z</time>
      </trkpt>
      <trkpt lat="44.81263" lon="0.39972">
        <ele>48.6136</ele>
        <time>2022-07-11T19:51:30.714Z</time>
      </trkpt>
      <trkpt lat="44.81264" lon="0.39922">
        <ele>48.229306</ele>
        <time>2022-07-11T19:51:36.405Z</time>
      </trkpt>
      <trkpt lat="44.81261" lon="0.39844">
        <ele>47.775042</ele>
        <time>2022-07-11T19:51:45.476Z</time>
      </trkpt>
      <trkpt lat="44.81245" lon="0.39779">
        <ele>47.379613</ele>
        <time>2022-07-11T19:51:53.397Z</time>
      </trkpt>
      <trkpt lat="44.81088" lon="0.39364">
        <ele>44.568129</ele>
        <time>2022-07-11T19:52:47.352Z</time>
      </trkpt>
      <trkpt lat="44.81005" lon="0.39145">
        <ele>43.119674</ele>
        <time>2022-07-11T19:53:15.475Z</time>
      </trkpt>
      <trkpt lat="44.80995" lon="0.39117">
        <ele>42.942617</ele>
        <time>2022-07-11T19:53:19.155Z</time>
      </trkpt>
      <trkpt lat="44.80981" lon="0.39033">
        <ele>42.467471</ele>
        <time>2022-07-11T19:53:29.164Z</time>
      </trkpt>
      <trkpt lat="44.80971" lon="0.3894">
        <ele>42.393692</ele>
        <time>2022-07-11T19:53:40.372Z</time>
      </trkpt>
      <trkpt lat="44.80963" lon="0.38295">
        <ele>42.380592</ele>
        <time>2022-07-11T19:55:02.202Z</time>
      </trkpt>
      <trkpt lat="44.81012" lon="0.37972">
        <ele>43.600312</ele>
        <time>2022-07-11T19:55:49.965Z</time>
      </trkpt>
      <trkpt lat="44.8102" lon="0.37912">
        <ele>43.775505</ele>
        <time>2022-07-11T19:55:58.441Z</time>
      </trkpt>
      <trkpt lat="44.81028" lon="0.37855">
        <ele>43.94426</ele>
        <time>2022-07-11T19:56:06.329Z</time>
      </trkpt>
      <trkpt lat="44.81036" lon="0.37802">
        <ele>44.100223</ele>
        <time>2022-07-11T19:56:13.404Z</time>
      </trkpt>
      <trkpt lat="44.81051" lon="0.37708">
        <ele>44.580914</ele>
        <time>2022-07-11T19:56:26.706Z</time>
      </trkpt>
      <trkpt lat="44.81055" lon="0.37604">
        <ele>45.188972</ele>
        <time>2022-07-11T19:56:41.536Z</time>
      </trkpt>
      <trkpt lat="44.81057" lon="0.37275">
        <ele>47.897971</ele>
        <time>2022-07-11T19:57:36.614Z</time>
      </trkpt>
      <trkpt lat="44.81023" lon="0.36945">
        <ele>47.830974</ele>
        <time>2022-07-11T19:58:20.927Z</time>
      </trkpt>
      <trkpt lat="44.81013" lon="0.36834">
        <ele>46.778103</ele>
        <time>2022-07-11T19:58:32.943Z</time>
      </trkpt>
      <trkpt lat="44.81013" lon="0.36739">
        <ele>45.508429</ele>
        <time>2022-07-11T19:58:42.576Z</time>
      </trkpt>
      <trkpt lat="44.81021" lon="0.36648">
        <ele>43.402492</ele>
        <time>2022-07-11T19:58:51.421Z</time>
      </trkpt>
      <trkpt lat="44.81075" lon="0.36377">
        <ele>37.315642</ele>
        <time>2022-07-11T19:59:18.269Z</time>
      </trkpt>
      <trkpt lat="44.81101" lon="0.36251">
        <ele>34.930593</ele>
        <time>2022-07-11T19:59:31.885Z</time>
      </trkpt>
      <trkpt lat="44.81123" lon="0.36185">
        <ele>34.306578</ele>
        <time>2022-07-11T19:59:39.739Z</time>
      </trkpt>
      <trkpt lat="44.81131" lon="0.36163">
        <ele>34.094214</ele>
        <time>2022-07-11T19:59:42.515Z</time>
      </trkpt>
      <trkpt lat="44.81204" lon="0.35976">
        <ele>32.833321</ele>
        <time>2022-07-11T20:00:07.052Z</time>
      </trkpt>
      <trkpt lat="44.81234" lon="0.35837">
        <ele>32.578517</ele>
        <time>2022-07-11T20:00:24.891Z</time>
      </trkpt>
      <trkpt lat="44.81238" lon="0.35751">
        <ele>32.889018</ele>
        <time>2022-07-11T20:00:37.122Z</time>
      </trkpt>
      <trkpt lat="44.81213" lon="0.35597">
        <ele>33.839363</ele>
        <time>2022-07-11T20:01:02.074Z</time>
      </trkpt>
      <trkpt lat="44.81211" lon="0.35581">
        <ele>33.938882</ele>
        <time>2022-07-11T20:01:04.687Z</time>
      </trkpt>
      <trkpt lat="44.81198" lon="0.35453">
        <ele>34.555136</ele>
        <time>2022-07-11T20:01:23.769Z</time>
      </trkpt>
      <trkpt lat="44.81194" lon="0.35405">
        <ele>34.777752</ele>
        <time>2022-07-11T20:01:30.488Z</time>
      </trkpt>
      <trkpt lat="44.81194" lon="0.35331">
        <ele>35.116965</ele>
        <time>2022-07-11T20:01:41.197Z</time>
      </trkpt>
      <trkpt lat="44.81199" lon="0.35205">
        <ele>35.683116</ele>
        <time>2022-07-11T20:01:58.121Z</time>
      </trkpt>
      <trkpt lat="44.81202" lon="0.35131">
        <ele>36.017866</ele>
        <time>2022-07-11T20:02:08.585Z</time>
      </trkpt>
      <trkpt lat="44.8121" lon="0.34843">
        <ele>38.302444</ele>
        <time>2022-07-11T20:02:54.360Z</time>
      </trkpt>
      <trkpt lat="44.81214" lon="0.34653">
        <ele>40.673311</ele>
        <time>2022-07-11T20:03:28.240Z</time>
      </trkpt>
      <trkpt lat="44.81213" lon="0.34386">
        <ele>44.385923</ele>
        <time>2022-07-11T20:04:17.562Z</time>
      </trkpt>
      <trkpt lat="44.81211" lon="0.34103">
        <ele>47.931879</ele>
        <time>2022-07-11T20:05:08.310Z</time>
      </trkpt>
      <trkpt lat="44.81202" lon="0.33997">
        <ele>48.779211</ele>
        <time>2022-07-11T20:05:25.582Z</time>
      </trkpt>
      <trkpt lat="44.81166" lon="0.33792">
        <ele>49.393623</ele>
        <time>2022-07-11T20:05:54.043Z</time>
      </trkpt>
      <trkpt lat="44.81145" lon="0.33731">
        <ele>49.109748</ele>
        <time>2022-07-11T20:06:02.041Z</time>
      </trkpt>
      <trkpt lat="44.81124" lon="0.33686">
        <ele>48.888085</ele>
        <time>2022-07-11T20:06:08.170Z</time>
      </trkpt>
      <trkpt lat="44.80997" lon="0.33527">
        <ele>48.15103</ele>
        <time>2022-07-11T20:06:35.759Z</time>
      </trkpt>
      <trkpt lat="44.80982" lon="0.33493">
        <ele>48.079979</ele>
        <time>2022-07-11T20:06:40.580Z</time>
      </trkpt>
      <trkpt lat="44.80976" lon="0.33459">
        <ele>48.016462</ele>
        <time>2022-07-11T20:06:45.034Z</time>
      </trkpt>
      <trkpt lat="44.80974" lon="0.33439">
        <ele>47.980724</ele>
        <time>2022-07-11T20:06:47.542Z</time>
      </trkpt>
      <trkpt lat="44.80974" lon="0.3339">
        <ele>47.918991</ele>
        <time>2022-07-11T20:06:54.060Z</time>
      </trkpt>
      <trkpt lat="44.80982" lon="0.3334">
        <ele>48.48736</ele>
        <time>2022-07-11T20:07:01.997Z</time>
      </trkpt>
      <trkpt lat="44.81027" lon="0.33196">
        <ele>50.259985</ele>
        <time>2022-07-11T20:07:29.749Z</time>
      </trkpt>
      <trkpt lat="44.81039" lon="0.33155">
        <ele>50.751165</ele>
        <time>2022-07-11T20:07:38.133Z</time>
      </trkpt>
      <trkpt lat="44.81047" lon="0.33095">
        <ele>51.567563</ele>
        <time>2022-07-11T20:07:49.728Z</time>
      </trkpt>
      <trkpt lat="44.81045" lon="0.32981">
        <ele>53.101919</ele>
        <time>2022-07-11T20:08:11.308Z</time>
      </trkpt>
      <trkpt lat="44.81035" lon="0.32855">
        <ele>54.228569</ele>
        <time>2022-07-11T20:08:32.223Z</time>
      </trkpt>
      <trkpt lat="44.81041" lon="0.32787">
        <ele>54.350049</ele>
        <time>2022-07-11T20:08:42.154Z</time>
      </trkpt>
      <trkpt lat="44.81118" lon="0.32439">
        <ele>53.735536</ele>
        <time>2022-07-11T20:09:25.676Z</time>
      </trkpt>
      <trkpt lat="44.81163" lon="0.32236">
        <ele>52.382975</ele>
        <time>2022-07-11T20:09:49.793Z</time>
      </trkpt>
      <trkpt lat="44.81177" lon="0.32165">
        <ele>51.873387</ele>
        <time>2022-07-11T20:09:58.101Z</time>
      </trkpt>
      <trkpt lat="44.81188" lon="0.32117">
        <ele>51.432049</ele>
        <time>2022-07-11T20:10:03.790Z</time>
      </trkpt>
      <trkpt lat="44.81287" lon="0.31663">
        <ele>47.014262</ele>
        <time>2022-07-11T20:10:55.734Z</time>
      </trkpt>
      <trkpt lat="44.81314" lon="0.31511">
        <ele>45.724765</ele>
        <time>2022-07-11T20:11:12.593Z</time>
      </trkpt>
      <trkpt lat="44.81402" lon="0.31085">
        <ele>45.325365</ele>
        <time>2022-07-11T20:12:05.822Z</time>
      </trkpt>
      <trkpt lat="44.8131" lon="0.31058">
        <ele>46.404996</ele>
        <time>2022-07-11T20:12:37.055Z</time>
      </trkpt>
      <trkpt lat="44.81279" lon="0.30987">
        <ele>49.275076</ele>
        <time>2022-07-11T20:12:57.350Z</time>
      </trkpt>
      <trkpt lat="44.81271" lon="0.30983">
        <ele>49.674976</ele>
        <time>2022-07-11T20:13:00.312Z</time>
      </trkpt>
      <trkpt lat="44.81252" lon="0.30937">
        <ele>51.528962</ele>
        <time>2022-07-11T20:13:15.371Z</time>
      </trkpt>
      <trkpt lat="44.81306" lon="0.30889">
        <ele>54.644858</ele>
        <time>2022-07-11T20:13:43.349Z</time>
      </trkpt>
      <trkpt lat="44.81323" lon="0.30868">
        <ele>56.309113</ele>
        <time>2022-07-11T20:13:54.861Z</time>
      </trkpt>
      <trkpt lat="44.81299" lon="0.30857">
        <ele>58.796092</ele>
        <time>2022-07-11T20:14:08.173Z</time>
      </trkpt>
      <trkpt lat="44.81179" lon="0.30666">
        <ele>75.993913</ele>
        <time>2022-07-11T20:15:57.634Z</time>
      </trkpt>
      <trkpt lat="44.81168" lon="0.30656">
        <ele>77.100048</ele>
        <time>2022-07-11T20:16:06.115Z</time>
      </trkpt>
      <trkpt lat="44.81137" lon="0.30648">
        <ele>79.825927</ele>
        <time>2022-07-11T20:16:24.889Z</time>
      </trkpt>
      <trkpt lat="44.81127" lon="0.30629">
        <ele>81.210961</ele>
        <time>2022-07-11T20:16:33.744Z</time>
      </trkpt>
      <trkpt lat="44.81123" lon="0.30608">
        <ele>82.562637</ele>
        <time>2022-07-11T20:16:41.751Z</time>
      </trkpt>
      <trkpt lat="44.81134" lon="0.30517">
        <ele>88.151047</ele>
        <time>2022-07-11T20:17:10.655Z</time>
      </trkpt>
      <trkpt lat="44.8114" lon="0.30492">
        <ele>89.220589</ele>
        <time>2022-07-11T20:17:19.119Z</time>
      </trkpt>
      <trkpt lat="44.81233" lon="0.3039">
        <ele>95.937187</ele>
        <time>2022-07-11T20:18:06.353Z</time>
      </trkpt>
      <trkpt lat="44.81238" lon="0.30367">
        <ele>96.87896</ele>
        <time>2022-07-11T20:18:13.256Z</time>
      </trkpt>
      <trkpt lat="44.81232" lon="0.30348">
        <ele>97.746235</ele>
        <time>2022-07-11T20:18:19.708Z</time>
      </trkpt>
      <trkpt lat="44.81222" lon="0.30334">
        <ele>98.57702</ele>
        <time>2022-07-11T20:18:25.046Z</time>
      </trkpt>
      <trkpt lat="44.81168" lon="0.30319">
        <ele>102.041924</ele>
        <time>2022-07-11T20:18:48.277Z</time>
      </trkpt>
      <trkpt lat="44.81153" lon="0.30312">
        <ele>103.021771</ele>
        <time>2022-07-11T20:18:54.963Z</time>
      </trkpt>
      <trkpt lat="44.81142" lon="0.30296">
        <ele>104.034365</ele>
        <time>2022-07-11T20:19:02.501Z</time>
      </trkpt>
      <trkpt lat="44.81107" lon="0.30212">
        <ele>108.408918</ele>
        <time>2022-07-11T20:19:35.125Z</time>
      </trkpt>
      <trkpt lat="44.81057" lon="0.30126">
        <ele>112.465419</ele>
        <time>2022-07-11T20:20:07.911Z</time>
      </trkpt>
      <trkpt lat="44.81039" lon="0.3008">
        <ele>114.218727</ele>
        <time>2022-07-11T20:20:22.497Z</time>
      </trkpt>
      <trkpt lat="44.8101" lon="0.30022">
        <ele>116.593638</ele>
        <time>2022-07-11T20:20:40.259Z</time>
      </trkpt>
      <trkpt lat="44.80957" lon="0.29952">
        <ele>119.067237</ele>
        <time>2022-07-11T20:21:03.004Z</time>
      </trkpt>
      <trkpt lat="44.80909" lon="0.29871">
        <ele>120.764738</ele>
        <time>2022-07-11T20:21:22.538Z</time>
      </trkpt>
      <trkpt lat="44.80886" lon="0.29817">
        <ele>121.791398</ele>
        <time>2022-07-11T20:21:34.064Z</time>
      </trkpt>
      <trkpt lat="44.80885" lon="0.29723">
        <ele>123.11973</ele>
        <time>2022-07-11T20:21:51.713Z</time>
      </trkpt>
      <trkpt lat="44.80871" lon="0.29716">
        <ele>123.38216</ele>
        <time>2022-07-11T20:21:55.774Z</time>
      </trkpt>
      <trkpt lat="44.8084" lon="0.29666">
        <ele>124.265489</ele>
        <time>2022-07-11T20:22:08.940Z</time>
      </trkpt>
      <trkpt lat="44.80805" lon="0.29593">
        <ele>125.430549</ele>
        <time>2022-07-11T20:22:26.257Z</time>
      </trkpt>
      <trkpt lat="44.80717" lon="0.29472">
        <ele>124.403662</ele>
        <time>2022-07-11T20:22:49.295Z</time>
      </trkpt>
      <trkpt lat="44.80652" lon="0.29401">
        <ele>122.956207</ele>
        <time>2022-07-11T20:23:01.188Z</time>
      </trkpt>
      <trkpt lat="44.80643" lon="0.2938">
        <ele>122.127033</ele>
        <time>2022-07-11T20:23:03.518Z</time>
      </trkpt>
      <trkpt lat="44.80637" lon="0.29317">
        <ele>119.933399</ele>
        <time>2022-07-11T20:23:09.448Z</time>
      </trkpt>
      <trkpt lat="44.8059" lon="0.29162">
        <ele>114.438694</ele>
        <time>2022-07-11T20:23:25.110Z</time>
      </trkpt>
      <trkpt lat="44.80586" lon="0.29073">
        <ele>112.47836</ele>
        <time>2022-07-11T20:23:33.932Z</time>
      </trkpt>
      <trkpt lat="44.80556" lon="0.29027">
        <ele>111.105224</ele>
        <time>2022-07-11T20:23:40.473Z</time>
      </trkpt>
      <trkpt lat="44.8044" lon="0.2888">
        <ele>107.334522</ele>
        <time>2022-07-11T20:24:05.259Z</time>
      </trkpt>
      <trkpt lat="44.80456" lon="0.28834">
        <ele>106.588235</ele>
        <time>2022-07-11T20:24:10.755Z</time>
      </trkpt>
      <trkpt lat="44.80455" lon="0.28807">
        <ele>106.209093</ele>
        <time>2022-07-11T20:24:13.516Z</time>
      </trkpt>
      <trkpt lat="44.80447" lon="0.28782">
        <ele>105.802779</ele>
        <time>2022-07-11T20:24:16.430Z</time>
      </trkpt>
      <trkpt lat="44.80432" lon="0.28756">
        <ele>105.323433</ele>
        <time>2022-07-11T20:24:19.901Z</time>
      </trkpt>
      <trkpt lat="44.80417" lon="0.28714">
        <ele>104.659707</ele>
        <time>2022-07-11T20:24:24.808Z</time>
      </trkpt>
      <trkpt lat="44.80404" lon="0.28667">
        <ele>103.951686</ele>
        <time>2022-07-11T20:24:30.123Z</time>
      </trkpt>
      <trkpt lat="44.80394" lon="0.28627">
        <ele>103.350535</ele>
        <time>2022-07-11T20:24:34.775Z</time>
      </trkpt>
      <trkpt lat="44.80385" lon="0.28581">
        <ele>102.679476</ele>
        <time>2022-07-11T20:24:40.088Z</time>
      </trkpt>
      <trkpt lat="44.80377" lon="0.28566">
        <ele>102.416345</ele>
        <time>2022-07-11T20:24:42.184Z</time>
      </trkpt>
      <trkpt lat="44.8035" lon="0.28574">
        <ele>102.117101</ele>
        <time>2022-07-11T20:24:46.934Z</time>
      </trkpt>
      <trkpt lat="44.80344" lon="0.28576">
        <ele>102.111233</ele>
        <time>2022-07-11T20:24:48.026Z</time>
      </trkpt>
      <trkpt lat="44.803" lon="0.28589">
        <ele>102.071089</ele>
        <time>2022-07-11T20:24:56.049Z</time>
      </trkpt>
      <trkpt lat="44.8022" lon="0.28609">
        <ele>101.998471</ele>
        <time>2022-07-11T20:25:12.479Z</time>
      </trkpt>
      <trkpt lat="44.80163" lon="0.28612">
        <ele>101.582482</ele>
        <time>2022-07-11T20:25:24.194Z</time>
      </trkpt>
      <trkpt lat="44.80145" lon="0.28606">
        <ele>101.266262</ele>
        <time>2022-07-11T20:25:27.571Z</time>
      </trkpt>
      <trkpt lat="44.80034" lon="0.28536">
        <ele>99.233171</ele>
        <time>2022-07-11T20:25:46.480Z</time>
      </trkpt>
      <trkpt lat="44.79991" lon="0.28522">
        <ele>97.567406</ele>
        <time>2022-07-11T20:25:52.628Z</time>
      </trkpt>
      <trkpt lat="44.79931" lon="0.28502">
        <ele>94.562241</ele>
        <time>2022-07-11T20:26:00.877Z</time>
      </trkpt>
      <trkpt lat="44.79885" lon="0.28486">
        <ele>92.174848</ele>
        <time>2022-07-11T20:26:07.172Z</time>
      </trkpt>
      <trkpt lat="44.79858" lon="0.28459">
        <ele>90.55725</ele>
        <time>2022-07-11T20:26:11.407Z</time>
      </trkpt>
      <trkpt lat="44.79822" lon="0.28371">
        <ele>86.301687</ele>
        <time>2022-07-11T20:26:20.633Z</time>
      </trkpt>
      <trkpt lat="44.79675" lon="0.2817">
        <ele>74.958354</ele>
        <time>2022-07-11T20:26:47.138Z</time>
      </trkpt>
      <trkpt lat="44.79586" lon="0.28087">
        <ele>70.009205</ele>
        <time>2022-07-11T20:27:01.751Z</time>
      </trkpt>
      <trkpt lat="44.79572" lon="0.28061">
        <ele>69.269499</ele>
        <time>2022-07-11T20:27:05.253Z</time>
      </trkpt>
      <trkpt lat="44.79561" lon="0.28014">
        <ele>68.184147</ele>
        <time>2022-07-11T20:27:10.351Z</time>
      </trkpt>
      <trkpt lat="44.79553" lon="0.28006">
        <ele>67.881842</ele>
        <time>2022-07-11T20:27:11.721Z</time>
      </trkpt>
      <trkpt lat="44.7955" lon="0.27981">
        <ele>67.332094</ele>
        <time>2022-07-11T20:27:14.175Z</time>
      </trkpt>
      <trkpt lat="44.79531" lon="0.27938">
        <ele>66.180718</ele>
        <time>2022-07-11T20:27:19.280Z</time>
      </trkpt>
      <trkpt lat="44.79522" lon="0.2788">
        <ele>64.869379</ele>
        <time>2022-07-11T20:27:25.081Z</time>
      </trkpt>
      <trkpt lat="44.79527" lon="0.27856">
        <ele>64.436023</ele>
        <time>2022-07-11T20:27:27.473Z</time>
      </trkpt>
      <trkpt lat="44.79555" lon="0.27775">
        <ele>62.928479</ele>
        <time>2022-07-11T20:27:36.257Z</time>
      </trkpt>
      <trkpt lat="44.79569" lon="0.27648">
        <ele>60.78978</ele>
        <time>2022-07-11T20:27:49.630Z</time>
      </trkpt>
      <trkpt lat="44.79589" lon="0.27617">
        <ele>60.264209</ele>
        <time>2022-07-11T20:27:54.257Z</time>
      </trkpt>
      <trkpt lat="44.79677" lon="0.27574">
        <ele>58.886209</ele>
        <time>2022-07-11T20:28:09.349Z</time>
      </trkpt>
      <trkpt lat="44.79748" lon="0.2756">
        <ele>57.699808</ele>
        <time>2022-07-11T20:28:20.006Z</time>
      </trkpt>
      <trkpt lat="44.79787" lon="0.2756">
        <ele>56.295732</ele>
        <time>2022-07-11T20:28:25.675Z</time>
      </trkpt>
      <trkpt lat="44.79784" lon="0.27543">
        <ele>55.862335</ele>
        <time>2022-07-11T20:28:27.143Z</time>
      </trkpt>
      <trkpt lat="44.79772" lon="0.27536">
        <ele>55.38209</ele>
        <time>2022-07-11T20:28:29.486Z</time>
      </trkpt>
      <trkpt lat="44.79697" lon="0.27521">
        <ele>52.660482</ele>
        <time>2022-07-11T20:28:39.924Z</time>
      </trkpt>
      <trkpt lat="44.79682" lon="0.27508">
        <ele>52.047759</ele>
        <time>2022-07-11T20:28:42.067Z</time>
      </trkpt>
      <trkpt lat="44.79673" lon="0.27491">
        <ele>51.500792</ele>
        <time>2022-07-11T20:28:44.385Z</time>
      </trkpt>
      <trkpt lat="44.79662" lon="0.27422">
        <ele>50.352842</ele>
        <time>2022-07-11T20:28:51.222Z</time>
      </trkpt>
      <trkpt lat="44.79645" lon="0.27369">
        <ele>49.423518</ele>
        <time>2022-07-11T20:28:57.418Z</time>
      </trkpt>
      <trkpt lat="44.79533" lon="0.27217">
        <ele>48.066946</ele>
        <time>2022-07-11T20:29:23.447Z</time>
      </trkpt>
      <trkpt lat="44.79497" lon="0.27185">
        <ele>48.485926</ele>
        <time>2022-07-11T20:29:33.134Z</time>
      </trkpt>
      <trkpt lat="44.79484" lon="0.27155">
        <ele>48.734383</ele>
        <time>2022-07-11T20:29:39.532Z</time>
      </trkpt>
      <trkpt lat="44.79481" lon="0.2711">
        <ele>49.050402</ele>
        <time>2022-07-11T20:29:48.616Z</time>
      </trkpt>
      <trkpt lat="44.79474" lon="0.27084">
        <ele>49.430143</ele>
        <time>2022-07-11T20:29:54.503Z</time>
      </trkpt>
      <trkpt lat="44.79447" lon="0.2705">
        <ele>51.200507</ele>
        <time>2022-07-11T20:30:06.747Z</time>
      </trkpt>
      <trkpt lat="44.79431" lon="0.27041">
        <ele>52.040237</ele>
        <time>2022-07-11T20:30:12.904Z</time>
      </trkpt>
      <trkpt lat="44.79326" lon="0.27027">
        <ele>57.10995</ele>
        <time>2022-07-11T20:30:55.639Z</time>
      </trkpt>
      <trkpt lat="44.79234" lon="0.26994">
        <ele>61.336119</ele>
        <time>2022-07-11T20:31:35.894Z</time>
      </trkpt>
      <trkpt lat="44.79143" lon="0.26972">
        <ele>65.330301</ele>
        <time>2022-07-11T20:32:06.905Z</time>
      </trkpt>
      <trkpt lat="44.79128" lon="0.26968">
        <ele>65.774677</ele>
        <time>2022-07-11T20:32:11.372Z</time>
      </trkpt>
      <trkpt lat="44.79003" lon="0.26925">
        <ele>67.379038</ele>
        <time>2022-07-11T20:32:40.165Z</time>
      </trkpt>
      <trkpt lat="44.78913" lon="0.26963">
        <ele>68.23093</ele>
        <time>2022-07-11T20:32:59.620Z</time>
      </trkpt>
      <trkpt lat="44.78862" lon="0.26955">
        <ele>68.545477</ele>
        <time>2022-07-11T20:33:11.093Z</time>
      </trkpt>
      <trkpt lat="44.78778" lon="0.26924">
        <ele>69.00898</ele>
        <time>2022-07-11T20:33:29.513Z</time>
      </trkpt>
      <trkpt lat="44.78691" lon="0.2691">
        <ele>68.889747</ele>
        <time>2022-07-11T20:33:45.414Z</time>
      </trkpt>
      <trkpt lat="44.78655" lon="0.2689">
        <ele>68.836548</ele>
        <time>2022-07-11T20:33:52.546Z</time>
      </trkpt>
      <trkpt lat="44.78632" lon="0.26907">
        <ele>68.800699</ele>
        <time>2022-07-11T20:33:56.720Z</time>
      </trkpt>
      <trkpt lat="44.78584" lon="0.2691">
        <ele>68.665914</ele>
        <time>2022-07-11T20:34:04.945Z</time>
      </trkpt>
      <trkpt lat="44.78566" lon="0.26905">
        <ele>68.596397</ele>
        <time>2022-07-11T20:34:07.809Z</time>
      </trkpt>
      <trkpt lat="44.78565" lon="0.26904">
        <ele>68.592125</ele>
        <time>2022-07-11T20:34:08.010Z</time>
      </trkpt>
      <trkpt lat="44.78545" lon="0.2689">
        <ele>68.508921</ele>
        <time>2022-07-11T20:34:11.858Z</time>
      </trkpt>
      <trkpt lat="44.78539" lon="0.26884">
        <ele>68.482032</ele>
        <time>2022-07-11T20:34:12.987Z</time>
      </trkpt>
      <trkpt lat="44.78521" lon="0.26871">
        <ele>68.407337</ele>
        <time>2022-07-11T20:34:16.444Z</time>
      </trkpt>
      <trkpt lat="44.78491" lon="0.26857">
        <ele>68.288919</ele>
        <time>2022-07-11T20:34:21.602Z</time>
      </trkpt>
      <trkpt lat="44.7846" lon="0.26862">
        <ele>68.173795</ele>
        <time>2022-07-11T20:34:27.318Z</time>
      </trkpt>
      <trkpt lat="44.784" lon="0.26889">
        <ele>68.080741</ele>
        <time>2022-07-11T20:34:39.208Z</time>
      </trkpt>
      <trkpt lat="44.78381" lon="0.26893">
        <ele>68.069646</ele>
        <time>2022-07-11T20:34:42.613Z</time>
      </trkpt>
      <trkpt lat="44.78356" lon="0.2689">
        <ele>68.054993</ele>
        <time>2022-07-11T20:34:46.853Z</time>
      </trkpt>
      <trkpt lat="44.7832" lon="0.26869">
        <ele>68.032451</ele>
        <time>2022-07-11T20:34:53.465Z</time>
      </trkpt>
      <trkpt lat="44.78294" lon="0.26861">
        <ele>68.016892</ele>
        <time>2022-07-11T20:34:58.071Z</time>
      </trkpt>
      <trkpt lat="44.78159" lon="0.26851">
        <ele>69.563008</ele>
        <time>2022-07-11T20:35:23.404Z</time>
      </trkpt>
      <trkpt lat="44.78141" lon="0.2685">
        <ele>69.811509</ele>
        <time>2022-07-11T20:35:27.611Z</time>
      </trkpt>
      <trkpt lat="44.78136" lon="0.26849">
        <ele>69.889658</ele>
        <time>2022-07-11T20:35:29.062Z</time>
      </trkpt>
      <trkpt lat="44.78031" lon="0.26842">
        <ele>73.870659</ele>
        <time>2022-07-11T20:36:03.281Z</time>
      </trkpt>
      <trkpt lat="44.77816" lon="0.2677">
        <ele>86.588434</ele>
        <time>2022-07-11T20:37:43.592Z</time>
      </trkpt>
      <trkpt lat="44.77734" lon="0.26774">
        <ele>91.235765</ele>
        <time>2022-07-11T20:38:14.454Z</time>
      </trkpt>
      <trkpt lat="44.77662" lon="0.26757">
        <ele>92.88755</ele>
        <time>2022-07-11T20:38:36.224Z</time>
      </trkpt>
      <trkpt lat="44.77571" lon="0.26671">
        <ele>95.287771</ele>
        <time>2022-07-11T20:39:01.866Z</time>
      </trkpt>
      <trkpt lat="44.7749" lon="0.26525">
        <ele>96.037929</ele>
        <time>2022-07-11T20:39:28.514Z</time>
      </trkpt>
      <trkpt lat="44.77375" lon="0.26297">
        <ele>96.540537</ele>
        <time>2022-07-11T20:40:04.302Z</time>
      </trkpt>
      <trkpt lat="44.7734" lon="0.26254">
        <ele>96.791623</ele>
        <time>2022-07-11T20:40:13.153Z</time>
      </trkpt>
      <trkpt lat="44.77281" lon="0.26222">
        <ele>97.431977</ele>
        <time>2022-07-11T20:40:26.167Z</time>
      </trkpt>
      <trkpt lat="44.77031" lon="0.26122">
        <ele>100.720256</ele>
        <time>2022-07-11T20:41:27.731Z</time>
      </trkpt>
      <trkpt lat="44.76927" lon="0.26072">
        <ele>101.855865</ele>
        <time>2022-07-11T20:41:52.327Z</time>
      </trkpt>
      <trkpt lat="44.7688" lon="0.26033">
        <ele>102.384776</ele>
        <time>2022-07-11T20:42:03.514Z</time>
      </trkpt>
      <trkpt lat="44.76789" lon="0.25908">
        <ele>103.628847</ele>
        <time>2022-07-11T20:42:29.432Z</time>
      </trkpt>
      <trkpt lat="44.76764" lon="0.25854">
        <ele>104.077907</ele>
        <time>2022-07-11T20:42:39.324Z</time>
      </trkpt>
      <trkpt lat="44.76742" lon="0.25621">
        <ele>107.028718</ele>
        <time>2022-07-11T20:43:20.855Z</time>
      </trkpt>
      <trkpt lat="44.76715" lon="0.2549">
        <ele>109.407039</ele>
        <time>2022-07-11T20:43:47.701Z</time>
      </trkpt>
      <trkpt lat="44.76669" lon="0.25395">
        <ele>111.837601</ele>
        <time>2022-07-11T20:44:13.397Z</time>
      </trkpt>
      <trkpt lat="44.76635" lon="0.25361">
        <ele>113.073461</ele>
        <time>2022-07-11T20:44:26.027Z</time>
      </trkpt>
      <trkpt lat="44.76622" lon="0.25349">
        <ele>113.529135</ele>
        <time>2022-07-11T20:44:30.454Z</time>
      </trkpt>
      <trkpt lat="44.76578" lon="0.25308">
        <ele>115.031266</ele>
        <time>2022-07-11T20:44:45.705Z</time>
      </trkpt>
      <trkpt lat="44.76537" lon="0.25281">
        <ele>116.30758</ele>
        <time>2022-07-11T20:44:59.033Z</time>
      </trkpt>
      <trkpt lat="44.76497" lon="0.25243">
        <ele>117.67156</ele>
        <time>2022-07-11T20:45:13.482Z</time>
      </trkpt>
      <trkpt lat="44.76448" lon="0.25216">
        <ele>118.969541</ele>
        <time>2022-07-11T20:45:28.663Z</time>
      </trkpt>
      <trkpt lat="44.76457" lon="0.25202">
        <ele>119.232197</ele>
        <time>2022-07-11T20:45:31.995Z</time>
      </trkpt>
      <trkpt lat="44.76458" lon="0.25187">
        <ele>119.457809</ele>
        <time>2022-07-11T20:45:34.981Z</time>
      </trkpt>
      <trkpt lat="44.76427" lon="0.25182">
        <ele>120.075303</ele>
        <time>2022-07-11T20:45:42.703Z</time>
      </trkpt>
      <trkpt lat="44.76359" lon="0.25155">
        <ele>121.472453</ele>
        <time>2022-07-11T20:46:00.051Z</time>
      </trkpt>
      <trkpt lat="44.76342" lon="0.25149">
        <ele>121.821835</ele>
        <time>2022-07-11T20:46:04.387Z</time>
      </trkpt>
      <trkpt lat="44.76308" lon="0.25104">
        <ele>122.375014</ele>
        <time>2022-07-11T20:46:16.770Z</time>
      </trkpt>
      <trkpt lat="44.76289" lon="0.2508">
        <ele>122.598894</ele>
        <time>2022-07-11T20:46:22.618Z</time>
      </trkpt>
      <trkpt lat="44.76239" lon="0.25014">
        <ele>123.204574</ele>
        <time>2022-07-11T20:46:37.233Z</time>
      </trkpt>
      <trkpt lat="44.762" lon="0.24956">
        <ele>123.622083</ele>
        <time>2022-07-11T20:46:47.555Z</time>
      </trkpt>
      <trkpt lat="44.76209" lon="0.24938">
        <ele>123.518372</ele>
        <time>2022-07-11T20:46:50.122Z</time>
      </trkpt>
      <trkpt lat="44.76217" lon="0.24899">
        <ele>123.331926</ele>
        <time>2022-07-11T20:46:55.030Z</time>
      </trkpt>
      <trkpt lat="44.76218" lon="0.24788">
        <ele>122.824445</ele>
        <time>2022-07-11T20:47:07.877Z</time>
      </trkpt>
      <trkpt lat="44.76216" lon="0.24682">
        <ele>122.406458</ele>
        <time>2022-07-11T20:47:19.649Z</time>
      </trkpt>
      <trkpt lat="44.76303" lon="0.24381">
        <ele>122.629425</ele>
        <time>2022-07-11T20:47:59.537Z</time>
      </trkpt>
      <trkpt lat="44.76304" lon="0.24324">
        <ele>123.060571</ele>
        <time>2022-07-11T20:48:09.022Z</time>
      </trkpt>
      <trkpt lat="44.76307" lon="0.24207">
        <ele>124.204225</ele>
        <time>2022-07-11T20:48:30.841Z</time>
      </trkpt>
      <trkpt lat="44.76303" lon="0.24079">
        <ele>126.480448</ele>
        <time>2022-07-11T20:48:58.351Z</time>
      </trkpt>
      <trkpt lat="44.76311" lon="0.2402">
        <ele>127.534115</ele>
        <time>2022-07-11T20:49:10.760Z</time>
      </trkpt>
      <trkpt lat="44.76325" lon="0.2395">
        <ele>128.049816</ele>
        <time>2022-07-11T20:49:23.451Z</time>
      </trkpt>
      <trkpt lat="44.76326" lon="0.23861">
        <ele>127.596542</ele>
        <time>2022-07-11T20:49:36.344Z</time>
      </trkpt>
      <trkpt lat="44.76373" lon="0.23521">
        <ele>122.597665</ele>
        <time>2022-07-11T20:50:11.166Z</time>
      </trkpt>
      <trkpt lat="44.76419" lon="0.23079">
        <ele>111.44917</ele>
        <time>2022-07-11T20:50:53.298Z</time>
      </trkpt>
      <trkpt lat="44.76433" lon="0.23005">
        <ele>109.637234</ele>
        <time>2022-07-11T20:51:01.090Z</time>
      </trkpt>
      <trkpt lat="44.76459" lon="0.22922">
        <ele>107.736921</ele>
        <time>2022-07-11T20:51:10.161Z</time>
      </trkpt>
      <trkpt lat="44.76476" lon="0.22841">
        <ele>106.032409</ele>
        <time>2022-07-11T20:51:18.601Z</time>
      </trkpt>
      <trkpt lat="44.76474" lon="0.22786">
        <ele>104.909843</ele>
        <time>2022-07-11T20:51:24.040Z</time>
      </trkpt>
      <trkpt lat="44.76452" lon="0.22643">
        <ele>101.839328</ele>
        <time>2022-07-11T20:51:38.118Z</time>
      </trkpt>
      <trkpt lat="44.76457" lon="0.2246">
        <ele>97.985478</ele>
        <time>2022-07-11T20:51:56.265Z</time>
      </trkpt>
      <trkpt lat="44.76434" lon="0.22357">
        <ele>95.899178</ele>
        <time>2022-07-11T20:52:07.321Z</time>
      </trkpt>
      <trkpt lat="44.76435" lon="0.22338">
        <ele>95.533564</ele>
        <time>2022-07-11T20:52:09.201Z</time>
      </trkpt>
      <trkpt lat="44.76439" lon="0.22331">
        <ele>95.354968</ele>
        <time>2022-07-11T20:52:10.098Z</time>
      </trkpt>
      <trkpt lat="44.76485" lon="0.22304">
        <ele>94.004275</ele>
        <time>2022-07-11T20:52:17.013Z</time>
      </trkpt>
      <trkpt lat="44.76552" lon="0.22265">
        <ele>91.992201</ele>
        <time>2022-07-11T20:52:26.915Z</time>
      </trkpt>
      <trkpt lat="44.7656" lon="0.22254">
        <ele>91.682892</ele>
        <time>2022-07-11T20:52:28.441Z</time>
      </trkpt>
      <trkpt lat="44.76567" lon="0.22226">
        <ele>91.095499</ele>
        <time>2022-07-11T20:52:31.271Z</time>
      </trkpt>
      <trkpt lat="44.76565" lon="0.22208">
        <ele>90.731128</ele>
        <time>2022-07-11T20:52:33.127Z</time>
      </trkpt>
      <trkpt lat="44.76507" lon="0.22081">
        <ele>88.455612</ele>
        <time>2022-07-11T20:52:48.398Z</time>
      </trkpt>
      <trkpt lat="44.76505" lon="0.22076">
        <ele>88.427589</ele>
        <time>2022-07-11T20:52:48.948Z</time>
      </trkpt>
      <trkpt lat="44.7649" lon="0.22031">
        <ele>88.166632</ele>
        <time>2022-07-11T20:52:54.372Z</time>
      </trkpt>
      <trkpt lat="44.76493" lon="0.21985">
        <ele>87.929512</ele>
        <time>2022-07-11T20:52:59.692Z</time>
      </trkpt>
      <trkpt lat="44.76534" lon="0.2189">
        <ele>87.476614</ele>
        <time>2022-07-11T20:53:14.945Z</time>
      </trkpt>
      <trkpt lat="44.76536" lon="0.21861">
        <ele>87.755296</ele>
        <time>2022-07-11T20:53:19.729Z</time>
      </trkpt>
      <trkpt lat="44.76521" lon="0.21817">
        <ele>88.225628</ele>
        <time>2022-07-11T20:53:27.914Z</time>
      </trkpt>
      <trkpt lat="44.76409" lon="0.2157">
        <ele>90.934983</ele>
        <time>2022-07-11T20:54:17.775Z</time>
      </trkpt>
      <trkpt lat="44.76401" lon="0.2154">
        <ele>91.223021</ele>
        <time>2022-07-11T20:54:23.017Z</time>
      </trkpt>
      <trkpt lat="44.76395" lon="0.21465">
        <ele>91.887104</ele>
        <time>2022-07-11T20:54:35.106Z</time>
      </trkpt>
      <trkpt lat="44.76419" lon="0.21291">
        <ele>92.06259</ele>
        <time>2022-07-11T20:54:59.959Z</time>
      </trkpt>
      <trkpt lat="44.76418" lon="0.21231">
        <ele>92.064197</ele>
        <time>2022-07-11T20:55:07.064Z</time>
      </trkpt>
      <trkpt lat="44.76404" lon="0.21197">
        <ele>92.030077</ele>
        <time>2022-07-11T20:55:11.440Z</time>
      </trkpt>
      <trkpt lat="44.76354" lon="0.2113">
        <ele>91.141041</ele>
        <time>2022-07-11T20:55:21.907Z</time>
      </trkpt>
      <trkpt lat="44.76289" lon="0.20975">
        <ele>89.714926</ele>
        <time>2022-07-11T20:55:41.407Z</time>
      </trkpt>
      <trkpt lat="44.76186" lon="0.2082">
        <ele>89.509662</ele>
        <time>2022-07-11T20:56:10.128Z</time>
      </trkpt>
      <trkpt lat="44.76163" lon="0.20765">
        <ele>89.251792</ele>
        <time>2022-07-11T20:56:19.883Z</time>
      </trkpt>
      <trkpt lat="44.7615" lon="0.20731">
        <ele>89.070464</ele>
        <time>2022-07-11T20:56:24.815Z</time>
      </trkpt>
      <trkpt lat="44.7613" lon="0.20703">
        <ele>88.87568</ele>
        <time>2022-07-11T20:56:29.951Z</time>
      </trkpt>
      <trkpt lat="44.76084" lon="0.20667">
        <ele>88.519798</ele>
        <time>2022-07-11T20:56:38.672Z</time>
      </trkpt>
      <trkpt lat="44.76035" lon="0.20662">
        <ele>88.062659</ele>
        <time>2022-07-11T20:56:46.315Z</time>
      </trkpt>
      <trkpt lat="44.75996" lon="0.20666">
        <ele>87.456882</ele>
        <time>2022-07-11T20:56:52.113Z</time>
      </trkpt>
      <trkpt lat="44.75981" lon="0.20658">
        <ele>87.197526</ele>
        <time>2022-07-11T20:56:54.574Z</time>
      </trkpt>
      <trkpt lat="44.75944" lon="0.20628">
        <ele>86.536037</ele>
        <time>2022-07-11T20:57:00.908Z</time>
      </trkpt>
      <trkpt lat="44.75854" lon="0.20519">
        <ele>86.308883</ele>
        <time>2022-07-11T20:57:21.380Z</time>
      </trkpt>
      <trkpt lat="44.75816" lon="0.20511">
        <ele>86.94505</ele>
        <time>2022-07-11T20:57:30.177Z</time>
      </trkpt>
      <trkpt lat="44.75746" lon="0.20472">
        <ele>88.22189</ele>
        <time>2022-07-11T20:57:52.303Z</time>
      </trkpt>
      <trkpt lat="44.75637" lon="0.20419">
        <ele>91.884541</ele>
        <time>2022-07-11T20:58:30.777Z</time>
      </trkpt>
      <trkpt lat="44.75631" lon="0.20361">
        <ele>93.285714</ele>
        <time>2022-07-11T20:58:44.174Z</time>
      </trkpt>
      <trkpt lat="44.75617" lon="0.20307">
        <ele>94.668478</ele>
        <time>2022-07-11T20:58:56.894Z</time>
      </trkpt>
      <trkpt lat="44.75532" lon="0.2006">
        <ele>98.849637</ele>
        <time>2022-07-11T20:59:49.591Z</time>
      </trkpt>
      <trkpt lat="44.75484" lon="0.19774">
        <ele>101.738964</ele>
        <time>2022-07-11T21:00:39.176Z</time>
      </trkpt>
      <trkpt lat="44.75462" lon="0.19676">
        <ele>102.637229</ele>
        <time>2022-07-11T21:00:54.876Z</time>
      </trkpt>
      <trkpt lat="44.75433" lon="0.19616">
        <ele>103.267346</ele>
        <time>2022-07-11T21:01:06.177Z</time>
      </trkpt>
      <trkpt lat="44.75268" lon="0.19269">
        <ele>111.361382</ele>
        <time>2022-07-11T21:02:33.513Z</time>
      </trkpt>
      <trkpt lat="44.75201" lon="0.19114">
        <ele>115.06452</ele>
        <time>2022-07-11T21:03:17.281Z</time>
      </trkpt>
      <trkpt lat="44.75175" lon="0.19067">
        <ele>116.126734</ele>
        <time>2022-07-11T21:03:30.446Z</time>
      </trkpt>
      <trkpt lat="44.7514" lon="0.19015">
        <ele>117.388107</ele>
        <time>2022-07-11T21:03:45.039Z</time>
      </trkpt>
      <trkpt lat="44.7489" lon="0.18831">
        <ele>116.704456</ele>
        <time>2022-07-11T21:04:35.960Z</time>
      </trkpt>
      <trkpt lat="44.74869" lon="0.1881">
        <ele>116.21644</ele>
        <time>2022-07-11T21:04:39.798Z</time>
      </trkpt>
      <trkpt lat="44.74851" lon="0.18806">
        <ele>115.890136</ele>
        <time>2022-07-11T21:04:42.329Z</time>
      </trkpt>
      <trkpt lat="44.74696" lon="0.18832">
        <ele>113.524274</ele>
        <time>2022-07-11T21:05:05.042Z</time>
      </trkpt>
      <trkpt lat="44.74677" lon="0.1882">
        <ele>113.250584</ele>
        <time>2022-07-11T21:05:08.339Z</time>
      </trkpt>
      <trkpt lat="44.74553" lon="0.18639">
        <ele>114.937186</ele>
        <time>2022-07-11T21:05:49.624Z</time>
      </trkpt>
      <trkpt lat="44.74474" lon="0.18378">
        <ele>120.428644</ele>
        <time>2022-07-11T21:07:00.215Z</time>
      </trkpt>
      <trkpt lat="44.74358" lon="0.18273">
        <ele>121.314089</ele>
        <time>2022-07-11T21:07:26.324Z</time>
      </trkpt>
      <trkpt lat="44.74361" lon="0.18106">
        <ele>120.718639</ele>
        <time>2022-07-11T21:07:45.022Z</time>
      </trkpt>
      <trkpt lat="44.74352" lon="0.18078">
        <ele>120.644544</ele>
        <time>2022-07-11T21:07:48.917Z</time>
      </trkpt>
      <trkpt lat="44.74268" lon="0.17967">
        <ele>120.262602</ele>
        <time>2022-07-11T21:08:11.030Z</time>
      </trkpt>
      <trkpt lat="44.74249" lon="0.17925">
        <ele>120.13287</ele>
        <time>2022-07-11T21:08:17.555Z</time>
      </trkpt>
      <trkpt lat="44.74195" lon="0.17772">
        <ele>119.659265</ele>
        <time>2022-07-11T21:08:39.042Z</time>
      </trkpt>
      <trkpt lat="44.74177" lon="0.17744">
        <ele>119.554618</ele>
        <time>2022-07-11T21:08:43.553Z</time>
      </trkpt>
      <trkpt lat="44.74109" lon="0.17671">
        <ele>119.325388</ele>
        <time>2022-07-11T21:08:58.365Z</time>
      </trkpt>
      <trkpt lat="44.74049" lon="0.17584">
        <ele>119.106659</ele>
        <time>2022-07-11T21:09:13.703Z</time>
      </trkpt>
      <trkpt lat="44.73848" lon="0.17407">
        <ele>120.238579</ele>
        <time>2022-07-11T21:10:04.510Z</time>
      </trkpt>
      <trkpt lat="44.7396" lon="0.17128">
        <ele>119.981074</ele>
        <time>2022-07-11T21:10:44.899Z</time>
      </trkpt>
      <trkpt lat="44.73968" lon="0.17103">
        <ele>119.867209</ele>
        <time>2022-07-11T21:10:48.002Z</time>
      </trkpt>
      <trkpt lat="44.73969" lon="0.1704">
        <ele>119.600976</ele>
        <time>2022-07-11T21:10:55.192Z</time>
      </trkpt>
      <trkpt lat="44.73957" lon="0.16513">
        <ele>114.476526</ele>
        <time>2022-07-11T21:11:52.582Z</time>
      </trkpt>
      <trkpt lat="44.73963" lon="0.16422">
        <ele>113.54673</ele>
        <time>2022-07-11T21:12:02.360Z</time>
      </trkpt>
      <trkpt lat="44.74018" lon="0.1622">
        <ele>111.437286</ele>
        <time>2022-07-11T21:12:25.959Z</time>
      </trkpt>
      <trkpt lat="44.74081" lon="0.15982">
        <ele>109.51602</ele>
        <time>2022-07-11T21:12:54.610Z</time>
      </trkpt>
      <trkpt lat="44.74091" lon="0.15969">
        <ele>109.381347</ele>
        <time>2022-07-11T21:12:56.825Z</time>
      </trkpt>
      <trkpt lat="44.74193" lon="0.15903">
        <ele>108.295244</ele>
        <time>2022-07-11T21:13:14.557Z</time>
      </trkpt>
      <trkpt lat="44.74168" lon="0.15778">
        <ele>107.908908</ele>
        <time>2022-07-11T21:13:30.179Z</time>
      </trkpt>
      <trkpt lat="44.74174" lon="0.15775">
        <ele>107.898511</ele>
        <time>2022-07-11T21:13:31.151Z</time>
      </trkpt>
      <trkpt lat="44.74066" lon="0.15394">
        <ele>107.908601</ele>
        <time>2022-07-11T21:14:25.893Z</time>
      </trkpt>
      <trkpt lat="44.74051" lon="0.15326">
        <ele>107.25451</ele>
        <time>2022-07-11T21:14:34.115Z</time>
      </trkpt>
      <trkpt lat="44.74002" lon="0.14992">
        <ele>103.982985</ele>
        <time>2022-07-11T21:15:10.384Z</time>
      </trkpt>
      <trkpt lat="44.73968" lon="0.14871">
        <ele>103.103046</ele>
        <time>2022-07-11T21:15:25.173Z</time>
      </trkpt>
      <trkpt lat="44.73962" lon="0.14852">
        <ele>103.125399</ele>
        <time>2022-07-11T21:15:27.685Z</time>
      </trkpt>
      <trkpt lat="44.7396" lon="0.14847">
        <ele>103.131166</ele>
        <time>2022-07-11T21:15:28.358Z</time>
      </trkpt>
      <trkpt lat="44.73956" lon="0.14833">
        <ele>103.146481</ele>
        <time>2022-07-11T21:15:30.145Z</time>
      </trkpt>
      <trkpt lat="44.73781" lon="0.14193">
        <ele>104.19898</ele>
        <time>2022-07-11T21:17:02.980Z</time>
      </trkpt>
      <trkpt lat="44.73739" lon="0.14053">
        <ele>104.256159</ele>
        <time>2022-07-11T21:17:23.793Z</time>
      </trkpt>
      <trkpt lat="44.73709" lon="0.13998">
        <ele>104.282234</ele>
        <time>2022-07-11T21:17:32.392Z</time>
      </trkpt>
      <trkpt lat="44.73674" lon="0.1395">
        <ele>104.103944</ele>
        <time>2022-07-11T21:17:40.538Z</time>
      </trkpt>
      <trkpt lat="44.73645" lon="0.13926">
        <ele>103.893949</ele>
        <time>2022-07-11T21:17:45.802Z</time>
      </trkpt>
      <trkpt lat="44.73541" lon="0.13871">
        <ele>103.187408</ele>
        <time>2022-07-11T21:18:04.091Z</time>
      </trkpt>
      <trkpt lat="44.73512" lon="0.13851">
        <ele>103.058452</ele>
        <time>2022-07-11T21:18:09.535Z</time>
      </trkpt>
      <trkpt lat="44.73505" lon="0.13843">
        <ele>103.027809</ele>
        <time>2022-07-11T21:18:11.037Z</time>
      </trkpt>
      <trkpt lat="44.7348" lon="0.13801">
        <ele>102.892532</ele>
        <time>2022-07-11T21:18:18.030Z</time>
      </trkpt>
      <trkpt lat="44.73455" lon="0.13672">
        <ele>102.563186</ele>
        <time>2022-07-11T21:18:34.405Z</time>
      </trkpt>
      <trkpt lat="44.73445" lon="0.13586">
        <ele>102.002738</ele>
        <time>2022-07-11T21:18:44.592Z</time>
      </trkpt>
      <trkpt lat="44.73428" lon="0.13437">
        <ele>100.923249</ele>
        <time>2022-07-11T21:19:01.049Z</time>
      </trkpt>
      <trkpt lat="44.73413" lon="0.13281">
        <ele>101.253596</ele>
        <time>2022-07-11T21:19:19.193Z</time>
      </trkpt>
      <trkpt lat="44.73416" lon="0.13193">
        <ele>101.625467</ele>
        <time>2022-07-11T21:19:34.083Z</time>
      </trkpt>
      <trkpt lat="44.73427" lon="0.1306">
        <ele>103.78295</ele>
        <time>2022-07-11T21:20:02.280Z</time>
      </trkpt>
      <trkpt lat="44.73466" lon="0.12909">
        <ele>107.06851</ele>
        <time>2022-07-11T21:20:37.027Z</time>
      </trkpt>
      <trkpt lat="44.73478" lon="0.12851">
        <ele>107.810543</ele>
        <time>2022-07-11T21:20:48.713Z</time>
      </trkpt>
      <trkpt lat="44.73495" lon="0.12811">
        <ele>108.397878</ele>
        <time>2022-07-11T21:20:57.415Z</time>
      </trkpt>
      <trkpt lat="44.7362" lon="0.12587">
        <ele>111.406162</ele>
        <time>2022-07-11T21:21:42.772Z</time>
      </trkpt>
      <trkpt lat="44.7365" lon="0.12522">
        <ele>112.093269</ele>
        <time>2022-07-11T21:21:55.298Z</time>
      </trkpt>
      <trkpt lat="44.73711" lon="0.12315">
        <ele>114.178005</ele>
        <time>2022-07-11T21:22:33.067Z</time>
      </trkpt>
      <trkpt lat="44.73737" lon="0.12194">
        <ele>114.924278</ele>
        <time>2022-07-11T21:22:52.823Z</time>
      </trkpt>
      <trkpt lat="44.73778" lon="0.11838">
        <ele>115.378822</ele>
        <time>2022-07-11T21:23:39.443Z</time>
      </trkpt>
      <trkpt lat="44.73791" lon="0.11685">
        <ele>115.087119</ele>
        <time>2022-07-11T21:23:58.337Z</time>
      </trkpt>
      <trkpt lat="44.73835" lon="0.11426">
        <ele>113.475335</ele>
        <time>2022-07-11T21:24:29.402Z</time>
      </trkpt>
      <trkpt lat="44.73872" lon="0.11204">
        <ele>110.984397</ele>
        <time>2022-07-11T21:24:53.230Z</time>
      </trkpt>
      <trkpt lat="44.73871" lon="0.11192">
        <ele>110.833277</ele>
        <time>2022-07-11T21:24:54.524Z</time>
      </trkpt>
      <trkpt lat="44.73866" lon="0.1116">
        <ele>110.453661</ele>
        <time>2022-07-11T21:24:57.842Z</time>
      </trkpt>
      <trkpt lat="44.73729" lon="0.10773">
        <ele>105.760972</ele>
        <time>2022-07-11T21:25:44.907Z</time>
      </trkpt>
      <trkpt lat="44.73698" lon="0.10672">
        <ele>104.557178</ele>
        <time>2022-07-11T21:25:56.783Z</time>
      </trkpt>
      <trkpt lat="44.73692" lon="0.10624">
        <ele>104.020343</ele>
        <time>2022-07-11T21:26:02.024Z</time>
      </trkpt>
      <trkpt lat="44.73674" lon="0.1032">
        <ele>100.982358</ele>
        <time>2022-07-11T21:26:34.968Z</time>
      </trkpt>
      <trkpt lat="44.73684" lon="0.10079">
        <ele>100.237131</ele>
        <time>2022-07-11T21:27:03.918Z</time>
      </trkpt>
      <trkpt lat="44.73692" lon="0.09925">
        <ele>100.346021</ele>
        <time>2022-07-11T21:27:25.068Z</time>
      </trkpt>
      <trkpt lat="44.73683" lon="0.09783">
        <ele>100.314393</ele>
        <time>2022-07-11T21:27:44.456Z</time>
      </trkpt>
      <trkpt lat="44.73714" lon="0.09653">
        <ele>99.102823</ele>
        <time>2022-07-11T21:27:59.846Z</time>
      </trkpt>
      <trkpt lat="44.73717" lon="0.09427">
        <ele>97.130268</ele>
        <time>2022-07-11T21:28:23.313Z</time>
      </trkpt>
      <trkpt lat="44.73728" lon="0.09338">
        <ele>96.356199</ele>
        <time>2022-07-11T21:28:33.699Z</time>
      </trkpt>
      <trkpt lat="44.7374" lon="0.09298">
        <ele>96.143572</ele>
        <time>2022-07-11T21:28:39.219Z</time>
      </trkpt>
      <trkpt lat="44.73755" lon="0.09272">
        <ele>96.31451</ele>
        <time>2022-07-11T21:28:43.936Z</time>
      </trkpt>
      <trkpt lat="44.73811" lon="0.09215">
        <ele>96.813172</ele>
        <time>2022-07-11T21:28:59.173Z</time>
      </trkpt>
      <trkpt lat="44.73837" lon="0.09196">
        <ele>97.019032</ele>
        <time>2022-07-11T21:29:05.706Z</time>
      </trkpt>
      <trkpt lat="44.73862" lon="0.09159">
        <ele>97.278275</ele>
        <time>2022-07-11T21:29:13.717Z</time>
      </trkpt>
      <trkpt lat="44.7387" lon="0.09129">
        <ele>97.384147</ele>
        <time>2022-07-11T21:29:18.603Z</time>
      </trkpt>
      <trkpt lat="44.73881" lon="0.09028">
        <ele>97.460808</ele>
        <time>2022-07-11T21:29:32.224Z</time>
      </trkpt>
      <trkpt lat="44.7388" lon="0.08982">
        <ele>97.495884</ele>
        <time>2022-07-11T21:29:37.859Z</time>
      </trkpt>
      <trkpt lat="44.73867" lon="0.08926">
        <ele>97.540155</ele>
        <time>2022-07-11T21:29:44.832Z</time>
      </trkpt>
      <trkpt lat="44.73847" lon="0.08883">
        <ele>97.629919</ele>
        <time>2022-07-11T21:29:50.929Z</time>
      </trkpt>
      <trkpt lat="44.74033" lon="0.08379">
        <ele>100.002992</ele>
        <time>2022-07-11T21:31:14.026Z</time>
      </trkpt>
      <trkpt lat="44.74174" lon="0.07996">
        <ele>101.633573</ele>
        <time>2022-07-11T21:32:14.060Z</time>
      </trkpt>
      <trkpt lat="44.74237" lon="0.07825">
        <ele>102.897903</ele>
        <time>2022-07-11T21:32:43.841Z</time>
      </trkpt>
      <trkpt lat="44.74246" lon="0.07803">
        <ele>103.066016</ele>
        <time>2022-07-11T21:32:48.062Z</time>
      </trkpt>
      <trkpt lat="44.7427" lon="0.07738">
        <ele>103.116542</ele>
        <time>2022-07-11T21:32:59.253Z</time>
      </trkpt>
      <trkpt lat="44.7428" lon="0.07735">
        <ele>103.071953</ele>
        <time>2022-07-11T21:33:01.192Z</time>
      </trkpt>
      <trkpt lat="44.74289" lon="0.07684">
        <ele>102.895295</ele>
        <time>2022-07-11T21:33:08.772Z</time>
      </trkpt>
      <trkpt lat="44.74292" lon="0.07676">
        <ele>102.867753</ele>
        <time>2022-07-11T21:33:10.006Z</time>
      </trkpt>
      <trkpt lat="44.7431" lon="0.07625">
        <ele>102.678328</ele>
        <time>2022-07-11T21:33:16.926Z</time>
      </trkpt>
      <trkpt lat="44.74316" lon="0.07611">
        <ele>102.626025</ele>
        <time>2022-07-11T21:33:18.667Z</time>
      </trkpt>
      <trkpt lat="44.74331" lon="0.07566">
        <ele>102.460858</ele>
        <time>2022-07-11T21:33:24.018Z</time>
      </trkpt>
      <trkpt lat="44.74361" lon="0.07582">
        <ele>101.248891</ele>
        <time>2022-07-11T21:33:28.585Z</time>
      </trkpt>
      <trkpt lat="44.74369" lon="0.07549">
        <ele>100.041803</ele>
        <time>2022-07-11T21:33:31.877Z</time>
      </trkpt>
      <trkpt lat="44.7438" lon="0.07537">
        <ele>99.356505</ele>
        <time>2022-07-11T21:33:33.676Z</time>
      </trkpt>
      <trkpt lat="44.74389" lon="0.07466">
        <ele>96.874917</ele>
        <time>2022-07-11T21:33:40.290Z</time>
      </trkpt>
      <trkpt lat="44.74409" lon="0.07394">
        <ele>94.232156</ele>
        <time>2022-07-11T21:33:46.848Z</time>
      </trkpt>
      <trkpt lat="44.7443" lon="0.07354">
        <ele>92.460851</ele>
        <time>2022-07-11T21:33:51.090Z</time>
      </trkpt>
      <trkpt lat="44.74459" lon="0.07323">
        <ele>90.627806</ele>
        <time>2022-07-11T21:33:55.444Z</time>
      </trkpt>
      <trkpt lat="44.7449" lon="0.07309">
        <ele>88.985111</ele>
        <time>2022-07-11T21:33:59.395Z</time>
      </trkpt>
      <trkpt lat="44.74521" lon="0.07306">
        <ele>87.395154</ele>
        <time>2022-07-11T21:34:03.278Z</time>
      </trkpt>
      <trkpt lat="44.74526" lon="0.07305">
        <ele>87.121587</ele>
        <time>2022-07-11T21:34:03.967Z</time>
      </trkpt>
      <trkpt lat="44.74583" lon="0.07062">
        <ele>83.83131</ele>
        <time>2022-07-11T21:34:31.543Z</time>
      </trkpt>
      <trkpt lat="44.74597" lon="0.07034">
        <ele>83.690136</ele>
        <time>2022-07-11T21:34:37.480Z</time>
      </trkpt>
      <trkpt lat="44.74607" lon="0.07022">
        <ele>83.610499</ele>
        <time>2022-07-11T21:34:41.439Z</time>
      </trkpt>
      <trkpt lat="44.74651" lon="0.06997">
        <ele>84.110977</ele>
        <time>2022-07-11T21:34:53.720Z</time>
      </trkpt>
      <trkpt lat="44.74701" lon="0.06965">
        <ele>84.940964</ele>
        <time>2022-07-11T21:35:07.929Z</time>
      </trkpt>
      <trkpt lat="44.74733" lon="0.06923">
        <ele>85.609909</ele>
        <time>2022-07-11T21:35:19.362Z</time>
      </trkpt>
      <trkpt lat="44.74894" lon="0.067">
        <ele>87.368892</ele>
        <time>2022-07-11T21:36:03.310Z</time>
      </trkpt>
      <trkpt lat="44.749" lon="0.06685">
        <ele>87.602754</ele>
        <time>2022-07-11T21:36:06.035Z</time>
      </trkpt>
      <trkpt lat="44.74906" lon="0.06659">
        <ele>87.988665</ele>
        <time>2022-07-11T21:36:10.687Z</time>
      </trkpt>
      <trkpt lat="44.74903" lon="0.06627">
        <ele>88.43355</ele>
        <time>2022-07-11T21:36:16.272Z</time>
      </trkpt>
      <trkpt lat="44.74885" lon="0.06587">
        <ele>89.08487</ele>
        <time>2022-07-11T21:36:25.064Z</time>
      </trkpt>
      <trkpt lat="44.74877" lon="0.06548">
        <ele>89.641878</ele>
        <time>2022-07-11T21:36:32.824Z</time>
      </trkpt>
      <trkpt lat="44.74883" lon="0.06511">
        <ele>90.168522</ele>
        <time>2022-07-11T21:36:40.276Z</time>
      </trkpt>
      <trkpt lat="44.74903" lon="0.06479">
        <ele>90.758023</ele>
        <time>2022-07-11T21:36:49.008Z</time>
      </trkpt>
      <trkpt lat="44.7496" lon="0.06423">
        <ele>91.917988</ele>
        <time>2022-07-11T21:37:08.034Z</time>
      </trkpt>
      <trkpt lat="44.75054" lon="0.06332">
        <ele>93.812048</ele>
        <time>2022-07-11T21:37:35.236Z</time>
      </trkpt>
      <trkpt lat="44.75081" lon="0.06294">
        <ele>93.838921</ele>
        <time>2022-07-11T21:37:41.936Z</time>
      </trkpt>
      <trkpt lat="44.75179" lon="0.0603">
        <ele>94.365362</ele>
        <time>2022-07-11T21:38:18.847Z</time>
      </trkpt>
      <trkpt lat="44.75221" lon="0.05983">
        <ele>94.716151</ele>
        <time>2022-07-11T21:38:31.403Z</time>
      </trkpt>
      <trkpt lat="44.75324" lon="0.05932">
        <ele>94.670297</ele>
        <time>2022-07-11T21:38:55.493Z</time>
      </trkpt>
      <trkpt lat="44.75327" lon="0.05931">
        <ele>94.644912</ele>
        <time>2022-07-11T21:38:56.161Z</time>
      </trkpt>
      <trkpt lat="44.75555" lon="0.05827">
        <ele>90.717898</ele>
        <time>2022-07-11T21:39:32.086Z</time>
      </trkpt>
      <trkpt lat="44.75573" lon="0.05812">
        <ele>90.186665</ele>
        <time>2022-07-11T21:39:34.899Z</time>
      </trkpt>
      <trkpt lat="44.75588" lon="0.05789">
        <ele>89.613318</ele>
        <time>2022-07-11T21:39:37.889Z</time>
      </trkpt>
      <trkpt lat="44.75604" lon="0.05749">
        <ele>88.535663</ele>
        <time>2022-07-11T21:39:42.141Z</time>
      </trkpt>
      <trkpt lat="44.75642" lon="0.05647">
        <ele>84.633285</ele>
        <time>2022-07-11T21:39:52.599Z</time>
      </trkpt>
      <trkpt lat="44.75672" lon="0.05566">
        <ele>81.52323</ele>
        <time>2022-07-11T21:40:00.784Z</time>
      </trkpt>
      <trkpt lat="44.75701" lon="0.05488">
        <ele>78.723769</ele>
        <time>2022-07-11T21:40:08.764Z</time>
      </trkpt>
      <trkpt lat="44.75746" lon="0.05366">
        <ele>74.592963</ele>
        <time>2022-07-11T21:40:21.373Z</time>
      </trkpt>
      <trkpt lat="44.75756" lon="0.05317">
        <ele>73.047144</ele>
        <time>2022-07-11T21:40:26.291Z</time>
      </trkpt>
      <trkpt lat="44.75761" lon="0.05206">
        <ele>69.959601</ele>
        <time>2022-07-11T21:40:37.099Z</time>
      </trkpt>
      <trkpt lat="44.7575" lon="0.05146">
        <ele>68.221727</ele>
        <time>2022-07-11T21:40:43.042Z</time>
      </trkpt>
      <trkpt lat="44.75727" lon="0.05109">
        <ele>66.876612</ele>
        <time>2022-07-11T21:40:47.563Z</time>
      </trkpt>
      <trkpt lat="44.7569" lon="0.0508">
        <ele>64.844531</ele>
        <time>2022-07-11T21:40:53.089Z</time>
      </trkpt>
      <trkpt lat="44.75666" lon="0.0507">
        <ele>63.322778</ele>
        <time>2022-07-11T21:40:56.178Z</time>
      </trkpt>
      <trkpt lat="44.7561" lon="0.05056">
        <ele>59.767081</ele>
        <time>2022-07-11T21:41:03.113Z</time>
      </trkpt>
      <trkpt lat="44.7552" lon="0.05061">
        <ele>54.238377</ele>
        <time>2022-07-11T21:41:13.912Z</time>
      </trkpt>
      <trkpt lat="44.75505" lon="0.05056">
        <ele>53.594276</ele>
        <time>2022-07-11T21:41:15.872Z</time>
      </trkpt>
      <trkpt lat="44.75495" lon="0.05044">
        <ele>53.063541</ele>
        <time>2022-07-11T21:41:17.317Z</time>
      </trkpt>
      <trkpt lat="44.75482" lon="0.05">
        <ele>51.619534</ele>
        <time>2022-07-11T21:41:21.620Z</time>
      </trkpt>
      <trkpt lat="44.75451" lon="0.04745">
        <ele>46.829813</ele>
        <time>2022-07-11T21:41:47.447Z</time>
      </trkpt>
      <trkpt lat="44.75467" lon="0.04678">
        <ele>46.719477</ele>
        <time>2022-07-11T21:41:58.103Z</time>
      </trkpt>
      <trkpt lat="44.7546" lon="0.04663">
        <ele>46.691402</ele>
        <time>2022-07-11T21:42:01.178Z</time>
      </trkpt>
      <trkpt lat="44.75461" lon="0.04644">
        <ele>46.661548</ele>
        <time>2022-07-11T21:42:04.616Z</time>
      </trkpt>
      <trkpt lat="44.75481" lon="0.04472">
        <ele>48.608735</ele>
        <time>2022-07-11T21:42:38.107Z</time>
      </trkpt>
      <trkpt lat="44.75488" lon="0.04426">
        <ele>49.338397</ele>
        <time>2022-07-11T21:42:47.877Z</time>
      </trkpt>
      <trkpt lat="44.75512" lon="0.04351">
        <ele>50.606869</ele>
        <time>2022-07-11T21:43:03.591Z</time>
      </trkpt>
      <trkpt lat="44.75517" lon="0.04299">
        <ele>51.519175</ele>
        <time>2022-07-11T21:43:13.543Z</time>
      </trkpt>
      <trkpt lat="44.75573" lon="0.04216">
        <ele>53.518773</ele>
        <time>2022-07-11T21:43:35.285Z</time>
      </trkpt>
      <trkpt lat="44.75582" lon="0.04193">
        <ele>53.977885</ele>
        <time>2022-07-11T21:43:40.197Z</time>
      </trkpt>
      <trkpt lat="44.75588" lon="0.04109">
        <ele>55.752697</ele>
        <time>2022-07-11T21:44:00.457Z</time>
      </trkpt>
      <trkpt lat="44.7564" lon="0.04013">
        <ele>58.995484</ele>
        <time>2022-07-11T21:44:27.813Z</time>
      </trkpt>
      <trkpt lat="44.75647" lon="0.03992">
        <ele>59.620175</ele>
        <time>2022-07-11T21:44:34.316Z</time>
      </trkpt>
      <trkpt lat="44.75547" lon="0.03934">
        <ele>64.442755</ele>
        <time>2022-07-11T21:45:12.455Z</time>
      </trkpt>
      <trkpt lat="44.75516" lon="0.03876">
        <ele>67.100297</ele>
        <time>2022-07-11T21:45:32.854Z</time>
      </trkpt>
      <trkpt lat="44.75484" lon="0.0386">
        <ele>68.835026</ele>
        <time>2022-07-11T21:45:44.872Z</time>
      </trkpt>
      <trkpt lat="44.75458" lon="0.03827">
        <ele>70.627749</ele>
        <time>2022-07-11T21:46:00.119Z</time>
      </trkpt>
      <trkpt lat="44.75456" lon="0.03821">
        <ele>70.888059</ele>
        <time>2022-07-11T21:46:02.158Z</time>
      </trkpt>
      <trkpt lat="44.7543" lon="0.03749">
        <ele>74.856771</ele>
        <time>2022-07-11T21:46:29.564Z</time>
      </trkpt>
      <trkpt lat="44.75427" lon="0.03713">
        <ele>76.593753</ele>
        <time>2022-07-11T21:46:40.859Z</time>
      </trkpt>
      <trkpt lat="44.75436" lon="0.03678">
        <ele>78.426092</ele>
        <time>2022-07-11T21:46:52.946Z</time>
      </trkpt>
      <trkpt lat="44.7546" lon="0.03656">
        <ele>80.400426</ele>
        <time>2022-07-11T21:47:07.467Z</time>
      </trkpt>
      <trkpt lat="44.75487" lon="0.03631">
        <ele>82.591896</ele>
        <time>2022-07-11T21:47:22.497Z</time>
      </trkpt>
      <trkpt lat="44.75551" lon="0.03626">
        <ele>86.704206</ele>
        <time>2022-07-11T21:47:51.780Z</time>
      </trkpt>
      <trkpt lat="44.75571" lon="0.03617">
        <ele>88.071991</ele>
        <time>2022-07-11T21:48:01.717Z</time>
      </trkpt>
      <trkpt lat="44.7559" lon="0.03582">
        <ele>90.014464</ele>
        <time>2022-07-11T21:48:17.225Z</time>
      </trkpt>
      <trkpt lat="44.7564" lon="0.03445">
        <ele>96.063886</ele>
        <time>2022-07-11T21:48:59.682Z</time>
      </trkpt>
      <trkpt lat="44.75661" lon="0.03407">
        <ele>97.422833</ele>
        <time>2022-07-11T21:49:12.804Z</time>
      </trkpt>
      <trkpt lat="44.75705" lon="0.0336">
        <ele>99.591099</ele>
        <time>2022-07-11T21:49:31.294Z</time>
      </trkpt>
      <trkpt lat="44.75787" lon="0.03291">
        <ele>102.563638</ele>
        <time>2022-07-11T21:49:59.737Z</time>
      </trkpt>
      <trkpt lat="44.75818" lon="0.03249">
        <ele>103.430097</ele>
        <time>2022-07-11T21:50:11.245Z</time>
      </trkpt>
      <trkpt lat="44.75847" lon="0.03228">
        <ele>104.073731</ele>
        <time>2022-07-11T21:50:19.440Z</time>
      </trkpt>
      <trkpt lat="44.75868" lon="0.03202">
        <ele>104.641149</ele>
        <time>2022-07-11T21:50:26.728Z</time>
      </trkpt>
      <trkpt lat="44.75894" lon="0.03125">
        <ele>105.692862</ele>
        <time>2022-07-11T21:50:41.403Z</time>
      </trkpt>
      <trkpt lat="44.75901" lon="0.031">
        <ele>105.954962</ele>
        <time>2022-07-11T21:50:45.589Z</time>
      </trkpt>
      <trkpt lat="44.75979" lon="0.02972">
        <ele>107.613319</ele>
        <time>2022-07-11T21:51:14.854Z</time>
      </trkpt>
      <trkpt lat="44.76073" lon="0.02769">
        <ele>109.546684</ele>
        <time>2022-07-11T21:51:54.592Z</time>
      </trkpt>
      <trkpt lat="44.76089" lon="0.02734">
        <ele>109.779705</ele>
        <time>2022-07-11T21:52:01.445Z</time>
      </trkpt>
      <trkpt lat="44.761" lon="0.02724">
        <ele>109.74157</ele>
        <time>2022-07-11T21:52:04.359Z</time>
      </trkpt>
      <trkpt lat="44.76098" lon="0.02713">
        <ele>109.718055</ele>
        <time>2022-07-11T21:52:06.020Z</time>
      </trkpt>
      <trkpt lat="44.76077" lon="0.02549">
        <ele>109.366069</ele>
        <time>2022-07-11T21:52:28.026Z</time>
      </trkpt>
      <trkpt lat="44.76099" lon="0.01984">
        <ele>101.249988</ele>
        <time>2022-07-11T21:53:29.128Z</time>
      </trkpt>
      <trkpt lat="44.76106" lon="0.01793">
        <ele>97.772011</ele>
        <time>2022-07-11T21:53:48.414Z</time>
      </trkpt>
      <trkpt lat="44.76114" lon="0.01686">
        <ele>97.266625</ele>
        <time>2022-07-11T21:54:00.645Z</time>
      </trkpt>
      <trkpt lat="44.76253" lon="0.01179">
        <ele>103.47928</ele>
        <time>2022-07-11T21:55:45.831Z</time>
      </trkpt>
      <trkpt lat="44.76273" lon="0.01015">
        <ele>104.76541</ele>
        <time>2022-07-11T21:56:10.117Z</time>
      </trkpt>
      <trkpt lat="44.76277" lon="0.00983">
        <ele>104.831875</ele>
        <time>2022-07-11T21:56:14.752Z</time>
      </trkpt>
      <trkpt lat="44.76281" lon="0.00951">
        <ele>104.897156</ele>
        <time>2022-07-11T21:56:18.955Z</time>
      </trkpt>
      <trkpt lat="44.76223" lon="0.00964">
        <ele>105.063887</ele>
        <time>2022-07-11T21:56:29.637Z</time>
      </trkpt>
      <trkpt lat="44.76149" lon="0.00966">
        <ele>105.296409</ele>
        <time>2022-07-11T21:56:43.830Z</time>
      </trkpt>
      <trkpt lat="44.76153" lon="0.00937">
        <ele>105.488202</ele>
        <time>2022-07-11T21:56:48.174Z</time>
      </trkpt>
      <trkpt lat="44.76179" lon="0.00842">
        <ele>106.145489</ele>
        <time>2022-07-11T21:57:03.553Z</time>
      </trkpt>
      <trkpt lat="44.76189" lon="0.00793">
        <ele>106.478499</ele>
        <time>2022-07-11T21:57:11.189Z</time>
      </trkpt>
      <trkpt lat="44.76192" lon="0.00756">
        <ele>106.720362</ele>
        <time>2022-07-11T21:57:16.853Z</time>
      </trkpt>
      <trkpt lat="44.76191" lon="0.0057">
        <ele>108.775566</ele>
        <time>2022-07-11T21:57:48.279Z</time>
      </trkpt>
      <trkpt lat="44.76177" lon="0.00541">
        <ele>109.194711</ele>
        <time>2022-07-11T21:57:54.947Z</time>
      </trkpt>
      <trkpt lat="44.76088" lon="0.00478">
        <ele>111.0285</ele>
        <time>2022-07-11T21:58:21.108Z</time>
      </trkpt>
      <trkpt lat="44.76048" lon="0.00422">
        <ele>112.125096</ele>
        <time>2022-07-11T21:58:35.284Z</time>
      </trkpt>
      <trkpt lat="44.76038" lon="0.00391">
        <ele>112.609741</ele>
        <time>2022-07-11T21:58:41.431Z</time>
      </trkpt>
      <trkpt lat="44.76036" lon="0.0037">
        <ele>112.908106</ele>
        <time>2022-07-11T21:58:45.265Z</time>
      </trkpt>
      <trkpt lat="44.76039" lon="0.00348">
        <ele>113.217639</ele>
        <time>2022-07-11T21:58:49.229Z</time>
      </trkpt>
      <trkpt lat="44.76055" lon="0.003">
        <ele>113.688974</ele>
        <time>2022-07-11T21:58:58.903Z</time>
      </trkpt>
      <trkpt lat="44.76082" lon="0.00226">
        <ele>114.242206</ele>
        <time>2022-07-11T21:59:13.335Z</time>
      </trkpt>
      <trkpt lat="44.76116" lon="0.00129">
        <ele>114.967647</ele>
        <time>2022-07-11T21:59:28.197Z</time>
      </trkpt>
      <trkpt lat="44.76128" lon="0.0008">
        <ele>114.972533</ele>
        <time>2022-07-11T21:59:34.959Z</time>
      </trkpt>
      <trkpt lat="44.76146" lon="4.0E-5">
        <ele>114.478898</ele>
        <time>2022-07-11T21:59:44.563Z</time>
      </trkpt>
      <trkpt lat="44.76152" lon="-0.00052">
        <ele>114.135516</ele>
        <time>2022-07-11T21:59:50.960Z</time>
      </trkpt>
      <trkpt lat="44.76141" lon="-0.0033">
        <ele>111.303136</ele>
        <time>2022-07-11T22:00:20.635Z</time>
      </trkpt>
      <trkpt lat="44.76144" lon="-0.00364">
        <ele>110.8893</ele>
        <time>2022-07-11T22:00:24.293Z</time>
      </trkpt>
      <trkpt lat="44.76155" lon="-0.00404">
        <ele>110.358973</ele>
        <time>2022-07-11T22:00:28.895Z</time>
      </trkpt>
      <trkpt lat="44.7625" lon="-0.00694">
        <ele>106.508817</ele>
        <time>2022-07-11T22:01:02.586Z</time>
      </trkpt>
      <trkpt lat="44.76255" lon="-0.00743">
        <ele>106.005335</ele>
        <time>2022-07-11T22:01:07.799Z</time>
      </trkpt>
      <trkpt lat="44.76247" lon="-0.00854">
        <ele>104.857275</ele>
        <time>2022-07-11T22:01:19.921Z</time>
      </trkpt>
      <trkpt lat="44.76219" lon="-0.01158">
        <ele>104.610418</ele>
        <time>2022-07-11T22:01:57.871Z</time>
      </trkpt>
      <trkpt lat="44.76209" lon="-0.01195">
        <ele>104.881079</ele>
        <time>2022-07-11T22:02:04.666Z</time>
      </trkpt>
      <trkpt lat="44.76143" lon="-0.0138">
        <ele>105.902592</ele>
        <time>2022-07-11T22:02:38.358Z</time>
      </trkpt>
      <trkpt lat="44.76127" lon="-0.01449">
        <ele>105.55645</ele>
        <time>2022-07-11T22:02:48.166Z</time>
      </trkpt>
      <trkpt lat="44.76124" lon="-0.0151">
        <ele>105.267187</ele>
        <time>2022-07-11T22:02:55.329Z</time>
      </trkpt>
      <trkpt lat="44.76137" lon="-0.01723">
        <ele>102.31804</ele>
        <time>2022-07-11T22:03:16.980Z</time>
      </trkpt>
      <trkpt lat="44.76119" lon="-0.01754">
        <ele>101.518585</ele>
        <time>2022-07-11T22:03:20.888Z</time>
      </trkpt>
      <trkpt lat="44.76011" lon="-0.01836">
        <ele>97.666632</ele>
        <time>2022-07-11T22:03:37.644Z</time>
      </trkpt>
      <trkpt lat="44.75986" lon="-0.01861">
        <ele>96.60758</ele>
        <time>2022-07-11T22:03:41.759Z</time>
      </trkpt>
      <trkpt lat="44.75659" lon="-0.02429">
        <ele>78.900224</ele>
        <time>2022-07-11T22:04:51.576Z</time>
      </trkpt>
      <trkpt lat="44.75634" lon="-0.02456">
        <ele>78.078024</ele>
        <time>2022-07-11T22:04:55.992Z</time>
      </trkpt>
      <trkpt lat="44.75585" lon="-0.02486">
        <ele>76.69315</ele>
        <time>2022-07-11T22:05:03.657Z</time>
      </trkpt>
      <trkpt lat="44.75568" lon="-0.02516">
        <ele>76.076278</ele>
        <time>2022-07-11T22:05:07.818Z</time>
      </trkpt>
      <trkpt lat="44.75562" lon="-0.02553">
        <ele>75.993885</ele>
        <time>2022-07-11T22:05:12.045Z</time>
      </trkpt>
      <trkpt lat="44.75546" lon="-0.02812">
        <ele>75.716778</ele>
        <time>2022-07-11T22:05:45.314Z</time>
      </trkpt>
      <trkpt lat="44.75551" lon="-0.02864">
        <ele>75.900354</ele>
        <time>2022-07-11T22:05:53.416Z</time>
      </trkpt>
      <trkpt lat="44.75597" lon="-0.02963">
        <ele>76.313291</ele>
        <time>2022-07-11T22:06:10.990Z</time>
      </trkpt>
      <trkpt lat="44.7562" lon="-0.02999">
        <ele>76.39524</ele>
        <time>2022-07-11T22:06:17.808Z</time>
      </trkpt>
      <trkpt lat="44.75769" lon="-0.03125">
        <ele>76.046921</ele>
        <time>2022-07-11T22:06:47.127Z</time>
      </trkpt>
      <trkpt lat="44.75779" lon="-0.03158">
        <ele>76.188799</ele>
        <time>2022-07-11T22:06:51.462Z</time>
      </trkpt>
      <trkpt lat="44.75766" lon="-0.03209">
        <ele>76.407054</ele>
        <time>2022-07-11T22:06:58.365Z</time>
      </trkpt>
      <trkpt lat="44.75725" lon="-0.03477">
        <ele>78.107544</ele>
        <time>2022-07-11T22:07:41.200Z</time>
      </trkpt>
      <trkpt lat="44.75733" lon="-0.03616">
        <ele>79.372822</ele>
        <time>2022-07-11T22:08:04.695Z</time>
      </trkpt>
      <trkpt lat="44.75731" lon="-0.03676">
        <ele>79.984314</ele>
        <time>2022-07-11T22:08:14.539Z</time>
      </trkpt>
      <trkpt lat="44.75729" lon="-0.03783">
        <ele>81.091474</ele>
        <time>2022-07-11T22:08:32.198Z</time>
      </trkpt>
      <trkpt lat="44.75734" lon="-0.03802">
        <ele>81.294681</ele>
        <time>2022-07-11T22:08:35.420Z</time>
      </trkpt>
      <trkpt lat="44.75748" lon="-0.0383">
        <ele>81.661389</ele>
        <time>2022-07-11T22:08:41.706Z</time>
      </trkpt>
      <trkpt lat="44.75818" lon="-0.0391">
        <ele>82.944132</ele>
        <time>2022-07-11T22:09:03.367Z</time>
      </trkpt>
      <trkpt lat="44.75833" lon="-0.03938">
        <ele>83.302234</ele>
        <time>2022-07-11T22:09:09.297Z</time>
      </trkpt>
      <trkpt lat="44.75841" lon="-0.03972">
        <ele>83.667474</ele>
        <time>2022-07-11T22:09:15.623Z</time>
      </trkpt>
      <trkpt lat="44.75868" lon="-0.04152">
        <ele>85.105015</ele>
        <time>2022-07-11T22:09:44.439Z</time>
      </trkpt>
      <trkpt lat="44.75921" lon="-0.04143">
        <ele>85.558009</ele>
        <time>2022-07-11T22:09:55.210Z</time>
      </trkpt>
      <trkpt lat="44.75947" lon="-0.04307">
        <ele>86.671989</ele>
        <time>2022-07-11T22:10:21.043Z</time>
      </trkpt>
      <trkpt lat="44.75949" lon="-0.04344">
        <ele>86.936084</ele>
        <time>2022-07-11T22:10:26.858Z</time>
      </trkpt>
      <trkpt lat="44.75869" lon="-0.04784">
        <ele>90.428383</ele>
        <time>2022-07-11T22:11:42.768Z</time>
      </trkpt>
      <trkpt lat="44.75853" lon="-0.04928">
        <ele>91.089518</ele>
        <time>2022-07-11T22:12:04.666Z</time>
      </trkpt>
      <trkpt lat="44.75837" lon="-0.0498">
        <ele>91.058979</ele>
        <time>2022-07-11T22:12:12.074Z</time>
      </trkpt>
      <trkpt lat="44.75756" lon="-0.05093">
        <ele>90.03978</ele>
        <time>2022-07-11T22:12:31.456Z</time>
      </trkpt>
      <trkpt lat="44.75585" lon="-0.05267">
        <ele>86.460371</ele>
        <time>2022-07-11T22:13:04.075Z</time>
      </trkpt>
      <trkpt lat="44.75564" lon="-0.05298">
        <ele>85.84332</ele>
        <time>2022-07-11T22:13:08.757Z</time>
      </trkpt>
      <trkpt lat="44.75552" lon="-0.05334">
        <ele>85.260633</ele>
        <time>2022-07-11T22:13:13.028Z</time>
      </trkpt>
      <trkpt lat="44.75549" lon="-0.05383">
        <ele>84.527647</ele>
        <time>2022-07-11T22:13:18.405Z</time>
      </trkpt>
      <trkpt lat="44.75567" lon="-0.05671">
        <ele>80.08935</ele>
        <time>2022-07-11T22:13:49.859Z</time>
      </trkpt>
      <trkpt lat="44.7559" lon="-0.05816">
        <ele>77.445217</ele>
        <time>2022-07-11T22:14:05.613Z</time>
      </trkpt>
      <trkpt lat="44.75614" lon="-0.05946">
        <ele>74.441382</ele>
        <time>2022-07-11T22:14:19.388Z</time>
      </trkpt>
      <trkpt lat="44.7562" lon="-0.06">
        <ele>73.205456</ele>
        <time>2022-07-11T22:14:24.946Z</time>
      </trkpt>
      <trkpt lat="44.75607" lon="-0.06039">
        <ele>72.083686</ele>
        <time>2022-07-11T22:14:29.182Z</time>
      </trkpt>
      <trkpt lat="44.75553" lon="-0.06122">
        <ele>68.651759</ele>
        <time>2022-07-11T22:14:39.969Z</time>
      </trkpt>
      <trkpt lat="44.75476" lon="-0.06188">
        <ele>64.721817</ele>
        <time>2022-07-11T22:14:52.462Z</time>
      </trkpt>
      <trkpt lat="44.75476" lon="-0.06199">
        <ele>64.282585</ele>
        <time>2022-07-11T22:14:53.452Z</time>
      </trkpt>
      <trkpt lat="44.75484" lon="-0.06205">
        <ele>63.751542</ele>
        <time>2022-07-11T22:14:54.780Z</time>
      </trkpt>
      <trkpt lat="44.75555" lon="-0.062">
        <ele>59.75118</ele>
        <time>2022-07-11T22:15:04.073Z</time>
      </trkpt>
      <trkpt lat="44.75578" lon="-0.06211">
        <ele>58.435326</ele>
        <time>2022-07-11T22:15:07.057Z</time>
      </trkpt>
      <trkpt lat="44.75623" lon="-0.06301">
        <ele>54.012135</ele>
        <time>2022-07-11T22:15:17.140Z</time>
      </trkpt>
      <trkpt lat="44.75645" lon="-0.06403">
        <ele>49.617482</ele>
        <time>2022-07-11T22:15:27.054Z</time>
      </trkpt>
      <trkpt lat="44.75668" lon="-0.06452">
        <ele>47.241489</ele>
        <time>2022-07-11T22:15:32.408Z</time>
      </trkpt>
      <trkpt lat="44.75702" lon="-0.0649">
        <ele>44.735424</ele>
        <time>2022-07-11T22:15:38.056Z</time>
      </trkpt>
      <trkpt lat="44.75763" lon="-0.06533">
        <ele>41.402875</ele>
        <time>2022-07-11T22:15:47.043Z</time>
      </trkpt>
      <trkpt lat="44.75778" lon="-0.0655">
        <ele>40.491101</ele>
        <time>2022-07-11T22:15:49.615Z</time>
      </trkpt>
      <trkpt lat="44.75793" lon="-0.06576">
        <ele>39.309956</ele>
        <time>2022-07-11T22:15:52.923Z</time>
      </trkpt>
      <trkpt lat="44.75848" lon="-0.06717">
        <ele>34.482952</ele>
        <time>2022-07-11T22:16:08.365Z</time>
      </trkpt>
      <trkpt lat="44.75797" lon="-0.06739">
        <ele>32.768938</ele>
        <time>2022-07-11T22:16:15.250Z</time>
      </trkpt>
      <trkpt lat="44.75743" lon="-0.06789">
        <ele>30.669451</ele>
        <time>2022-07-11T22:16:24.203Z</time>
      </trkpt>
      <trkpt lat="44.75693" lon="-0.06842">
        <ele>29.901585</ele>
        <time>2022-07-11T22:16:34.093Z</time>
      </trkpt>
      <trkpt lat="44.75633" lon="-0.06906">
        <ele>29.822209</ele>
        <time>2022-07-11T22:16:47.089Z</time>
      </trkpt>
      <trkpt lat="44.75601" lon="-0.06953">
        <ele>29.773125</ele>
        <time>2022-07-11T22:16:56.220Z</time>
      </trkpt>
      <trkpt lat="44.75448" lon="-0.07271">
        <ele>33.6964</ele>
        <time>2022-07-11T22:18:03.057Z</time>
      </trkpt>
      <trkpt lat="44.75418" lon="-0.07322">
        <ele>34.407916</ele>
        <time>2022-07-11T22:18:15.577Z</time>
      </trkpt>
      <trkpt lat="44.75381" lon="-0.07364">
        <ele>35.125861</ele>
        <time>2022-07-11T22:18:26.116Z</time>
      </trkpt>
      <trkpt lat="44.75333" lon="-0.07399">
        <ele>35.180626</ele>
        <time>2022-07-11T22:18:36.899Z</time>
      </trkpt>
      <trkpt lat="44.7531" lon="-0.07503">
        <ele>35.015365</ele>
        <time>2022-07-11T22:18:49.988Z</time>
      </trkpt>
      <trkpt lat="44.75312" lon="-0.07515">
        <ele>34.996807</ele>
        <time>2022-07-11T22:18:51.266Z</time>
      </trkpt>
      <trkpt lat="44.75317" lon="-0.07525">
        <ele>34.977713</ele>
        <time>2022-07-11T22:18:52.700Z</time>
      </trkpt>
      <trkpt lat="44.75359" lon="-0.07546">
        <ele>34.914905</ele>
        <time>2022-07-11T22:19:00.070Z</time>
      </trkpt>
      <trkpt lat="44.75372" lon="-0.07551">
        <ele>35.009075</ele>
        <time>2022-07-11T22:19:02.138Z</time>
      </trkpt>
      <trkpt lat="44.75372" lon="-0.07551">
        <ele>35.012887</ele>
        <time>2022-07-11T22:19:02.218Z</time>
      </trkpt>
      <trkpt lat="44.75376" lon="-0.07553">
        <ele>35.041971</ele>
        <time>2022-07-11T22:19:02.808Z</time>
      </trkpt>
      <trkpt lat="44.75386" lon="-0.07559">
        <ele>35.123854</ele>
        <time>2022-07-11T22:19:04.570Z</time>
      </trkpt>
      <trkpt lat="44.75413" lon="-0.07598">
        <ele>35.40683</ele>
        <time>2022-07-11T22:19:11.105Z</time>
      </trkpt>
      <trkpt lat="44.7542" lon="-0.07621">
        <ele>35.536732</ele>
        <time>2022-07-11T22:19:14.245Z</time>
      </trkpt>
      <trkpt lat="44.75424" lon="-0.07665">
        <ele>35.766936</ele>
        <time>2022-07-11T22:19:20.207Z</time>
      </trkpt>
      <trkpt lat="44.75395" lon="-0.07797">
        <ele>38.688507</ele>
        <time>2022-07-11T22:19:46.907Z</time>
      </trkpt>
      <trkpt lat="44.7538" lon="-0.07836">
        <ele>40.719287</ele>
        <time>2022-07-11T22:19:59.447Z</time>
      </trkpt>
      <trkpt lat="44.75346" lon="-0.07895">
        <ele>44.242332</ele>
        <time>2022-07-11T22:20:25.648Z</time>
      </trkpt>
      <trkpt lat="44.7534" lon="-0.07927">
        <ele>45.766926</ele>
        <time>2022-07-11T22:20:38.290Z</time>
      </trkpt>
      <trkpt lat="44.7541" lon="-0.08107">
        <ele>57.419166</ele>
        <time>2022-07-11T22:21:59.194Z</time>
      </trkpt>
      <trkpt lat="44.75434" lon="-0.08138">
        <ele>60.144059</ele>
        <time>2022-07-11T22:22:16.826Z</time>
      </trkpt>
      <trkpt lat="44.75496" lon="-0.08189">
        <ele>63.862881</ele>
        <time>2022-07-11T22:22:48.238Z</time>
      </trkpt>
      <trkpt lat="44.7556" lon="-0.08301">
        <ele>66.10652</ele>
        <time>2022-07-11T22:23:12.557Z</time>
      </trkpt>
      <trkpt lat="44.75582" lon="-0.08348">
        <ele>66.974889</ele>
        <time>2022-07-11T22:23:18.960Z</time>
      </trkpt>
      <trkpt lat="44.75607" lon="-0.08459">
        <ele>65.707655</ele>
        <time>2022-07-11T22:23:31.730Z</time>
      </trkpt>
      <trkpt lat="44.75618" lon="-0.08485">
        <ele>65.375128</ele>
        <time>2022-07-11T22:23:34.970Z</time>
      </trkpt>
      <trkpt lat="44.75653" lon="-0.08535">
        <ele>64.604356</ele>
        <time>2022-07-11T22:23:42.241Z</time>
      </trkpt>
      <trkpt lat="44.75674" lon="-0.08574">
        <ele>64.060523</ele>
        <time>2022-07-11T22:23:47.278Z</time>
      </trkpt>
      <trkpt lat="44.75707" lon="-0.08663">
        <ele>62.887421</ele>
        <time>2022-07-11T22:23:57.715Z</time>
      </trkpt>
      <trkpt lat="44.75715" lon="-0.08697">
        <ele>62.478888</ele>
        <time>2022-07-11T22:24:01.400Z</time>
      </trkpt>
      <trkpt lat="44.75733" lon="-0.08797">
        <ele>61.278127</ele>
        <time>2022-07-11T22:24:12.625Z</time>
      </trkpt>
      <trkpt lat="44.75759" lon="-0.08937">
        <ele>61.475946</ele>
        <time>2022-07-11T22:24:30.596Z</time>
      </trkpt>
      <trkpt lat="44.75772" lon="-0.08964">
        <ele>61.525011</ele>
        <time>2022-07-11T22:24:35.583Z</time>
      </trkpt>
      <trkpt lat="44.75795" lon="-0.08989">
        <ele>61.588049</ele>
        <time>2022-07-11T22:24:42.005Z</time>
      </trkpt>
      <trkpt lat="44.75896" lon="-0.0906">
        <ele>61.859598</ele>
        <time>2022-07-11T22:25:06.809Z</time>
      </trkpt>
      <trkpt lat="44.75955" lon="-0.09152">
        <ele>62.07819</ele>
        <time>2022-07-11T22:25:22.311Z</time>
      </trkpt>
      <trkpt lat="44.75916" lon="-0.09191">
        <ele>62.085458</ele>
        <time>2022-07-11T22:25:29.661Z</time>
      </trkpt>
      <trkpt lat="44.7584" lon="-0.09221">
        <ele>62.076432</ele>
        <time>2022-07-11T22:25:43.801Z</time>
      </trkpt>
      <trkpt lat="44.75796" lon="-0.09278">
        <ele>62.145055</ele>
        <time>2022-07-11T22:25:56.572Z</time>
      </trkpt>
      <trkpt lat="44.75784" lon="-0.09288">
        <ele>62.571421</ele>
        <time>2022-07-11T22:25:59.424Z</time>
      </trkpt>
      <trkpt lat="44.75765" lon="-0.0929">
        <ele>63.195</ele>
        <time>2022-07-11T22:26:05.914Z</time>
      </trkpt>
      <trkpt lat="44.75722" lon="-0.09273">
        <ele>64.598939</ele>
        <time>2022-07-11T22:26:18.793Z</time>
      </trkpt>
      <trkpt lat="44.75679" lon="-0.09277">
        <ele>65.95307</ele>
        <time>2022-07-11T22:26:32.328Z</time>
      </trkpt>
      <trkpt lat="44.75605" lon="-0.09262">
        <ele>68.383808</ele>
        <time>2022-07-11T22:27:01.074Z</time>
      </trkpt>
      <trkpt lat="44.75502" lon="-0.0928">
        <ele>72.041424</ele>
        <time>2022-07-11T22:27:36.082Z</time>
      </trkpt>
      <trkpt lat="44.75451" lon="-0.09315">
        <ele>74.035818</ele>
        <time>2022-07-11T22:27:53.011Z</time>
      </trkpt>
      <trkpt lat="44.75395" lon="-0.09361">
        <ele>74.881769</ele>
        <time>2022-07-11T22:28:09.868Z</time>
      </trkpt>
      <trkpt lat="44.7538" lon="-0.09382">
        <ele>75.151131</ele>
        <time>2022-07-11T22:28:15.037Z</time>
      </trkpt>
      <trkpt lat="44.75253" lon="-0.09603">
        <ele>77.385142</ele>
        <time>2022-07-11T22:28:57.342Z</time>
      </trkpt>
      <trkpt lat="44.75188" lon="-0.09705">
        <ele>78.685617</ele>
        <time>2022-07-11T22:29:20.410Z</time>
      </trkpt>
      <trkpt lat="44.75172" lon="-0.09748">
        <ele>79.57493</ele>
        <time>2022-07-11T22:29:29.879Z</time>
      </trkpt>
      <trkpt lat="44.75142" lon="-0.09804">
        <ele>80.831477</ele>
        <time>2022-07-11T22:29:44.211Z</time>
      </trkpt>
      <trkpt lat="44.75012" lon="-0.09974">
        <ele>85.756044</ele>
        <time>2022-07-11T22:30:40.116Z</time>
      </trkpt>
      <trkpt lat="44.74973" lon="-0.09999">
        <ele>87.011815</ele>
        <time>2022-07-11T22:30:52.928Z</time>
      </trkpt>
      <trkpt lat="44.74912" lon="-0.10022">
        <ele>88.406146</ele>
        <time>2022-07-11T22:31:10.617Z</time>
      </trkpt>
      <trkpt lat="44.74899" lon="-0.10036">
        <ele>88.647282</ele>
        <time>2022-07-11T22:31:14.759Z</time>
      </trkpt>
      <trkpt lat="44.74889" lon="-0.10059">
        <ele>88.922865</ele>
        <time>2022-07-11T22:31:19.382Z</time>
      </trkpt>
      <trkpt lat="44.74887" lon="-0.10095">
        <ele>89.304103</ele>
        <time>2022-07-11T22:31:25.506Z</time>
      </trkpt>
      <trkpt lat="44.74934" lon="-0.10322">
        <ele>91.768064</ele>
        <time>2022-07-11T22:32:01.232Z</time>
      </trkpt>
      <trkpt lat="44.74937" lon="-0.10375">
        <ele>92.333296</ele>
        <time>2022-07-11T22:32:10.094Z</time>
      </trkpt>
      <trkpt lat="44.74932" lon="-0.1044">
        <ele>93.009662</ele>
        <time>2022-07-11T22:32:21.468Z</time>
      </trkpt>
      <trkpt lat="44.74905" lon="-0.10784">
        <ele>99.995223</ele>
        <time>2022-07-11T22:33:34.119Z</time>
      </trkpt>
      <trkpt lat="44.74901" lon="-0.10885">
        <ele>102.326822</ele>
        <time>2022-07-11T22:33:57.180Z</time>
      </trkpt>
      <trkpt lat="44.74892" lon="-0.11024">
        <ele>104.684752</ele>
        <time>2022-07-11T22:34:28.373Z</time>
      </trkpt>
      <trkpt lat="44.74858" lon="-0.11225">
        <ele>106.134187</ele>
        <time>2022-07-11T22:34:59.084Z</time>
      </trkpt>
      <trkpt lat="44.74852" lon="-0.11262">
        <ele>105.522114</ele>
        <time>2022-07-11T22:35:03.132Z</time>
      </trkpt>
      <trkpt lat="44.74855" lon="-0.11299">
        <ele>104.923363</ele>
        <time>2022-07-11T22:35:06.975Z</time>
      </trkpt>
      <trkpt lat="44.74841" lon="-0.11333">
        <ele>104.285054</ele>
        <time>2022-07-11T22:35:10.929Z</time>
      </trkpt>
      <trkpt lat="44.74793" lon="-0.11603">
        <ele>99.470061</ele>
        <time>2022-07-11T22:35:37.946Z</time>
      </trkpt>
      <trkpt lat="44.74787" lon="-0.11665">
        <ele>98.336814</ele>
        <time>2022-07-11T22:35:44.371Z</time>
      </trkpt>
      <trkpt lat="44.74814" lon="-0.11954">
        <ele>95.310806</ele>
        <time>2022-07-11T22:36:16.472Z</time>
      </trkpt>
      <trkpt lat="44.74836" lon="-0.12107">
        <ele>94.456271</ele>
        <time>2022-07-11T22:36:34.307Z</time>
      </trkpt>
      <trkpt lat="44.74867" lon="-0.12331">
        <ele>93.515605</ele>
        <time>2022-07-11T22:37:01.360Z</time>
      </trkpt>
      <trkpt lat="44.74911" lon="-0.12845">
        <ele>91.977912</ele>
        <time>2022-07-11T22:38:04.307Z</time>
      </trkpt>
      <trkpt lat="44.74903" lon="-0.12892">
        <ele>91.769781</ele>
        <time>2022-07-11T22:38:09.761Z</time>
      </trkpt>
      <trkpt lat="44.74807" lon="-0.13124">
        <ele>89.775557</ele>
        <time>2022-07-11T22:38:39.845Z</time>
      </trkpt>
      <trkpt lat="44.74807" lon="-0.13156">
        <ele>89.508998</ele>
        <time>2022-07-11T22:38:43.391Z</time>
      </trkpt>
      <trkpt lat="44.74834" lon="-0.13318">
        <ele>87.32155</ele>
        <time>2022-07-11T22:39:01.402Z</time>
      </trkpt>
      <trkpt lat="44.74853" lon="-0.13369">
        <ele>86.535866</ele>
        <time>2022-07-11T22:39:07.389Z</time>
      </trkpt>
      <trkpt lat="44.74932" lon="-0.13522">
        <ele>82.791874</ele>
        <time>2022-07-11T22:39:25.944Z</time>
      </trkpt>
      <trkpt lat="44.74943" lon="-0.13553">
        <ele>82.052166</ele>
        <time>2022-07-11T22:39:29.184Z</time>
      </trkpt>
      <trkpt lat="44.74964" lon="-0.13989">
        <ele>73.667137</ele>
        <time>2022-07-11T22:40:12.083Z</time>
      </trkpt>
      <trkpt lat="44.74965" lon="-0.14351">
        <ele>70.694789</ele>
        <time>2022-07-11T22:40:53.678Z</time>
      </trkpt>
      <trkpt lat="44.7498" lon="-0.14621">
        <ele>69.866902</ele>
        <time>2022-07-11T22:41:25.728Z</time>
      </trkpt>
      <trkpt lat="44.7497" lon="-0.14955">
        <ele>71.986619</ele>
        <time>2022-07-11T22:42:12.630Z</time>
      </trkpt>
      <trkpt lat="44.74871" lon="-0.14942">
        <ele>74.856463</ele>
        <time>2022-07-11T22:42:44.979Z</time>
      </trkpt>
      <trkpt lat="44.74813" lon="-0.14935">
        <ele>76.264412</ele>
        <time>2022-07-11T22:43:05.985Z</time>
      </trkpt>
      <trkpt lat="44.74787" lon="-0.14943">
        <ele>76.671028</ele>
        <time>2022-07-11T22:43:14.770Z</time>
      </trkpt>
      <trkpt lat="44.74683" lon="-0.15057">
        <ele>78.708828</ele>
        <time>2022-07-11T22:43:44.711Z</time>
      </trkpt>
      <trkpt lat="44.74531" lon="-0.15166">
        <ele>74.186683</ele>
        <time>2022-07-11T22:44:08.121Z</time>
      </trkpt>
      <trkpt lat="44.74402" lon="-0.15193">
        <ele>69.797876</ele>
        <time>2022-07-11T22:44:25.448Z</time>
      </trkpt>
      <trkpt lat="44.74387" lon="-0.15363">
        <ele>66.216403</ele>
        <time>2022-07-11T22:44:43.083Z</time>
      </trkpt>
      <trkpt lat="44.74366" lon="-0.15512">
        <ele>63.481203</ele>
        <time>2022-07-11T22:44:59.346Z</time>
      </trkpt>
      <trkpt lat="44.74361" lon="-0.1562">
        <ele>62.050782</ele>
        <time>2022-07-11T22:45:11.105Z</time>
      </trkpt>
      <trkpt lat="44.74337" lon="-0.15876">
        <ele>59.273856</ele>
        <time>2022-07-11T22:45:40.226Z</time>
      </trkpt>
      <trkpt lat="44.74308" lon="-0.16362">
        <ele>56.391587</ele>
        <time>2022-07-11T22:46:39.224Z</time>
      </trkpt>
      <trkpt lat="44.74296" lon="-0.1658">
        <ele>54.765987</ele>
        <time>2022-07-11T22:47:05.967Z</time>
      </trkpt>
      <trkpt lat="44.74291" lon="-0.16666">
        <ele>53.471632</ele>
        <time>2022-07-11T22:47:14.902Z</time>
      </trkpt>
      <trkpt lat="44.74276" lon="-0.16714">
        <ele>52.685965</ele>
        <time>2022-07-11T22:47:20.144Z</time>
      </trkpt>
      <trkpt lat="44.74251" lon="-0.16725">
        <ele>52.131105</ele>
        <time>2022-07-11T22:47:23.792Z</time>
      </trkpt>
      <trkpt lat="44.74215" lon="-0.16725">
        <ele>51.276886</ele>
        <time>2022-07-11T22:47:28.782Z</time>
      </trkpt>
      <trkpt lat="44.74156" lon="-0.16725">
        <ele>49.651156</ele>
        <time>2022-07-11T22:47:36.902Z</time>
      </trkpt>
      <trkpt lat="44.7414" lon="-0.16742">
        <ele>49.093641</ele>
        <time>2022-07-11T22:47:39.691Z</time>
      </trkpt>
      <trkpt lat="44.7412" lon="-0.16881">
        <ele>46.450852</ele>
        <time>2022-07-11T22:47:53.895Z</time>
      </trkpt>
      <trkpt lat="44.74102" lon="-0.1692">
        <ele>45.757594</ele>
        <time>2022-07-11T22:47:58.916Z</time>
      </trkpt>
      <trkpt lat="44.74091" lon="-0.16934">
        <ele>45.457576</ele>
        <time>2022-07-11T22:48:01.137Z</time>
      </trkpt>
      <trkpt lat="44.74067" lon="-0.16945">
        <ele>44.945188</ele>
        <time>2022-07-11T22:48:04.945Z</time>
      </trkpt>
      <trkpt lat="44.73994" lon="-0.1694">
        <ele>43.421169</ele>
        <time>2022-07-11T22:48:16.135Z</time>
      </trkpt>
      <trkpt lat="44.73914" lon="-0.16973">
        <ele>41.2824</ele>
        <time>2022-07-11T22:48:27.334Z</time>
      </trkpt>
      <trkpt lat="44.73898" lon="-0.16988">
        <ele>40.776753</ele>
        <time>2022-07-11T22:48:29.887Z</time>
      </trkpt>
      <trkpt lat="44.73879" lon="-0.17043">
        <ele>39.591315</ele>
        <time>2022-07-11T22:48:36.081Z</time>
      </trkpt>
      <trkpt lat="44.73909" lon="-0.17104">
        <ele>38.18553</ele>
        <time>2022-07-11T22:48:43.602Z</time>
      </trkpt>
      <trkpt lat="44.73915" lon="-0.17129">
        <ele>38.27574</ele>
        <time>2022-07-11T22:48:46.390Z</time>
      </trkpt>
      <trkpt lat="44.73922" lon="-0.17156">
        <ele>38.377062</ele>
        <time>2022-07-11T22:48:49.487Z</time>
      </trkpt>
      <trkpt lat="44.73929" lon="-0.17171">
        <ele>38.439642</ele>
        <time>2022-07-11T22:48:51.478Z</time>
      </trkpt>
      <trkpt lat="44.73973" lon="-0.17167">
        <ele>38.657427</ele>
        <time>2022-07-11T22:48:58.544Z</time>
      </trkpt>
      <trkpt lat="44.73998" lon="-0.1717">
        <ele>38.777553</ele>
        <time>2022-07-11T22:49:02.830Z</time>
      </trkpt>
      <trkpt lat="44.74024" lon="-0.17181">
        <ele>38.914699</ele>
        <time>2022-07-11T22:49:10.335Z</time>
      </trkpt>
      <trkpt lat="44.74069" lon="-0.17215">
        <ele>40.028949</ele>
        <time>2022-07-11T22:49:28.855Z</time>
      </trkpt>
      <trkpt lat="44.74115" lon="-0.1726">
        <ele>42.731463</ele>
        <time>2022-07-11T22:49:49.062Z</time>
      </trkpt>
      <trkpt lat="44.74143" lon="-0.17313">
        <ele>45.016784</ele>
        <time>2022-07-11T22:50:06.894Z</time>
      </trkpt>
      <trkpt lat="44.74235" lon="-0.1751">
        <ele>53.57136</ele>
        <time>2022-07-11T22:51:13.691Z</time>
      </trkpt>
      <trkpt lat="44.74245" lon="-0.17551">
        <ele>55.183603</ele>
        <time>2022-07-11T22:51:25.271Z</time>
      </trkpt>
      <trkpt lat="44.74265" lon="-0.17699">
        <ele>59.515989</ele>
        <time>2022-07-11T22:52:04.798Z</time>
      </trkpt>
      <trkpt lat="44.74267" lon="-0.17715">
        <ele>59.893101</ele>
        <time>2022-07-11T22:52:08.538Z</time>
      </trkpt>
      <trkpt lat="44.74277" lon="-0.1779">
        <ele>61.710406</ele>
        <time>2022-07-11T22:52:25.211Z</time>
      </trkpt>
      <trkpt lat="44.74279" lon="-0.17805">
        <ele>62.0775</ele>
        <time>2022-07-11T22:52:28.236Z</time>
      </trkpt>
      <trkpt lat="44.74301" lon="-0.17891">
        <ele>63.137978</ele>
        <time>2022-07-11T22:52:43.811Z</time>
      </trkpt>
      <trkpt lat="44.74311" lon="-0.17965">
        <ele>62.889217</ele>
        <time>2022-07-11T22:52:53.567Z</time>
      </trkpt>
      <trkpt lat="44.74343" lon="-0.18248">
        <ele>61.45236</ele>
        <time>2022-07-11T22:53:24.212Z</time>
      </trkpt>
      <trkpt lat="44.7436" lon="-0.18679">
        <ele>61.70206</ele>
        <time>2022-07-11T22:54:21.420Z</time>
      </trkpt>
      <trkpt lat="44.74361" lon="-0.18704">
        <ele>61.870168</ele>
        <time>2022-07-11T22:54:25.099Z</time>
      </trkpt>
      <trkpt lat="44.74362" lon="-0.18722">
        <ele>61.990751</ele>
        <time>2022-07-11T22:54:27.796Z</time>
      </trkpt>
      <trkpt lat="44.74363" lon="-0.18766">
        <ele>62.288574</ele>
        <time>2022-07-11T22:54:34.667Z</time>
      </trkpt>
      <trkpt lat="44.74355" lon="-0.1881">
        <ele>62.594805</ele>
        <time>2022-07-11T22:54:42.100Z</time>
      </trkpt>
      <trkpt lat="44.74341" lon="-0.18843">
        <ele>62.847629</ele>
        <time>2022-07-11T22:54:48.424Z</time>
      </trkpt>
      <trkpt lat="44.74309" lon="-0.18898">
        <ele>63.886034</ele>
        <time>2022-07-11T22:55:01.106Z</time>
      </trkpt>
      <trkpt lat="44.74268" lon="-0.19034">
        <ele>66.156603</ele>
        <time>2022-07-11T22:55:29.436Z</time>
      </trkpt>
      <trkpt lat="44.74249" lon="-0.1911">
        <ele>67.308186</ele>
        <time>2022-07-11T22:55:46.096Z</time>
      </trkpt>
      <trkpt lat="44.74237" lon="-0.19233">
        <ele>68.931104</ele>
        <time>2022-07-11T22:56:09.014Z</time>
      </trkpt>
      <trkpt lat="44.7424" lon="-0.1927">
        <ele>69.426763</ele>
        <time>2022-07-11T22:56:15.441Z</time>
      </trkpt>
      <trkpt lat="44.7425" lon="-0.19301">
        <ele>69.862426</ele>
        <time>2022-07-11T22:56:20.758Z</time>
      </trkpt>
      <trkpt lat="44.74296" lon="-0.19395">
        <ele>70.446161</ele>
        <time>2022-07-11T22:56:38.090Z</time>
      </trkpt>
      <trkpt lat="44.74431" lon="-0.19836">
        <ele>71.901532</ele>
        <time>2022-07-11T22:57:41.060Z</time>
      </trkpt>
      <trkpt lat="44.74521" lon="-0.20095">
        <ele>74.060933</ele>
        <time>2022-07-11T22:58:29.366Z</time>
      </trkpt>
      <trkpt lat="44.74546" lon="-0.20166">
        <ele>74.627599</ele>
        <time>2022-07-11T22:58:42.265Z</time>
      </trkpt>
      <trkpt lat="44.74594" lon="-0.20255">
        <ele>74.871868</ele>
        <time>2022-07-11T22:58:57.511Z</time>
      </trkpt>
      <trkpt lat="44.74516" lon="-0.20329">
        <ele>74.07879</ele>
        <time>2022-07-11T22:59:12.701Z</time>
      </trkpt>
      <trkpt lat="44.74469" lon="-0.20373">
        <ele>73.604583</ele>
        <time>2022-07-11T22:59:21.051Z</time>
      </trkpt>
      <trkpt lat="44.7435" lon="-0.2048">
        <ele>72.134813</ele>
        <time>2022-07-11T22:59:42.322Z</time>
      </trkpt>
      <trkpt lat="44.74189" lon="-0.20626">
        <ele>72.971014</ele>
        <time>2022-07-11T23:00:21.541Z</time>
      </trkpt>
      <trkpt lat="44.74157" lon="-0.2067">
        <ele>73.426666</ele>
        <time>2022-07-11T23:00:32.837Z</time>
      </trkpt>
      <trkpt lat="44.74132" lon="-0.20722">
        <ele>74.003228</ele>
        <time>2022-07-11T23:00:43.813Z</time>
      </trkpt>
      <trkpt lat="44.74032" lon="-0.20937">
        <ele>75.81398</ele>
        <time>2022-07-11T23:01:24.589Z</time>
      </trkpt>
      <trkpt lat="44.73983" lon="-0.20978">
        <ele>76.063829</ele>
        <time>2022-07-11T23:01:35.163Z</time>
      </trkpt>
      <trkpt lat="44.73941" lon="-0.20997">
        <ele>76.253332</ele>
        <time>2022-07-11T23:01:43.056Z</time>
      </trkpt>
      <trkpt lat="44.73981" lon="-0.21133">
        <ele>75.854151</ele>
        <time>2022-07-11T23:02:02.036Z</time>
      </trkpt>
      <trkpt lat="44.7403" lon="-0.2126">
        <ele>75.21821</ele>
        <time>2022-07-11T23:02:19.422Z</time>
      </trkpt>
      <trkpt lat="44.7408" lon="-0.21417">
        <ele>73.501245</ele>
        <time>2022-07-11T23:02:39.021Z</time>
      </trkpt>
      <trkpt lat="44.74114" lon="-0.21509">
        <ele>72.305655</ele>
        <time>2022-07-11T23:02:50.664Z</time>
      </trkpt>
      <trkpt lat="44.74163" lon="-0.21665">
        <ele>69.989487</ele>
        <time>2022-07-11T23:03:09.312Z</time>
      </trkpt>
      <trkpt lat="44.74043" lon="-0.21725">
        <ele>67.75851</ele>
        <time>2022-07-11T23:03:27.966Z</time>
      </trkpt>
      <trkpt lat="44.74088" lon="-0.21844">
        <ele>66.392547</ele>
        <time>2022-07-11T23:03:42.465Z</time>
      </trkpt>
      <trkpt lat="44.74098" lon="-0.21881">
        <ele>66.442783</ele>
        <time>2022-07-11T23:03:46.986Z</time>
      </trkpt>
      <trkpt lat="44.74127" lon="-0.21977">
        <ele>66.574495</ele>
        <time>2022-07-11T23:04:00.121Z</time>
      </trkpt>
      <trkpt lat="44.74185" lon="-0.22063">
        <ele>67.138218</ele>
        <time>2022-07-11T23:04:19.483Z</time>
      </trkpt>
      <trkpt lat="44.7425" lon="-0.22206">
        <ele>69.735369</ele>
        <time>2022-07-11T23:04:52.242Z</time>
      </trkpt>
      <trkpt lat="44.74334" lon="-0.22301">
        <ele>71.664669</ele>
        <time>2022-07-11T23:05:22.422Z</time>
      </trkpt>
      <trkpt lat="44.74367" lon="-0.22352">
        <ele>72.440857</ele>
        <time>2022-07-11T23:05:34.103Z</time>
      </trkpt>
      <trkpt lat="44.74385" lon="-0.22404">
        <ele>73.091247</ele>
        <time>2022-07-11T23:05:42.994Z</time>
      </trkpt>
      <trkpt lat="44.74418" lon="-0.22567">
        <ele>73.103412</ele>
        <time>2022-07-11T23:06:05.328Z</time>
      </trkpt>
      <trkpt lat="44.74427" lon="-0.22627">
        <ele>72.969679</ele>
        <time>2022-07-11T23:06:12.390Z</time>
      </trkpt>
      <trkpt lat="44.7445" lon="-0.2277">
        <ele>71.996347</ele>
        <time>2022-07-11T23:06:28.633Z</time>
      </trkpt>
      <trkpt lat="44.74563" lon="-0.23095">
        <ele>69.251221</ele>
        <time>2022-07-11T23:07:08.264Z</time>
      </trkpt>
      <trkpt lat="44.74702" lon="-0.2336">
        <ele>70.613695</ele>
        <time>2022-07-11T23:07:54.753Z</time>
      </trkpt>
      <trkpt lat="44.74731" lon="-0.23442">
        <ele>72.584158</ele>
        <time>2022-07-11T23:08:13.293Z</time>
      </trkpt>
      <trkpt lat="44.74757" lon="-0.23534">
        <ele>74.750062</ele>
        <time>2022-07-11T23:08:36.965Z</time>
      </trkpt>
      <trkpt lat="44.74852" lon="-0.23784">
        <ele>82.943446</ele>
        <time>2022-07-11T23:09:48.888Z</time>
      </trkpt>
      <trkpt lat="44.74899" lon="-0.23883">
        <ele>84.891134</ele>
        <time>2022-07-11T23:10:13.133Z</time>
      </trkpt>
      <trkpt lat="44.7491" lon="-0.23871">
        <ele>85.202596</ele>
        <time>2022-07-11T23:10:17.309Z</time>
      </trkpt>
      <trkpt lat="44.74899" lon="-0.23883">
        <ele>85.514058</ele>
        <time>2022-07-11T23:10:20.242Z</time>
      </trkpt>
      <trkpt lat="44.74715" lon="-0.24048">
        <ele>88.824603</ele>
        <time>2022-07-11T23:11:09.823Z</time>
      </trkpt>
      <trkpt lat="44.74683" lon="-0.24097">
        <ele>89.142546</ele>
        <time>2022-07-11T23:11:20.384Z</time>
      </trkpt>
      <trkpt lat="44.7466" lon="-0.24165">
        <ele>88.861932</ele>
        <time>2022-07-11T23:11:32.298Z</time>
      </trkpt>
      <trkpt lat="44.7452" lon="-0.24799">
        <ele>85.556759</ele>
        <time>2022-07-11T23:12:47.930Z</time>
      </trkpt>
      <trkpt lat="44.74498" lon="-0.24879">
        <ele>84.354359</ele>
        <time>2022-07-11T23:12:57.148Z</time>
      </trkpt>
      <trkpt lat="44.74473" lon="-0.24939">
        <ele>83.38252</ele>
        <time>2022-07-11T23:13:04.340Z</time>
      </trkpt>
      <trkpt lat="44.74442" lon="-0.24992">
        <ele>82.401899</ele>
        <time>2022-07-11T23:13:11.414Z</time>
      </trkpt>
      <trkpt lat="44.74329" lon="-0.25116">
        <ele>79.150326</ele>
        <time>2022-07-11T23:13:31.425Z</time>
      </trkpt>
      <trkpt lat="44.73924" lon="-0.25545">
        <ele>71.117733</ele>
        <time>2022-07-11T23:14:48.117Z</time>
      </trkpt>
      <trkpt lat="44.73834" lon="-0.25634">
        <ele>70.096414</ele>
        <time>2022-07-11T23:15:06.590Z</time>
      </trkpt>
      <trkpt lat="44.73805" lon="-0.25647">
        <ele>69.942701</ele>
        <time>2022-07-11T23:15:11.751Z</time>
      </trkpt>
      <trkpt lat="44.73536" lon="-0.25696">
        <ele>68.653912</ele>
        <time>2022-07-11T23:15:56.806Z</time>
      </trkpt>
      <trkpt lat="44.73503" lon="-0.25722">
        <ele>68.484894</ele>
        <time>2022-07-11T23:16:03.347Z</time>
      </trkpt>
      <trkpt lat="44.73486" lon="-0.25755">
        <ele>68.489518</ele>
        <time>2022-07-11T23:16:08.419Z</time>
      </trkpt>
      <trkpt lat="44.7347" lon="-0.25735">
        <ele>68.494856</ele>
        <time>2022-07-11T23:16:12.344Z</time>
      </trkpt>
      <trkpt lat="44.73465" lon="-0.25721">
        <ele>68.497662</ele>
        <time>2022-07-11T23:16:14.406Z</time>
      </trkpt>
      <trkpt lat="44.73454" lon="-0.25483">
        <ele>68.36769</ele>
        <time>2022-07-11T23:16:46.662Z</time>
      </trkpt>
      <trkpt lat="44.73438" lon="-0.25406">
        <ele>68.189272</ele>
        <time>2022-07-11T23:16:56.944Z</time>
      </trkpt>
      <trkpt lat="44.73422" lon="-0.25368">
        <ele>68.088026</ele>
        <time>2022-07-11T23:17:02.654Z</time>
      </trkpt>
      <trkpt lat="44.73415" lon="-0.25364">
        <ele>68.066826</ele>
        <time>2022-07-11T23:17:03.807Z</time>
      </trkpt>
      <trkpt lat="44.73296" lon="-0.25391">
        <ele>67.080777</ele>
        <time>2022-07-11T23:17:23.922Z</time>
      </trkpt>
      <trkpt lat="44.73253" lon="-0.25424">
        <ele>66.57764</ele>
        <time>2022-07-11T23:17:31.968Z</time>
      </trkpt>
      <trkpt lat="44.7315" lon="-0.25467">
        <ele>65.940957</ele>
        <time>2022-07-11T23:17:49.752Z</time>
      </trkpt>
      <trkpt lat="44.7313" lon="-0.25301">
        <ele>65.582736</ele>
        <time>2022-07-11T23:18:10.718Z</time>
      </trkpt>
      <trkpt lat="44.73114" lon="-0.2522">
        <ele>65.582736</ele>
        <time>2022-07-11T23:18:23.945Z</time>
      </trkpt>
      <trkpt lat="44.73098" lon="-0.25171">
        <ele>65.582736</ele>
        <time>2022-07-11T23:18:32.431Z</time>
      </trkpt>
      <trkpt lat="44.73055" lon="-0.25057">
        <ele>65.582736</ele>
        <time>2022-07-11T23:18:52.838Z</time>
      </trkpt>
    </trkseg>
  </trk>
</gpx>